<?xml version='1.0' encoding='UTF-8'?><gpx version="1.1" creator="JPX - https://github.com/jenetics/jpx" xmlns="http://www.topografix.com/GPX/1/1"><trk><trkseg><trkpt lat="44.61149539623223" lon="11.66669053364221"><ele>7.999999999999999</ele><time>2026-03-22T13:34:05Z</time></trkpt><trkpt lat="44.61150547125277" lon="11.666798574792638"><ele>8.0</ele><time>2026-03-22T13:34:08Z</time></trkpt><trkpt lat="44.611491448461656" lon="11.666889642012563"><ele>8.0</ele><time>2026-03-22T13:34:12Z</time></trkpt><trkpt lat="44.61149448940828" lon="11.667051860424781"><ele>8.0</ele><time>2026-03-22T13:34:26Z</time></trkpt><trkpt lat="44.61148503101448" lon="11.66719795797746"><ele>7.999999999999999</ele><time>2026-03-22T13:34:28Z</time></trkpt><trkpt lat="44.61147627487887" lon="11.667288922706357"><ele>8.0</ele><time>2026-03-22T13:34:29Z</time></trkpt><trkpt lat="44.611469223529305" lon="11.667406802404868"><ele>7.833333333333333</ele><time>2026-03-22T13:34:30Z</time></trkpt><trkpt lat="44.61146239556516" lon="11.667534077572915"><ele>7.666666666666666</ele><time>2026-03-22T13:34:31Z</time></trkpt><trkpt lat="44.61145587705031" lon="11.667632683709332"><ele>7.5</ele><time>2026-03-22T13:34:32Z</time></trkpt><trkpt lat="44.61144365165795" lon="11.66776761771441"><ele>7.333333333333334</ele><time>2026-03-22T13:34:34Z</time></trkpt><trkpt lat="44.61144864085766" lon="11.667875495383388"><ele>7.166666666666667</ele><time>2026-03-22T13:34:37Z</time></trkpt><trkpt lat="44.61144408560269" lon="11.667984817888795"><ele>7.0</ele><time>2026-03-22T13:34:42Z</time></trkpt><trkpt lat="44.6115861792852" lon="11.667998801032873"><ele>6.6</ele><time>2026-03-22T13:34:43Z</time></trkpt><trkpt lat="44.61165203208757" lon="11.668013581537164"><ele>6.199999999999999</ele><time>2026-03-22T13:34:44Z</time></trkpt><trkpt lat="44.61177875564017" lon="11.668037137606092"><ele>5.8</ele><time>2026-03-22T13:34:45.999Z</time></trkpt><trkpt lat="44.61186591367256" lon="11.668053737196331"><ele>5.4</ele><time>2026-03-22T13:34:46.999Z</time></trkpt><trkpt lat="44.6119511386141" lon="11.668074517765255"><ele>5.0</ele><time>2026-03-22T13:34:47.999Z</time></trkpt><trkpt lat="44.612048047404734" lon="11.668099286746646"><ele>4.75</ele><time>2026-03-22T13:34:48.999Z</time></trkpt><trkpt lat="44.61216310614364" lon="11.668127707308795"><ele>4.5</ele><time>2026-03-22T13:34:49.999Z</time></trkpt><trkpt lat="44.612285720047126" lon="11.6681535961546"><ele>4.25</ele><time>2026-03-22T13:34:50.999Z</time></trkpt><trkpt lat="44.6123970786809" lon="11.66817832457274"><ele>4.0</ele><time>2026-03-22T13:34:51.999Z</time></trkpt><trkpt lat="44.612513040746855" lon="11.668211447499532"><ele>4.0</ele><time>2026-03-22T13:34:52.999Z</time></trkpt><trkpt lat="44.61263623505546" lon="11.668242543320273"><ele>4.0</ele><time>2026-03-22T13:34:53.999Z</time></trkpt><trkpt lat="44.6127675471428" lon="11.668267744791045"><ele>4.0</ele><time>2026-03-22T13:34:54.999Z</time></trkpt><trkpt lat="44.61289277966101" lon="11.668295395211024"><ele>4.0</ele><time>2026-03-22T13:34:55.999Z</time></trkpt><trkpt lat="44.613003357586" lon="11.66832441280044"><ele>4.0</ele><time>2026-03-22T13:34:56.999Z</time></trkpt><trkpt lat="44.61311569548087" lon="11.668347102109946"><ele>4.0</ele><time>2026-03-22T13:34:57.999Z</time></trkpt><trkpt lat="44.61322693890441" lon="11.66836520952934"><ele>4.0</ele><time>2026-03-22T13:34:58.999Z</time></trkpt><trkpt lat="44.6133381313379" lon="11.66838454586112"><ele>4.0</ele><time>2026-03-22T13:34:59.999Z</time></trkpt><trkpt lat="44.6134375833733" lon="11.66841160689816"><ele>4.0</ele><time>2026-03-22T13:35:01Z</time></trkpt><trkpt lat="44.61352823076374" lon="11.668434254998072"><ele>4.0</ele><time>2026-03-22T13:35:02Z</time></trkpt><trkpt lat="44.61361978609239" lon="11.668448101934286"><ele>4.0</ele><time>2026-03-22T13:35:03Z</time></trkpt><trkpt lat="44.61370336587501" lon="11.668464437312355"><ele>4.0</ele><time>2026-03-22T13:35:04Z</time></trkpt><trkpt lat="44.6137811268464" lon="11.668481353558713"><ele>4.0</ele><time>2026-03-22T13:35:05Z</time></trkpt><trkpt lat="44.613892300464805" lon="11.668495767150114"><ele>4.0</ele><time>2026-03-22T13:35:07Z</time></trkpt><trkpt lat="44.6139896214072" lon="11.668541012708822"><ele>3.9999999999999996</ele><time>2026-03-22T13:35:09Z</time></trkpt><trkpt lat="44.61405793560602" lon="11.668684382233678"><ele>4.0</ele><time>2026-03-22T13:35:11Z</time></trkpt><trkpt lat="44.61405803233817" lon="11.668775966723077"><ele>4.0</ele><time>2026-03-22T13:35:12Z</time></trkpt><trkpt lat="44.614061469922575" lon="11.668878601507222"><ele>4.0</ele><time>2026-03-22T13:35:13Z</time></trkpt><trkpt lat="44.61406936592395" lon="11.668993402150887"><ele>3.9999999999999996</ele><time>2026-03-22T13:35:14Z</time></trkpt><trkpt lat="44.61407923849186" lon="11.669108925170663"><ele>4.0</ele><time>2026-03-22T13:35:15Z</time></trkpt><trkpt lat="44.61409125645389" lon="11.669234202263537"><ele>4.0</ele><time>2026-03-22T13:35:16Z</time></trkpt><trkpt lat="44.6141117199505" lon="11.669373324185074"><ele>4.0</ele><time>2026-03-22T13:35:17Z</time></trkpt><trkpt lat="44.61413319071599" lon="11.66951313591123"><ele>4.0</ele><time>2026-03-22T13:35:18Z</time></trkpt><trkpt lat="44.614149599079724" lon="11.669650550786915"><ele>4.0</ele><time>2026-03-22T13:35:19Z</time></trkpt><trkpt lat="44.61414849158718" lon="11.669803236146874"><ele>4.0</ele><time>2026-03-22T13:35:20Z</time></trkpt><trkpt lat="44.6141349257996" lon="11.669967412912904"><ele>3.8000000000000003</ele><time>2026-03-22T13:35:21Z</time></trkpt><trkpt lat="44.614116588347635" lon="11.670128064065079"><ele>3.6000000000000005</ele><time>2026-03-22T13:35:22Z</time></trkpt><trkpt lat="44.61410039858436" lon="11.670286617488454"><ele>3.4</ele><time>2026-03-22T13:35:23Z</time></trkpt><trkpt lat="44.61409194770536" lon="11.670432701187517"><ele>3.2</ele><time>2026-03-22T13:35:24Z</time></trkpt><trkpt lat="44.61408223654491" lon="11.670576181256667"><ele>3.0</ele><time>2026-03-22T13:35:25Z</time></trkpt><trkpt lat="44.614074368520086" lon="11.670723081068662"><ele>3.5</ele><time>2026-03-22T13:35:26Z</time></trkpt><trkpt lat="44.61406272915321" lon="11.670880379110587"><ele>4.0</ele><time>2026-03-22T13:35:27Z</time></trkpt><trkpt lat="44.61405213440712" lon="11.671043015569255"><ele>4.5</ele><time>2026-03-22T13:35:28Z</time></trkpt><trkpt lat="44.61404141589919" lon="11.671204994506782"><ele>5.0</ele><time>2026-03-22T13:35:29Z</time></trkpt><trkpt lat="44.614024990612656" lon="11.671375120905681"><ele>5.0</ele><time>2026-03-22T13:35:30Z</time></trkpt><trkpt lat="44.61400858980904" lon="11.67155167579184"><ele>5.0</ele><time>2026-03-22T13:35:31Z</time></trkpt><trkpt lat="44.61399243812073" lon="11.671736320001141"><ele>5.0</ele><time>2026-03-22T13:35:32Z</time></trkpt><trkpt lat="44.61397464908712" lon="11.671921051837401"><ele>5.0</ele><time>2026-03-22T13:35:33Z</time></trkpt><trkpt lat="44.61396066344638" lon="11.67210562820271"><ele>5.25</ele><time>2026-03-22T13:35:34Z</time></trkpt><trkpt lat="44.613948030984886" lon="11.672288990659375"><ele>5.5</ele><time>2026-03-22T13:35:35Z</time></trkpt><trkpt lat="44.61393106980295" lon="11.672461671075453"><ele>5.75</ele><time>2026-03-22T13:35:36Z</time></trkpt><trkpt lat="44.61391566018917" lon="11.67262904798651"><ele>6.0</ele><time>2026-03-22T13:35:37Z</time></trkpt><trkpt lat="44.61389768816548" lon="11.672800589684737"><ele>6.0</ele><time>2026-03-22T13:35:38Z</time></trkpt><trkpt lat="44.61388245725251" lon="11.672978877703411"><ele>6.0</ele><time>2026-03-22T13:35:39Z</time></trkpt><trkpt lat="44.61386846680364" lon="11.673167591215597"><ele>6.0</ele><time>2026-03-22T13:35:40Z</time></trkpt><trkpt lat="44.61385320663091" lon="11.67335969135254"><ele>6.0</ele><time>2026-03-22T13:35:41Z</time></trkpt><trkpt lat="44.61383902284896" lon="11.673549234861197"><ele>6.0</ele><time>2026-03-22T13:35:42Z</time></trkpt><trkpt lat="44.6138221354485" lon="11.673739467217628"><ele>6.0</ele><time>2026-03-22T13:35:43Z</time></trkpt><trkpt lat="44.613808684217155" lon="11.673930807433928"><ele>6.0</ele><time>2026-03-22T13:35:44Z</time></trkpt><trkpt lat="44.61379429608932" lon="11.674121762656503"><ele>6.0</ele><time>2026-03-22T13:35:45Z</time></trkpt><trkpt lat="44.61377856821281" lon="11.674311156007834"><ele>5.75</ele><time>2026-03-22T13:35:46Z</time></trkpt><trkpt lat="44.613764677468716" lon="11.674493927666928"><ele>5.5</ele><time>2026-03-22T13:35:47Z</time></trkpt><trkpt lat="44.61375297662077" lon="11.674662096573337"><ele>5.25</ele><time>2026-03-22T13:35:48Z</time></trkpt><trkpt lat="44.613736978412966" lon="11.674821429337047"><ele>5.0</ele><time>2026-03-22T13:35:49Z</time></trkpt><trkpt lat="44.61372584373334" lon="11.674979368649128"><ele>5.0</ele><time>2026-03-22T13:35:50Z</time></trkpt><trkpt lat="44.61371266813964" lon="11.675141445522183"><ele>5.0</ele><time>2026-03-22T13:35:51Z</time></trkpt><trkpt lat="44.61370079373221" lon="11.67529716121166"><ele>5.0</ele><time>2026-03-22T13:35:52Z</time></trkpt><trkpt lat="44.61368830904691" lon="11.67545506401304"><ele>5.0</ele><time>2026-03-22T13:35:53Z</time></trkpt><trkpt lat="44.6136745427725" lon="11.67561248605305"><ele>5.0</ele><time>2026-03-22T13:35:54Z</time></trkpt><trkpt lat="44.61366017241855" lon="11.675775046925237"><ele>5.0</ele><time>2026-03-22T13:35:55Z</time></trkpt><trkpt lat="44.61364461355369" lon="11.675947036649863"><ele>5.0</ele><time>2026-03-22T13:35:56Z</time></trkpt><trkpt lat="44.61362724750529" lon="11.676121043255518"><ele>5.0</ele><time>2026-03-22T13:35:57Z</time></trkpt><trkpt lat="44.61361519645583" lon="11.676303204633102"><ele>4.75</ele><time>2026-03-22T13:35:58Z</time></trkpt><trkpt lat="44.61360550625373" lon="11.676484363731763"><ele>4.5</ele><time>2026-03-22T13:35:59Z</time></trkpt><trkpt lat="44.61359286540431" lon="11.67666472229518"><ele>4.25</ele><time>2026-03-22T13:36:00Z</time></trkpt><trkpt lat="44.61357547125053" lon="11.676841404545796"><ele>4.0</ele><time>2026-03-22T13:36:01Z</time></trkpt><trkpt lat="44.61356480603852" lon="11.677013223821225"><ele>4.5</ele><time>2026-03-22T13:36:02Z</time></trkpt><trkpt lat="44.61355048032033" lon="11.677182997522866"><ele>5.0</ele><time>2026-03-22T13:36:03Z</time></trkpt><trkpt lat="44.613533285812075" lon="11.67734865667269"><ele>5.5</ele><time>2026-03-22T13:36:04Z</time></trkpt><trkpt lat="44.61351798534403" lon="11.677518653310354"><ele>6.0</ele><time>2026-03-22T13:36:05Z</time></trkpt><trkpt lat="44.613500753718064" lon="11.677681842483711"><ele>6.0</ele><time>2026-03-22T13:36:06Z</time></trkpt><trkpt lat="44.61349172575876" lon="11.677826695945733"><ele>6.0</ele><time>2026-03-22T13:36:07Z</time></trkpt><trkpt lat="44.61348002250859" lon="11.67796019682834"><ele>6.0</ele><time>2026-03-22T13:36:08Z</time></trkpt><trkpt lat="44.6134680287209" lon="11.678097880284774"><ele>6.0</ele><time>2026-03-22T13:36:09Z</time></trkpt><trkpt lat="44.61345752417923" lon="11.678246171984922"><ele>6.0</ele><time>2026-03-22T13:36:10Z</time></trkpt><trkpt lat="44.61344642771078" lon="11.67839725889297"><ele>6.0</ele><time>2026-03-22T13:36:11Z</time></trkpt><trkpt lat="44.613433816637865" lon="11.678536554288613"><ele>6.0</ele><time>2026-03-22T13:36:12Z</time></trkpt><trkpt lat="44.61342537836449" lon="11.678670957622977"><ele>6.0</ele><time>2026-03-22T13:36:13Z</time></trkpt><trkpt lat="44.61341349067725" lon="11.678818111099885"><ele>6.0</ele><time>2026-03-22T13:36:14Z</time></trkpt><trkpt lat="44.613399945710036" lon="11.678973619269104"><ele>6.0</ele><time>2026-03-22T13:36:15Z</time></trkpt><trkpt lat="44.61338782994856" lon="11.679132266499971"><ele>5.5</ele><time>2026-03-22T13:36:16Z</time></trkpt><trkpt lat="44.6133782096453" lon="11.67928818808337"><ele>5.0</ele><time>2026-03-22T13:36:17Z</time></trkpt><trkpt lat="44.61337089307545" lon="11.679449626174353"><ele>4.5</ele><time>2026-03-22T13:36:18Z</time></trkpt><trkpt lat="44.61336389502286" lon="11.679607915214154"><ele>4.0</ele><time>2026-03-22T13:36:19Z</time></trkpt><trkpt lat="44.613357312565924" lon="11.679768969111487"><ele>4.0</ele><time>2026-03-22T13:36:20Z</time></trkpt><trkpt lat="44.61334611248672" lon="11.679935097190873"><ele>4.0</ele><time>2026-03-22T13:36:21Z</time></trkpt><trkpt lat="44.6133301936317" lon="11.680098366604138"><ele>4.0</ele><time>2026-03-22T13:36:22Z</time></trkpt><trkpt lat="44.61331418088202" lon="11.68024962713555"><ele>4.0</ele><time>2026-03-22T13:36:23Z</time></trkpt><trkpt lat="44.61329661238503" lon="11.680391537971875"><ele>4.0</ele><time>2026-03-22T13:36:24Z</time></trkpt><trkpt lat="44.61328064582928" lon="11.680521982397531"><ele>4.0</ele><time>2026-03-22T13:36:25Z</time></trkpt><trkpt lat="44.61328296336358" lon="11.680663827827972"><ele>4.0</ele><time>2026-03-22T13:36:26Z</time></trkpt><trkpt lat="44.61331154113994" lon="11.680817085352299"><ele>4.0</ele><time>2026-03-22T13:36:27Z</time></trkpt><trkpt lat="44.61336167901135" lon="11.680970100745888"><ele>4.0</ele><time>2026-03-22T13:36:28Z</time></trkpt><trkpt lat="44.613431003788676" lon="11.681102755073237"><ele>4.0</ele><time>2026-03-22T13:36:29Z</time></trkpt><trkpt lat="44.6135240157159" lon="11.681213308397444"><ele>4.0</ele><time>2026-03-22T13:36:30Z</time></trkpt><trkpt lat="44.613636175762466" lon="11.681295029775404"><ele>4.0</ele><time>2026-03-22T13:36:31Z</time></trkpt><trkpt lat="44.613759996086785" lon="11.681363351903597"><ele>4.0</ele><time>2026-03-22T13:36:32Z</time></trkpt><trkpt lat="44.61389090534539" lon="11.681434267623501"><ele>4.0</ele><time>2026-03-22T13:36:33Z</time></trkpt><trkpt lat="44.61413717644887" lon="11.681566242969568"><ele>4.0</ele><time>2026-03-22T13:36:35Z</time></trkpt><trkpt lat="44.61425597354192" lon="11.681632010542634"><ele>4.0</ele><time>2026-03-22T13:36:36Z</time></trkpt><trkpt lat="44.61436788286454" lon="11.681698662508579"><ele>4.0</ele><time>2026-03-22T13:36:37Z</time></trkpt><trkpt lat="44.61446985465099" lon="11.681763000864825"><ele>4.0</ele><time>2026-03-22T13:36:38Z</time></trkpt><trkpt lat="44.614572710143776" lon="11.681822931000553"><ele>4.0</ele><time>2026-03-22T13:36:39Z</time></trkpt><trkpt lat="44.614682245531796" lon="11.681883355419185"><ele>4.0</ele><time>2026-03-22T13:36:40Z</time></trkpt><trkpt lat="44.61479188182762" lon="11.681945048350041"><ele>4.25</ele><time>2026-03-22T13:36:41Z</time></trkpt><trkpt lat="44.6149015677586" lon="11.68200146540047"><ele>4.5</ele><time>2026-03-22T13:36:42Z</time></trkpt><trkpt lat="44.61501021663202" lon="11.682065837425924"><ele>4.75</ele><time>2026-03-22T13:36:43Z</time></trkpt><trkpt lat="44.61512042660481" lon="11.682130314721757"><ele>5.0</ele><time>2026-03-22T13:36:44Z</time></trkpt><trkpt lat="44.61523087489998" lon="11.682188941083227"><ele>5.25</ele><time>2026-03-22T13:36:45Z</time></trkpt><trkpt lat="44.6153447251819" lon="11.68225049466811"><ele>5.5</ele><time>2026-03-22T13:36:46Z</time></trkpt><trkpt lat="44.61546039983554" lon="11.682316348808897"><ele>5.75</ele><time>2026-03-22T13:36:47Z</time></trkpt><trkpt lat="44.615575495369086" lon="11.682384914772834"><ele>6.0</ele><time>2026-03-22T13:36:48Z</time></trkpt><trkpt lat="44.6156953382933" lon="11.682451589639463"><ele>6.0</ele><time>2026-03-22T13:36:49Z</time></trkpt><trkpt lat="44.61581605926212" lon="11.68251990136644"><ele>6.0</ele><time>2026-03-22T13:36:50Z</time></trkpt><trkpt lat="44.61593540596809" lon="11.682586405001592"><ele>6.0</ele><time>2026-03-22T13:36:51Z</time></trkpt><trkpt lat="44.61604946481067" lon="11.68265269040109"><ele>6.0</ele><time>2026-03-22T13:36:51.999Z</time></trkpt><trkpt lat="44.61615846745907" lon="11.682713517676127"><ele>6.199999999999999</ele><time>2026-03-22T13:36:52.999Z</time></trkpt><trkpt lat="44.61626293148189" lon="11.682765688946008"><ele>6.3999999999999995</ele><time>2026-03-22T13:36:53.999Z</time></trkpt><trkpt lat="44.61636339481658" lon="11.682805291123563"><ele>6.6</ele><time>2026-03-22T13:36:54.999Z</time></trkpt><trkpt lat="44.61646184306287" lon="11.682844489133618"><ele>6.8</ele><time>2026-03-22T13:36:55.999Z</time></trkpt><trkpt lat="44.61655760086644" lon="11.682888651883452"><ele>7.0</ele><time>2026-03-22T13:36:56.999Z</time></trkpt><trkpt lat="44.616644212171686" lon="11.68292473578167"><ele>7.000000000000001</ele><time>2026-03-22T13:36:57.999Z</time></trkpt><trkpt lat="44.616720779117394" lon="11.682955859495975"><ele>7.0</ele><time>2026-03-22T13:36:58.999Z</time></trkpt><trkpt lat="44.616790995081665" lon="11.682989849962736"><ele>7.0</ele><time>2026-03-22T13:36:59.999Z</time></trkpt><trkpt lat="44.61686363751092" lon="11.683013717280044"><ele>7.0</ele><time>2026-03-22T13:37:00.999Z</time></trkpt><trkpt lat="44.61693702149339" lon="11.683037124315035"><ele>7.000000000000001</ele><time>2026-03-22T13:37:01.999Z</time></trkpt><trkpt lat="44.61699987738613" lon="11.683066930970808"><ele>7.0</ele><time>2026-03-22T13:37:02.999Z</time></trkpt><trkpt lat="44.61707750479783" lon="11.683160281011993"><ele>7.0</ele><time>2026-03-22T13:37:04.999Z</time></trkpt><trkpt lat="44.6170401345023" lon="11.683383738338396"><ele>6.999999999999999</ele><time>2026-03-22T13:37:06.999Z</time></trkpt><trkpt lat="44.61700109786199" lon="11.683492756569683"><ele>6.999999999999999</ele><time>2026-03-22T13:37:07.999Z</time></trkpt><trkpt lat="44.61696476526511" lon="11.683607587968098"><ele>7.0</ele><time>2026-03-22T13:37:08.999Z</time></trkpt><trkpt lat="44.616933988971915" lon="11.683727970937198"><ele>7.0</ele><time>2026-03-22T13:37:09.999Z</time></trkpt><trkpt lat="44.61689921832634" lon="11.683868698443511"><ele>7.0</ele><time>2026-03-22T13:37:10.999Z</time></trkpt><trkpt lat="44.61685644289879" lon="11.68402936954094"><ele>7.0</ele><time>2026-03-22T13:37:11.999Z</time></trkpt><trkpt lat="44.61681141661663" lon="11.684187594367408"><ele>7.0</ele><time>2026-03-22T13:37:12.999Z</time></trkpt><trkpt lat="44.61677137121451" lon="11.684341526553585"><ele>7.0</ele><time>2026-03-22T13:37:13.999Z</time></trkpt><trkpt lat="44.616730963490326" lon="11.684510070911271"><ele>6.5</ele><time>2026-03-22T13:37:14.999Z</time></trkpt><trkpt lat="44.61668235030507" lon="11.684692332562001"><ele>6.0</ele><time>2026-03-22T13:37:15.999Z</time></trkpt><trkpt lat="44.616628701348986" lon="11.684886075473244"><ele>5.5</ele><time>2026-03-22T13:37:16.999Z</time></trkpt><trkpt lat="44.61657667186676" lon="11.685079607110175"><ele>5.0</ele><time>2026-03-22T13:37:17.999Z</time></trkpt><trkpt lat="44.616525424635874" lon="11.685263055984095"><ele>4.333333333333334</ele><time>2026-03-22T13:37:18.999Z</time></trkpt><trkpt lat="44.61647454743677" lon="11.685465278251483"><ele>3.666666666666667</ele><time>2026-03-22T13:37:19.999Z</time></trkpt><trkpt lat="44.61641947665947" lon="11.6856801721204"><ele>3.0</ele><time>2026-03-22T13:37:20.999Z</time></trkpt><trkpt lat="44.616362249695314" lon="11.685901659734538"><ele>3.0</ele><time>2026-03-22T13:37:21.999Z</time></trkpt><trkpt lat="44.61630075150044" lon="11.686131079824403"><ele>3.0</ele><time>2026-03-22T13:37:22.999Z</time></trkpt><trkpt lat="44.616239976285165" lon="11.686360329256443"><ele>3.0</ele><time>2026-03-22T13:37:23.999Z</time></trkpt><trkpt lat="44.6161847890234" lon="11.686575405936258"><ele>2.3333333333333335</ele><time>2026-03-22T13:37:24.999Z</time></trkpt><trkpt lat="44.61612733016126" lon="11.686788815800806"><ele>1.6666666666666665</ele><time>2026-03-22T13:37:25.999Z</time></trkpt><trkpt lat="44.61607049427764" lon="11.686998318439606"><ele>1.0</ele><time>2026-03-22T13:37:26.999Z</time></trkpt><trkpt lat="44.61601333097875" lon="11.687212247307121"><ele>1.0</ele><time>2026-03-22T13:37:28Z</time></trkpt><trkpt lat="44.6159569999607" lon="11.687429436410268"><ele>1.0</ele><time>2026-03-22T13:37:29Z</time></trkpt><trkpt lat="44.615898196617444" lon="11.687651730696071"><ele>1.0</ele><time>2026-03-22T13:37:30Z</time></trkpt><trkpt lat="44.615841104113706" lon="11.687875142110405"><ele>1.6666666666666665</ele><time>2026-03-22T13:37:31Z</time></trkpt><trkpt lat="44.615783278286955" lon="11.688095381244555"><ele>2.3333333333333335</ele><time>2026-03-22T13:37:32Z</time></trkpt><trkpt lat="44.6157248410137" lon="11.688314802974302"><ele>3.0</ele><time>2026-03-22T13:37:33Z</time></trkpt><trkpt lat="44.615665192149564" lon="11.688540637611686"><ele>3.666666666666667</ele><time>2026-03-22T13:37:34Z</time></trkpt><trkpt lat="44.615605578148994" lon="11.688758768922952"><ele>4.333333333333334</ele><time>2026-03-22T13:37:35Z</time></trkpt><trkpt lat="44.61554739992498" lon="11.688974056870979"><ele>5.0</ele><time>2026-03-22T13:37:36Z</time></trkpt><trkpt lat="44.615488147622244" lon="11.689195351653728"><ele>5.0</ele><time>2026-03-22T13:37:37Z</time></trkpt><trkpt lat="44.61542184877971" lon="11.689423415691891"><ele>5.0</ele><time>2026-03-22T13:37:38Z</time></trkpt><trkpt lat="44.61535805044892" lon="11.68965942823533"><ele>5.0</ele><time>2026-03-22T13:37:39Z</time></trkpt><trkpt lat="44.61529258838165" lon="11.68989464709326"><ele>5.0</ele><time>2026-03-22T13:37:40Z</time></trkpt><trkpt lat="44.61522826878117" lon="11.690132512898504"><ele>5.0</ele><time>2026-03-22T13:37:41Z</time></trkpt><trkpt lat="44.61516579851012" lon="11.690366986510279"><ele>5.0</ele><time>2026-03-22T13:37:42Z</time></trkpt><trkpt lat="44.61510319317514" lon="11.69060056043102"><ele>5.0</ele><time>2026-03-22T13:37:43Z</time></trkpt><trkpt lat="44.61503792967402" lon="11.690835814906373"><ele>5.0</ele><time>2026-03-22T13:37:44Z</time></trkpt><trkpt lat="44.61497333716865" lon="11.691068419605926"><ele>5.0</ele><time>2026-03-22T13:37:45Z</time></trkpt><trkpt lat="44.614910031222855" lon="11.691299572690111"><ele>4.333333333333334</ele><time>2026-03-22T13:37:46Z</time></trkpt><trkpt lat="44.61484522361331" lon="11.69153651986832"><ele>3.666666666666667</ele><time>2026-03-22T13:37:47Z</time></trkpt><trkpt lat="44.61478111252758" lon="11.69176988414461"><ele>3.0</ele><time>2026-03-22T13:37:48Z</time></trkpt><trkpt lat="44.61471613205529" lon="11.692001757026182"><ele>3.0</ele><time>2026-03-22T13:37:49Z</time></trkpt><trkpt lat="44.61465320329571" lon="11.692229239329421"><ele>3.0</ele><time>2026-03-22T13:37:50Z</time></trkpt><trkpt lat="44.61459098500987" lon="11.692455947620479"><ele>3.0</ele><time>2026-03-22T13:37:51Z</time></trkpt><trkpt lat="44.614528766388496" lon="11.69267808071386"><ele>2.6666666666666665</ele><time>2026-03-22T13:37:52Z</time></trkpt><trkpt lat="44.61447078319213" lon="11.692889436441153"><ele>2.333333333333333</ele><time>2026-03-22T13:37:53Z</time></trkpt><trkpt lat="44.614413073251114" lon="11.693088524289688"><ele>2.0</ele><time>2026-03-22T13:37:54Z</time></trkpt><trkpt lat="44.61435683565557" lon="11.693275062645702"><ele>2.0</ele><time>2026-03-22T13:37:55Z</time></trkpt><trkpt lat="44.61430395531924" lon="11.693457113683687"><ele>2.0</ele><time>2026-03-22T13:37:56Z</time></trkpt><trkpt lat="44.614253212209476" lon="11.69364203319105"><ele>2.0</ele><time>2026-03-22T13:37:57Z</time></trkpt><trkpt lat="44.61420411634546" lon="11.693811529632313"><ele>2.0</ele><time>2026-03-22T13:37:58Z</time></trkpt><trkpt lat="44.61416379455808" lon="11.69396150899973"><ele>2.4000000000000004</ele><time>2026-03-22T13:37:59Z</time></trkpt><trkpt lat="44.61412202747509" lon="11.694102437285027"><ele>2.8000000000000003</ele><time>2026-03-22T13:38:00Z</time></trkpt><trkpt lat="44.614080483327236" lon="11.694237801406395"><ele>3.2</ele><time>2026-03-22T13:38:01Z</time></trkpt><trkpt lat="44.61403640082229" lon="11.694376360556765"><ele>3.6</ele><time>2026-03-22T13:38:02Z</time></trkpt><trkpt lat="44.61398531011744" lon="11.694506047996928"><ele>4.0</ele><time>2026-03-22T13:38:03Z</time></trkpt><trkpt lat="44.61392557900467" lon="11.694619748205286"><ele>4.0</ele><time>2026-03-22T13:38:04Z</time></trkpt><trkpt lat="44.613845830404216" lon="11.694710515254183"><ele>4.0</ele><time>2026-03-22T13:38:05Z</time></trkpt><trkpt lat="44.61374399869178" lon="11.69477145422842"><ele>4.0</ele><time>2026-03-22T13:38:06Z</time></trkpt><trkpt lat="44.61362626217027" lon="11.694789649766472"><ele>4.0</ele><time>2026-03-22T13:38:07Z</time></trkpt><trkpt lat="44.613501656869296" lon="11.69473295395834"><ele>4.0</ele><time>2026-03-22T13:38:08Z</time></trkpt><trkpt lat="44.61335674082651" lon="11.694707752540092"><ele>4.0</ele><time>2026-03-22T13:38:09Z</time></trkpt><trkpt lat="44.61319283686179" lon="11.694643457040593"><ele>4.0</ele><time>2026-03-22T13:38:10Z</time></trkpt><trkpt lat="44.61300774077949" lon="11.694575289941309"><ele>4.0</ele><time>2026-03-22T13:38:11Z</time></trkpt><trkpt lat="44.612838924779915" lon="11.694499040001103"><ele>4.0</ele><time>2026-03-22T13:38:12Z</time></trkpt><trkpt lat="44.612691324607724" lon="11.69445166412405"><ele>4.0</ele><time>2026-03-22T13:38:13Z</time></trkpt><trkpt lat="44.61255692317162" lon="11.694400893299493"><ele>4.5</ele><time>2026-03-22T13:38:14Z</time></trkpt><trkpt lat="44.61243289812477" lon="11.694356177456603"><ele>5.0</ele><time>2026-03-22T13:38:15Z</time></trkpt><trkpt lat="44.61231196173463" lon="11.694310521452078"><ele>5.5</ele><time>2026-03-22T13:38:16Z</time></trkpt><trkpt lat="44.61219184804205" lon="11.69426645161406"><ele>6.0</ele><time>2026-03-22T13:38:17Z</time></trkpt><trkpt lat="44.61207164646441" lon="11.694222221391977"><ele>5.75</ele><time>2026-03-22T13:38:18Z</time></trkpt><trkpt lat="44.61195864931952" lon="11.694181104915144"><ele>5.5</ele><time>2026-03-22T13:38:19Z</time></trkpt><trkpt lat="44.61184714205123" lon="11.694142910025514"><ele>5.25</ele><time>2026-03-22T13:38:20Z</time></trkpt><trkpt lat="44.61172947633336" lon="11.694116748874741"><ele>5.0</ele><time>2026-03-22T13:38:21Z</time></trkpt><trkpt lat="44.6116013274459" lon="11.694125365183147"><ele>5.0</ele><time>2026-03-22T13:38:22Z</time></trkpt><trkpt lat="44.611471464868515" lon="11.694171147980596"><ele>5.0</ele><time>2026-03-22T13:38:23Z</time></trkpt><trkpt lat="44.61134515038591" lon="11.694262191391541"><ele>5.0</ele><time>2026-03-22T13:38:24Z</time></trkpt><trkpt lat="44.61122341101816" lon="11.694376415696569"><ele>5.0</ele><time>2026-03-22T13:38:25Z</time></trkpt><trkpt lat="44.611101393262146" lon="11.69451141323558"><ele>4.666666666666667</ele><time>2026-03-22T13:38:26Z</time></trkpt><trkpt lat="44.61098193586843" lon="11.694649320671973"><ele>4.333333333333333</ele><time>2026-03-22T13:38:27Z</time></trkpt><trkpt lat="44.61086345655945" lon="11.694778049366628"><ele>4.0</ele><time>2026-03-22T13:38:28Z</time></trkpt><trkpt lat="44.61074478811386" lon="11.694914158257607"><ele>4.0</ele><time>2026-03-22T13:38:29Z</time></trkpt><trkpt lat="44.61060814270821" lon="11.69504563624745"><ele>4.0</ele><time>2026-03-22T13:38:30Z</time></trkpt><trkpt lat="44.61048943481486" lon="11.695206403299501"><ele>4.0</ele><time>2026-03-22T13:38:31Z</time></trkpt><trkpt lat="44.61036457178705" lon="11.695340740742438"><ele>3.333333333333333</ele><time>2026-03-22T13:38:32Z</time></trkpt><trkpt lat="44.6102366296338" lon="11.695483406570998"><ele>2.6666666666666665</ele><time>2026-03-22T13:38:33Z</time></trkpt><trkpt lat="44.610102137692074" lon="11.695636419335871"><ele>2.0</ele><time>2026-03-22T13:38:34Z</time></trkpt><trkpt lat="44.609963924874016" lon="11.695790399883805"><ele>2.0</ele><time>2026-03-22T13:38:35Z</time></trkpt><trkpt lat="44.609829039035" lon="11.695941652420302"><ele>2.0</ele><time>2026-03-22T13:38:36Z</time></trkpt><trkpt lat="44.60969708042829" lon="11.696090688206757"><ele>2.0</ele><time>2026-03-22T13:38:37Z</time></trkpt><trkpt lat="44.609563272501745" lon="11.696239294405261"><ele>3.333333333333333</ele><time>2026-03-22T13:38:38Z</time></trkpt><trkpt lat="44.60943054355915" lon="11.696388584890624"><ele>4.666666666666667</ele><time>2026-03-22T13:38:39Z</time></trkpt><trkpt lat="44.6092940712714" lon="11.696539658782076"><ele>6.0</ele><time>2026-03-22T13:38:40Z</time></trkpt><trkpt lat="44.60915838162995" lon="11.696692728290609"><ele>6.0</ele><time>2026-03-22T13:38:41Z</time></trkpt><trkpt lat="44.60902035303723" lon="11.696845507073222"><ele>6.0</ele><time>2026-03-22T13:38:42Z</time></trkpt><trkpt lat="44.608884912290755" lon="11.696996061877751"><ele>6.0</ele><time>2026-03-22T13:38:43Z</time></trkpt><trkpt lat="44.60874766517963" lon="11.697145952402709"><ele>5.333333333333333</ele><time>2026-03-22T13:38:44Z</time></trkpt><trkpt lat="44.60861183518144" lon="11.697300206296676"><ele>4.666666666666666</ele><time>2026-03-22T13:38:45Z</time></trkpt><trkpt lat="44.6084741200567" lon="11.697455402389282"><ele>4.0</ele><time>2026-03-22T13:38:46Z</time></trkpt><trkpt lat="44.608342780763685" lon="11.697605965481712"><ele>3.333333333333333</ele><time>2026-03-22T13:38:47Z</time></trkpt><trkpt lat="44.608208585944844" lon="11.697758376070524"><ele>2.6666666666666665</ele><time>2026-03-22T13:38:48Z</time></trkpt><trkpt lat="44.60807534083623" lon="11.697904499934081"><ele>2.0</ele><time>2026-03-22T13:38:49Z</time></trkpt><trkpt lat="44.607938163349786" lon="11.69805717787918"><ele>3.666666666666667</ele><time>2026-03-22T13:38:50Z</time></trkpt><trkpt lat="44.607796435250414" lon="11.698213750083125"><ele>5.333333333333334</ele><time>2026-03-22T13:38:51Z</time></trkpt><trkpt lat="44.60765356032597" lon="11.69837610436968"><ele>7.0</ele><time>2026-03-22T13:38:52Z</time></trkpt><trkpt lat="44.6075080584768" lon="11.698537780748381"><ele>7.0</ele><time>2026-03-22T13:38:53Z</time></trkpt><trkpt lat="44.607362038633006" lon="11.69869990180404"><ele>7.0</ele><time>2026-03-22T13:38:54Z</time></trkpt><trkpt lat="44.607216905887014" lon="11.698859247945657"><ele>7.0</ele><time>2026-03-22T13:38:55Z</time></trkpt><trkpt lat="44.60707517326508" lon="11.69901934052139"><ele>7.0</ele><time>2026-03-22T13:38:56Z</time></trkpt><trkpt lat="44.606932067117505" lon="11.69917936464753"><ele>7.0</ele><time>2026-03-22T13:38:57Z</time></trkpt><trkpt lat="44.60678229777394" lon="11.699342184467806"><ele>7.0</ele><time>2026-03-22T13:38:57.999Z</time></trkpt><trkpt lat="44.6066421236633" lon="11.699499786930444"><ele>6.666666666666667</ele><time>2026-03-22T13:38:58.999Z</time></trkpt><trkpt lat="44.606500015669255" lon="11.699659217864037"><ele>6.333333333333334</ele><time>2026-03-22T13:38:59.999Z</time></trkpt><trkpt lat="44.60635918327019" lon="11.69982100215848"><ele>6.0</ele><time>2026-03-22T13:39:00.999Z</time></trkpt><trkpt lat="44.60621525176778" lon="11.699985681049244"><ele>6.0</ele><time>2026-03-22T13:39:01.999Z</time></trkpt><trkpt lat="44.60607436259838" lon="11.7001475073689"><ele>6.0</ele><time>2026-03-22T13:39:02.999Z</time></trkpt><trkpt lat="44.60593288852712" lon="11.70030697522817"><ele>6.0</ele><time>2026-03-22T13:39:03.999Z</time></trkpt><trkpt lat="44.60579391906696" lon="11.700461330373898"><ele>5.666666666666667</ele><time>2026-03-22T13:39:04.999Z</time></trkpt><trkpt lat="44.60565497331731" lon="11.700616414174975"><ele>5.333333333333334</ele><time>2026-03-22T13:39:05.999Z</time></trkpt><trkpt lat="44.605518444205906" lon="11.70077079864499"><ele>5.0</ele><time>2026-03-22T13:39:06.999Z</time></trkpt><trkpt lat="44.60537850619267" lon="11.70092850349101"><ele>5.0</ele><time>2026-03-22T13:39:07.999Z</time></trkpt><trkpt lat="44.60524047947483" lon="11.701088830153461"><ele>5.0</ele><time>2026-03-22T13:39:08.999Z</time></trkpt><trkpt lat="44.60510183121024" lon="11.701248620294596"><ele>5.0</ele><time>2026-03-22T13:39:09.999Z</time></trkpt><trkpt lat="44.604965312480566" lon="11.701403991817479"><ele>5.0</ele><time>2026-03-22T13:39:10.999Z</time></trkpt><trkpt lat="44.60482530012822" lon="11.70155926678607"><ele>5.0</ele><time>2026-03-22T13:39:11.999Z</time></trkpt><trkpt lat="44.604685236528816" lon="11.701716459561624"><ele>5.0</ele><time>2026-03-22T13:39:12.999Z</time></trkpt><trkpt lat="44.60454798139068" lon="11.70187442674788"><ele>4.666666666666667</ele><time>2026-03-22T13:39:13.999Z</time></trkpt><trkpt lat="44.60441343163643" lon="11.702026504945177"><ele>4.333333333333333</ele><time>2026-03-22T13:39:14.999Z</time></trkpt><trkpt lat="44.60427904490701" lon="11.702179306323826"><ele>4.0</ele><time>2026-03-22T13:39:15.999Z</time></trkpt><trkpt lat="44.60414399491255" lon="11.702336099548459"><ele>4.0</ele><time>2026-03-22T13:39:16.999Z</time></trkpt><trkpt lat="44.604004288370454" lon="11.702491977677736"><ele>4.0</ele><time>2026-03-22T13:39:17.999Z</time></trkpt><trkpt lat="44.60386227481863" lon="11.702646473453669"><ele>4.0</ele><time>2026-03-22T13:39:18.999Z</time></trkpt><trkpt lat="44.60371984156438" lon="11.70279337764421"><ele>3.6666666666666665</ele><time>2026-03-22T13:39:19.999Z</time></trkpt><trkpt lat="44.60357165227324" lon="11.70292890994626"><ele>3.333333333333333</ele><time>2026-03-22T13:39:20.999Z</time></trkpt><trkpt lat="44.60341551497749" lon="11.703055054796135"><ele>3.0</ele><time>2026-03-22T13:39:21.999Z</time></trkpt><trkpt lat="44.603264620284875" lon="11.703174520121566"><ele>3.0</ele><time>2026-03-22T13:39:22.999Z</time></trkpt><trkpt lat="44.60311396812381" lon="11.703297419761501"><ele>3.0</ele><time>2026-03-22T13:39:23.999Z</time></trkpt><trkpt lat="44.60295989664857" lon="11.703422505168927"><ele>3.0</ele><time>2026-03-22T13:39:25Z</time></trkpt><trkpt lat="44.60280557549971" lon="11.703548304163181"><ele>3.0</ele><time>2026-03-22T13:39:26Z</time></trkpt><trkpt lat="44.60265357331586" lon="11.703671664436143"><ele>3.0</ele><time>2026-03-22T13:39:27Z</time></trkpt><trkpt lat="44.60250242543919" lon="11.703789940062409"><ele>3.0</ele><time>2026-03-22T13:39:28Z</time></trkpt><trkpt lat="44.60235845152856" lon="11.70390985545805"><ele>3.0</ele><time>2026-03-22T13:39:29Z</time></trkpt><trkpt lat="44.602213236647096" lon="11.704032613176622"><ele>3.0</ele><time>2026-03-22T13:39:30Z</time></trkpt><trkpt lat="44.60207157351402" lon="11.704157955663046"><ele>3.0</ele><time>2026-03-22T13:39:31Z</time></trkpt><trkpt lat="44.60193489921629" lon="11.704292643275345"><ele>3.333333333333333</ele><time>2026-03-22T13:39:32Z</time></trkpt><trkpt lat="44.60180521024708" lon="11.704453299631673"><ele>3.6666666666666665</ele><time>2026-03-22T13:39:33Z</time></trkpt><trkpt lat="44.60167230579945" lon="11.704631877093425"><ele>4.0</ele><time>2026-03-22T13:39:34Z</time></trkpt><trkpt lat="44.601540003931" lon="11.704818312360809"><ele>4.0</ele><time>2026-03-22T13:39:35Z</time></trkpt><trkpt lat="44.60141658898932" lon="11.704992689564866"><ele>4.0</ele><time>2026-03-22T13:39:36Z</time></trkpt><trkpt lat="44.60129569024175" lon="11.70513579940355"><ele>4.0</ele><time>2026-03-22T13:39:37Z</time></trkpt><trkpt lat="44.60119171139142" lon="11.705280468723162"><ele>4.0</ele><time>2026-03-22T13:39:38Z</time></trkpt><trkpt lat="44.601085694295094" lon="11.705426926577825"><ele>4.0</ele><time>2026-03-22T13:39:39Z</time></trkpt><trkpt lat="44.600979690005815" lon="11.705573366742305"><ele>4.0</ele><time>2026-03-22T13:39:40Z</time></trkpt><trkpt lat="44.60088298679416" lon="11.705738695906607"><ele>4.0</ele><time>2026-03-22T13:39:41Z</time></trkpt><trkpt lat="44.600767759950344" lon="11.7058705826714"><ele>4.0</ele><time>2026-03-22T13:39:42Z</time></trkpt><trkpt lat="44.60066565588727" lon="11.706018068044521"><ele>4.0</ele><time>2026-03-22T13:39:43Z</time></trkpt><trkpt lat="44.600582905001545" lon="11.706185850253975"><ele>4.0</ele><time>2026-03-22T13:39:44Z</time></trkpt><trkpt lat="44.600497708467884" lon="11.706348117651299"><ele>4.0</ele><time>2026-03-22T13:39:45Z</time></trkpt><trkpt lat="44.60042840529116" lon="11.706530495353277"><ele>4.0</ele><time>2026-03-22T13:39:46Z</time></trkpt><trkpt lat="44.60037259071008" lon="11.706734293083066"><ele>4.0</ele><time>2026-03-22T13:39:47Z</time></trkpt><trkpt lat="44.60032403015579" lon="11.706950392955598"><ele>4.0</ele><time>2026-03-22T13:39:48Z</time></trkpt><trkpt lat="44.6002710058421" lon="11.707163667428249"><ele>4.0</ele><time>2026-03-22T13:39:49Z</time></trkpt><trkpt lat="44.60021233011264" lon="11.70738140105029"><ele>4.0</ele><time>2026-03-22T13:39:50Z</time></trkpt><trkpt lat="44.600156744483016" lon="11.707594432931888"><ele>4.0</ele><time>2026-03-22T13:39:51Z</time></trkpt><trkpt lat="44.60009748781526" lon="11.707821815480408"><ele>4.0</ele><time>2026-03-22T13:39:52Z</time></trkpt><trkpt lat="44.600039527664556" lon="11.708039333875206"><ele>4.0</ele><time>2026-03-22T13:39:53Z</time></trkpt><trkpt lat="44.59998008729904" lon="11.708260624134969"><ele>4.0</ele><time>2026-03-22T13:39:54Z</time></trkpt><trkpt lat="44.599920831853645" lon="11.708487881382757"><ele>4.0</ele><time>2026-03-22T13:39:55Z</time></trkpt><trkpt lat="44.599862420386025" lon="11.708715619483712"><ele>4.0</ele><time>2026-03-22T13:39:56Z</time></trkpt><trkpt lat="44.59980229900865" lon="11.708937827517483"><ele>4.0</ele><time>2026-03-22T13:39:57Z</time></trkpt><trkpt lat="44.59974338517041" lon="11.70916032738291"><ele>4.0</ele><time>2026-03-22T13:39:58Z</time></trkpt><trkpt lat="44.599688077403755" lon="11.70938502278057"><ele>4.0</ele><time>2026-03-22T13:39:59Z</time></trkpt><trkpt lat="44.59963093112219" lon="11.709609797585534"><ele>4.333333333333333</ele><time>2026-03-22T13:40:00Z</time></trkpt><trkpt lat="44.59957000330047" lon="11.709833960466936"><ele>4.666666666666667</ele><time>2026-03-22T13:40:01Z</time></trkpt><trkpt lat="44.59951146176845" lon="11.710057250204365"><ele>5.0</ele><time>2026-03-22T13:40:02Z</time></trkpt><trkpt lat="44.599454189592045" lon="11.710278429101228"><ele>5.0</ele><time>2026-03-22T13:40:03Z</time></trkpt><trkpt lat="44.59939657005622" lon="11.710494840449819"><ele>5.0</ele><time>2026-03-22T13:40:04Z</time></trkpt><trkpt lat="44.59933762779346" lon="11.710705083193094"><ele>5.0</ele><time>2026-03-22T13:40:05Z</time></trkpt><trkpt lat="44.59928062041413" lon="11.710917057012553"><ele>5.666666666666667</ele><time>2026-03-22T13:40:06Z</time></trkpt><trkpt lat="44.599223682007704" lon="11.711131466590997"><ele>6.333333333333334</ele><time>2026-03-22T13:40:07Z</time></trkpt><trkpt lat="44.59916286191005" lon="11.711346185220668"><ele>7.0</ele><time>2026-03-22T13:40:08Z</time></trkpt><trkpt lat="44.59910690404398" lon="11.711556501894684"><ele>7.0</ele><time>2026-03-22T13:40:09Z</time></trkpt><trkpt lat="44.59905520649697" lon="11.711762954810567"><ele>7.0</ele><time>2026-03-22T13:40:10Z</time></trkpt><trkpt lat="44.599007673010384" lon="11.711967337021038"><ele>7.0</ele><time>2026-03-22T13:40:11Z</time></trkpt><trkpt lat="44.5989606480245" lon="11.712172819006584"><ele>6.75</ele><time>2026-03-22T13:40:12Z</time></trkpt><trkpt lat="44.59891737102952" lon="11.712375816341662"><ele>6.5</ele><time>2026-03-22T13:40:13Z</time></trkpt><trkpt lat="44.59888501373845" lon="11.712576099782186"><ele>6.25</ele><time>2026-03-22T13:40:14Z</time></trkpt><trkpt lat="44.5988555854225" lon="11.712774572993817"><ele>6.0</ele><time>2026-03-22T13:40:15Z</time></trkpt><trkpt lat="44.598823441639304" lon="11.712948694647718"><ele>5.8</ele><time>2026-03-22T13:40:16Z</time></trkpt><trkpt lat="44.598786553347054" lon="11.713106036882847"><ele>5.6</ele><time>2026-03-22T13:40:17Z</time></trkpt><trkpt lat="44.598744465410356" lon="11.713248486397491"><ele>5.4</ele><time>2026-03-22T13:40:18Z</time></trkpt><trkpt lat="44.59869266118386" lon="11.713384281521547"><ele>5.2</ele><time>2026-03-22T13:40:19Z</time></trkpt><trkpt lat="44.59863444603315" lon="11.713513923672481"><ele>5.0</ele><time>2026-03-22T13:40:20Z</time></trkpt><trkpt lat="44.59857093245127" lon="11.713640599836452"><ele>4.833333333333334</ele><time>2026-03-22T13:40:21Z</time></trkpt><trkpt lat="44.59851026554332" lon="11.713758944779023"><ele>4.666666666666667</ele><time>2026-03-22T13:40:22Z</time></trkpt><trkpt lat="44.598451535317004" lon="11.713857397163443"><ele>4.5</ele><time>2026-03-22T13:40:23Z</time></trkpt><trkpt lat="44.598394743303835" lon="11.713953188183709"><ele>4.333333333333333</ele><time>2026-03-22T13:40:24Z</time></trkpt><trkpt lat="44.598341015399654" lon="11.714036856312337"><ele>4.166666666666666</ele><time>2026-03-22T13:40:25Z</time></trkpt><trkpt lat="44.59829515539639" lon="11.714118406240967"><ele>4.0</ele><time>2026-03-22T13:40:26Z</time></trkpt><trkpt lat="44.59824658838857" lon="11.714175842255534"><ele>3.9999999999999996</ele><time>2026-03-22T13:40:27Z</time></trkpt><trkpt lat="44.598188802949096" lon="11.71421637299825"><ele>4.0</ele><time>2026-03-22T13:40:28Z</time></trkpt><trkpt lat="44.59811013578506" lon="11.714205299832981"><ele>4.0</ele><time>2026-03-22T13:40:29Z</time></trkpt><trkpt lat="44.59803143717864" lon="11.714145132028545"><ele>4.0</ele><time>2026-03-22T13:40:30Z</time></trkpt><trkpt lat="44.59794084901116" lon="11.714074923279131"><ele>3.9999999999999996</ele><time>2026-03-22T13:40:31Z</time></trkpt><trkpt lat="44.59784286030498" lon="11.714006890448742"><ele>4.0</ele><time>2026-03-22T13:40:32Z</time></trkpt><trkpt lat="44.59774348629051" lon="11.713949657011261"><ele>4.75</ele><time>2026-03-22T13:40:33Z</time></trkpt><trkpt lat="44.59763455996702" lon="11.713886017795469"><ele>5.5</ele><time>2026-03-22T13:40:34Z</time></trkpt><trkpt lat="44.59751819955963" lon="11.713821412996175"><ele>6.25</ele><time>2026-03-22T13:40:35Z</time></trkpt><trkpt lat="44.597392151670654" lon="11.713748608373903"><ele>7.0</ele><time>2026-03-22T13:40:36Z</time></trkpt><trkpt lat="44.59726761041754" lon="11.713667359942935"><ele>7.0</ele><time>2026-03-22T13:40:37Z</time></trkpt><trkpt lat="44.597144522014275" lon="11.71360118524488"><ele>7.0</ele><time>2026-03-22T13:40:38Z</time></trkpt><trkpt lat="44.597015014263896" lon="11.71352097205953"><ele>7.0</ele><time>2026-03-22T13:40:39Z</time></trkpt><trkpt lat="44.596872261335" lon="11.713436753605384"><ele>7.0</ele><time>2026-03-22T13:40:40Z</time></trkpt><trkpt lat="44.59672322289331" lon="11.713355648453739"><ele>6.666666666666667</ele><time>2026-03-22T13:40:41Z</time></trkpt><trkpt lat="44.59656897455373" lon="11.713266923011282"><ele>6.333333333333334</ele><time>2026-03-22T13:40:42Z</time></trkpt><trkpt lat="44.59641806045371" lon="11.71318107289888"><ele>6.0</ele><time>2026-03-22T13:40:43Z</time></trkpt><trkpt lat="44.59627624179449" lon="11.713094666646347"><ele>5.666666666666667</ele><time>2026-03-22T13:40:44Z</time></trkpt><trkpt lat="44.596129524478414" lon="11.713007976378538"><ele>5.333333333333334</ele><time>2026-03-22T13:40:45Z</time></trkpt><trkpt lat="44.59598217869807" lon="11.712922936274044"><ele>5.0</ele><time>2026-03-22T13:40:46Z</time></trkpt><trkpt lat="44.595828035642135" lon="11.71283624755758"><ele>5.0</ele><time>2026-03-22T13:40:47Z</time></trkpt><trkpt lat="44.59567833081315" lon="11.712746024969755"><ele>5.0</ele><time>2026-03-22T13:40:48Z</time></trkpt><trkpt lat="44.595524369031466" lon="11.712655153885752"><ele>5.0</ele><time>2026-03-22T13:40:49Z</time></trkpt><trkpt lat="44.59536973987076" lon="11.71256826063557"><ele>4.666666666666667</ele><time>2026-03-22T13:40:50Z</time></trkpt><trkpt lat="44.59521260443019" lon="11.712481184712903"><ele>4.333333333333333</ele><time>2026-03-22T13:40:51Z</time></trkpt><trkpt lat="44.595063811052036" lon="11.71237006074346"><ele>4.0</ele><time>2026-03-22T13:40:52Z</time></trkpt><trkpt lat="44.59490616976871" lon="11.712301680474498"><ele>4.0</ele><time>2026-03-22T13:40:53Z</time></trkpt><trkpt lat="44.59475325390646" lon="11.712189289509729"><ele>4.0</ele><time>2026-03-22T13:40:54Z</time></trkpt><trkpt lat="44.59459748556325" lon="11.712099844118269"><ele>4.0</ele><time>2026-03-22T13:40:55Z</time></trkpt><trkpt lat="44.59444435781525" lon="11.712005805405713"><ele>4.333333333333333</ele><time>2026-03-22T13:40:56Z</time></trkpt><trkpt lat="44.59429037644815" lon="11.71191773350007"><ele>4.666666666666667</ele><time>2026-03-22T13:40:57Z</time></trkpt><trkpt lat="44.594159290511854" lon="11.711763634197261"><ele>5.0</ele><time>2026-03-22T13:40:58Z</time></trkpt><trkpt lat="44.594016275278264" lon="11.711609316922917"><ele>5.0</ele><time>2026-03-22T13:40:59Z</time></trkpt><trkpt lat="44.59386089071797" lon="11.711479071285535"><ele>5.0</ele><time>2026-03-22T13:41:00Z</time></trkpt><trkpt lat="44.59370425590721" lon="11.711348102928111"><ele>5.0</ele><time>2026-03-22T13:41:01Z</time></trkpt><trkpt lat="44.593535147721035" lon="11.711245934113993"><ele>5.0</ele><time>2026-03-22T13:41:02Z</time></trkpt><trkpt lat="44.593360603509964" lon="11.711151795248513"><ele>5.0</ele><time>2026-03-22T13:41:03Z</time></trkpt><trkpt lat="44.593191922155555" lon="11.711052804152791"><ele>5.0</ele><time>2026-03-22T13:41:04Z</time></trkpt><trkpt lat="44.5930260730765" lon="11.710953474529088"><ele>5.0</ele><time>2026-03-22T13:41:05Z</time></trkpt><trkpt lat="44.592857734754254" lon="11.710855291055763"><ele>5.0</ele><time>2026-03-22T13:41:06Z</time></trkpt><trkpt lat="44.592691165317916" lon="11.710756149968741"><ele>5.0</ele><time>2026-03-22T13:41:07Z</time></trkpt><trkpt lat="44.59252404574229" lon="11.71065701562336"><ele>5.333333333333334</ele><time>2026-03-22T13:41:08Z</time></trkpt><trkpt lat="44.592359412850705" lon="11.710558421672626"><ele>5.666666666666667</ele><time>2026-03-22T13:41:09Z</time></trkpt><trkpt lat="44.59219344814009" lon="11.710459190209825"><ele>6.0</ele><time>2026-03-22T13:41:10Z</time></trkpt><trkpt lat="44.59202893058954" lon="11.710360232658752"><ele>6.0</ele><time>2026-03-22T13:41:11Z</time></trkpt><trkpt lat="44.59186439809076" lon="11.710263588191578"><ele>6.0</ele><time>2026-03-22T13:41:12Z</time></trkpt><trkpt lat="44.59169910210177" lon="11.710166027168007"><ele>6.0</ele><time>2026-03-22T13:41:13Z</time></trkpt><trkpt lat="44.59153191520822" lon="11.710066470082715"><ele>6.0</ele><time>2026-03-22T13:41:14Z</time></trkpt><trkpt lat="44.59136202592925" lon="11.709966295214238"><ele>6.0</ele><time>2026-03-22T13:41:15Z</time></trkpt><trkpt lat="44.59119462300888" lon="11.709866903843473"><ele>6.0</ele><time>2026-03-22T13:41:16Z</time></trkpt><trkpt lat="44.59102468778053" lon="11.709765222220513"><ele>6.0</ele><time>2026-03-22T13:41:17Z</time></trkpt><trkpt lat="44.59085889780006" lon="11.709667619379836"><ele>6.0</ele><time>2026-03-22T13:41:18Z</time></trkpt><trkpt lat="44.590687563675765" lon="11.709569855815863"><ele>6.0</ele><time>2026-03-22T13:41:19Z</time></trkpt><trkpt lat="44.59052693903693" lon="11.70945178440738"><ele>5.666666666666667</ele><time>2026-03-22T13:41:20Z</time></trkpt><trkpt lat="44.59035991481286" lon="11.709351072306639"><ele>5.333333333333334</ele><time>2026-03-22T13:41:21Z</time></trkpt><trkpt lat="44.590188728993915" lon="11.709271871892478"><ele>5.0</ele><time>2026-03-22T13:41:22Z</time></trkpt><trkpt lat="44.59002350748478" lon="11.70917082056414"><ele>5.666666666666667</ele><time>2026-03-22T13:41:23Z</time></trkpt><trkpt lat="44.58985585776179" lon="11.709071530781635"><ele>6.333333333333334</ele><time>2026-03-22T13:41:24Z</time></trkpt><trkpt lat="44.58968940029379" lon="11.708972157448729"><ele>7.0</ele><time>2026-03-22T13:41:25Z</time></trkpt><trkpt lat="44.58952331304722" lon="11.708872954847564"><ele>6.666666666666667</ele><time>2026-03-22T13:41:26Z</time></trkpt><trkpt lat="44.589358298873236" lon="11.708776055624016"><ele>6.333333333333334</ele><time>2026-03-22T13:41:27Z</time></trkpt><trkpt lat="44.58919276097123" lon="11.70868070829153"><ele>6.0</ele><time>2026-03-22T13:41:28Z</time></trkpt><trkpt lat="44.58902827025533" lon="11.708584536615128"><ele>6.0</ele><time>2026-03-22T13:41:29Z</time></trkpt><trkpt lat="44.58886464157767" lon="11.708488091707972"><ele>6.0</ele><time>2026-03-22T13:41:30Z</time></trkpt><trkpt lat="44.58869874176117" lon="11.708390110517461"><ele>6.0</ele><time>2026-03-22T13:41:31Z</time></trkpt><trkpt lat="44.58853150433898" lon="11.708289086595304"><ele>5.666666666666667</ele><time>2026-03-22T13:41:32Z</time></trkpt><trkpt lat="44.58836275138259" lon="11.708186547537125"><ele>5.333333333333334</ele><time>2026-03-22T13:41:33Z</time></trkpt><trkpt lat="44.58819051040064" lon="11.708086765147412"><ele>5.0</ele><time>2026-03-22T13:41:34Z</time></trkpt><trkpt lat="44.58802870431975" lon="11.707967584581725"><ele>5.0</ele><time>2026-03-22T13:41:35Z</time></trkpt><trkpt lat="44.58785969410232" lon="11.70786824873005"><ele>5.0</ele><time>2026-03-22T13:41:36Z</time></trkpt><trkpt lat="44.58768795612082" lon="11.707767309652455"><ele>5.0</ele><time>2026-03-22T13:41:37Z</time></trkpt><trkpt lat="44.58751647026411" lon="11.70766635220522"><ele>5.0</ele><time>2026-03-22T13:41:38Z</time></trkpt><trkpt lat="44.58733921629365" lon="11.707561484478996"><ele>5.0</ele><time>2026-03-22T13:41:39Z</time></trkpt><trkpt lat="44.58716162347321" lon="11.707456415082637"><ele>5.0</ele><time>2026-03-22T13:41:40Z</time></trkpt><trkpt lat="44.58698211654856" lon="11.707350279865336"><ele>5.333333333333334</ele><time>2026-03-22T13:41:41Z</time></trkpt><trkpt lat="44.5867999680011" lon="11.707244582347537"><ele>5.666666666666667</ele><time>2026-03-22T13:41:42Z</time></trkpt><trkpt lat="44.58662419001671" lon="11.70714258162507"><ele>6.0</ele><time>2026-03-22T13:41:43Z</time></trkpt><trkpt lat="44.586437698584675" lon="11.707057880324303"><ele>6.0</ele><time>2026-03-22T13:41:44Z</time></trkpt><trkpt lat="44.58625574054522" lon="11.706953360418483"><ele>6.0</ele><time>2026-03-22T13:41:45Z</time></trkpt><trkpt lat="44.586078066440095" lon="11.706824109844494"><ele>6.0</ele><time>2026-03-22T13:41:46Z</time></trkpt><trkpt lat="44.58590064186371" lon="11.706716986325382"><ele>6.0</ele><time>2026-03-22T13:41:47Z</time></trkpt><trkpt lat="44.585721731920174" lon="11.706610831116729"><ele>6.0</ele><time>2026-03-22T13:41:48Z</time></trkpt><trkpt lat="44.585540590637336" lon="11.706505904560762"><ele>6.0</ele><time>2026-03-22T13:41:49Z</time></trkpt><trkpt lat="44.58536337282021" lon="11.706401870302427"><ele>6.333333333333334</ele><time>2026-03-22T13:41:50Z</time></trkpt><trkpt lat="44.58518183245777" lon="11.706294692449967"><ele>6.666666666666667</ele><time>2026-03-22T13:41:51Z</time></trkpt><trkpt lat="44.58500353133061" lon="11.706187169494033"><ele>7.0</ele><time>2026-03-22T13:41:52Z</time></trkpt><trkpt lat="44.5848221767799" lon="11.706077633566627"><ele>7.0</ele><time>2026-03-22T13:41:53Z</time></trkpt><trkpt lat="44.584644390946615" lon="11.70597025312307"><ele>7.0</ele><time>2026-03-22T13:41:54Z</time></trkpt><trkpt lat="44.58446387802598" lon="11.705887064288705"><ele>7.0</ele><time>2026-03-22T13:41:55Z</time></trkpt><trkpt lat="44.584287426055916" lon="11.705784427254883"><ele>7.0</ele><time>2026-03-22T13:41:56Z</time></trkpt><trkpt lat="44.5841122870443" lon="11.705677497819856"><ele>7.0</ele><time>2026-03-22T13:41:57Z</time></trkpt><trkpt lat="44.58393950949261" lon="11.705576887907018"><ele>7.0</ele><time>2026-03-22T13:41:58Z</time></trkpt><trkpt lat="44.58376577223661" lon="11.705473651867742"><ele>7.0</ele><time>2026-03-22T13:41:59Z</time></trkpt><trkpt lat="44.58359174588427" lon="11.705373916379623"><ele>7.0</ele><time>2026-03-22T13:42:00Z</time></trkpt><trkpt lat="44.583424931765904" lon="11.705253090557875"><ele>7.0</ele><time>2026-03-22T13:42:01Z</time></trkpt><trkpt lat="44.583244098985666" lon="11.705178890622538"><ele>6.666666666666667</ele><time>2026-03-22T13:42:02Z</time></trkpt><trkpt lat="44.583065484713835" lon="11.705093220369344"><ele>6.333333333333334</ele><time>2026-03-22T13:42:03Z</time></trkpt><trkpt lat="44.58288407927911" lon="11.705018171767607"><ele>6.0</ele><time>2026-03-22T13:42:04Z</time></trkpt><trkpt lat="44.58269936276286" lon="11.70494936870864"><ele>6.666666666666666</ele><time>2026-03-22T13:42:05Z</time></trkpt><trkpt lat="44.58251619241966" lon="11.704888517029078"><ele>7.333333333333333</ele><time>2026-03-22T13:42:06Z</time></trkpt><trkpt lat="44.582336162525266" lon="11.704835355801396"><ele>8.0</ele><time>2026-03-22T13:42:07Z</time></trkpt><trkpt lat="44.58215132534068" lon="11.70478477146439"><ele>7.666666666666666</ele><time>2026-03-22T13:42:08Z</time></trkpt><trkpt lat="44.58196456378734" lon="11.704742978786154"><ele>7.333333333333334</ele><time>2026-03-22T13:42:09Z</time></trkpt><trkpt lat="44.58177904037096" lon="11.704706205876676"><ele>7.0</ele><time>2026-03-22T13:42:10Z</time></trkpt><trkpt lat="44.58158988232984" lon="11.70467058098306"><ele>7.0</ele><time>2026-03-22T13:42:11Z</time></trkpt><trkpt lat="44.581402297433435" lon="11.704629471457837"><ele>7.0</ele><time>2026-03-22T13:42:12Z</time></trkpt><trkpt lat="44.58121169586251" lon="11.704590075819493"><ele>7.0</ele><time>2026-03-22T13:42:13Z</time></trkpt><trkpt lat="44.581017069131285" lon="11.704551745735392"><ele>7.0</ele><time>2026-03-22T13:42:14Z</time></trkpt><trkpt lat="44.58082468219248" lon="11.704489016456478"><ele>7.0</ele><time>2026-03-22T13:42:15Z</time></trkpt><trkpt lat="44.58063137212098" lon="11.704449774828982"><ele>7.0</ele><time>2026-03-22T13:42:16Z</time></trkpt><trkpt lat="44.58043236706488" lon="11.704432026955786"><ele>7.0</ele><time>2026-03-22T13:42:17Z</time></trkpt><trkpt lat="44.58024097347591" lon="11.70437052453412"><ele>7.0</ele><time>2026-03-22T13:42:18Z</time></trkpt><trkpt lat="44.58004633225019" lon="11.704329839400604"><ele>7.0</ele><time>2026-03-22T13:42:19Z</time></trkpt><trkpt lat="44.57985220053171" lon="11.704289172543207"><ele>7.0</ele><time>2026-03-22T13:42:20Z</time></trkpt><trkpt lat="44.579655859944204" lon="11.704248042967851"><ele>7.0</ele><time>2026-03-22T13:42:21Z</time></trkpt><trkpt lat="44.579469036870925" lon="11.7042091207211"><ele>7.0</ele><time>2026-03-22T13:42:22Z</time></trkpt><trkpt lat="44.5792754405824" lon="11.704170022764478"><ele>7.333333333333334</ele><time>2026-03-22T13:42:23Z</time></trkpt><trkpt lat="44.579076967964454" lon="11.704129252271505"><ele>7.666666666666666</ele><time>2026-03-22T13:42:24Z</time></trkpt><trkpt lat="44.57888905509999" lon="11.704088240023012"><ele>8.0</ele><time>2026-03-22T13:42:25Z</time></trkpt><trkpt lat="44.57869776413508" lon="11.704048040700087"><ele>8.0</ele><time>2026-03-22T13:42:26Z</time></trkpt><trkpt lat="44.5785031745522" lon="11.70403042058109"><ele>8.0</ele><time>2026-03-22T13:42:27Z</time></trkpt><trkpt lat="44.57831402506118" lon="11.70398943520509"><ele>8.0</ele><time>2026-03-22T13:42:28Z</time></trkpt><trkpt lat="44.57812922061849" lon="11.703926189970723"><ele>8.0</ele><time>2026-03-22T13:42:29Z</time></trkpt><trkpt lat="44.57794042172046" lon="11.703884875913353"><ele>8.0</ele><time>2026-03-22T13:42:30Z</time></trkpt><trkpt lat="44.57774867288482" lon="11.70386613298934"><ele>8.0</ele><time>2026-03-22T13:42:31Z</time></trkpt><trkpt lat="44.57756228547638" lon="11.703827281110737"><ele>7.333333333333333</ele><time>2026-03-22T13:42:32Z</time></trkpt><trkpt lat="44.577379720804174" lon="11.703788645033617"><ele>6.666666666666666</ele><time>2026-03-22T13:42:33Z</time></trkpt><trkpt lat="44.57720057618617" lon="11.703747588181653"><ele>6.0</ele><time>2026-03-22T13:42:34Z</time></trkpt><trkpt lat="44.57702027777931" lon="11.703707049521244"><ele>6.333333333333334</ele><time>2026-03-22T13:42:35Z</time></trkpt><trkpt lat="44.57684105617061" lon="11.703667112111013"><ele>6.666666666666667</ele><time>2026-03-22T13:42:36Z</time></trkpt><trkpt lat="44.57666397087635" lon="11.70362785310633"><ele>7.0</ele><time>2026-03-22T13:42:37Z</time></trkpt><trkpt lat="44.576498414607045" lon="11.703589240218994"><ele>7.0</ele><time>2026-03-22T13:42:38Z</time></trkpt><trkpt lat="44.57634570313695" lon="11.703556353700641"><ele>7.0</ele><time>2026-03-22T13:42:39Z</time></trkpt><trkpt lat="44.576204417068965" lon="11.703535103328802"><ele>7.0</ele><time>2026-03-22T13:42:40Z</time></trkpt><trkpt lat="44.57606087769993" lon="11.703506407469861"><ele>7.0</ele><time>2026-03-22T13:42:41Z</time></trkpt><trkpt lat="44.575911256508284" lon="11.703523832395286"><ele>7.0</ele><time>2026-03-22T13:42:42Z</time></trkpt><trkpt lat="44.575757818194994" lon="11.703560198529072"><ele>7.0</ele><time>2026-03-22T13:42:43Z</time></trkpt><trkpt lat="44.575621405002146" lon="11.703595722792905"><ele>7.0</ele><time>2026-03-22T13:42:44Z</time></trkpt><trkpt lat="44.57549618309826" lon="11.70363129726843"><ele>7.0</ele><time>2026-03-22T13:42:45Z</time></trkpt><trkpt lat="44.57538590027493" lon="11.703663696674404"><ele>7.000000000000001</ele><time>2026-03-22T13:42:46Z</time></trkpt><trkpt lat="44.57528973539553" lon="11.70369040361021"><ele>7.0</ele><time>2026-03-22T13:42:47Z</time></trkpt><trkpt lat="44.575198091690815" lon="11.70371585494081"><ele>7.0</ele><time>2026-03-22T13:42:48Z</time></trkpt><trkpt lat="44.575114908543654" lon="11.703743022717655"><ele>7.0</ele><time>2026-03-22T13:42:49Z</time></trkpt><trkpt lat="44.57504469765913" lon="11.703790561034362"><ele>7.000000000000001</ele><time>2026-03-22T13:42:50Z</time></trkpt><trkpt lat="44.57498055506729" lon="11.70382588561701"><ele>7.0</ele><time>2026-03-22T13:42:51Z</time></trkpt><trkpt lat="44.5749176765752" lon="11.70390662496602"><ele>7.0</ele><time>2026-03-22T13:42:52Z</time></trkpt><trkpt lat="44.57486818797343" lon="11.704037603355287"><ele>7.0</ele><time>2026-03-22T13:42:53Z</time></trkpt><trkpt lat="44.57485620220145" lon="11.704193566212632"><ele>7.0</ele><time>2026-03-22T13:42:54Z</time></trkpt><trkpt lat="44.57486945249466" lon="11.704379293102727"><ele>7.0</ele><time>2026-03-22T13:42:55Z</time></trkpt><trkpt lat="44.57489274811248" lon="11.704575266883166"><ele>7.666666666666667</ele><time>2026-03-22T13:42:56Z</time></trkpt><trkpt lat="44.57491813900696" lon="11.704796403653734"><ele>8.333333333333334</ele><time>2026-03-22T13:42:57Z</time></trkpt><trkpt lat="44.57494775300787" lon="11.70501660937611"><ele>9.0</ele><time>2026-03-22T13:42:58Z</time></trkpt><trkpt lat="44.57497658750497" lon="11.705195791778399"><ele>9.4</ele><time>2026-03-22T13:42:59Z</time></trkpt><trkpt lat="44.57499739526507" lon="11.705348694975731"><ele>9.8</ele><time>2026-03-22T13:43:00Z</time></trkpt><trkpt lat="44.57501273510913" lon="11.705492937689003"><ele>10.200000000000001</ele><time>2026-03-22T13:43:01Z</time></trkpt><trkpt lat="44.575030937247476" lon="11.70561438038962"><ele>10.600000000000001</ele><time>2026-03-22T13:43:02Z</time></trkpt><trkpt lat="44.57503099982081" lon="11.705713971750862"><ele>11.0</ele><time>2026-03-22T13:43:03Z</time></trkpt><trkpt lat="44.57504744591526" lon="11.705867441722608"><ele>11.0</ele><time>2026-03-22T13:43:05Z</time></trkpt><trkpt lat="44.575012885406004" lon="11.705947294003906"><ele>11.0</ele><time>2026-03-22T13:43:06Z</time></trkpt><trkpt lat="44.574957582577944" lon="11.706011436677112"><ele>11.0</ele><time>2026-03-22T13:43:07Z</time></trkpt><trkpt lat="44.57488159065577" lon="11.70598378755485"><ele>11.0</ele><time>2026-03-22T13:43:08Z</time></trkpt><trkpt lat="44.57481404635598" lon="11.706002984527217"><ele>11.0</ele><time>2026-03-22T13:43:09Z</time></trkpt><trkpt lat="44.57474349702708" lon="11.706023564757045"><ele>11.0</ele><time>2026-03-22T13:43:10Z</time></trkpt><trkpt lat="44.574674261993685" lon="11.706043761236613"><ele>11.0</ele><time>2026-03-22T13:43:11Z</time></trkpt><trkpt lat="44.57460666267475" lon="11.706084038862901"><ele>11.0</ele><time>2026-03-22T13:43:12Z</time></trkpt><trkpt lat="44.574534721600855" lon="11.706097006749989"><ele>11.0</ele><time>2026-03-22T13:43:13Z</time></trkpt><trkpt lat="44.57445708379251" lon="11.706128431674033"><ele>11.0</ele><time>2026-03-22T13:43:14Z</time></trkpt><trkpt lat="44.57439273723006" lon="11.706146540754037"><ele>11.0</ele><time>2026-03-22T13:43:15Z</time></trkpt><trkpt lat="44.574272187519824" lon="11.706171748230076"><ele>11.0</ele><time>2026-03-22T13:43:17Z</time></trkpt><trkpt lat="44.574167097986674" lon="11.706231579501523"><ele>10.8</ele><time>2026-03-22T13:43:19Z</time></trkpt><trkpt lat="44.57414316817291" lon="11.7063347547406"><ele>10.600000000000001</ele><time>2026-03-22T13:43:20Z</time></trkpt><trkpt lat="44.57416531692909" lon="11.706463068794333"><ele>10.4</ele><time>2026-03-22T13:43:21Z</time></trkpt><trkpt lat="44.57418519725264" lon="11.706595205409185"><ele>10.2</ele><time>2026-03-22T13:43:22Z</time></trkpt><trkpt lat="44.57420834069816" lon="11.706741633042409"><ele>10.0</ele><time>2026-03-22T13:43:23Z</time></trkpt><trkpt lat="44.57422457718015" lon="11.706878487344333"><ele>10.25</ele><time>2026-03-22T13:43:24Z</time></trkpt><trkpt lat="44.57423671891667" lon="11.707024079870608"><ele>10.5</ele><time>2026-03-22T13:43:25Z</time></trkpt><trkpt lat="44.57425465259594" lon="11.70719221342393"><ele>10.75</ele><time>2026-03-22T13:43:26Z</time></trkpt><trkpt lat="44.574280136800546" lon="11.70736483552233"><ele>11.0</ele><time>2026-03-22T13:43:27Z</time></trkpt><trkpt lat="44.574308440739784" lon="11.707513091819246"><ele>11.0</ele><time>2026-03-22T13:43:28Z</time></trkpt><trkpt lat="44.57433025848417" lon="11.70764473076197"><ele>11.0</ele><time>2026-03-22T13:43:29Z</time></trkpt><trkpt lat="44.57434540077179" lon="11.70778444417229"><ele>11.0</ele><time>2026-03-22T13:43:30Z</time></trkpt><trkpt lat="44.57436085762222" lon="11.707921441756085"><ele>11.0</ele><time>2026-03-22T13:43:31Z</time></trkpt><trkpt lat="44.57437868128777" lon="11.708054407397528"><ele>11.0</ele><time>2026-03-22T13:43:32Z</time></trkpt><trkpt lat="44.57439215088128" lon="11.708172924159829"><ele>11.0</ele><time>2026-03-22T13:43:33Z</time></trkpt><trkpt lat="44.57438774949873" lon="11.708291956795303"><ele>11.0</ele><time>2026-03-22T13:43:34Z</time></trkpt><trkpt lat="44.57435613475323" lon="11.708431595922542"><ele>11.0</ele><time>2026-03-22T13:43:35Z</time></trkpt><trkpt lat="44.574296240743934" lon="11.708577143692185"><ele>11.0</ele><time>2026-03-22T13:43:36Z</time></trkpt><trkpt lat="44.57418701601171" lon="11.708680682680171"><ele>11.0</ele><time>2026-03-22T13:43:37Z</time></trkpt><trkpt lat="44.57407174711734" lon="11.708793215075605"><ele>10.0</ele><time>2026-03-22T13:43:38Z</time></trkpt><trkpt lat="44.573954050243145" lon="11.708919177205729"><ele>9.0</ele><time>2026-03-22T13:43:39Z</time></trkpt><trkpt lat="44.57383031466946" lon="11.7090335447421"><ele>8.0</ele><time>2026-03-22T13:43:40Z</time></trkpt><trkpt lat="44.57369931042133" lon="11.709154014215333"><ele>7.666666666666666</ele><time>2026-03-22T13:43:41Z</time></trkpt><trkpt lat="44.57356906130286" lon="11.709276170973187"><ele>7.333333333333334</ele><time>2026-03-22T13:43:42Z</time></trkpt><trkpt lat="44.57344325047372" lon="11.709393185588933"><ele>7.0</ele><time>2026-03-22T13:43:43Z</time></trkpt><trkpt lat="44.57331126706532" lon="11.709503350709467"><ele>7.0</ele><time>2026-03-22T13:43:44Z</time></trkpt><trkpt lat="44.573178962513744" lon="11.709631700299418"><ele>7.0</ele><time>2026-03-22T13:43:45Z</time></trkpt><trkpt lat="44.57304080052675" lon="11.70976151514123"><ele>7.0</ele><time>2026-03-22T13:43:46Z</time></trkpt><trkpt lat="44.572905786805805" lon="11.709889071450725"><ele>7.0</ele><time>2026-03-22T13:43:47Z</time></trkpt><trkpt lat="44.57277308573199" lon="11.710013083771047"><ele>7.0</ele><time>2026-03-22T13:43:48Z</time></trkpt><trkpt lat="44.572635679423314" lon="11.710138864263927"><ele>7.0</ele><time>2026-03-22T13:43:49Z</time></trkpt><trkpt lat="44.572495447108395" lon="11.710273951690638"><ele>7.0</ele><time>2026-03-22T13:43:50Z</time></trkpt><trkpt lat="44.57234891797743" lon="11.710409558504267"><ele>7.0</ele><time>2026-03-22T13:43:51Z</time></trkpt><trkpt lat="44.572201079593874" lon="11.710544587848974"><ele>7.0</ele><time>2026-03-22T13:43:52Z</time></trkpt><trkpt lat="44.57205190064673" lon="11.71068310444014"><ele>7.333333333333334</ele><time>2026-03-22T13:43:53Z</time></trkpt><trkpt lat="44.571905492700104" lon="11.710820585229817"><ele>7.666666666666666</ele><time>2026-03-22T13:43:54Z</time></trkpt><trkpt lat="44.57175669064137" lon="11.710959434403522"><ele>8.0</ele><time>2026-03-22T13:43:55Z</time></trkpt><trkpt lat="44.57160469245363" lon="11.711100536375824"><ele>8.0</ele><time>2026-03-22T13:43:56Z</time></trkpt><trkpt lat="44.57145882391498" lon="11.71123500950971"><ele>8.0</ele><time>2026-03-22T13:43:57Z</time></trkpt><trkpt lat="44.5713121043661" lon="11.711374124944744"><ele>8.0</ele><time>2026-03-22T13:43:58Z</time></trkpt><trkpt lat="44.57116617769211" lon="11.71151193201272"><ele>8.333333333333332</ele><time>2026-03-22T13:43:59Z</time></trkpt><trkpt lat="44.57101667081229" lon="11.711623914476506"><ele>8.666666666666666</ele><time>2026-03-22T13:44:00Z</time></trkpt><trkpt lat="44.57087169646516" lon="11.711756129105494"><ele>9.0</ele><time>2026-03-22T13:44:01Z</time></trkpt><trkpt lat="44.57072313537796" lon="11.711891269505278"><ele>9.0</ele><time>2026-03-22T13:44:02Z</time></trkpt><trkpt lat="44.57057319589237" lon="11.712027663762095"><ele>9.0</ele><time>2026-03-22T13:44:03Z</time></trkpt><trkpt lat="44.570424062474736" lon="11.712164826284003"><ele>9.0</ele><time>2026-03-22T13:44:04Z</time></trkpt><trkpt lat="44.570276901283535" lon="11.712300885122126"><ele>9.0</ele><time>2026-03-22T13:44:05Z</time></trkpt><trkpt lat="44.57012908375555" lon="11.712437550793963"><ele>9.0</ele><time>2026-03-22T13:44:06Z</time></trkpt><trkpt lat="44.56998090463231" lon="11.712575243702123"><ele>9.0</ele><time>2026-03-22T13:44:07Z</time></trkpt><trkpt lat="44.56983069727339" lon="11.712714843709275"><ele>8.666666666666666</ele><time>2026-03-22T13:44:08Z</time></trkpt><trkpt lat="44.569686197882326" lon="11.712849138804046"><ele>8.333333333333332</ele><time>2026-03-22T13:44:09Z</time></trkpt><trkpt lat="44.569539217268456" lon="11.712985739959326"><ele>8.0</ele><time>2026-03-22T13:44:10Z</time></trkpt><trkpt lat="44.5694008689953" lon="11.713140845814115"><ele>8.0</ele><time>2026-03-22T13:44:11Z</time></trkpt><trkpt lat="44.569246152904405" lon="11.71325757792997"><ele>8.0</ele><time>2026-03-22T13:44:12Z</time></trkpt><trkpt lat="44.569103406276746" lon="11.713388727917199"><ele>8.0</ele><time>2026-03-22T13:44:13Z</time></trkpt><trkpt lat="44.568960573033294" lon="11.7135203798937"><ele>8.0</ele><time>2026-03-22T13:44:14Z</time></trkpt><trkpt lat="44.56881610754136" lon="11.713654463490212"><ele>8.0</ele><time>2026-03-22T13:44:15Z</time></trkpt><trkpt lat="44.56866896959054" lon="11.713791027485462"><ele>8.0</ele><time>2026-03-22T13:44:16Z</time></trkpt><trkpt lat="44.56851825440383" lon="11.71393091164385"><ele>8.0</ele><time>2026-03-22T13:44:17Z</time></trkpt><trkpt lat="44.56836658983048" lon="11.714071984217979"><ele>8.0</ele><time>2026-03-22T13:44:18Z</time></trkpt><trkpt lat="44.56821407850119" lon="11.714213945078955"><ele>8.0</ele><time>2026-03-22T13:44:19Z</time></trkpt><trkpt lat="44.56806940436226" lon="11.714376305297494"><ele>7.666666666666666</ele><time>2026-03-22T13:44:20Z</time></trkpt><trkpt lat="44.567913544317086" lon="11.714493688831828"><ele>7.333333333333334</ele><time>2026-03-22T13:44:21Z</time></trkpt><trkpt lat="44.56776490762057" lon="11.71463204476334"><ele>7.0</ele><time>2026-03-22T13:44:22Z</time></trkpt><trkpt lat="44.56761550414561" lon="11.714771112732702"><ele>7.0</ele><time>2026-03-22T13:44:23Z</time></trkpt><trkpt lat="44.56747548282212" lon="11.714930548530306"><ele>7.0</ele><time>2026-03-22T13:44:24Z</time></trkpt><trkpt lat="44.56731955790395" lon="11.715048156627219"><ele>7.0</ele><time>2026-03-22T13:44:25Z</time></trkpt><trkpt lat="44.56717602630538" lon="11.715180313346421"><ele>7.0</ele><time>2026-03-22T13:44:26Z</time></trkpt><trkpt lat="44.567028191909834" lon="11.715318372446783"><ele>7.0</ele><time>2026-03-22T13:44:27Z</time></trkpt><trkpt lat="44.56689378942259" lon="11.715468180183935"><ele>7.0</ele><time>2026-03-22T13:44:28Z</time></trkpt><trkpt lat="44.56675140668453" lon="11.715593650066383"><ele>7.0</ele><time>2026-03-22T13:44:29Z</time></trkpt><trkpt lat="44.56660945391957" lon="11.715720236144346"><ele>7.0</ele><time>2026-03-22T13:44:30Z</time></trkpt><trkpt lat="44.566468743484236" lon="11.71584316403471"><ele>7.0</ele><time>2026-03-22T13:44:31Z</time></trkpt><trkpt lat="44.56630857856711" lon="11.71594360674024"><ele>6.666666666666667</ele><time>2026-03-22T13:44:32Z</time></trkpt><trkpt lat="44.566164518732336" lon="11.716048814427657"><ele>6.333333333333334</ele><time>2026-03-22T13:44:33Z</time></trkpt><trkpt lat="44.56601604170647" lon="11.716152936464947"><ele>6.0</ele><time>2026-03-22T13:44:34Z</time></trkpt><trkpt lat="44.56586070496669" lon="11.71626112917353"><ele>5.666666666666667</ele><time>2026-03-22T13:44:35Z</time></trkpt><trkpt lat="44.56570595787302" lon="11.716372454731893"><ele>5.333333333333334</ele><time>2026-03-22T13:44:36.001Z</time></trkpt><trkpt lat="44.565551455475095" lon="11.716491961194457"><ele>5.0</ele><time>2026-03-22T13:44:37.001Z</time></trkpt><trkpt lat="44.565399314895636" lon="11.716616548814024"><ele>5.0</ele><time>2026-03-22T13:44:38.001Z</time></trkpt><trkpt lat="44.56525337258749" lon="11.716746827671267"><ele>5.0</ele><time>2026-03-22T13:44:39.001Z</time></trkpt><trkpt lat="44.565104180231046" lon="11.71688293950542"><ele>5.0</ele><time>2026-03-22T13:44:40.001Z</time></trkpt><trkpt lat="44.564956474195036" lon="11.717018993878495"><ele>5.333333333333334</ele><time>2026-03-22T13:44:41.001Z</time></trkpt><trkpt lat="44.56481024572502" lon="11.717153687312123"><ele>5.666666666666667</ele><time>2026-03-22T13:44:42.001Z</time></trkpt><trkpt lat="44.56466789354772" lon="11.717309033702083"><ele>6.0</ele><time>2026-03-22T13:44:43.001Z</time></trkpt><trkpt lat="44.56451116503961" lon="11.717426966337682"><ele>6.0</ele><time>2026-03-22T13:44:44.001Z</time></trkpt><trkpt lat="44.56436776354824" lon="11.717557981234215"><ele>6.0</ele><time>2026-03-22T13:44:45.001Z</time></trkpt><trkpt lat="44.5642398780438" lon="11.717674820425739"><ele>6.0</ele><time>2026-03-22T13:44:46.001Z</time></trkpt><trkpt lat="44.564121323478425" lon="11.717783134586728"><ele>6.0</ele><time>2026-03-22T13:44:47.001Z</time></trkpt><trkpt lat="44.56400904230656" lon="11.717886384903359"><ele>6.0</ele><time>2026-03-22T13:44:48.001Z</time></trkpt><trkpt lat="44.56389688257261" lon="11.71799045990512"><ele>6.0</ele><time>2026-03-22T13:44:49.001Z</time></trkpt><trkpt lat="44.5637984803448" lon="11.718109187874944"><ele>6.0</ele><time>2026-03-22T13:44:50.001Z</time></trkpt><trkpt lat="44.56369194371136" lon="11.718194344660402"><ele>6.0</ele><time>2026-03-22T13:44:51.001Z</time></trkpt><trkpt lat="44.56359870492815" lon="11.71828469341479"><ele>6.0</ele><time>2026-03-22T13:44:52.001Z</time></trkpt><trkpt lat="44.56350660224441" lon="11.718368445370892"><ele>6.0</ele><time>2026-03-22T13:44:53.001Z</time></trkpt><trkpt lat="44.563415085544754" lon="11.718450934801659"><ele>6.0</ele><time>2026-03-22T13:44:54.001Z</time></trkpt><trkpt lat="44.56332445872802" lon="11.718535199479394"><ele>6.0</ele><time>2026-03-22T13:44:55.001Z</time></trkpt><trkpt lat="44.56323399655831" lon="11.718618215537482"><ele>5.8</ele><time>2026-03-22T13:44:56.001Z</time></trkpt><trkpt lat="44.56314156487031" lon="11.718702488404487"><ele>5.6</ele><time>2026-03-22T13:44:57.001Z</time></trkpt><trkpt lat="44.56304904928354" lon="11.71879303669996"><ele>5.4</ele><time>2026-03-22T13:44:58.001Z</time></trkpt><trkpt lat="44.56295496034731" lon="11.71887406644648"><ele>5.2</ele><time>2026-03-22T13:44:59.001Z</time></trkpt><trkpt lat="44.5628594621103" lon="11.718963002636528"><ele>5.0</ele><time>2026-03-22T13:45:00.001Z</time></trkpt><trkpt lat="44.56276415147132" lon="11.71905240334872"><ele>5.0</ele><time>2026-03-22T13:45:01.001Z</time></trkpt><trkpt lat="44.5626698892885" lon="11.719142369208187"><ele>5.0</ele><time>2026-03-22T13:45:02.001Z</time></trkpt><trkpt lat="44.562575338173914" lon="11.719229523807618"><ele>5.0</ele><time>2026-03-22T13:45:03.001Z</time></trkpt><trkpt lat="44.56248107130887" lon="11.719316717560499"><ele>5.0</ele><time>2026-03-22T13:45:04.001Z</time></trkpt><trkpt lat="44.56238936025064" lon="11.719402021557105"><ele>5.0</ele><time>2026-03-22T13:45:05.001Z</time></trkpt><trkpt lat="44.56229441924711" lon="11.719492220448283"><ele>5.0</ele><time>2026-03-22T13:45:06.001Z</time></trkpt><trkpt lat="44.56219807400081" lon="11.71957851322118"><ele>5.0</ele><time>2026-03-22T13:45:07.001Z</time></trkpt><trkpt lat="44.5620910890032" lon="11.719677612124912"><ele>5.0</ele><time>2026-03-22T13:45:08.001Z</time></trkpt><trkpt lat="44.56196962334701" lon="11.719781484026951"><ele>5.75</ele><time>2026-03-22T13:45:09.001Z</time></trkpt><trkpt lat="44.56184851150455" lon="11.719904527773444"><ele>6.5</ele><time>2026-03-22T13:45:10.001Z</time></trkpt><trkpt lat="44.56173782420744" lon="11.720006293314071"><ele>7.25</ele><time>2026-03-22T13:45:11.001Z</time></trkpt><trkpt lat="44.56163722293519" lon="11.720094811579305"><ele>8.0</ele><time>2026-03-22T13:45:12.001Z</time></trkpt><trkpt lat="44.56154359252977" lon="11.720171443171255"><ele>8.200000000000001</ele><time>2026-03-22T13:45:13.001Z</time></trkpt><trkpt lat="44.56145773091248" lon="11.72024894245896"><ele>8.4</ele><time>2026-03-22T13:45:14.001Z</time></trkpt><trkpt lat="44.56137307595763" lon="11.72032670541813"><ele>8.600000000000001</ele><time>2026-03-22T13:45:15.001Z</time></trkpt><trkpt lat="44.56128209725495" lon="11.720414391785738"><ele>8.8</ele><time>2026-03-22T13:45:16.001Z</time></trkpt><trkpt lat="44.56119910577376" lon="11.720489923431407"><ele>9.0</ele><time>2026-03-22T13:45:17.001Z</time></trkpt><trkpt lat="44.561125133314924" lon="11.720552009565946"><ele>9.0</ele><time>2026-03-22T13:45:18.001Z</time></trkpt><trkpt lat="44.561052001787296" lon="11.720622120948445"><ele>9.0</ele><time>2026-03-22T13:45:19.001Z</time></trkpt><trkpt lat="44.560973676528185" lon="11.720697887361595"><ele>9.0</ele><time>2026-03-22T13:45:20.001Z</time></trkpt><trkpt lat="44.560905781860384" lon="11.720763642952768"><ele>9.0</ele><time>2026-03-22T13:45:21.001Z</time></trkpt><trkpt lat="44.56084793383644" lon="11.720817476374894"><ele>9.0</ele><time>2026-03-22T13:45:22Z</time></trkpt><trkpt lat="44.56074552043652" lon="11.720910128834335"><ele>9.0</ele><time>2026-03-22T13:45:24Z</time></trkpt><trkpt lat="44.56067159235362" lon="11.720962020126299"><ele>9.0</ele><time>2026-03-22T13:45:26Z</time></trkpt><trkpt lat="44.560590521049" lon="11.720940580187243"><ele>9.0</ele><time>2026-03-22T13:45:29Z</time></trkpt><trkpt lat="44.56056128912672" lon="11.720828179103357"><ele>9.0</ele><time>2026-03-22T13:45:31Z</time></trkpt><trkpt lat="44.56053301768817" lon="11.720732765039559"><ele>9.0</ele><time>2026-03-22T13:45:33Z</time></trkpt><trkpt lat="44.560531077312696" lon="11.720624160396126"><ele>9.0</ele><time>2026-03-22T13:45:36Z</time></trkpt><trkpt lat="44.560480964823974" lon="11.720560827900082"><ele>9.0</ele><time>2026-03-22T13:46:28Z</time></trkpt><trkpt lat="44.56043672408328" lon="11.720439688263792"><ele>9.0</ele><time>2026-03-22T13:46:30Z</time></trkpt><trkpt lat="44.56039299650682" lon="11.720293902521329"><ele>9.0</ele><time>2026-03-22T13:46:32Z</time></trkpt><trkpt lat="44.56036233143685" lon="11.720201962760083"><ele>9.0</ele><time>2026-03-22T13:46:33Z</time></trkpt><trkpt lat="44.56032799138185" lon="11.72010149869379"><ele>9.0</ele><time>2026-03-22T13:46:34Z</time></trkpt><trkpt lat="44.560293369958984" lon="11.72000244649375"><ele>9.0</ele><time>2026-03-22T13:46:35Z</time></trkpt><trkpt lat="44.5602641346817" lon="11.719905716213562"><ele>9.0</ele><time>2026-03-22T13:46:36Z</time></trkpt><trkpt lat="44.56022863999631" lon="11.719786652506208"><ele>9.0</ele><time>2026-03-22T13:46:37Z</time></trkpt><trkpt lat="44.560182309254785" lon="11.719641874670828"><ele>9.0</ele><time>2026-03-22T13:46:38Z</time></trkpt><trkpt lat="44.560126354287" lon="11.719474695777002"><ele>9.0</ele><time>2026-03-22T13:46:39Z</time></trkpt><trkpt lat="44.56007218447081" lon="11.719310056658863"><ele>9.25</ele><time>2026-03-22T13:46:40Z</time></trkpt><trkpt lat="44.56001183412674" lon="11.719126203209925"><ele>9.5</ele><time>2026-03-22T13:46:41Z</time></trkpt><trkpt lat="44.559953804647584" lon="11.718954274966107"><ele>9.75</ele><time>2026-03-22T13:46:42Z</time></trkpt><trkpt lat="44.559894898063426" lon="11.718780039216407"><ele>10.0</ele><time>2026-03-22T13:46:43Z</time></trkpt><trkpt lat="44.55983062838881" lon="11.718594453388183"><ele>9.75</ele><time>2026-03-22T13:46:44Z</time></trkpt><trkpt lat="44.55976779206741" lon="11.718412146026264"><ele>9.5</ele><time>2026-03-22T13:46:45Z</time></trkpt><trkpt lat="44.55971388273687" lon="11.718243370453026"><ele>9.25</ele><time>2026-03-22T13:46:46Z</time></trkpt><trkpt lat="44.55965644490417" lon="11.718076857295662"><ele>9.0</ele><time>2026-03-22T13:46:47Z</time></trkpt><trkpt lat="44.55959962871802" lon="11.71790401657669"><ele>9.25</ele><time>2026-03-22T13:46:48Z</time></trkpt><trkpt lat="44.559538170465096" lon="11.717725420033446"><ele>9.5</ele><time>2026-03-22T13:46:49Z</time></trkpt><trkpt lat="44.55947340597724" lon="11.717544263645062"><ele>9.75</ele><time>2026-03-22T13:46:50Z</time></trkpt><trkpt lat="44.55940448941195" lon="11.717357340667714"><ele>10.0</ele><time>2026-03-22T13:46:51Z</time></trkpt><trkpt lat="44.55933966518626" lon="11.717163889464885"><ele>10.0</ele><time>2026-03-22T13:46:52Z</time></trkpt><trkpt lat="44.55927543069074" lon="11.716977345412126"><ele>10.0</ele><time>2026-03-22T13:46:53Z</time></trkpt><trkpt lat="44.55920733718052" lon="11.716783866723198"><ele>10.0</ele><time>2026-03-22T13:46:54Z</time></trkpt><trkpt lat="44.559141629041086" lon="11.716580501018031"><ele>9.0</ele><time>2026-03-22T13:46:55Z</time></trkpt><trkpt lat="44.55907208247332" lon="11.71637738725086"><ele>8.0</ele><time>2026-03-22T13:46:56Z</time></trkpt><trkpt lat="44.55899718407652" lon="11.716168246806513"><ele>7.0</ele><time>2026-03-22T13:46:57Z</time></trkpt><trkpt lat="44.558926128148485" lon="11.715963349005094"><ele>6.666666666666667</ele><time>2026-03-22T13:46:58Z</time></trkpt><trkpt lat="44.55885395028273" lon="11.715746797902987"><ele>6.333333333333334</ele><time>2026-03-22T13:46:59Z</time></trkpt><trkpt lat="44.55878496540943" lon="11.715536181528998"><ele>6.0</ele><time>2026-03-22T13:47:00Z</time></trkpt><trkpt lat="44.55871057722781" lon="11.71532687779864"><ele>7.333333333333334</ele><time>2026-03-22T13:47:01Z</time></trkpt><trkpt lat="44.55864204099013" lon="11.715116705051052"><ele>8.666666666666668</ele><time>2026-03-22T13:47:02Z</time></trkpt><trkpt lat="44.55856687185747" lon="11.71490233757255"><ele>10.0</ele><time>2026-03-22T13:47:03Z</time></trkpt><trkpt lat="44.5584861237014" lon="11.714689892339264"><ele>10.0</ele><time>2026-03-22T13:47:04Z</time></trkpt><trkpt lat="44.55841109746876" lon="11.714475062376387"><ele>10.0</ele><time>2026-03-22T13:47:05Z</time></trkpt><trkpt lat="44.55833096192399" lon="11.714259541980802"><ele>10.0</ele><time>2026-03-22T13:47:06Z</time></trkpt><trkpt lat="44.55824632168505" lon="11.714037783253472"><ele>9.0</ele><time>2026-03-22T13:47:07Z</time></trkpt><trkpt lat="44.55816367227533" lon="11.713817496066833"><ele>8.0</ele><time>2026-03-22T13:47:08Z</time></trkpt><trkpt lat="44.55808193684972" lon="11.713597708756481"><ele>7.0</ele><time>2026-03-22T13:47:09Z</time></trkpt><trkpt lat="44.55800063182622" lon="11.713375903583584"><ele>7.0</ele><time>2026-03-22T13:47:10.001Z</time></trkpt><trkpt lat="44.55791164178722" lon="11.71314564378395"><ele>7.0</ele><time>2026-03-22T13:47:11.001Z</time></trkpt><trkpt lat="44.557826554798176" lon="11.71292097104417"><ele>7.0</ele><time>2026-03-22T13:47:12.001Z</time></trkpt><trkpt lat="44.557738844753466" lon="11.712686546259553"><ele>6.666666666666667</ele><time>2026-03-22T13:47:13.001Z</time></trkpt><trkpt lat="44.55765301112198" lon="11.712454060523395"><ele>6.333333333333334</ele><time>2026-03-22T13:47:14.001Z</time></trkpt><trkpt lat="44.557568665371555" lon="11.712222042158809"><ele>6.0</ele><time>2026-03-22T13:47:15.001Z</time></trkpt><trkpt lat="44.557479583915466" lon="11.711984594906438"><ele>6.0</ele><time>2026-03-22T13:47:16.001Z</time></trkpt><trkpt lat="44.55739202605744" lon="11.711745371717226"><ele>6.0</ele><time>2026-03-22T13:47:17.001Z</time></trkpt><trkpt lat="44.55730468434843" lon="11.711508619935737"><ele>6.0</ele><time>2026-03-22T13:47:18.001Z</time></trkpt><trkpt lat="44.557216512843326" lon="11.711273782774004"><ele>6.0</ele><time>2026-03-22T13:47:19.001Z</time></trkpt><trkpt lat="44.55712567787122" lon="11.711031053073587"><ele>6.0</ele><time>2026-03-22T13:47:20.001Z</time></trkpt><trkpt lat="44.55703026560731" lon="11.710777909756999"><ele>6.0</ele><time>2026-03-22T13:47:21.001Z</time></trkpt><trkpt lat="44.55693467558188" lon="11.710519170977769"><ele>6.333333333333334</ele><time>2026-03-22T13:47:22.001Z</time></trkpt><trkpt lat="44.556837724432846" lon="11.710258153463231"><ele>6.666666666666667</ele><time>2026-03-22T13:47:23.001Z</time></trkpt><trkpt lat="44.55674160876559" lon="11.709995656397668"><ele>7.0</ele><time>2026-03-22T13:47:24.001Z</time></trkpt><trkpt lat="44.55664390992716" lon="11.709733780343424"><ele>7.0</ele><time>2026-03-22T13:47:25.001Z</time></trkpt><trkpt lat="44.556552084058296" lon="11.709473669661705"><ele>7.0</ele><time>2026-03-22T13:47:26.001Z</time></trkpt><trkpt lat="44.556455562194245" lon="11.709214437817916"><ele>7.0</ele><time>2026-03-22T13:47:27.001Z</time></trkpt><trkpt lat="44.5563614845627" lon="11.708961301335753"><ele>6.666666666666667</ele><time>2026-03-22T13:47:28.001Z</time></trkpt><trkpt lat="44.55626737831894" lon="11.70870835067142"><ele>6.333333333333334</ele><time>2026-03-22T13:47:29.001Z</time></trkpt><trkpt lat="44.556173766114625" lon="11.708457801056273"><ele>6.0</ele><time>2026-03-22T13:47:30.001Z</time></trkpt><trkpt lat="44.55608081671972" lon="11.708208584945371"><ele>6.666666666666666</ele><time>2026-03-22T13:47:31.001Z</time></trkpt><trkpt lat="44.5559878229709" lon="11.707958984242536"><ele>7.333333333333333</ele><time>2026-03-22T13:47:32.001Z</time></trkpt><trkpt lat="44.55589595359458" lon="11.70770863918572"><ele>8.0</ele><time>2026-03-22T13:47:33.001Z</time></trkpt><trkpt lat="44.555804674505595" lon="11.70745852832542"><ele>8.0</ele><time>2026-03-22T13:47:34.001Z</time></trkpt><trkpt lat="44.55571053119357" lon="11.707206551392527"><ele>8.0</ele><time>2026-03-22T13:47:35.001Z</time></trkpt><trkpt lat="44.5556194408098" lon="11.706956710058526"><ele>8.0</ele><time>2026-03-22T13:47:36.001Z</time></trkpt><trkpt lat="44.55552657851821" lon="11.706704337524844"><ele>7.666666666666666</ele><time>2026-03-22T13:47:37.001Z</time></trkpt><trkpt lat="44.55543384344847" lon="11.706450455744875"><ele>7.333333333333334</ele><time>2026-03-22T13:47:38.001Z</time></trkpt><trkpt lat="44.555338507241835" lon="11.706195427124742"><ele>7.0</ele><time>2026-03-22T13:47:39.001Z</time></trkpt><trkpt lat="44.55524455506851" lon="11.70594259998753"><ele>7.0</ele><time>2026-03-22T13:47:40.001Z</time></trkpt><trkpt lat="44.555151634257484" lon="11.705691905182329"><ele>7.0</ele><time>2026-03-22T13:47:41.001Z</time></trkpt><trkpt lat="44.55505857570834" lon="11.70543914194474"><ele>7.0</ele><time>2026-03-22T13:47:42.001Z</time></trkpt><trkpt lat="44.55496722582493" lon="11.70518921929157"><ele>6.666666666666667</ele><time>2026-03-22T13:47:43.001Z</time></trkpt><trkpt lat="44.55487317619665" lon="11.704934473106261"><ele>6.333333333333334</ele><time>2026-03-22T13:47:44.001Z</time></trkpt><trkpt lat="44.55478095303427" lon="11.704683842247716"><ele>6.0</ele><time>2026-03-22T13:47:45.001Z</time></trkpt><trkpt lat="44.55468779386005" lon="11.704431704593775"><ele>6.0</ele><time>2026-03-22T13:47:46.001Z</time></trkpt><trkpt lat="44.55459808321837" lon="11.704186552054711"><ele>6.0</ele><time>2026-03-22T13:47:47.001Z</time></trkpt><trkpt lat="44.55450651342757" lon="11.703942640229698"><ele>6.0</ele><time>2026-03-22T13:47:48.001Z</time></trkpt><trkpt lat="44.55441497152512" lon="11.703698436293848"><ele>6.333333333333334</ele><time>2026-03-22T13:47:49.001Z</time></trkpt><trkpt lat="44.554321812234264" lon="11.70345348299185"><ele>6.666666666666667</ele><time>2026-03-22T13:47:50.001Z</time></trkpt><trkpt lat="44.55423290179681" lon="11.703209598254407"><ele>7.0</ele><time>2026-03-22T13:47:51.001Z</time></trkpt><trkpt lat="44.55414524632936" lon="11.702963894584592"><ele>6.666666666666667</ele><time>2026-03-22T13:47:52.001Z</time></trkpt><trkpt lat="44.55405469544948" lon="11.702720303300488"><ele>6.333333333333334</ele><time>2026-03-22T13:47:53.001Z</time></trkpt><trkpt lat="44.55396374392053" lon="11.702476504597623"><ele>6.0</ele><time>2026-03-22T13:47:54Z</time></trkpt><trkpt lat="44.5538687512264" lon="11.702229316144464"><ele>6.0</ele><time>2026-03-22T13:47:55Z</time></trkpt><trkpt lat="44.55377816944693" lon="11.70198585248696"><ele>6.0</ele><time>2026-03-22T13:47:56Z</time></trkpt><trkpt lat="44.5536861684783" lon="11.70174264811949"><ele>6.0</ele><time>2026-03-22T13:47:57Z</time></trkpt><trkpt lat="44.5535942299662" lon="11.701501686454948"><ele>7.0</ele><time>2026-03-22T13:47:58Z</time></trkpt><trkpt lat="44.553496337539606" lon="11.70125585669925"><ele>8.0</ele><time>2026-03-22T13:47:59Z</time></trkpt><trkpt lat="44.55340910025384" lon="11.701018647304595"><ele>9.0</ele><time>2026-03-22T13:48:00Z</time></trkpt><trkpt lat="44.553321202863195" lon="11.70077694598947"><ele>9.0</ele><time>2026-03-22T13:48:01Z</time></trkpt><trkpt lat="44.553227105881284" lon="11.700527443558025"><ele>9.0</ele><time>2026-03-22T13:48:02Z</time></trkpt><trkpt lat="44.55313696681037" lon="11.700279448142062"><ele>9.0</ele><time>2026-03-22T13:48:03Z</time></trkpt><trkpt lat="44.55304659470925" lon="11.700027646772488"><ele>8.666666666666666</ele><time>2026-03-22T13:48:04Z</time></trkpt><trkpt lat="44.55295470089882" lon="11.69977545993011"><ele>8.333333333333332</ele><time>2026-03-22T13:48:05Z</time></trkpt><trkpt lat="44.552859499843294" lon="11.699523073641933"><ele>8.0</ele><time>2026-03-22T13:48:06Z</time></trkpt><trkpt lat="44.5527641088572" lon="11.6992699856474"><ele>7.666666666666666</ele><time>2026-03-22T13:48:07Z</time></trkpt><trkpt lat="44.55267002659437" lon="11.699012880144434"><ele>7.333333333333334</ele><time>2026-03-22T13:48:08Z</time></trkpt><trkpt lat="44.55257603022368" lon="11.698754682271362"><ele>7.0</ele><time>2026-03-22T13:48:09Z</time></trkpt><trkpt lat="44.55247918354373" lon="11.698498262272201"><ele>7.0</ele><time>2026-03-22T13:48:10Z</time></trkpt><trkpt lat="44.55238020701644" lon="11.698236709621963"><ele>7.0</ele><time>2026-03-22T13:48:11Z</time></trkpt><trkpt lat="44.55227917712504" lon="11.697967113054341"><ele>7.0</ele><time>2026-03-22T13:48:12Z</time></trkpt><trkpt lat="44.552170386015064" lon="11.697675131789687"><ele>7.0</ele><time>2026-03-22T13:48:13Z</time></trkpt><trkpt lat="44.55206429130751" lon="11.697383242049694"><ele>7.0</ele><time>2026-03-22T13:48:14Z</time></trkpt><trkpt lat="44.5519652284863" lon="11.697118557031562"><ele>7.0</ele><time>2026-03-22T13:48:15Z</time></trkpt><trkpt lat="44.5518749126473" lon="11.696872295989658"><ele>7.333333333333334</ele><time>2026-03-22T13:48:16Z</time></trkpt><trkpt lat="44.55178994372102" lon="11.69664628725734"><ele>7.666666666666666</ele><time>2026-03-22T13:48:17Z</time></trkpt><trkpt lat="44.55170874308651" lon="11.696429283914709"><ele>8.0</ele><time>2026-03-22T13:48:18Z</time></trkpt><trkpt lat="44.55162500497101" lon="11.696208751862082"><ele>9.0</ele><time>2026-03-22T13:48:19Z</time></trkpt><trkpt lat="44.55154291602217" lon="11.69598771787589"><ele>10.0</ele><time>2026-03-22T13:48:20Z</time></trkpt><trkpt lat="44.55146025212524" lon="11.695762270486302"><ele>11.0</ele><time>2026-03-22T13:48:21Z</time></trkpt><trkpt lat="44.55138255601351" lon="11.69554593355295"><ele>11.0</ele><time>2026-03-22T13:48:22Z</time></trkpt><trkpt lat="44.5513051012823" lon="11.695330381915364"><ele>11.0</ele><time>2026-03-22T13:48:23Z</time></trkpt><trkpt lat="44.55122390991889" lon="11.695115689141128"><ele>11.0</ele><time>2026-03-22T13:48:24Z</time></trkpt><trkpt lat="44.55114339094029" lon="11.694905747354632"><ele>10.0</ele><time>2026-03-22T13:48:25Z</time></trkpt><trkpt lat="44.55106604206839" lon="11.69469888586866"><ele>9.0</ele><time>2026-03-22T13:48:26Z</time></trkpt><trkpt lat="44.5509915161785" lon="11.694492704829331"><ele>8.0</ele><time>2026-03-22T13:48:27Z</time></trkpt><trkpt lat="44.550923167342376" lon="11.694300759126897"><ele>8.0</ele><time>2026-03-22T13:48:28Z</time></trkpt><trkpt lat="44.55085635071997" lon="11.69412742482591"><ele>8.0</ele><time>2026-03-22T13:48:29Z</time></trkpt><trkpt lat="44.55079332092657" lon="11.69395847038321"><ele>8.0</ele><time>2026-03-22T13:48:30Z</time></trkpt><trkpt lat="44.550738568043485" lon="11.6938079763865"><ele>8.0</ele><time>2026-03-22T13:48:31Z</time></trkpt><trkpt lat="44.55068610464412" lon="11.693662180889572"><ele>7.800000000000001</ele><time>2026-03-22T13:48:32Z</time></trkpt><trkpt lat="44.550635980777365" lon="11.693527302013598"><ele>7.6000000000000005</ele><time>2026-03-22T13:48:33Z</time></trkpt><trkpt lat="44.55059033144792" lon="11.693402581288435"><ele>7.3999999999999995</ele><time>2026-03-22T13:48:34Z</time></trkpt><trkpt lat="44.55054761814477" lon="11.693292453475504"><ele>7.199999999999999</ele><time>2026-03-22T13:48:35Z</time></trkpt><trkpt lat="44.55050792159148" lon="11.693185244375629"><ele>7.0</ele><time>2026-03-22T13:48:36Z</time></trkpt><trkpt lat="44.55047529537562" lon="11.6930876074216"><ele>7.000000000000001</ele><time>2026-03-22T13:48:37Z</time></trkpt><trkpt lat="44.55044681065313" lon="11.692997720835239"><ele>7.0</ele><time>2026-03-22T13:48:38Z</time></trkpt><trkpt lat="44.5504155680589" lon="11.692905474861258"><ele>7.0</ele><time>2026-03-22T13:48:39Z</time></trkpt><trkpt lat="44.55033578572202" lon="11.692770126463294"><ele>7.0</ele><time>2026-03-22T13:48:41Z</time></trkpt><trkpt lat="44.550267217568354" lon="11.692739673174383"><ele>7.000000000000001</ele><time>2026-03-22T13:48:42Z</time></trkpt><trkpt lat="44.5501882579321" lon="11.6927466619556"><ele>7.0</ele><time>2026-03-22T13:48:43Z</time></trkpt><trkpt lat="44.550108532185824" lon="11.692795901595892"><ele>6.8</ele><time>2026-03-22T13:48:44Z</time></trkpt><trkpt lat="44.550029494778954" lon="11.692872789768565"><ele>6.6</ele><time>2026-03-22T13:48:45Z</time></trkpt><trkpt lat="44.54994409299728" lon="11.692955484628268"><ele>6.3999999999999995</ele><time>2026-03-22T13:48:46Z</time></trkpt><trkpt lat="44.54984837045214" lon="11.693046320406342"><ele>6.199999999999999</ele><time>2026-03-22T13:48:47Z</time></trkpt><trkpt lat="44.54975383933142" lon="11.69313184124189"><ele>6.0</ele><time>2026-03-22T13:48:48Z</time></trkpt><trkpt lat="44.54965884605629" lon="11.693215539049135"><ele>6.0</ele><time>2026-03-22T13:48:49Z</time></trkpt><trkpt lat="44.54955309593087" lon="11.693311514535017"><ele>6.0</ele><time>2026-03-22T13:48:50Z</time></trkpt><trkpt lat="44.54943591395104" lon="11.693418957092621"><ele>6.0</ele><time>2026-03-22T13:48:51Z</time></trkpt><trkpt lat="44.54931548468097" lon="11.693532937989433"><ele>6.0</ele><time>2026-03-22T13:48:52Z</time></trkpt><trkpt lat="44.54919099943421" lon="11.693651785374673"><ele>6.0</ele><time>2026-03-22T13:48:53Z</time></trkpt><trkpt lat="44.54906770586383" lon="11.693763509104413"><ele>6.0</ele><time>2026-03-22T13:48:54Z</time></trkpt><trkpt lat="44.54894727058152" lon="11.69387230085573"><ele>6.0</ele><time>2026-03-22T13:48:55Z</time></trkpt><trkpt lat="44.54882366369546" lon="11.693985854123966"><ele>6.0</ele><time>2026-03-22T13:48:56Z</time></trkpt><trkpt lat="44.54869490561977" lon="11.694105455088279"><ele>6.0</ele><time>2026-03-22T13:48:57Z</time></trkpt><trkpt lat="44.54856546427873" lon="11.69422510828284"><ele>6.0</ele><time>2026-03-22T13:48:58Z</time></trkpt><trkpt lat="44.54843973305567" lon="11.6943393407957"><ele>6.0</ele><time>2026-03-22T13:48:59Z</time></trkpt><trkpt lat="44.54830839753653" lon="11.694460977886163"><ele>7.0</ele><time>2026-03-22T13:49:00Z</time></trkpt><trkpt lat="44.548174502224086" lon="11.694583730466077"><ele>8.0</ele><time>2026-03-22T13:49:01Z</time></trkpt><trkpt lat="44.54804066985657" lon="11.694708170216"><ele>9.0</ele><time>2026-03-22T13:49:02Z</time></trkpt><trkpt lat="44.547906060495855" lon="11.694830820611793"><ele>8.0</ele><time>2026-03-22T13:49:03Z</time></trkpt><trkpt lat="44.54775294975338" lon="11.694916594803345"><ele>7.0</ele><time>2026-03-22T13:49:04Z</time></trkpt><trkpt lat="44.54761683504318" lon="11.695042454560545"><ele>6.0</ele><time>2026-03-22T13:49:05Z</time></trkpt><trkpt lat="44.54748099077927" lon="11.695168064136448"><ele>6.333333333333334</ele><time>2026-03-22T13:49:06Z</time></trkpt><trkpt lat="44.5473429938046" lon="11.695295664284401"><ele>6.666666666666667</ele><time>2026-03-22T13:49:07Z</time></trkpt><trkpt lat="44.54720269875835" lon="11.695425389312254"><ele>7.0</ele><time>2026-03-22T13:49:08Z</time></trkpt><trkpt lat="44.54706441469586" lon="11.695553254965482"><ele>7.0</ele><time>2026-03-22T13:49:09Z</time></trkpt><trkpt lat="44.54692203822636" lon="11.695684904614765"><ele>7.0</ele><time>2026-03-22T13:49:10Z</time></trkpt><trkpt lat="44.546777235731554" lon="11.695817916209824"><ele>7.0</ele><time>2026-03-22T13:49:11Z</time></trkpt><trkpt lat="44.5466320672224" lon="11.69595125222072"><ele>7.0</ele><time>2026-03-22T13:49:12Z</time></trkpt><trkpt lat="44.546486067464365" lon="11.696085351816675"><ele>7.0</ele><time>2026-03-22T13:49:13Z</time></trkpt><trkpt lat="44.54633308819231" lon="11.696226098165406"><ele>7.0</ele><time>2026-03-22T13:49:14Z</time></trkpt><trkpt lat="44.54618799065137" lon="11.696362536293053"><ele>6.666666666666667</ele><time>2026-03-22T13:49:15Z</time></trkpt><trkpt lat="44.546042935052995" lon="11.696499675171609"><ele>6.333333333333334</ele><time>2026-03-22T13:49:16Z</time></trkpt><trkpt lat="44.54589707171402" lon="11.696636199068458"><ele>6.0</ele><time>2026-03-22T13:49:17Z</time></trkpt><trkpt lat="44.54574952038602" lon="11.696774316750913"><ele>6.0</ele><time>2026-03-22T13:49:18Z</time></trkpt><trkpt lat="44.545604256904305" lon="11.696910292771044"><ele>6.0</ele><time>2026-03-22T13:49:19Z</time></trkpt><trkpt lat="44.545459864777236" lon="11.697045453311674"><ele>6.0</ele><time>2026-03-22T13:49:20Z</time></trkpt><trkpt lat="44.54531820691382" lon="11.697177031069526"><ele>6.0</ele><time>2026-03-22T13:49:21Z</time></trkpt><trkpt lat="44.54517962176561" lon="11.697304918343688"><ele>6.0</ele><time>2026-03-22T13:49:22Z</time></trkpt><trkpt lat="44.54503426320732" lon="11.69743905623268"><ele>6.0</ele><time>2026-03-22T13:49:23Z</time></trkpt><trkpt lat="44.544887767031604" lon="11.697574243810687"><ele>6.0</ele><time>2026-03-22T13:49:24Z</time></trkpt><trkpt lat="44.54474153213845" lon="11.697709190374681"><ele>6.0</ele><time>2026-03-22T13:49:25Z</time></trkpt><trkpt lat="44.54459606500654" lon="11.697843428410925"><ele>6.0</ele><time>2026-03-22T13:49:26Z</time></trkpt><trkpt lat="44.54444734826003" lon="11.697980665238976"><ele>6.333333333333334</ele><time>2026-03-22T13:49:27Z</time></trkpt><trkpt lat="44.54430254717874" lon="11.698114627425454"><ele>6.666666666666667</ele><time>2026-03-22T13:49:28.001Z</time></trkpt><trkpt lat="44.5441556669017" lon="11.69825089983523"><ele>7.0</ele><time>2026-03-22T13:49:29.001Z</time></trkpt><trkpt lat="44.54400917133214" lon="11.698385143338788"><ele>7.0</ele><time>2026-03-22T13:49:30.001Z</time></trkpt><trkpt lat="44.54386475777375" lon="11.698515431880379"><ele>7.0</ele><time>2026-03-22T13:49:31.001Z</time></trkpt><trkpt lat="44.543718647187276" lon="11.698647922310595"><ele>7.0</ele><time>2026-03-22T13:49:32.001Z</time></trkpt><trkpt lat="44.54357400320674" lon="11.69878147503023"><ele>7.0</ele><time>2026-03-22T13:49:33.001Z</time></trkpt><trkpt lat="44.54342724488328" lon="11.698916312978106"><ele>7.0</ele><time>2026-03-22T13:49:34.001Z</time></trkpt><trkpt lat="44.54327932948675" lon="11.699051454335782"><ele>7.0</ele><time>2026-03-22T13:49:35.001Z</time></trkpt><trkpt lat="44.5431315482001" lon="11.699188712729597"><ele>7.0</ele><time>2026-03-22T13:49:36.001Z</time></trkpt><trkpt lat="44.54298462363751" lon="11.699325885129193"><ele>7.0</ele><time>2026-03-22T13:49:37.001Z</time></trkpt><trkpt lat="44.54283860056889" lon="11.69946221591056"><ele>7.0</ele><time>2026-03-22T13:49:38.001Z</time></trkpt><trkpt lat="44.54269046613238" lon="11.699600517996464"><ele>6.666666666666667</ele><time>2026-03-22T13:49:39.001Z</time></trkpt><trkpt lat="44.542547006455735" lon="11.699734455484705"><ele>6.333333333333334</ele><time>2026-03-22T13:49:40.001Z</time></trkpt><trkpt lat="44.54239940327705" lon="11.69987226154911"><ele>6.0</ele><time>2026-03-22T13:49:41.001Z</time></trkpt><trkpt lat="44.5422643951266" lon="11.700025046503958"><ele>6.0</ele><time>2026-03-22T13:49:42.001Z</time></trkpt><trkpt lat="44.54211686035678" lon="11.700133323127671"><ele>6.0</ele><time>2026-03-22T13:49:43.001Z</time></trkpt><trkpt lat="44.541987143886445" lon="11.700252311714445"><ele>6.0</ele><time>2026-03-22T13:49:44.001Z</time></trkpt><trkpt lat="44.54188008954626" lon="11.700378375627599"><ele>6.0</ele><time>2026-03-22T13:49:45.001Z</time></trkpt><trkpt lat="44.541767356575804" lon="11.70048016023183"><ele>6.0</ele><time>2026-03-22T13:49:46.001Z</time></trkpt><trkpt lat="44.54165579233424" lon="11.700585617884641"><ele>6.0</ele><time>2026-03-22T13:49:47.001Z</time></trkpt><trkpt lat="44.541541157371704" lon="11.700665666310256"><ele>6.0</ele><time>2026-03-22T13:49:48.001Z</time></trkpt><trkpt lat="44.54144491935505" lon="11.700757359979768"><ele>6.0</ele><time>2026-03-22T13:49:49.001Z</time></trkpt><trkpt lat="44.54134832507203" lon="11.700849393094138"><ele>6.0</ele><time>2026-03-22T13:49:50Z</time></trkpt><trkpt lat="44.541251304000305" lon="11.700940009031548"><ele>6.0</ele><time>2026-03-22T13:49:51Z</time></trkpt><trkpt lat="44.54116281779194" lon="11.7010204873231"><ele>6.0</ele><time>2026-03-22T13:49:52Z</time></trkpt><trkpt lat="44.54107211389577" lon="11.70109730020795"><ele>6.0</ele><time>2026-03-22T13:49:53Z</time></trkpt><trkpt lat="44.54096820353423" lon="11.701176704026548"><ele>6.25</ele><time>2026-03-22T13:49:54Z</time></trkpt><trkpt lat="44.540856306004216" lon="11.701233000334286"><ele>6.5</ele><time>2026-03-22T13:49:55Z</time></trkpt><trkpt lat="44.540733005774534" lon="11.701266516925443"><ele>6.75</ele><time>2026-03-22T13:49:56Z</time></trkpt><trkpt lat="44.54060118256935" lon="11.701236509060259"><ele>7.0</ele><time>2026-03-22T13:49:57Z</time></trkpt><trkpt lat="44.540463232653714" lon="11.701191701469561"><ele>7.0</ele><time>2026-03-22T13:49:58Z</time></trkpt><trkpt lat="44.54033896752198" lon="11.701143170377959"><ele>7.0</ele><time>2026-03-22T13:49:59Z</time></trkpt><trkpt lat="44.54022784590713" lon="11.701098760560741"><ele>7.0</ele><time>2026-03-22T13:50:00Z</time></trkpt><trkpt lat="44.540116385977576" lon="11.70103490784765"><ele>7.0</ele><time>2026-03-22T13:50:01Z</time></trkpt><trkpt lat="44.54000112994709" lon="11.700946514186382"><ele>7.0</ele><time>2026-03-22T13:50:02Z</time></trkpt><trkpt lat="44.53990055667665" lon="11.700826188704806"><ele>7.0</ele><time>2026-03-22T13:50:03Z</time></trkpt><trkpt lat="44.53980977379471" lon="11.700677737809826"><ele>7.0</ele><time>2026-03-22T13:50:04Z</time></trkpt><trkpt lat="44.53971982266704" lon="11.70051528355986"><ele>7.0</ele><time>2026-03-22T13:50:05Z</time></trkpt><trkpt lat="44.53963283059106" lon="11.700355255746947"><ele>6.666666666666667</ele><time>2026-03-22T13:50:06Z</time></trkpt><trkpt lat="44.53953315099391" lon="11.700204618365921"><ele>6.333333333333334</ele><time>2026-03-22T13:50:07Z</time></trkpt><trkpt lat="44.53943773977196" lon="11.700029198257129"><ele>6.0</ele><time>2026-03-22T13:50:08Z</time></trkpt><trkpt lat="44.5393371544412" lon="11.699849960868459"><ele>6.0</ele><time>2026-03-22T13:50:09Z</time></trkpt><trkpt lat="44.539237335674734" lon="11.699676413050298"><ele>6.0</ele><time>2026-03-22T13:50:10Z</time></trkpt><trkpt lat="44.539159625847994" lon="11.699497069209247"><ele>6.0</ele><time>2026-03-22T13:50:11Z</time></trkpt><trkpt lat="44.539054582256576" lon="11.699341660617439"><ele>5.666666666666667</ele><time>2026-03-22T13:50:12Z</time></trkpt><trkpt lat="44.53895955556281" lon="11.699170163347459"><ele>5.333333333333334</ele><time>2026-03-22T13:50:13Z</time></trkpt><trkpt lat="44.53886174269556" lon="11.698998112563867"><ele>5.0</ele><time>2026-03-22T13:50:14Z</time></trkpt><trkpt lat="44.53875994929404" lon="11.698819086329864"><ele>5.333333333333334</ele><time>2026-03-22T13:50:15Z</time></trkpt><trkpt lat="44.53867251643715" lon="11.698622145875184"><ele>5.666666666666667</ele><time>2026-03-22T13:50:16Z</time></trkpt><trkpt lat="44.53855771669992" lon="11.698449223984928"><ele>6.0</ele><time>2026-03-22T13:50:17Z</time></trkpt><trkpt lat="44.53845814308578" lon="11.698260855104408"><ele>6.0</ele><time>2026-03-22T13:50:18Z</time></trkpt><trkpt lat="44.53835580506042" lon="11.69807132860473"><ele>6.0</ele><time>2026-03-22T13:50:19Z</time></trkpt><trkpt lat="44.53825140337402" lon="11.69789495856632"><ele>6.0</ele><time>2026-03-22T13:50:20Z</time></trkpt><trkpt lat="44.53813658524742" lon="11.697738591785683"><ele>6.0</ele><time>2026-03-22T13:50:21Z</time></trkpt><trkpt lat="44.53801235552843" lon="11.697591974397584"><ele>6.0</ele><time>2026-03-22T13:50:22Z</time></trkpt><trkpt lat="44.5378867478398" lon="11.69745504710057"><ele>6.0</ele><time>2026-03-22T13:50:23Z</time></trkpt><trkpt lat="44.5377600744965" lon="11.697323479182892"><ele>6.0</ele><time>2026-03-22T13:50:24Z</time></trkpt><trkpt lat="44.53763757246368" lon="11.697163114324633"><ele>6.0</ele><time>2026-03-22T13:50:25Z</time></trkpt><trkpt lat="44.53750259576593" lon="11.697012042958852"><ele>6.0</ele><time>2026-03-22T13:50:26Z</time></trkpt><trkpt lat="44.5373697520004" lon="11.696863358854554"><ele>6.0</ele><time>2026-03-22T13:50:27Z</time></trkpt><trkpt lat="44.53721797007913" lon="11.6967262039175"><ele>6.0</ele><time>2026-03-22T13:50:28Z</time></trkpt><trkpt lat="44.53706995356625" lon="11.696566148993718"><ele>6.0</ele><time>2026-03-22T13:50:29Z</time></trkpt><trkpt lat="44.53692114874747" lon="11.696410662623366"><ele>6.0</ele><time>2026-03-22T13:50:30Z</time></trkpt><trkpt lat="44.53677504274517" lon="11.696246357789276"><ele>6.0</ele><time>2026-03-22T13:50:31Z</time></trkpt><trkpt lat="44.53661868457595" lon="11.696106494647834"><ele>6.0</ele><time>2026-03-22T13:50:32Z</time></trkpt><trkpt lat="44.5364540010624" lon="11.695974526953963"><ele>6.0</ele><time>2026-03-22T13:50:33Z</time></trkpt><trkpt lat="44.53628672898079" lon="11.695844390833873"><ele>6.0</ele><time>2026-03-22T13:50:34Z</time></trkpt><trkpt lat="44.53611647247037" lon="11.695710271451539"><ele>6.0</ele><time>2026-03-22T13:50:35Z</time></trkpt><trkpt lat="44.5359488258677" lon="11.695578208010549"><ele>6.333333333333334</ele><time>2026-03-22T13:50:36Z</time></trkpt><trkpt lat="44.53577628283004" lon="11.69544537356582"><ele>6.666666666666667</ele><time>2026-03-22T13:50:37Z</time></trkpt><trkpt lat="44.53560680160579" lon="11.695314264122574"><ele>7.0</ele><time>2026-03-22T13:50:38Z</time></trkpt><trkpt lat="44.53544021906493" lon="11.69518460000073"><ele>7.0</ele><time>2026-03-22T13:50:39Z</time></trkpt><trkpt lat="44.53527104187814" lon="11.69505291623772"><ele>7.0</ele><time>2026-03-22T13:50:40Z</time></trkpt><trkpt lat="44.53510353768409" lon="11.694922534715783"><ele>7.0</ele><time>2026-03-22T13:50:41Z</time></trkpt><trkpt lat="44.53493380751359" lon="11.694790641284822"><ele>7.0</ele><time>2026-03-22T13:50:42Z</time></trkpt><trkpt lat="44.53476573614832" lon="11.694664587724018"><ele>7.0</ele><time>2026-03-22T13:50:43Z</time></trkpt><trkpt lat="44.53459254107447" lon="11.694545827299736"><ele>7.0</ele><time>2026-03-22T13:50:44Z</time></trkpt><trkpt lat="44.53441705433227" lon="11.694438738628847"><ele>7.333333333333334</ele><time>2026-03-22T13:50:45Z</time></trkpt><trkpt lat="44.53424378308605" lon="11.694336056647419"><ele>7.666666666666666</ele><time>2026-03-22T13:50:46Z</time></trkpt><trkpt lat="44.534065510396886" lon="11.694249997772129"><ele>8.0</ele><time>2026-03-22T13:50:47Z</time></trkpt><trkpt lat="44.53389423234186" lon="11.694137757659295"><ele>8.0</ele><time>2026-03-22T13:50:48Z</time></trkpt><trkpt lat="44.53372502445898" lon="11.6940195187099"><ele>8.0</ele><time>2026-03-22T13:50:49Z</time></trkpt><trkpt lat="44.53355831204646" lon="11.693896391421294"><ele>8.0</ele><time>2026-03-22T13:50:50Z</time></trkpt><trkpt lat="44.533392950751185" lon="11.693769417969996"><ele>7.333333333333333</ele><time>2026-03-22T13:50:51Z</time></trkpt><trkpt lat="44.53322748355748" lon="11.693644425948348"><ele>6.666666666666666</ele><time>2026-03-22T13:50:52Z</time></trkpt><trkpt lat="44.53305959138937" lon="11.693520907750804"><ele>6.0</ele><time>2026-03-22T13:50:53Z</time></trkpt><trkpt lat="44.532889328752944" lon="11.693395861476843"><ele>6.0</ele><time>2026-03-22T13:50:54Z</time></trkpt><trkpt lat="44.53271623914821" lon="11.693267907450497"><ele>6.0</ele><time>2026-03-22T13:50:55Z</time></trkpt><trkpt lat="44.53254055800929" lon="11.693140350514906"><ele>6.0</ele><time>2026-03-22T13:50:56Z</time></trkpt><trkpt lat="44.53236748658665" lon="11.693013664370476"><ele>6.0</ele><time>2026-03-22T13:50:57Z</time></trkpt><trkpt lat="44.53219555311269" lon="11.692877576045026"><ele>6.0</ele><time>2026-03-22T13:50:58Z</time></trkpt><trkpt lat="44.53203302687607" lon="11.692741924568292"><ele>6.0</ele><time>2026-03-22T13:50:59Z</time></trkpt><trkpt lat="44.53187340612864" lon="11.69259826390531"><ele>6.333333333333334</ele><time>2026-03-22T13:51:00Z</time></trkpt><trkpt lat="44.5317108868779" lon="11.692449667158876"><ele>6.666666666666667</ele><time>2026-03-22T13:51:01Z</time></trkpt><trkpt lat="44.5315478466846" lon="11.692314196985562"><ele>7.0</ele><time>2026-03-22T13:51:02Z</time></trkpt><trkpt lat="44.53139022108668" lon="11.69217831306738"><ele>7.0</ele><time>2026-03-22T13:51:03Z</time></trkpt><trkpt lat="44.53123648707756" lon="11.692040450034767"><ele>7.0</ele><time>2026-03-22T13:51:04Z</time></trkpt><trkpt lat="44.53108504935898" lon="11.691895149690142"><ele>7.0</ele><time>2026-03-22T13:51:05Z</time></trkpt><trkpt lat="44.530935762847015" lon="11.691735300879094"><ele>7.666666666666667</ele><time>2026-03-22T13:51:06Z</time></trkpt><trkpt lat="44.53079574295601" lon="11.691551306473345"><ele>8.333333333333334</ele><time>2026-03-22T13:51:07Z</time></trkpt><trkpt lat="44.53066231847087" lon="11.691361874212088"><ele>9.0</ele><time>2026-03-22T13:51:08Z</time></trkpt><trkpt lat="44.53053393955362" lon="11.691177091221885"><ele>9.0</ele><time>2026-03-22T13:51:09Z</time></trkpt><trkpt lat="44.53040833456328" lon="11.69099787990235"><ele>9.0</ele><time>2026-03-22T13:51:10Z</time></trkpt><trkpt lat="44.53029165697729" lon="11.690831520037971"><ele>9.0</ele><time>2026-03-22T13:51:11Z</time></trkpt><trkpt lat="44.53017325291755" lon="11.690663623375045"><ele>9.0</ele><time>2026-03-22T13:51:12Z</time></trkpt><trkpt lat="44.53005016984192" lon="11.690492849667766"><ele>9.0</ele><time>2026-03-22T13:51:13Z</time></trkpt><trkpt lat="44.529923734074664" lon="11.690319817277755"><ele>9.0</ele><time>2026-03-22T13:51:14Z</time></trkpt><trkpt lat="44.52980371256574" lon="11.690129882440672"><ele>9.0</ele><time>2026-03-22T13:51:15Z</time></trkpt><trkpt lat="44.52967393636697" lon="11.689955823205237"><ele>9.0</ele><time>2026-03-22T13:51:16Z</time></trkpt><trkpt lat="44.529550877181265" lon="11.689782705971497"><ele>9.0</ele><time>2026-03-22T13:51:17Z</time></trkpt><trkpt lat="44.52943041117622" lon="11.689611905424606"><ele>8.666666666666666</ele><time>2026-03-22T13:51:18Z</time></trkpt><trkpt lat="44.5293137267913" lon="11.68945469227136"><ele>8.333333333333332</ele><time>2026-03-22T13:51:19Z</time></trkpt><trkpt lat="44.52921237944633" lon="11.689293553333764"><ele>8.0</ele><time>2026-03-22T13:51:20Z</time></trkpt><trkpt lat="44.52911382643772" lon="11.689147788847281"><ele>8.0</ele><time>2026-03-22T13:51:21Z</time></trkpt><trkpt lat="44.529026054618505" lon="11.689015384849537"><ele>8.0</ele><time>2026-03-22T13:51:22Z</time></trkpt><trkpt lat="44.528948424442625" lon="11.688892804957826"><ele>8.0</ele><time>2026-03-22T13:51:23Z</time></trkpt><trkpt lat="44.528871681342366" lon="11.688784174657512"><ele>8.0</ele><time>2026-03-22T13:51:24Z</time></trkpt><trkpt lat="44.52880261061175" lon="11.688685326671198"><ele>7.999999999999999</ele><time>2026-03-22T13:51:25Z</time></trkpt><trkpt lat="44.528739635761035" lon="11.688595428615123"><ele>8.0</ele><time>2026-03-22T13:51:26Z</time></trkpt><trkpt lat="44.52868850574104" lon="11.688516697096624"><ele>8.0</ele><time>2026-03-22T13:51:27Z</time></trkpt><trkpt lat="44.52865090378348" lon="11.688428039557735"><ele>8.0</ele><time>2026-03-22T13:51:28Z</time></trkpt><trkpt lat="44.52862426135088" lon="11.688305474455763"><ele>7.999999999999999</ele><time>2026-03-22T13:51:29Z</time></trkpt><trkpt lat="44.52861128098232" lon="11.688167631514172"><ele>8.0</ele><time>2026-03-22T13:51:30Z</time></trkpt><trkpt lat="44.528599926263944" lon="11.688017184559378"><ele>8.0</ele><time>2026-03-22T13:51:31Z</time></trkpt><trkpt lat="44.52856433204501" lon="11.687869473237752"><ele>8.0</ele><time>2026-03-22T13:51:32Z</time></trkpt><trkpt lat="44.52849708259252" lon="11.687725904664363"><ele>8.0</ele><time>2026-03-22T13:51:33Z</time></trkpt><trkpt lat="44.528419100456276" lon="11.687593203621915"><ele>8.0</ele><time>2026-03-22T13:51:34Z</time></trkpt><trkpt lat="44.528332776014985" lon="11.68746360631066"><ele>7.75</ele><time>2026-03-22T13:51:35Z</time></trkpt><trkpt lat="44.52823997571657" lon="11.687325361286163"><ele>7.5</ele><time>2026-03-22T13:51:36Z</time></trkpt><trkpt lat="44.528135182580755" lon="11.687181760888032"><ele>7.25</ele><time>2026-03-22T13:51:37Z</time></trkpt><trkpt lat="44.52802829115582" lon="11.687039273272719"><ele>7.0</ele><time>2026-03-22T13:51:38Z</time></trkpt><trkpt lat="44.52792925159149" lon="11.686897373676208"><ele>7.0</ele><time>2026-03-22T13:51:39Z</time></trkpt><trkpt lat="44.52781841835662" lon="11.686765965963334"><ele>7.0</ele><time>2026-03-22T13:51:40Z</time></trkpt><trkpt lat="44.527702583474344" lon="11.686626631096523"><ele>7.0</ele><time>2026-03-22T13:51:41Z</time></trkpt><trkpt lat="44.527582182501185" lon="11.68648539594141"><ele>7.0</ele><time>2026-03-22T13:51:42Z</time></trkpt><trkpt lat="44.52746061958106" lon="11.686348344015475"><ele>7.0</ele><time>2026-03-22T13:51:43Z</time></trkpt><trkpt lat="44.527341671210195" lon="11.686215083725857"><ele>7.0</ele><time>2026-03-22T13:51:44Z</time></trkpt><trkpt lat="44.527215468556754" lon="11.686082731648783"><ele>7.0</ele><time>2026-03-22T13:51:45Z</time></trkpt><trkpt lat="44.5270817119618" lon="11.685948637435045"><ele>7.0</ele><time>2026-03-22T13:51:46Z</time></trkpt><trkpt lat="44.52694489872431" lon="11.68581039517238"><ele>7.0</ele><time>2026-03-22T13:51:47Z</time></trkpt><trkpt lat="44.52681798805091" lon="11.685678317383557"><ele>7.0</ele><time>2026-03-22T13:51:48Z</time></trkpt><trkpt lat="44.52668962949406" lon="11.685544489617147"><ele>7.0</ele><time>2026-03-22T13:51:49Z</time></trkpt><trkpt lat="44.526551273950176" lon="11.685411980141257"><ele>7.0</ele><time>2026-03-22T13:51:50Z</time></trkpt><trkpt lat="44.52640568988066" lon="11.685267224365747"><ele>7.333333333333334</ele><time>2026-03-22T13:51:51Z</time></trkpt><trkpt lat="44.526258211271575" lon="11.685120023655308"><ele>7.666666666666666</ele><time>2026-03-22T13:51:52Z</time></trkpt><trkpt lat="44.52610781364258" lon="11.684968245030014"><ele>8.0</ele><time>2026-03-22T13:51:53Z</time></trkpt><trkpt lat="44.52595835173006" lon="11.684814148858797"><ele>8.666666666666666</ele><time>2026-03-22T13:51:54Z</time></trkpt><trkpt lat="44.52580811645517" lon="11.684657098617404"><ele>9.333333333333334</ele><time>2026-03-22T13:51:55Z</time></trkpt><trkpt lat="44.52565871399807" lon="11.684501408844408"><ele>10.0</ele><time>2026-03-22T13:51:56Z</time></trkpt><trkpt lat="44.52551024065318" lon="11.684346936879853"><ele>9.333333333333334</ele><time>2026-03-22T13:51:57Z</time></trkpt><trkpt lat="44.52536490303424" lon="11.684192934015872"><ele>8.666666666666666</ele><time>2026-03-22T13:51:58Z</time></trkpt><trkpt lat="44.5252153602964" lon="11.684033981194299"><ele>8.0</ele><time>2026-03-22T13:51:59Z</time></trkpt><trkpt lat="44.52506601142947" lon="11.683881060897948"><ele>8.0</ele><time>2026-03-22T13:52:00Z</time></trkpt><trkpt lat="44.524920533699614" lon="11.68372762821247"><ele>8.0</ele><time>2026-03-22T13:52:01Z</time></trkpt><trkpt lat="44.524778239031576" lon="11.683576205580241"><ele>8.0</ele><time>2026-03-22T13:52:02Z</time></trkpt><trkpt lat="44.5246346709601" lon="11.683425943600124"><ele>7.666666666666666</ele><time>2026-03-22T13:52:03Z</time></trkpt><trkpt lat="44.524488231378605" lon="11.68327989973147"><ele>7.333333333333334</ele><time>2026-03-22T13:52:04Z</time></trkpt><trkpt lat="44.52434189308932" lon="11.683129594751442"><ele>7.0</ele><time>2026-03-22T13:52:05Z</time></trkpt><trkpt lat="44.52419651755825" lon="11.682977198069839"><ele>7.0</ele><time>2026-03-22T13:52:06Z</time></trkpt><trkpt lat="44.52404954379334" lon="11.682823117381636"><ele>7.0</ele><time>2026-03-22T13:52:07Z</time></trkpt><trkpt lat="44.52390181187744" lon="11.68266789576724"><ele>7.0</ele><time>2026-03-22T13:52:08Z</time></trkpt><trkpt lat="44.523756144990365" lon="11.682513433886621"><ele>7.666666666666667</ele><time>2026-03-22T13:52:09Z</time></trkpt><trkpt lat="44.5236112578234" lon="11.682367116136726"><ele>8.333333333333334</ele><time>2026-03-22T13:52:10Z</time></trkpt><trkpt lat="44.52346770497253" lon="11.682221233330607"><ele>9.0</ele><time>2026-03-22T13:52:11Z</time></trkpt><trkpt lat="44.52332577689747" lon="11.682071112406343"><ele>8.333333333333334</ele><time>2026-03-22T13:52:12Z</time></trkpt><trkpt lat="44.52318586514389" lon="11.681926083084532"><ele>7.666666666666667</ele><time>2026-03-22T13:52:13Z</time></trkpt><trkpt lat="44.523047621132704" lon="11.681780200163388"><ele>7.0</ele><time>2026-03-22T13:52:14Z</time></trkpt><trkpt lat="44.522908760927976" lon="11.681630571529986"><ele>7.333333333333334</ele><time>2026-03-22T13:52:15Z</time></trkpt><trkpt lat="44.52277137545417" lon="11.681469763837246"><ele>7.666666666666666</ele><time>2026-03-22T13:52:16Z</time></trkpt><trkpt lat="44.522631144303574" lon="11.68130359204257"><ele>8.0</ele><time>2026-03-22T13:52:17Z</time></trkpt><trkpt lat="44.522511635754135" lon="11.681124033689741"><ele>8.0</ele><time>2026-03-22T13:52:18Z</time></trkpt><trkpt lat="44.522384656197445" lon="11.68096461775386"><ele>8.0</ele><time>2026-03-22T13:52:19Z</time></trkpt><trkpt lat="44.522255669603275" lon="11.680801256586442"><ele>8.0</ele><time>2026-03-22T13:52:20Z</time></trkpt><trkpt lat="44.522132767775894" lon="11.680643449865922"><ele>8.0</ele><time>2026-03-22T13:52:21Z</time></trkpt><trkpt lat="44.522004247946946" lon="11.68049841772522"><ele>8.0</ele><time>2026-03-22T13:52:22Z</time></trkpt><trkpt lat="44.52189284636438" lon="11.680316853197063"><ele>8.0</ele><time>2026-03-22T13:52:23Z</time></trkpt><trkpt lat="44.52180557897742" lon="11.680122274494572"><ele>8.0</ele><time>2026-03-22T13:52:24Z</time></trkpt><trkpt lat="44.521735685555704" lon="11.679906990266764"><ele>8.0</ele><time>2026-03-22T13:52:25Z</time></trkpt><trkpt lat="44.521673169691915" lon="11.679682731733124"><ele>8.0</ele><time>2026-03-22T13:52:26Z</time></trkpt><trkpt lat="44.521606973045735" lon="11.6794522361036"><ele>7.666666666666666</ele><time>2026-03-22T13:52:27Z</time></trkpt><trkpt lat="44.52154027761622" lon="11.679218963122135"><ele>7.333333333333334</ele><time>2026-03-22T13:52:28Z</time></trkpt><trkpt lat="44.52146761879383" lon="11.678983816294238"><ele>7.0</ele><time>2026-03-22T13:52:29Z</time></trkpt><trkpt lat="44.52139488028205" lon="11.678742636852908"><ele>7.0</ele><time>2026-03-22T13:52:30Z</time></trkpt><trkpt lat="44.52132132499055" lon="11.678502225605008"><ele>7.0</ele><time>2026-03-22T13:52:31Z</time></trkpt><trkpt lat="44.521245485840716" lon="11.678259527135562"><ele>7.0</ele><time>2026-03-22T13:52:32Z</time></trkpt><trkpt lat="44.5211625686636" lon="11.678015627013906"><ele>7.0</ele><time>2026-03-22T13:52:33Z</time></trkpt><trkpt lat="44.5210822883565" lon="11.677770001694503"><ele>7.0</ele><time>2026-03-22T13:52:34Z</time></trkpt><trkpt lat="44.52099913407098" lon="11.677523484549775"><ele>7.0</ele><time>2026-03-22T13:52:35Z</time></trkpt><trkpt lat="44.520915293154744" lon="11.677277271159173"><ele>7.0</ele><time>2026-03-22T13:52:36Z</time></trkpt><trkpt lat="44.52083473012023" lon="11.677037506137221"><ele>7.0</ele><time>2026-03-22T13:52:37Z</time></trkpt><trkpt lat="44.52075536858637" lon="11.676796089030413"><ele>7.0</ele><time>2026-03-22T13:52:38Z</time></trkpt><trkpt lat="44.52067664942083" lon="11.67655508335934"><ele>7.0</ele><time>2026-03-22T13:52:39Z</time></trkpt><trkpt lat="44.52059790002588" lon="11.676318751549976"><ele>7.0</ele><time>2026-03-22T13:52:40Z</time></trkpt><trkpt lat="44.520518700543946" lon="11.676083727674795"><ele>7.0</ele><time>2026-03-22T13:52:41Z</time></trkpt><trkpt lat="44.52043886346051" lon="11.675842974378252"><ele>7.0</ele><time>2026-03-22T13:52:42Z</time></trkpt><trkpt lat="44.52036178226225" lon="11.675603054381769"><ele>7.0</ele><time>2026-03-22T13:52:43Z</time></trkpt><trkpt lat="44.520284403499026" lon="11.675361511944631"><ele>7.0</ele><time>2026-03-22T13:52:44Z</time></trkpt><trkpt lat="44.5202031913607" lon="11.675120772876285"><ele>7.333333333333334</ele><time>2026-03-22T13:52:45Z</time></trkpt><trkpt lat="44.520120290644435" lon="11.674881548427967"><ele>7.666666666666666</ele><time>2026-03-22T13:52:46Z</time></trkpt><trkpt lat="44.52004083719126" lon="11.674645048101352"><ele>8.0</ele><time>2026-03-22T13:52:47Z</time></trkpt><trkpt lat="44.519959656224685" lon="11.67440245602582"><ele>8.333333333333332</ele><time>2026-03-22T13:52:48Z</time></trkpt><trkpt lat="44.51987871815241" lon="11.67415969424409"><ele>8.666666666666666</ele><time>2026-03-22T13:52:49Z</time></trkpt><trkpt lat="44.51979872016917" lon="11.67391980292123"><ele>9.0</ele><time>2026-03-22T13:52:50Z</time></trkpt><trkpt lat="44.519717714970504" lon="11.673677277981865"><ele>8.666666666666666</ele><time>2026-03-22T13:52:51Z</time></trkpt><trkpt lat="44.51963741696886" lon="11.67343724746138"><ele>8.333333333333332</ele><time>2026-03-22T13:52:52Z</time></trkpt><trkpt lat="44.51955652229585" lon="11.673198736194413"><ele>8.0</ele><time>2026-03-22T13:52:53Z</time></trkpt><trkpt lat="44.51947801855875" lon="11.672962192378623"><ele>9.0</ele><time>2026-03-22T13:52:54Z</time></trkpt><trkpt lat="44.51940371839126" lon="11.672734314730059"><ele>10.0</ele><time>2026-03-22T13:52:55Z</time></trkpt><trkpt lat="44.519335453185306" lon="11.672512590727287"><ele>11.0</ele><time>2026-03-22T13:52:56Z</time></trkpt><trkpt lat="44.51926403729137" lon="11.672292913968512"><ele>11.0</ele><time>2026-03-22T13:52:57Z</time></trkpt><trkpt lat="44.51919611901166" lon="11.672084591277924"><ele>11.0</ele><time>2026-03-22T13:52:58Z</time></trkpt><trkpt lat="44.51913424524078" lon="11.671895199319597"><ele>11.0</ele><time>2026-03-22T13:52:59Z</time></trkpt><trkpt lat="44.51907368541541" lon="11.671710653420353"><ele>10.75</ele><time>2026-03-22T13:53:00Z</time></trkpt><trkpt lat="44.519017494207525" lon="11.671539496891176"><ele>10.5</ele><time>2026-03-22T13:53:01Z</time></trkpt><trkpt lat="44.51896259994638" lon="11.67137641487928"><ele>10.25</ele><time>2026-03-22T13:53:02Z</time></trkpt><trkpt lat="44.518893581701874" lon="11.671210583669929"><ele>10.0</ele><time>2026-03-22T13:53:03Z</time></trkpt><trkpt lat="44.51880613627154" lon="11.671053482630853"><ele>10.333333333333334</ele><time>2026-03-22T13:53:04Z</time></trkpt><trkpt lat="44.51869666381856" lon="11.670919984211835"><ele>10.666666666666666</ele><time>2026-03-22T13:53:05Z</time></trkpt><trkpt lat="44.518571013708154" lon="11.670797886275164"><ele>11.0</ele><time>2026-03-22T13:53:06Z</time></trkpt><trkpt lat="44.51842699457046" lon="11.670685174620312"><ele>11.0</ele><time>2026-03-22T13:53:07Z</time></trkpt><trkpt lat="44.5182869061527" lon="11.670580623084913"><ele>11.0</ele><time>2026-03-22T13:53:08Z</time></trkpt><trkpt lat="44.5181510710013" lon="11.670475543975666"><ele>11.0</ele><time>2026-03-22T13:53:09Z</time></trkpt><trkpt lat="44.518008766065634" lon="11.670369518165497"><ele>10.666666666666666</ele><time>2026-03-22T13:53:10Z</time></trkpt><trkpt lat="44.517859402018765" lon="11.670265255625013"><ele>10.333333333333334</ele><time>2026-03-22T13:53:11Z</time></trkpt><trkpt lat="44.51770375565074" lon="11.670161852970491"><ele>10.0</ele><time>2026-03-22T13:53:12Z</time></trkpt><trkpt lat="44.51754312272095" lon="11.670056701847892"><ele>10.0</ele><time>2026-03-22T13:53:13Z</time></trkpt><trkpt lat="44.51738754619758" lon="11.669955821073204"><ele>10.0</ele><time>2026-03-22T13:53:14Z</time></trkpt><trkpt lat="44.51722787237009" lon="11.669856195542103"><ele>10.0</ele><time>2026-03-22T13:53:15Z</time></trkpt><trkpt lat="44.517064158260716" lon="11.669753096745882"><ele>10.333333333333334</ele><time>2026-03-22T13:53:16Z</time></trkpt><trkpt lat="44.51690405276506" lon="11.66965033147932"><ele>10.666666666666666</ele><time>2026-03-22T13:53:17Z</time></trkpt><trkpt lat="44.51673921633684" lon="11.669544877311111"><ele>11.0</ele><time>2026-03-22T13:53:18Z</time></trkpt><trkpt lat="44.51656883557736" lon="11.669454032642317"><ele>10.666666666666666</ele><time>2026-03-22T13:53:19Z</time></trkpt><trkpt lat="44.51640489968332" lon="11.669351961485038"><ele>10.333333333333334</ele><time>2026-03-22T13:53:20Z</time></trkpt><trkpt lat="44.51622980625363" lon="11.669290948526953"><ele>10.0</ele><time>2026-03-22T13:53:21Z</time></trkpt><trkpt lat="44.516059632082666" lon="11.669234193617752"><ele>10.0</ele><time>2026-03-22T13:53:22Z</time></trkpt><trkpt lat="44.51589016887206" lon="11.669176358959513"><ele>10.0</ele><time>2026-03-22T13:53:23Z</time></trkpt><trkpt lat="44.515717136779465" lon="11.66910674624056"><ele>10.0</ele><time>2026-03-22T13:53:24Z</time></trkpt><trkpt lat="44.515544473803466" lon="11.669019835606049"><ele>9.666666666666668</ele><time>2026-03-22T13:53:25Z</time></trkpt><trkpt lat="44.51537909761139" lon="11.668911642495825"><ele>9.333333333333334</ele><time>2026-03-22T13:53:26Z</time></trkpt><trkpt lat="44.515211168817736" lon="11.668790743053862"><ele>9.0</ele><time>2026-03-22T13:53:27Z</time></trkpt><trkpt lat="44.51504819450735" lon="11.668671484613453"><ele>9.333333333333334</ele><time>2026-03-22T13:53:28Z</time></trkpt><trkpt lat="44.51487720272393" lon="11.668572643293992"><ele>9.666666666666668</ele><time>2026-03-22T13:53:29Z</time></trkpt><trkpt lat="44.514713037861576" lon="11.668448426095184"><ele>10.0</ele><time>2026-03-22T13:53:30Z</time></trkpt><trkpt lat="44.51454702372823" lon="11.668332662695663"><ele>10.666666666666668</ele><time>2026-03-22T13:53:31Z</time></trkpt><trkpt lat="44.51438233774815" lon="11.668199628676495"><ele>11.333333333333334</ele><time>2026-03-22T13:53:32Z</time></trkpt><trkpt lat="44.51420914645637" lon="11.668087971286583"><ele>12.0</ele><time>2026-03-22T13:53:33Z</time></trkpt><trkpt lat="44.5140338039552" lon="11.668000989496026"><ele>12.0</ele><time>2026-03-22T13:53:34Z</time></trkpt><trkpt lat="44.51386593582315" lon="11.667894986367415"><ele>12.0</ele><time>2026-03-22T13:53:35Z</time></trkpt><trkpt lat="44.51369751655411" lon="11.667792119105089"><ele>12.0</ele><time>2026-03-22T13:53:36Z</time></trkpt><trkpt lat="44.51353732196628" lon="11.66766773626468"><ele>12.0</ele><time>2026-03-22T13:53:37Z</time></trkpt><trkpt lat="44.513373447106545" lon="11.66756174562275"><ele>12.0</ele><time>2026-03-22T13:53:38Z</time></trkpt><trkpt lat="44.513213199121225" lon="11.667450967143335"><ele>12.0</ele><time>2026-03-22T13:53:39Z</time></trkpt><trkpt lat="44.51305659675768" lon="11.667336687786637"><ele>11.666666666666666</ele><time>2026-03-22T13:53:40Z</time></trkpt><trkpt lat="44.51290383434868" lon="11.667215015436424"><ele>11.333333333333332</ele><time>2026-03-22T13:53:41Z</time></trkpt><trkpt lat="44.51274827779287" lon="11.66707361015499"><ele>11.0</ele><time>2026-03-22T13:53:42Z</time></trkpt><trkpt lat="44.51260694724227" lon="11.66692356126021"><ele>12.333333333333332</ele><time>2026-03-22T13:53:43Z</time></trkpt><trkpt lat="44.51246068183958" lon="11.66677593377636"><ele>13.666666666666666</ele><time>2026-03-22T13:53:44Z</time></trkpt><trkpt lat="44.51232981795382" lon="11.66660725955218"><ele>15.0</ele><time>2026-03-22T13:53:45Z</time></trkpt><trkpt lat="44.51219906626846" lon="11.666445382227446"><ele>14.0</ele><time>2026-03-22T13:53:46Z</time></trkpt><trkpt lat="44.51206890816686" lon="11.666290056796667"><ele>13.0</ele><time>2026-03-22T13:53:47Z</time></trkpt><trkpt lat="44.511928023187856" lon="11.66613941459847"><ele>12.0</ele><time>2026-03-22T13:53:48Z</time></trkpt><trkpt lat="44.511776044785144" lon="11.666007164117392"><ele>12.0</ele><time>2026-03-22T13:53:49Z</time></trkpt><trkpt lat="44.51161430680264" lon="11.665883405728597"><ele>12.0</ele><time>2026-03-22T13:53:50Z</time></trkpt><trkpt lat="44.51144884757717" lon="11.665768568845234"><ele>12.0</ele><time>2026-03-22T13:53:51Z</time></trkpt><trkpt lat="44.5112823065871" lon="11.665660566687858"><ele>11.0</ele><time>2026-03-22T13:53:52Z</time></trkpt><trkpt lat="44.51112422505159" lon="11.66552600074459"><ele>10.0</ele><time>2026-03-22T13:53:53Z</time></trkpt><trkpt lat="44.51096264919793" lon="11.665410666413926"><ele>9.0</ele><time>2026-03-22T13:53:54Z</time></trkpt><trkpt lat="44.510801657499954" lon="11.6652879185976"><ele>9.666666666666666</ele><time>2026-03-22T13:53:55Z</time></trkpt><trkpt lat="44.510638527937225" lon="11.665180089739227"><ele>10.333333333333332</ele><time>2026-03-22T13:53:56Z</time></trkpt><trkpt lat="44.51049629448869" lon="11.665025468165478"><ele>11.0</ele><time>2026-03-22T13:53:57Z</time></trkpt><trkpt lat="44.51034823357113" lon="11.66488579422089"><ele>11.0</ele><time>2026-03-22T13:53:58Z</time></trkpt><trkpt lat="44.51019107992941" lon="11.664763661264713"><ele>11.0</ele><time>2026-03-22T13:53:59Z</time></trkpt><trkpt lat="44.510040090443105" lon="11.664627110502034"><ele>11.0</ele><time>2026-03-22T13:54:00Z</time></trkpt><trkpt lat="44.50988642682708" lon="11.66449851938675"><ele>11.0</ele><time>2026-03-22T13:54:01Z</time></trkpt><trkpt lat="44.509721464861606" lon="11.664404146009955"><ele>11.0</ele><time>2026-03-22T13:54:02Z</time></trkpt><trkpt lat="44.50957261063295" lon="11.664324461663698"><ele>11.0</ele><time>2026-03-22T13:54:03Z</time></trkpt><trkpt lat="44.50942467138702" lon="11.664246930852876"><ele>11.333333333333332</ele><time>2026-03-22T13:54:04Z</time></trkpt><trkpt lat="44.50927621001638" lon="11.664174132043946"><ele>11.666666666666666</ele><time>2026-03-22T13:54:05Z</time></trkpt><trkpt lat="44.50912621796146" lon="11.66409720610518"><ele>12.0</ele><time>2026-03-22T13:54:06Z</time></trkpt><trkpt lat="44.508977683633475" lon="11.664021260941787"><ele>12.0</ele><time>2026-03-22T13:54:07Z</time></trkpt><trkpt lat="44.508829054495926" lon="11.663945096528044"><ele>12.0</ele><time>2026-03-22T13:54:08Z</time></trkpt><trkpt lat="44.508682689582244" lon="11.663867507364092"><ele>12.0</ele><time>2026-03-22T13:54:09Z</time></trkpt><trkpt lat="44.508543615859374" lon="11.663793784148837"><ele>12.0</ele><time>2026-03-22T13:54:10Z</time></trkpt><trkpt lat="44.508416465057266" lon="11.66372638159796"><ele>12.0</ele><time>2026-03-22T13:54:11Z</time></trkpt><trkpt lat="44.508290138667796" lon="11.663682419760468"><ele>12.0</ele><time>2026-03-22T13:54:12Z</time></trkpt><trkpt lat="44.50817318373446" lon="11.663597418975263"><ele>12.0</ele><time>2026-03-22T13:54:13Z</time></trkpt><trkpt lat="44.50804923028998" lon="11.66353159723688"><ele>12.0</ele><time>2026-03-22T13:54:14Z</time></trkpt><trkpt lat="44.507922798138196" lon="11.663463848418235"><ele>12.0</ele><time>2026-03-22T13:54:15Z</time></trkpt><trkpt lat="44.50778916746674" lon="11.663408404230658"><ele>12.0</ele><time>2026-03-22T13:54:16Z</time></trkpt><trkpt lat="44.50765783557572" lon="11.663314817365233"><ele>12.0</ele><time>2026-03-22T13:54:17Z</time></trkpt><trkpt lat="44.507523438969315" lon="11.663225730961084"><ele>12.0</ele><time>2026-03-22T13:54:18Z</time></trkpt><trkpt lat="44.50738844948517" lon="11.663118148918448"><ele>12.0</ele><time>2026-03-22T13:54:19Z</time></trkpt><trkpt lat="44.50725821137733" lon="11.663010338072695"><ele>12.0</ele><time>2026-03-22T13:54:20Z</time></trkpt><trkpt lat="44.50712790657888" lon="11.662897740199293"><ele>12.0</ele><time>2026-03-22T13:54:21Z</time></trkpt><trkpt lat="44.506994277704024" lon="11.662789057166776"><ele>12.0</ele><time>2026-03-22T13:54:22Z</time></trkpt><trkpt lat="44.50685848300498" lon="11.662689622987255"><ele>12.0</ele><time>2026-03-22T13:54:23Z</time></trkpt><trkpt lat="44.506722546330984" lon="11.662608346172744"><ele>12.333333333333332</ele><time>2026-03-22T13:54:24Z</time></trkpt><trkpt lat="44.50658947022309" lon="11.66250957248779"><ele>12.666666666666666</ele><time>2026-03-22T13:54:25Z</time></trkpt><trkpt lat="44.50644506887651" lon="11.662433362514655"><ele>13.0</ele><time>2026-03-22T13:54:26Z</time></trkpt><trkpt lat="44.50629724765018" lon="11.662368016147695"><ele>13.0</ele><time>2026-03-22T13:54:27Z</time></trkpt><trkpt lat="44.50614542343665" lon="11.662312042872749"><ele>13.0</ele><time>2026-03-22T13:54:28Z</time></trkpt><trkpt lat="44.505992722005665" lon="11.66225830822219"><ele>13.0</ele><time>2026-03-22T13:54:29Z</time></trkpt><trkpt lat="44.50583850024796" lon="11.662204037816403"><ele>13.0</ele><time>2026-03-22T13:54:30Z</time></trkpt><trkpt lat="44.50568869719554" lon="11.662145429306356"><ele>13.0</ele><time>2026-03-22T13:54:31Z</time></trkpt><trkpt lat="44.50553662754634" lon="11.662095977018776"><ele>13.0</ele><time>2026-03-22T13:54:32Z</time></trkpt><trkpt lat="44.505382789339265" lon="11.662020955080791"><ele>12.333333333333332</ele><time>2026-03-22T13:54:33Z</time></trkpt><trkpt lat="44.50524035354896" lon="11.661912370448649"><ele>11.666666666666666</ele><time>2026-03-22T13:54:34Z</time></trkpt><trkpt lat="44.505095925631146" lon="11.661806712581047"><ele>11.0</ele><time>2026-03-22T13:54:35Z</time></trkpt><trkpt lat="44.504956951316316" lon="11.661683032839532"><ele>11.0</ele><time>2026-03-22T13:54:36Z</time></trkpt><trkpt lat="44.504825396608894" lon="11.66153792827658"><ele>11.0</ele><time>2026-03-22T13:54:37Z</time></trkpt><trkpt lat="44.50469168506736" lon="11.661401457542118"><ele>11.0</ele><time>2026-03-22T13:54:38Z</time></trkpt><trkpt lat="44.504568737606334" lon="11.661246828584927"><ele>11.333333333333332</ele><time>2026-03-22T13:54:39Z</time></trkpt><trkpt lat="44.50445101448767" lon="11.66109456591146"><ele>11.666666666666666</ele><time>2026-03-22T13:54:40Z</time></trkpt><trkpt lat="44.504333946938125" lon="11.660945170073104"><ele>12.0</ele><time>2026-03-22T13:54:41Z</time></trkpt><trkpt lat="44.50421806516847" lon="11.660798981897514"><ele>12.0</ele><time>2026-03-22T13:54:42Z</time></trkpt><trkpt lat="44.50410602678302" lon="11.660647944259308"><ele>12.0</ele><time>2026-03-22T13:54:43Z</time></trkpt><trkpt lat="44.504000201487386" lon="11.660499902150534"><ele>12.0</ele><time>2026-03-22T13:54:44Z</time></trkpt><trkpt lat="44.5038809209631" lon="11.660359462640038"><ele>11.666666666666666</ele><time>2026-03-22T13:54:45Z</time></trkpt><trkpt lat="44.50375894356832" lon="11.660227460180673"><ele>11.333333333333332</ele><time>2026-03-22T13:54:46Z</time></trkpt><trkpt lat="44.503624492564406" lon="11.660113464385637"><ele>11.0</ele><time>2026-03-22T13:54:47Z</time></trkpt><trkpt lat="44.503487244407566" lon="11.660010727016376"><ele>11.666666666666666</ele><time>2026-03-22T13:54:48Z</time></trkpt><trkpt lat="44.503346398308615" lon="11.659909917305228"><ele>12.333333333333332</ele><time>2026-03-22T13:54:49Z</time></trkpt><trkpt lat="44.5032139027911" lon="11.659784705056092"><ele>13.0</ele><time>2026-03-22T13:54:50Z</time></trkpt><trkpt lat="44.50306593396778" lon="11.659694521618022"><ele>13.0</ele><time>2026-03-22T13:54:51Z</time></trkpt><trkpt lat="44.50292118428174" lon="11.659584366698622"><ele>13.0</ele><time>2026-03-22T13:54:52Z</time></trkpt><trkpt lat="44.50278072832161" lon="11.659454722550098"><ele>13.0</ele><time>2026-03-22T13:54:53Z</time></trkpt><trkpt lat="44.50263270061242" lon="11.659345237033744"><ele>13.666666666666666</ele><time>2026-03-22T13:54:54Z</time></trkpt><trkpt lat="44.5024871262891" lon="11.659237566286116"><ele>14.333333333333332</ele><time>2026-03-22T13:54:55Z</time></trkpt><trkpt lat="44.50233978247386" lon="11.6591283084955"><ele>15.0</ele><time>2026-03-22T13:54:56Z</time></trkpt><trkpt lat="44.502190681161444" lon="11.6590197122649"><ele>14.333333333333332</ele><time>2026-03-22T13:54:57Z</time></trkpt><trkpt lat="44.50204496178204" lon="11.658913841592952"><ele>13.666666666666666</ele><time>2026-03-22T13:54:58Z</time></trkpt><trkpt lat="44.501895586196795" lon="11.65880526083738"><ele>13.0</ele><time>2026-03-22T13:54:59Z</time></trkpt><trkpt lat="44.50174939568642" lon="11.658697829161545"><ele>13.333333333333332</ele><time>2026-03-22T13:55:00Z</time></trkpt><trkpt lat="44.501599853113085" lon="11.65858793402071"><ele>13.666666666666668</ele><time>2026-03-22T13:55:01Z</time></trkpt><trkpt lat="44.50145039583324" lon="11.658474670419706"><ele>14.0</ele><time>2026-03-22T13:55:02Z</time></trkpt><trkpt lat="44.50129392485617" lon="11.65835573776409"><ele>14.666666666666668</ele><time>2026-03-22T13:55:03Z</time></trkpt><trkpt lat="44.50113180573614" lon="11.65823251205766"><ele>15.333333333333332</ele><time>2026-03-22T13:55:04Z</time></trkpt><trkpt lat="44.50096915238813" lon="11.658108880177826"><ele>16.0</ele><time>2026-03-22T13:55:05Z</time></trkpt><trkpt lat="44.5008084379738" lon="11.657985703545702"><ele>16.0</ele><time>2026-03-22T13:55:06Z</time></trkpt><trkpt lat="44.50064710756768" lon="11.657861384223906"><ele>16.0</ele><time>2026-03-22T13:55:07Z</time></trkpt><trkpt lat="44.50048427161159" lon="11.657739249539489"><ele>16.0</ele><time>2026-03-22T13:55:08Z</time></trkpt><trkpt lat="44.50031974508029" lon="11.657616631067965"><ele>14.666666666666666</ele><time>2026-03-22T13:55:09Z</time></trkpt><trkpt lat="44.50015669765223" lon="11.65749511498613"><ele>13.333333333333332</ele><time>2026-03-22T13:55:10Z</time></trkpt><trkpt lat="44.49999319605364" lon="11.65737326036999"><ele>12.0</ele><time>2026-03-22T13:55:11Z</time></trkpt><trkpt lat="44.49982231264655" lon="11.657271765414686"><ele>12.0</ele><time>2026-03-22T13:55:12Z</time></trkpt><trkpt lat="44.49965993738992" lon="11.657149465485372"><ele>12.0</ele><time>2026-03-22T13:55:13Z</time></trkpt><trkpt lat="44.499506767845666" lon="11.657008458616986"><ele>12.0</ele><time>2026-03-22T13:55:14Z</time></trkpt><trkpt lat="44.49934404589765" lon="11.656885770423386"><ele>12.666666666666668</ele><time>2026-03-22T13:55:15Z</time></trkpt><trkpt lat="44.499185325662424" lon="11.656766099394279"><ele>13.333333333333334</ele><time>2026-03-22T13:55:16Z</time></trkpt><trkpt lat="44.49902266411975" lon="11.656642298243376"><ele>14.0</ele><time>2026-03-22T13:55:17Z</time></trkpt><trkpt lat="44.49886049818197" lon="11.656518507804218"><ele>14.0</ele><time>2026-03-22T13:55:18Z</time></trkpt><trkpt lat="44.498694861958676" lon="11.656391012008259"><ele>14.0</ele><time>2026-03-22T13:55:19Z</time></trkpt><trkpt lat="44.49853510060415" lon="11.656267479286596"><ele>14.0</ele><time>2026-03-22T13:55:20Z</time></trkpt><trkpt lat="44.49836501765818" lon="11.656160524735453"><ele>14.333333333333334</ele><time>2026-03-22T13:55:21Z</time></trkpt><trkpt lat="44.49821085738455" lon="11.656016763956266"><ele>14.666666666666668</ele><time>2026-03-22T13:55:22Z</time></trkpt><trkpt lat="44.49804656505288" lon="11.655887582077996"><ele>15.0</ele><time>2026-03-22T13:55:23Z</time></trkpt><trkpt lat="44.497879619488295" lon="11.655755830102136"><ele>15.0</ele><time>2026-03-22T13:55:24Z</time></trkpt><trkpt lat="44.49771168631996" lon="11.655625533947116"><ele>15.0</ele><time>2026-03-22T13:55:25Z</time></trkpt><trkpt lat="44.49754276048619" lon="11.655490924168442"><ele>15.0</ele><time>2026-03-22T13:55:26Z</time></trkpt><trkpt lat="44.497376046268016" lon="11.655355753566145"><ele>15.333333333333332</ele><time>2026-03-22T13:55:27Z</time></trkpt><trkpt lat="44.49720756107292" lon="11.655221893657423"><ele>15.666666666666666</ele><time>2026-03-22T13:55:28Z</time></trkpt><trkpt lat="44.49703908217753" lon="11.655088387568025"><ele>16.0</ele><time>2026-03-22T13:55:29Z</time></trkpt><trkpt lat="44.4968712160384" lon="11.654955378877132"><ele>16.333333333333332</ele><time>2026-03-22T13:55:30Z</time></trkpt><trkpt lat="44.49670253043688" lon="11.654823862483497"><ele>16.666666666666668</ele><time>2026-03-22T13:55:31Z</time></trkpt><trkpt lat="44.496527885067096" lon="11.65471508122684"><ele>17.0</ele><time>2026-03-22T13:55:32Z</time></trkpt><trkpt lat="44.496359732891115" lon="11.654586010591592"><ele>16.666666666666668</ele><time>2026-03-22T13:55:33Z</time></trkpt><trkpt lat="44.49619477759155" lon="11.654461801659735"><ele>16.333333333333332</ele><time>2026-03-22T13:55:34Z</time></trkpt><trkpt lat="44.49602546800123" lon="11.654334989375268"><ele>16.0</ele><time>2026-03-22T13:55:35Z</time></trkpt><trkpt lat="44.49585758930082" lon="11.65420725572444"><ele>16.0</ele><time>2026-03-22T13:55:36Z</time></trkpt><trkpt lat="44.4956930240949" lon="11.654083005806458"><ele>16.0</ele><time>2026-03-22T13:55:37Z</time></trkpt><trkpt lat="44.495527992192855" lon="11.653957770912605"><ele>16.0</ele><time>2026-03-22T13:55:38Z</time></trkpt><trkpt lat="44.49536369167608" lon="11.653833926072565"><ele>16.333333333333332</ele><time>2026-03-22T13:55:39Z</time></trkpt><trkpt lat="44.49519722763438" lon="11.65370821697153"><ele>16.666666666666668</ele><time>2026-03-22T13:55:40Z</time></trkpt><trkpt lat="44.49502839795656" lon="11.653581564422295"><ele>17.0</ele><time>2026-03-22T13:55:41Z</time></trkpt><trkpt lat="44.49486181257003" lon="11.65345751779032"><ele>17.333333333333336</ele><time>2026-03-22T13:55:42Z</time></trkpt><trkpt lat="44.494698984177354" lon="11.653335762141435"><ele>17.666666666666668</ele><time>2026-03-22T13:55:43Z</time></trkpt><trkpt lat="44.49453656082922" lon="11.653212000912093"><ele>18.0</ele><time>2026-03-22T13:55:44Z</time></trkpt><trkpt lat="44.4943666891486" lon="11.653085636083206"><ele>17.0</ele><time>2026-03-22T13:55:45Z</time></trkpt><trkpt lat="44.494202215349866" lon="11.652962057057394"><ele>16.0</ele><time>2026-03-22T13:55:46Z</time></trkpt><trkpt lat="44.49403615940125" lon="11.652843630777275"><ele>15.0</ele><time>2026-03-22T13:55:47Z</time></trkpt><trkpt lat="44.49387907401078" lon="11.652705907685386"><ele>15.333333333333332</ele><time>2026-03-22T13:55:48Z</time></trkpt><trkpt lat="44.49371634953752" lon="11.652584273030744"><ele>15.666666666666666</ele><time>2026-03-22T13:55:49Z</time></trkpt><trkpt lat="44.4935520124425" lon="11.652461106598938"><ele>16.0</ele><time>2026-03-22T13:55:50Z</time></trkpt><trkpt lat="44.493388167084674" lon="11.652338584897647"><ele>16.0</ele><time>2026-03-22T13:55:51Z</time></trkpt><trkpt lat="44.4932195081557" lon="11.652232285923198"><ele>16.0</ele><time>2026-03-22T13:55:52Z</time></trkpt><trkpt lat="44.49305892041014" lon="11.652097895983312"><ele>16.0</ele><time>2026-03-22T13:55:53Z</time></trkpt><trkpt lat="44.49291605467979" lon="11.651940271283163"><ele>16.0</ele><time>2026-03-22T13:55:54Z</time></trkpt><trkpt lat="44.49276372538564" lon="11.651796073899295"><ele>16.0</ele><time>2026-03-22T13:55:55Z</time></trkpt><trkpt lat="44.49261585136173" lon="11.651653627974582"><ele>16.0</ele><time>2026-03-22T13:55:56Z</time></trkpt><trkpt lat="44.49246872295048" lon="11.651537728253736"><ele>16.0</ele><time>2026-03-22T13:55:57Z</time></trkpt><trkpt lat="44.49234204088622" lon="11.651402048370537"><ele>16.0</ele><time>2026-03-22T13:55:58Z</time></trkpt><trkpt lat="44.49221551352113" lon="11.651272406179775"><ele>16.0</ele><time>2026-03-22T13:55:59Z</time></trkpt><trkpt lat="44.49209651035552" lon="11.651118917523334"><ele>16.666666666666664</ele><time>2026-03-22T13:56:00Z</time></trkpt><trkpt lat="44.49197011885137" lon="11.650979071742347"><ele>17.333333333333332</ele><time>2026-03-22T13:56:01Z</time></trkpt><trkpt lat="44.49183847998792" lon="11.650851991428148"><ele>18.0</ele><time>2026-03-22T13:56:02Z</time></trkpt><trkpt lat="44.491721219779606" lon="11.650698813782371"><ele>18.0</ele><time>2026-03-22T13:56:03Z</time></trkpt><trkpt lat="44.49160581215567" lon="11.650541310167293"><ele>18.0</ele><time>2026-03-22T13:56:04Z</time></trkpt><trkpt lat="44.49147819608527" lon="11.650398231769412"><ele>18.0</ele><time>2026-03-22T13:56:05Z</time></trkpt><trkpt lat="44.49134418431509" lon="11.650279549426838"><ele>17.666666666666668</ele><time>2026-03-22T13:56:06Z</time></trkpt><trkpt lat="44.491193230245315" lon="11.650172151475374"><ele>17.333333333333336</ele><time>2026-03-22T13:56:07Z</time></trkpt><trkpt lat="44.491037146293586" lon="11.650053087967136"><ele>17.0</ele><time>2026-03-22T13:56:08Z</time></trkpt><trkpt lat="44.49086663101642" lon="11.64998478997694"><ele>17.0</ele><time>2026-03-22T13:56:09Z</time></trkpt><trkpt lat="44.49070421181294" lon="11.649899871212329"><ele>17.0</ele><time>2026-03-22T13:56:10Z</time></trkpt><trkpt lat="44.4905485926636" lon="11.649789603431863"><ele>17.0</ele><time>2026-03-22T13:56:11Z</time></trkpt><trkpt lat="44.490388785683656" lon="11.649701375537166"><ele>17.0</ele><time>2026-03-22T13:56:12Z</time></trkpt><trkpt lat="44.49022601221691" lon="11.649610261470634"><ele>17.0</ele><time>2026-03-22T13:56:13Z</time></trkpt><trkpt lat="44.49006342395441" lon="11.64951888590203"><ele>17.0</ele><time>2026-03-22T13:56:14Z</time></trkpt><trkpt lat="44.48990077875288" lon="11.649423230573868"><ele>17.0</ele><time>2026-03-22T13:56:15Z</time></trkpt><trkpt lat="44.48973259876427" lon="11.64933959604136"><ele>17.0</ele><time>2026-03-22T13:56:16Z</time></trkpt><trkpt lat="44.489577554459125" lon="11.649234039181723"><ele>17.0</ele><time>2026-03-22T13:56:17Z</time></trkpt><trkpt lat="44.48942149981903" lon="11.649124391934311"><ele>17.0</ele><time>2026-03-22T13:56:18Z</time></trkpt><trkpt lat="44.48927057840409" lon="11.64901729604983"><ele>17.0</ele><time>2026-03-22T13:56:19Z</time></trkpt><trkpt lat="44.48912505390477" lon="11.648884819568572"><ele>17.0</ele><time>2026-03-22T13:56:20Z</time></trkpt><trkpt lat="44.48897599468584" lon="11.648775653858838"><ele>17.0</ele><time>2026-03-22T13:56:21Z</time></trkpt><trkpt lat="44.488830195210234" lon="11.648669824962582"><ele>17.0</ele><time>2026-03-22T13:56:22Z</time></trkpt><trkpt lat="44.48869564233406" lon="11.64857283757126"><ele>17.0</ele><time>2026-03-22T13:56:23Z</time></trkpt><trkpt lat="44.48856788981977" lon="11.648480897966978"><ele>17.75</ele><time>2026-03-22T13:56:24Z</time></trkpt><trkpt lat="44.48845148138575" lon="11.648397146654565"><ele>18.5</ele><time>2026-03-22T13:56:25Z</time></trkpt><trkpt lat="44.48834006635833" lon="11.648316987822204"><ele>19.25</ele><time>2026-03-22T13:56:26Z</time></trkpt><trkpt lat="44.488230231036304" lon="11.648238116176152"><ele>20.0</ele><time>2026-03-22T13:56:27Z</time></trkpt><trkpt lat="44.48812688520518" lon="11.648164796876205"><ele>20.0</ele><time>2026-03-22T13:56:28Z</time></trkpt><trkpt lat="44.48803195644707" lon="11.648097449138959"><ele>20.0</ele><time>2026-03-22T13:56:29Z</time></trkpt><trkpt lat="44.48793433740346" lon="11.648028192761068"><ele>20.0</ele><time>2026-03-22T13:56:30Z</time></trkpt><trkpt lat="44.487828621339645" lon="11.6479791733817"><ele>20.0</ele><time>2026-03-22T13:56:31Z</time></trkpt><trkpt lat="44.48773232230625" lon="11.647902253518732"><ele>20.0</ele><time>2026-03-22T13:56:32Z</time></trkpt><trkpt lat="44.48763210321185" lon="11.647829246330922"><ele>19.8</ele><time>2026-03-22T13:56:33Z</time></trkpt><trkpt lat="44.48753516105092" lon="11.647757117497935"><ele>19.6</ele><time>2026-03-22T13:56:34Z</time></trkpt><trkpt lat="44.48744646272601" lon="11.647696991074792"><ele>19.4</ele><time>2026-03-22T13:56:35Z</time></trkpt><trkpt lat="44.48736785003848" lon="11.647638392268009"><ele>19.2</ele><time>2026-03-22T13:56:36Z</time></trkpt><trkpt lat="44.48729264634438" lon="11.647587120793789"><ele>19.0</ele><time>2026-03-22T13:56:37Z</time></trkpt><trkpt lat="44.48722111405059" lon="11.647539157991536"><ele>19.0</ele><time>2026-03-22T13:56:38Z</time></trkpt><trkpt lat="44.48715230972756" lon="11.647492120249877"><ele>19.0</ele><time>2026-03-22T13:56:39Z</time></trkpt><trkpt lat="44.48708702757474" lon="11.647439583142315"><ele>19.0</ele><time>2026-03-22T13:56:40Z</time></trkpt><trkpt lat="44.48703046488316" lon="11.647383492131004"><ele>19.0</ele><time>2026-03-22T13:56:41Z</time></trkpt><trkpt lat="44.486978117523876" lon="11.647328046362663"><ele>19.0</ele><time>2026-03-22T13:56:42Z</time></trkpt><trkpt lat="44.48692938178109" lon="11.647267763195723"><ele>19.0</ele><time>2026-03-22T13:56:43Z</time></trkpt><trkpt lat="44.48688432479412" lon="11.647186326048404"><ele>19.0</ele><time>2026-03-22T13:56:44Z</time></trkpt><trkpt lat="44.486854586470635" lon="11.647083032481241"><ele>19.0</ele><time>2026-03-22T13:56:45Z</time></trkpt><trkpt lat="44.48682121343678" lon="11.646979352560294"><ele>19.0</ele><time>2026-03-22T13:56:46Z</time></trkpt><trkpt lat="44.48682240309518" lon="11.646869002627383"><ele>19.0</ele><time>2026-03-22T13:56:47Z</time></trkpt><trkpt lat="44.486834616392755" lon="11.646751964118963"><ele>19.0</ele><time>2026-03-22T13:56:48Z</time></trkpt><trkpt lat="44.48684490124571" lon="11.646628181597016"><ele>19.0</ele><time>2026-03-22T13:56:49Z</time></trkpt><trkpt lat="44.48686184859362" lon="11.646498414535493"><ele>19.0</ele><time>2026-03-22T13:56:50Z</time></trkpt><trkpt lat="44.486998398245305" lon="11.646380219113334"><ele>19.25</ele><time>2026-03-22T13:56:51Z</time></trkpt><trkpt lat="44.48705481041733" lon="11.646215205786046"><ele>19.5</ele><time>2026-03-22T13:56:52Z</time></trkpt><trkpt lat="44.48711454101339" lon="11.646050931894253"><ele>19.75</ele><time>2026-03-22T13:56:53Z</time></trkpt><trkpt lat="44.48717324796369" lon="11.645894726961497"><ele>20.0</ele><time>2026-03-22T13:56:54Z</time></trkpt><trkpt lat="44.48723179805657" lon="11.645731337282127"><ele>20.0</ele><time>2026-03-22T13:56:55Z</time></trkpt><trkpt lat="44.48730257087457" lon="11.645552682131546"><ele>20.0</ele><time>2026-03-22T13:56:56Z</time></trkpt><trkpt lat="44.48736930012232" lon="11.645379274507286"><ele>20.0</ele><time>2026-03-22T13:56:57Z</time></trkpt><trkpt lat="44.487431712371986" lon="11.645215075289908"><ele>20.0</ele><time>2026-03-22T13:56:58Z</time></trkpt><trkpt lat="44.4874954811235" lon="11.645041213575299"><ele>19.666666666666668</ele><time>2026-03-22T13:56:59Z</time></trkpt><trkpt lat="44.48756457474126" lon="11.644857961249876"><ele>19.333333333333332</ele><time>2026-03-22T13:57:00Z</time></trkpt><trkpt lat="44.487642504586" lon="11.644665903293255"><ele>19.0</ele><time>2026-03-22T13:57:01Z</time></trkpt><trkpt lat="44.4877191498122" lon="11.644465503488918"><ele>19.0</ele><time>2026-03-22T13:57:02Z</time></trkpt><trkpt lat="44.487801669197474" lon="11.644277143126448"><ele>19.0</ele><time>2026-03-22T13:57:03Z</time></trkpt><trkpt lat="44.48787820307811" lon="11.644089311186704"><ele>19.0</ele><time>2026-03-22T13:57:04Z</time></trkpt><trkpt lat="44.48795670810437" lon="11.643891700025568"><ele>18.666666666666664</ele><time>2026-03-22T13:57:05Z</time></trkpt><trkpt lat="44.48803872987655" lon="11.643686281880386"><ele>18.333333333333332</ele><time>2026-03-22T13:57:06Z</time></trkpt><trkpt lat="44.488116715661306" lon="11.643482985064898"><ele>18.0</ele><time>2026-03-22T13:57:07Z</time></trkpt><trkpt lat="44.48819729689308" lon="11.643281232414223"><ele>18.0</ele><time>2026-03-22T13:57:08Z</time></trkpt><trkpt lat="44.48827946321458" lon="11.64307199936101"><ele>18.0</ele><time>2026-03-22T13:57:09Z</time></trkpt><trkpt lat="44.48836343018328" lon="11.642856480905278"><ele>18.0</ele><time>2026-03-22T13:57:10Z</time></trkpt><trkpt lat="44.48844824132105" lon="11.64263978773974"><ele>17.333333333333332</ele><time>2026-03-22T13:57:11Z</time></trkpt><trkpt lat="44.48853510986195" lon="11.642422699395349"><ele>16.666666666666664</ele><time>2026-03-22T13:57:12Z</time></trkpt><trkpt lat="44.48861933344303" lon="11.642205646867799"><ele>16.0</ele><time>2026-03-22T13:57:13Z</time></trkpt><trkpt lat="44.488704360788574" lon="11.641988384505936"><ele>17.0</ele><time>2026-03-22T13:57:14Z</time></trkpt><trkpt lat="44.48878716583758" lon="11.641770210050327"><ele>18.0</ele><time>2026-03-22T13:57:15Z</time></trkpt><trkpt lat="44.488872234074215" lon="11.641551245491929"><ele>19.0</ele><time>2026-03-22T13:57:16Z</time></trkpt><trkpt lat="44.48896042892444" lon="11.641333153631235"><ele>18.333333333333332</ele><time>2026-03-22T13:57:17Z</time></trkpt><trkpt lat="44.489046720541246" lon="11.64111380479013"><ele>17.666666666666668</ele><time>2026-03-22T13:57:18Z</time></trkpt><trkpt lat="44.48913010961052" lon="11.640892934990129"><ele>17.0</ele><time>2026-03-22T13:57:19Z</time></trkpt><trkpt lat="44.489214005100465" lon="11.64066763622457"><ele>17.0</ele><time>2026-03-22T13:57:20Z</time></trkpt><trkpt lat="44.48929715313816" lon="11.640444555905532"><ele>17.0</ele><time>2026-03-22T13:57:21Z</time></trkpt><trkpt lat="44.48937949881265" lon="11.640223317751122"><ele>17.0</ele><time>2026-03-22T13:57:22Z</time></trkpt><trkpt lat="44.48946000473459" lon="11.639998963533424"><ele>17.333333333333336</ele><time>2026-03-22T13:57:23Z</time></trkpt><trkpt lat="44.48954229270929" lon="11.639772318526537"><ele>17.666666666666668</ele><time>2026-03-22T13:57:24Z</time></trkpt><trkpt lat="44.489626646516435" lon="11.639546293847056"><ele>18.0</ele><time>2026-03-22T13:57:25Z</time></trkpt><trkpt lat="44.48971138009434" lon="11.639318642429858"><ele>18.0</ele><time>2026-03-22T13:57:26Z</time></trkpt><trkpt lat="44.48979606322677" lon="11.639085788031148"><ele>18.0</ele><time>2026-03-22T13:57:27Z</time></trkpt><trkpt lat="44.48987599231132" lon="11.638857659728172"><ele>18.0</ele><time>2026-03-22T13:57:28Z</time></trkpt><trkpt lat="44.4899584897212" lon="11.638620677258206"><ele>17.666666666666668</ele><time>2026-03-22T13:57:29Z</time></trkpt><trkpt lat="44.490041224234915" lon="11.638378666137974"><ele>17.333333333333336</ele><time>2026-03-22T13:57:30Z</time></trkpt><trkpt lat="44.49012704909389" lon="11.638134235286755"><ele>17.0</ele><time>2026-03-22T13:57:31Z</time></trkpt><trkpt lat="44.490213478320484" lon="11.637883686269827"><ele>16.666666666666668</ele><time>2026-03-22T13:57:32Z</time></trkpt><trkpt lat="44.49030120409233" lon="11.63763613713305"><ele>16.333333333333332</ele><time>2026-03-22T13:57:33Z</time></trkpt><trkpt lat="44.49038937080266" lon="11.63739322083169"><ele>16.0</ele><time>2026-03-22T13:57:34Z</time></trkpt><trkpt lat="44.49047944794905" lon="11.637146656096753"><ele>16.0</ele><time>2026-03-22T13:57:35Z</time></trkpt><trkpt lat="44.49056415055693" lon="11.636908408876124"><ele>16.0</ele><time>2026-03-22T13:57:36Z</time></trkpt><trkpt lat="44.49064821674834" lon="11.636673003367603"><ele>16.0</ele><time>2026-03-22T13:57:37Z</time></trkpt><trkpt lat="44.490725174003956" lon="11.636458872171666"><ele>16.0</ele><time>2026-03-22T13:57:38Z</time></trkpt><trkpt lat="44.490799465093914" lon="11.63625643709028"><ele>16.0</ele><time>2026-03-22T13:57:39Z</time></trkpt><trkpt lat="44.49086642936059" lon="11.63607159699496"><ele>16.0</ele><time>2026-03-22T13:57:40Z</time></trkpt><trkpt lat="44.490932840954976" lon="11.63589075387329"><ele>16.25</ele><time>2026-03-22T13:57:41Z</time></trkpt><trkpt lat="44.490999249838715" lon="11.635708164645557"><ele>16.5</ele><time>2026-03-22T13:57:42Z</time></trkpt><trkpt lat="44.49106571333795" lon="11.635522893517475"><ele>16.75</ele><time>2026-03-22T13:57:43Z</time></trkpt><trkpt lat="44.49113117883439" lon="11.635335444457143"><ele>17.0</ele><time>2026-03-22T13:57:44Z</time></trkpt><trkpt lat="44.49119588651254" lon="11.635148991563518"><ele>16.333333333333336</ele><time>2026-03-22T13:57:45Z</time></trkpt><trkpt lat="44.49126523869283" lon="11.634958852457084"><ele>15.666666666666668</ele><time>2026-03-22T13:57:46Z</time></trkpt><trkpt lat="44.49133672919672" lon="11.634768466024289"><ele>15.0</ele><time>2026-03-22T13:57:47Z</time></trkpt><trkpt lat="44.491403625895664" lon="11.634579935748908"><ele>14.666666666666668</ele><time>2026-03-22T13:57:48Z</time></trkpt><trkpt lat="44.49146973750772" lon="11.63438815230785"><ele>14.333333333333334</ele><time>2026-03-22T13:57:49Z</time></trkpt><trkpt lat="44.49153872726217" lon="11.634193330511613"><ele>14.0</ele><time>2026-03-22T13:57:50Z</time></trkpt><trkpt lat="44.49160984752601" lon="11.6339997314836"><ele>14.0</ele><time>2026-03-22T13:57:51Z</time></trkpt><trkpt lat="44.49168095240026" lon="11.633809918567975"><ele>14.0</ele><time>2026-03-22T13:57:52Z</time></trkpt><trkpt lat="44.491749452417366" lon="11.633620518553112"><ele>14.0</ele><time>2026-03-22T13:57:53Z</time></trkpt><trkpt lat="44.49182104599333" lon="11.633424366579"><ele>14.666666666666668</ele><time>2026-03-22T13:57:54Z</time></trkpt><trkpt lat="44.49189411628933" lon="11.633227435999231"><ele>15.333333333333332</ele><time>2026-03-22T13:57:55Z</time></trkpt><trkpt lat="44.49196732785562" lon="11.633028751162948"><ele>16.0</ele><time>2026-03-22T13:57:56Z</time></trkpt><trkpt lat="44.492036753812336" lon="11.632834213112707"><ele>16.0</ele><time>2026-03-22T13:57:57Z</time></trkpt><trkpt lat="44.492101863749596" lon="11.632652287494217"><ele>16.0</ele><time>2026-03-22T13:57:58Z</time></trkpt><trkpt lat="44.49216494779303" lon="11.632473241325439"><ele>16.0</ele><time>2026-03-22T13:57:59Z</time></trkpt><trkpt lat="44.49222820050897" lon="11.632298567024273"><ele>16.0</ele><time>2026-03-22T13:58:00Z</time></trkpt><trkpt lat="44.492287083066294" lon="11.63214227763495"><ele>16.0</ele><time>2026-03-22T13:58:01Z</time></trkpt><trkpt lat="44.49234418677027" lon="11.631990823700962"><ele>16.0</ele><time>2026-03-22T13:58:02Z</time></trkpt><trkpt lat="44.49239971284025" lon="11.631836070269197"><ele>16.0</ele><time>2026-03-22T13:58:03Z</time></trkpt><trkpt lat="44.49245567202058" lon="11.631687023536976"><ele>16.0</ele><time>2026-03-22T13:58:04Z</time></trkpt><trkpt lat="44.492511038034436" lon="11.631551915924708"><ele>16.2</ele><time>2026-03-22T13:58:05Z</time></trkpt><trkpt lat="44.492560020066136" lon="11.631426546058728"><ele>16.400000000000002</ele><time>2026-03-22T13:58:06Z</time></trkpt><trkpt lat="44.49260871888495" lon="11.631294771127594"><ele>16.6</ele><time>2026-03-22T13:58:07Z</time></trkpt><trkpt lat="44.49266048291533" lon="11.63115500956463"><ele>16.8</ele><time>2026-03-22T13:58:08Z</time></trkpt><trkpt lat="44.49271001464432" lon="11.631022446051318"><ele>17.0</ele><time>2026-03-22T13:58:09Z</time></trkpt><trkpt lat="44.492758853504306" lon="11.63089297482212"><ele>17.0</ele><time>2026-03-22T13:58:10Z</time></trkpt><trkpt lat="44.492811026248006" lon="11.63075539850628"><ele>17.0</ele><time>2026-03-22T13:58:11Z</time></trkpt><trkpt lat="44.49287543995128" lon="11.630620370831908"><ele>17.0</ele><time>2026-03-22T13:58:12Z</time></trkpt><trkpt lat="44.49295891552504" lon="11.63049814595635"><ele>17.0</ele><time>2026-03-22T13:58:13Z</time></trkpt><trkpt lat="44.49306255290133" lon="11.630391468416795"><ele>17.0</ele><time>2026-03-22T13:58:14Z</time></trkpt><trkpt lat="44.493180648357196" lon="11.630310289563472"><ele>17.0</ele><time>2026-03-22T13:58:15Z</time></trkpt><trkpt lat="44.493310882387895" lon="11.630245303615402"><ele>17.0</ele><time>2026-03-22T13:58:16Z</time></trkpt><trkpt lat="44.493452987466696" lon="11.630196007904807"><ele>17.0</ele><time>2026-03-22T13:58:17Z</time></trkpt><trkpt lat="44.4936080678724" lon="11.630130276996695"><ele>16.666666666666668</ele><time>2026-03-22T13:58:18Z</time></trkpt><trkpt lat="44.493773789937386" lon="11.630047160819691"><ele>16.333333333333332</ele><time>2026-03-22T13:58:19Z</time></trkpt><trkpt lat="44.49391490515145" lon="11.629977001030742"><ele>16.0</ele><time>2026-03-22T13:58:20Z</time></trkpt><trkpt lat="44.494041067455306" lon="11.629916602043071"><ele>16.0</ele><time>2026-03-22T13:58:21Z</time></trkpt><trkpt lat="44.49415567986763" lon="11.6298621876621"><ele>16.0</ele><time>2026-03-22T13:58:22Z</time></trkpt><trkpt lat="44.494260006817974" lon="11.62978655195284"><ele>16.0</ele><time>2026-03-22T13:58:23Z</time></trkpt><trkpt lat="44.49437661854161" lon="11.629751625892204"><ele>16.0</ele><time>2026-03-22T13:58:24Z</time></trkpt><trkpt lat="44.494481325683005" lon="11.629663158239579"><ele>16.0</ele><time>2026-03-22T13:58:25Z</time></trkpt><trkpt lat="44.49457444957283" lon="11.629541395799636"><ele>16.0</ele><time>2026-03-22T13:58:26Z</time></trkpt><trkpt lat="44.49464792817418" lon="11.629394935403468"><ele>16.0</ele><time>2026-03-22T13:58:27Z</time></trkpt><trkpt lat="44.4947005394048" lon="11.62922339543534"><ele>16.0</ele><time>2026-03-22T13:58:28Z</time></trkpt><trkpt lat="44.494730250491884" lon="11.629038867080595"><ele>16.0</ele><time>2026-03-22T13:58:29Z</time></trkpt><trkpt lat="44.494726194600815" lon="11.628852204178457"><ele>16.0</ele><time>2026-03-22T13:58:30Z</time></trkpt><trkpt lat="44.49469556197523" lon="11.628668347078204"><ele>16.0</ele><time>2026-03-22T13:58:31Z</time></trkpt><trkpt lat="44.49463537373957" lon="11.628501097332022"><ele>16.0</ele><time>2026-03-22T13:58:32Z</time></trkpt><trkpt lat="44.494435444829975" lon="11.628232420554442"><ele>15.5</ele><time>2026-03-22T13:58:34Z</time></trkpt><trkpt lat="44.49430627604499" lon="11.628140366823756"><ele>15.0</ele><time>2026-03-22T13:58:35Z</time></trkpt><trkpt lat="44.49416813603722" lon="11.628054966402717"><ele>14.5</ele><time>2026-03-22T13:58:36Z</time></trkpt><trkpt lat="44.49403634740658" lon="11.627977885031715"><ele>14.0</ele><time>2026-03-22T13:58:37Z</time></trkpt><trkpt lat="44.49390095802225" lon="11.62789293696228"><ele>14.333333333333334</ele><time>2026-03-22T13:58:38Z</time></trkpt><trkpt lat="44.49375808378773" lon="11.627809168478025"><ele>14.666666666666668</ele><time>2026-03-22T13:58:39Z</time></trkpt><trkpt lat="44.49360483086147" lon="11.627721693750772"><ele>15.0</ele><time>2026-03-22T13:58:40Z</time></trkpt><trkpt lat="44.49346966532954" lon="11.62761588302888"><ele>15.333333333333332</ele><time>2026-03-22T13:58:41Z</time></trkpt><trkpt lat="44.493334281763765" lon="11.627532702066711"><ele>15.666666666666666</ele><time>2026-03-22T13:58:42Z</time></trkpt><trkpt lat="44.49318621121202" lon="11.627465090902103"><ele>16.0</ele><time>2026-03-22T13:58:43Z</time></trkpt><trkpt lat="44.493040789301084" lon="11.627370893538679"><ele>17.0</ele><time>2026-03-22T13:58:44Z</time></trkpt><trkpt lat="44.49288878485164" lon="11.627274081123444"><ele>18.0</ele><time>2026-03-22T13:58:45Z</time></trkpt><trkpt lat="44.492734919541405" lon="11.627180347237719"><ele>19.0</ele><time>2026-03-22T13:58:46Z</time></trkpt><trkpt lat="44.49257584688672" lon="11.627082140961807"><ele>19.0</ele><time>2026-03-22T13:58:47Z</time></trkpt><trkpt lat="44.49241688375868" lon="11.62698334663638"><ele>19.0</ele><time>2026-03-22T13:58:48Z</time></trkpt><trkpt lat="44.492254527502936" lon="11.626885457238558"><ele>19.0</ele><time>2026-03-22T13:58:49Z</time></trkpt><trkpt lat="44.4920990620382" lon="11.626790420805914"><ele>18.666666666666664</ele><time>2026-03-22T13:58:50Z</time></trkpt><trkpt lat="44.49194361394103" lon="11.62669816391619"><ele>18.333333333333332</ele><time>2026-03-22T13:58:51Z</time></trkpt><trkpt lat="44.49179833107197" lon="11.626610137798247"><ele>18.0</ele><time>2026-03-22T13:58:52Z</time></trkpt><trkpt lat="44.49164779717619" lon="11.626517004299938"><ele>18.0</ele><time>2026-03-22T13:58:53Z</time></trkpt><trkpt lat="44.491500194323045" lon="11.6264250604245"><ele>18.0</ele><time>2026-03-22T13:58:54Z</time></trkpt><trkpt lat="44.49134383605088" lon="11.62632651979886"><ele>18.0</ele><time>2026-03-22T13:58:55Z</time></trkpt><trkpt lat="44.491183150644886" lon="11.626229100525062"><ele>18.666666666666668</ele><time>2026-03-22T13:58:56Z</time></trkpt><trkpt lat="44.491021257526846" lon="11.626128606283316"><ele>19.333333333333336</ele><time>2026-03-22T13:58:57Z</time></trkpt><trkpt lat="44.49085467987362" lon="11.626020729827703"><ele>20.0</ele><time>2026-03-22T13:58:58Z</time></trkpt><trkpt lat="44.49069112143849" lon="11.625913944288532"><ele>20.0</ele><time>2026-03-22T13:58:59Z</time></trkpt><trkpt lat="44.4905211494111" lon="11.625807916559383"><ele>20.0</ele><time>2026-03-22T13:59:00Z</time></trkpt><trkpt lat="44.49035482577771" lon="11.625700440107538"><ele>20.0</ele><time>2026-03-22T13:59:01Z</time></trkpt><trkpt lat="44.49018471387707" lon="11.62558489518235"><ele>19.666666666666668</ele><time>2026-03-22T13:59:02Z</time></trkpt><trkpt lat="44.49001174486664" lon="11.62546706579554"><ele>19.333333333333332</ele><time>2026-03-22T13:59:03Z</time></trkpt><trkpt lat="44.48984485734869" lon="11.625350512650266"><ele>19.0</ele><time>2026-03-22T13:59:04Z</time></trkpt><trkpt lat="44.48967870434539" lon="11.62523586140133"><ele>19.0</ele><time>2026-03-22T13:59:05Z</time></trkpt><trkpt lat="44.489511339730875" lon="11.625119028588808"><ele>19.0</ele><time>2026-03-22T13:59:06Z</time></trkpt><trkpt lat="44.48934135693271" lon="11.625001968604884"><ele>19.0</ele><time>2026-03-22T13:59:07Z</time></trkpt><trkpt lat="44.48917447691765" lon="11.624885205526155"><ele>19.0</ele><time>2026-03-22T13:59:08Z</time></trkpt><trkpt lat="44.48901215894875" lon="11.624774010154178"><ele>19.0</ele><time>2026-03-22T13:59:09Z</time></trkpt><trkpt lat="44.48884776944637" lon="11.624664914926454"><ele>19.0</ele><time>2026-03-22T13:59:10Z</time></trkpt><trkpt lat="44.488680343452835" lon="11.624554885205765"><ele>19.333333333333332</ele><time>2026-03-22T13:59:11Z</time></trkpt><trkpt lat="44.488519579398485" lon="11.624445270232782"><ele>19.666666666666668</ele><time>2026-03-22T13:59:12Z</time></trkpt><trkpt lat="44.48836194507856" lon="11.624334338044571"><ele>20.0</ele><time>2026-03-22T13:59:13Z</time></trkpt><trkpt lat="44.48820451611396" lon="11.62422360269362"><ele>20.0</ele><time>2026-03-22T13:59:14Z</time></trkpt><trkpt lat="44.48804216059406" lon="11.624114995730599"><ele>20.0</ele><time>2026-03-22T13:59:15Z</time></trkpt><trkpt lat="44.48788914652812" lon="11.624015387230939"><ele>20.0</ele><time>2026-03-22T13:59:16Z</time></trkpt><trkpt lat="44.48774093568006" lon="11.623914758564906"><ele>20.333333333333336</ele><time>2026-03-22T13:59:17Z</time></trkpt><trkpt lat="44.487598221680216" lon="11.623817269980774"><ele>20.666666666666668</ele><time>2026-03-22T13:59:18Z</time></trkpt><trkpt lat="44.48745226590863" lon="11.623713840779926"><ele>21.0</ele><time>2026-03-22T13:59:19Z</time></trkpt><trkpt lat="44.487297860798094" lon="11.623612431343561"><ele>21.0</ele><time>2026-03-22T13:59:20Z</time></trkpt><trkpt lat="44.487143512516575" lon="11.623511206342952"><ele>21.0</ele><time>2026-03-22T13:59:21Z</time></trkpt><trkpt lat="44.48699043240758" lon="11.623406794114748"><ele>21.0</ele><time>2026-03-22T13:59:22Z</time></trkpt><trkpt lat="44.486835952272976" lon="11.623303470130114"><ele>22.333333333333336</ele><time>2026-03-22T13:59:23Z</time></trkpt><trkpt lat="44.48667721417776" lon="11.62320079918148"><ele>23.666666666666668</ele><time>2026-03-22T13:59:24Z</time></trkpt><trkpt lat="44.48651277837421" lon="11.623102050068619"><ele>25.0</ele><time>2026-03-22T13:59:25Z</time></trkpt><trkpt lat="44.48635455552069" lon="11.62298075997232"><ele>23.666666666666668</ele><time>2026-03-22T13:59:26Z</time></trkpt><trkpt lat="44.486189749567416" lon="11.622877126864063"><ele>22.333333333333336</ele><time>2026-03-22T13:59:27Z</time></trkpt><trkpt lat="44.48602234992324" lon="11.62279411696956"><ele>21.0</ele><time>2026-03-22T13:59:28Z</time></trkpt><trkpt lat="44.48585917272717" lon="11.62268454585416"><ele>20.666666666666668</ele><time>2026-03-22T13:59:29Z</time></trkpt><trkpt lat="44.485694259191796" lon="11.622578576086056"><ele>20.333333333333336</ele><time>2026-03-22T13:59:30Z</time></trkpt><trkpt lat="44.48552978075196" lon="11.622477008188154"><ele>20.0</ele><time>2026-03-22T13:59:31Z</time></trkpt><trkpt lat="44.485361966530014" lon="11.622372362740593"><ele>20.0</ele><time>2026-03-22T13:59:32Z</time></trkpt><trkpt lat="44.485198788373104" lon="11.622266158823688"><ele>20.0</ele><time>2026-03-22T13:59:33Z</time></trkpt><trkpt lat="44.485036946955844" lon="11.622162532808678"><ele>20.0</ele><time>2026-03-22T13:59:34Z</time></trkpt><trkpt lat="44.4848717349379" lon="11.622056346966646"><ele>21.0</ele><time>2026-03-22T13:59:35Z</time></trkpt><trkpt lat="44.48471644750981" lon="11.621957919726704"><ele>22.0</ele><time>2026-03-22T13:59:36Z</time></trkpt><trkpt lat="44.48455655383753" lon="11.621854102803534"><ele>23.0</ele><time>2026-03-22T13:59:37Z</time></trkpt><trkpt lat="44.484391952554724" lon="11.621749728121692"><ele>23.0</ele><time>2026-03-22T13:59:38Z</time></trkpt><trkpt lat="44.48423062357178" lon="11.62164740060119"><ele>23.0</ele><time>2026-03-22T13:59:39Z</time></trkpt><trkpt lat="44.48407251039265" lon="11.621542096295682"><ele>23.0</ele><time>2026-03-22T13:59:40Z</time></trkpt><trkpt lat="44.48391349104181" lon="11.621438892322796"><ele>23.0</ele><time>2026-03-22T13:59:41Z</time></trkpt><trkpt lat="44.48375303039184" lon="11.621337147880208"><ele>23.0</ele><time>2026-03-22T13:59:42Z</time></trkpt><trkpt lat="44.48358951474482" lon="11.621234875529119"><ele>23.0</ele><time>2026-03-22T13:59:43Z</time></trkpt><trkpt lat="44.48342797614364" lon="11.621132337050263"><ele>23.0</ele><time>2026-03-22T13:59:44Z</time></trkpt><trkpt lat="44.48326517619692" lon="11.621021477154422"><ele>23.0</ele><time>2026-03-22T13:59:45Z</time></trkpt><trkpt lat="44.483103265600576" lon="11.620904870324994"><ele>23.0</ele><time>2026-03-22T13:59:46Z</time></trkpt><trkpt lat="44.48293337353467" lon="11.62077906362516"><ele>22.666666666666668</ele><time>2026-03-22T13:59:47Z</time></trkpt><trkpt lat="44.48275938493335" lon="11.620648959584248"><ele>22.333333333333332</ele><time>2026-03-22T13:59:48Z</time></trkpt><trkpt lat="44.48258836219534" lon="11.620519344596566"><ele>22.0</ele><time>2026-03-22T13:59:49Z</time></trkpt><trkpt lat="44.4824100256551" lon="11.620385857318682"><ele>22.333333333333332</ele><time>2026-03-22T13:59:50Z</time></trkpt><trkpt lat="44.48223348755" lon="11.620254020734254"><ele>22.666666666666668</ele><time>2026-03-22T13:59:51Z</time></trkpt><trkpt lat="44.48206026993695" lon="11.620122319203677"><ele>23.0</ele><time>2026-03-22T13:59:52Z</time></trkpt><trkpt lat="44.48189099591015" lon="11.619992461592917"><ele>22.0</ele><time>2026-03-22T13:59:53Z</time></trkpt><trkpt lat="44.4817231259361" lon="11.619862779616879"><ele>21.0</ele><time>2026-03-22T13:59:54Z</time></trkpt><trkpt lat="44.48155442127006" lon="11.619734833764017"><ele>20.0</ele><time>2026-03-22T13:59:55Z</time></trkpt><trkpt lat="44.48138886784034" lon="11.619611190481047"><ele>21.333333333333336</ele><time>2026-03-22T13:59:56Z</time></trkpt><trkpt lat="44.48122936056352" lon="11.619493487843798"><ele>22.666666666666668</ele><time>2026-03-22T13:59:57Z</time></trkpt><trkpt lat="44.48107039120699" lon="11.619377905005871"><ele>24.0</ele><time>2026-03-22T13:59:58Z</time></trkpt><trkpt lat="44.48091577956326" lon="11.619262028031594"><ele>24.0</ele><time>2026-03-22T13:59:59Z</time></trkpt><trkpt lat="44.48076597868588" lon="11.619147615049235"><ele>24.0</ele><time>2026-03-22T14:00:00Z</time></trkpt><trkpt lat="44.480612822773104" lon="11.619029351704041"><ele>24.0</ele><time>2026-03-22T14:00:01Z</time></trkpt><trkpt lat="44.48045843010203" lon="11.618912556244261"><ele>24.333333333333336</ele><time>2026-03-22T14:00:02Z</time></trkpt><trkpt lat="44.480304195996055" lon="11.618794434756303"><ele>24.666666666666668</ele><time>2026-03-22T14:00:03Z</time></trkpt><trkpt lat="44.48014524368979" lon="11.618678999075978"><ele>25.0</ele><time>2026-03-22T14:00:04Z</time></trkpt><trkpt lat="44.4799901646978" lon="11.618563869434256"><ele>25.333333333333336</ele><time>2026-03-22T14:00:05Z</time></trkpt><trkpt lat="44.47983370979186" lon="11.61844603574318"><ele>25.666666666666664</ele><time>2026-03-22T14:00:06Z</time></trkpt><trkpt lat="44.47968017786462" lon="11.618324980200121"><ele>26.0</ele><time>2026-03-22T14:00:07Z</time></trkpt><trkpt lat="44.4795290106236" lon="11.618207471180899"><ele>25.333333333333332</ele><time>2026-03-22T14:00:08Z</time></trkpt><trkpt lat="44.47936995168994" lon="11.618091152849544"><ele>24.666666666666664</ele><time>2026-03-22T14:00:09Z</time></trkpt><trkpt lat="44.47922017820272" lon="11.617978998790264"><ele>24.0</ele><time>2026-03-22T14:00:10Z</time></trkpt><trkpt lat="44.47906680458041" lon="11.617865468064048"><ele>24.666666666666664</ele><time>2026-03-22T14:00:11Z</time></trkpt><trkpt lat="44.478915157862474" lon="11.617751204966622"><ele>25.333333333333332</ele><time>2026-03-22T14:00:12Z</time></trkpt><trkpt lat="44.478757094872954" lon="11.617635484857628"><ele>26.0</ele><time>2026-03-22T14:00:13Z</time></trkpt><trkpt lat="44.478607057826224" lon="11.61751707772323"><ele>26.0</ele><time>2026-03-22T14:00:14Z</time></trkpt><trkpt lat="44.47844825438153" lon="11.617398369197296"><ele>26.0</ele><time>2026-03-22T14:00:15Z</time></trkpt><trkpt lat="44.47829021948536" lon="11.617281384993898"><ele>26.0</ele><time>2026-03-22T14:00:16Z</time></trkpt><trkpt lat="44.478135887403454" lon="11.617168517721158"><ele>26.0</ele><time>2026-03-22T14:00:17Z</time></trkpt><trkpt lat="44.47797741014159" lon="11.617052784472628"><ele>26.0</ele><time>2026-03-22T14:00:18Z</time></trkpt><trkpt lat="44.47782278601695" lon="11.61693379700297"><ele>26.0</ele><time>2026-03-22T14:00:19Z</time></trkpt><trkpt lat="44.477668860987066" lon="11.616812126211192"><ele>25.0</ele><time>2026-03-22T14:00:20Z</time></trkpt><trkpt lat="44.47751092177395" lon="11.616698546262962"><ele>24.0</ele><time>2026-03-22T14:00:21Z</time></trkpt><trkpt lat="44.47734657799884" lon="11.616590846300495"><ele>23.0</ele><time>2026-03-22T14:00:22Z</time></trkpt><trkpt lat="44.477180302104266" lon="11.616482883654273"><ele>23.0</ele><time>2026-03-22T14:00:23Z</time></trkpt><trkpt lat="44.47701618931758" lon="11.616382393203804"><ele>23.0</ele><time>2026-03-22T14:00:24Z</time></trkpt><trkpt lat="44.47684704747335" lon="11.616293796181852"><ele>23.0</ele><time>2026-03-22T14:00:25Z</time></trkpt><trkpt lat="44.476681471941035" lon="11.616216908402965"><ele>23.333333333333336</ele><time>2026-03-22T14:00:26Z</time></trkpt><trkpt lat="44.47651109869148" lon="11.616144898519279"><ele>23.666666666666668</ele><time>2026-03-22T14:00:27Z</time></trkpt><trkpt lat="44.47634230454417" lon="11.616076853745412"><ele>24.0</ele><time>2026-03-22T14:00:28Z</time></trkpt><trkpt lat="44.47615491952236" lon="11.616016374471753"><ele>24.0</ele><time>2026-03-22T14:00:29Z</time></trkpt><trkpt lat="44.475969353382204" lon="11.615972376731031"><ele>24.0</ele><time>2026-03-22T14:00:30Z</time></trkpt><trkpt lat="44.475782251783336" lon="11.615931628326008"><ele>24.0</ele><time>2026-03-22T14:00:31Z</time></trkpt><trkpt lat="44.47559576304157" lon="11.615887572170921"><ele>24.0</ele><time>2026-03-22T14:00:32Z</time></trkpt><trkpt lat="44.475409202312385" lon="11.615842484817968"><ele>24.0</ele><time>2026-03-22T14:00:33Z</time></trkpt><trkpt lat="44.475223112648166" lon="11.615795773424296"><ele>24.0</ele><time>2026-03-22T14:00:34Z</time></trkpt><trkpt lat="44.4750355963626" lon="11.615749763180748"><ele>24.0</ele><time>2026-03-22T14:00:35Z</time></trkpt><trkpt lat="44.47485626083983" lon="11.615708133113444"><ele>24.0</ele><time>2026-03-22T14:00:36Z</time></trkpt><trkpt lat="44.47467142590803" lon="11.615647556665825"><ele>24.0</ele><time>2026-03-22T14:00:37Z</time></trkpt><trkpt lat="44.474486514912584" lon="11.615628226297662"><ele>24.333333333333336</ele><time>2026-03-22T14:00:38Z</time></trkpt><trkpt lat="44.47430274386206" lon="11.615585498372262"><ele>24.666666666666668</ele><time>2026-03-22T14:00:39Z</time></trkpt><trkpt lat="44.47411866056785" lon="11.615541657146267"><ele>25.0</ele><time>2026-03-22T14:00:40Z</time></trkpt><trkpt lat="44.47393984292859" lon="11.615499279708803"><ele>25.666666666666668</ele><time>2026-03-22T14:00:41Z</time></trkpt><trkpt lat="44.47375813313812" lon="11.615458582039047"><ele>26.333333333333336</ele><time>2026-03-22T14:00:42Z</time></trkpt><trkpt lat="44.47357501630475" lon="11.615416489658829"><ele>27.0</ele><time>2026-03-22T14:00:43Z</time></trkpt><trkpt lat="44.47339311121313" lon="11.615371429886771"><ele>27.0</ele><time>2026-03-22T14:00:44Z</time></trkpt><trkpt lat="44.47320690698326" lon="11.615329714918694"><ele>27.0</ele><time>2026-03-22T14:00:45Z</time></trkpt><trkpt lat="44.47302220007746" lon="11.615307117459574"><ele>27.0</ele><time>2026-03-22T14:00:46Z</time></trkpt><trkpt lat="44.47283135015193" lon="11.615301645309456"><ele>26.666666666666664</ele><time>2026-03-22T14:00:47Z</time></trkpt><trkpt lat="44.47264305314468" lon="11.61529977521411"><ele>26.333333333333332</ele><time>2026-03-22T14:00:48Z</time></trkpt><trkpt lat="44.47245346712059" lon="11.615304096621346"><ele>26.0</ele><time>2026-03-22T14:00:49Z</time></trkpt><trkpt lat="44.47226733191017" lon="11.615318993555515"><ele>26.0</ele><time>2026-03-22T14:00:50Z</time></trkpt><trkpt lat="44.472079184877835" lon="11.615343910487404"><ele>26.0</ele><time>2026-03-22T14:00:51Z</time></trkpt><trkpt lat="44.471894255666" lon="11.615376608437886"><ele>26.0</ele><time>2026-03-22T14:00:52Z</time></trkpt><trkpt lat="44.47170858572689" lon="11.615412344713267"><ele>26.0</ele><time>2026-03-22T14:00:53Z</time></trkpt><trkpt lat="44.47151674545684" lon="11.61545061531458"><ele>26.0</ele><time>2026-03-22T14:00:54Z</time></trkpt><trkpt lat="44.471335092468365" lon="11.615486525900744"><ele>26.0</ele><time>2026-03-22T14:00:55Z</time></trkpt><trkpt lat="44.4711482108833" lon="11.615502340336752"><ele>26.0</ele><time>2026-03-22T14:00:56Z</time></trkpt><trkpt lat="44.47096080642461" lon="11.615540017429066"><ele>26.0</ele><time>2026-03-22T14:00:57Z</time></trkpt><trkpt lat="44.470773239923936" lon="11.615597703552918"><ele>26.0</ele><time>2026-03-22T14:00:58Z</time></trkpt><trkpt lat="44.47058265195266" lon="11.615635166257572"><ele>26.333333333333332</ele><time>2026-03-22T14:00:59Z</time></trkpt><trkpt lat="44.470394246355355" lon="11.615673588076183"><ele>26.666666666666664</ele><time>2026-03-22T14:01:00Z</time></trkpt><trkpt lat="44.470202917341354" lon="11.615712115242697"><ele>27.0</ele><time>2026-03-22T14:01:01Z</time></trkpt><trkpt lat="44.470014361466674" lon="11.615753990850012"><ele>27.0</ele><time>2026-03-22T14:01:02Z</time></trkpt><trkpt lat="44.469820044985305" lon="11.615769751905058"><ele>27.0</ele><time>2026-03-22T14:01:03Z</time></trkpt><trkpt lat="44.46962058190626" lon="11.615809338663981"><ele>27.0</ele><time>2026-03-22T14:01:04Z</time></trkpt><trkpt lat="44.46941635807157" lon="11.61584857953303"><ele>27.333333333333336</ele><time>2026-03-22T14:01:05Z</time></trkpt><trkpt lat="44.46921124893474" lon="11.615887990487018"><ele>27.666666666666668</ele><time>2026-03-22T14:01:06Z</time></trkpt><trkpt lat="44.46902779753623" lon="11.615923239974968"><ele>28.0</ele><time>2026-03-22T14:01:07Z</time></trkpt><trkpt lat="44.46884957462472" lon="11.615957657952105"><ele>28.0</ele><time>2026-03-22T14:01:08Z</time></trkpt><trkpt lat="44.468669320170896" lon="11.61601523990314"><ele>28.0</ele><time>2026-03-22T14:01:09Z</time></trkpt><trkpt lat="44.46848866890634" lon="11.616045091454517"><ele>28.0</ele><time>2026-03-22T14:01:10Z</time></trkpt><trkpt lat="44.46830909331364" lon="11.61607727600683"><ele>28.0</ele><time>2026-03-22T14:01:11Z</time></trkpt><trkpt lat="44.4681265931443" lon="11.616113145819694"><ele>28.0</ele><time>2026-03-22T14:01:12Z</time></trkpt><trkpt lat="44.467946176604194" lon="11.616153745942515"><ele>28.0</ele><time>2026-03-22T14:01:13Z</time></trkpt><trkpt lat="44.467759493062275" lon="11.616166792516145"><ele>28.0</ele><time>2026-03-22T14:01:14Z</time></trkpt><trkpt lat="44.46758414534866" lon="11.61620056821988"><ele>28.0</ele><time>2026-03-22T14:01:15Z</time></trkpt><trkpt lat="44.46740516025416" lon="11.616230695349605"><ele>28.0</ele><time>2026-03-22T14:01:16Z</time></trkpt><trkpt lat="44.46722712352615" lon="11.616250660316398"><ele>28.666666666666668</ele><time>2026-03-22T14:01:17Z</time></trkpt><trkpt lat="44.467049313796" lon="11.616259006057298"><ele>29.333333333333336</ele><time>2026-03-22T14:01:18Z</time></trkpt><trkpt lat="44.4668697052345" lon="11.616276850212065"><ele>30.0</ele><time>2026-03-22T14:01:19Z</time></trkpt><trkpt lat="44.46669456851018" lon="11.616254569442521"><ele>30.0</ele><time>2026-03-22T14:01:20Z</time></trkpt><trkpt lat="44.46651826503114" lon="11.616222461011294"><ele>30.0</ele><time>2026-03-22T14:01:21Z</time></trkpt><trkpt lat="44.466342437279685" lon="11.616179872664453"><ele>30.0</ele><time>2026-03-22T14:01:22Z</time></trkpt><trkpt lat="44.46617293221738" lon="11.616126622766306"><ele>29.666666666666664</ele><time>2026-03-22T14:01:23Z</time></trkpt><trkpt lat="44.46600607358443" lon="11.616059555074761"><ele>29.333333333333332</ele><time>2026-03-22T14:01:24Z</time></trkpt><trkpt lat="44.46584328768299" lon="11.615978620994781"><ele>29.0</ele><time>2026-03-22T14:01:25Z</time></trkpt><trkpt lat="44.46568004033197" lon="11.61588637415955"><ele>29.0</ele><time>2026-03-22T14:01:26Z</time></trkpt><trkpt lat="44.4655267071611" lon="11.615783616094623"><ele>29.0</ele><time>2026-03-22T14:01:27Z</time></trkpt><trkpt lat="44.46537392978566" lon="11.615669519071487"><ele>29.0</ele><time>2026-03-22T14:01:28Z</time></trkpt><trkpt lat="44.46522574977642" lon="11.6155510626196"><ele>29.0</ele><time>2026-03-22T14:01:29Z</time></trkpt><trkpt lat="44.465079298160525" lon="11.615426311921327"><ele>29.0</ele><time>2026-03-22T14:01:30Z</time></trkpt><trkpt lat="44.46493067399506" lon="11.615300327090834"><ele>29.0</ele><time>2026-03-22T14:01:31Z</time></trkpt><trkpt lat="44.464788481418374" lon="11.615172629551099"><ele>29.333333333333332</ele><time>2026-03-22T14:01:32Z</time></trkpt><trkpt lat="44.46464450900206" lon="11.615046424678624"><ele>29.666666666666664</ele><time>2026-03-22T14:01:33Z</time></trkpt><trkpt lat="44.46451135766455" lon="11.614929408242991"><ele>30.0</ele><time>2026-03-22T14:01:34Z</time></trkpt><trkpt lat="44.464371594151096" lon="11.614806340430938"><ele>30.333333333333336</ele><time>2026-03-22T14:01:35Z</time></trkpt><trkpt lat="44.464237131490975" lon="11.614684594410123"><ele>30.666666666666668</ele><time>2026-03-22T14:01:36Z</time></trkpt><trkpt lat="44.46409184831258" lon="11.61455972376031"><ele>31.0</ele><time>2026-03-22T14:01:37Z</time></trkpt><trkpt lat="44.46394856387296" lon="11.614431608905717"><ele>31.0</ele><time>2026-03-22T14:01:38Z</time></trkpt><trkpt lat="44.46380170003399" lon="11.61429556020784"><ele>31.0</ele><time>2026-03-22T14:01:39Z</time></trkpt><trkpt lat="44.463652321290375" lon="11.614163439170273"><ele>31.0</ele><time>2026-03-22T14:01:40Z</time></trkpt><trkpt lat="44.463499642762315" lon="11.614031693106103"><ele>31.0</ele><time>2026-03-22T14:01:41Z</time></trkpt><trkpt lat="44.46334752117955" lon="11.613900650495005"><ele>31.0</ele><time>2026-03-22T14:01:42Z</time></trkpt><trkpt lat="44.46319314469367" lon="11.613764960530325"><ele>31.0</ele><time>2026-03-22T14:01:43Z</time></trkpt><trkpt lat="44.46303826529381" lon="11.613630974299474"><ele>30.666666666666668</ele><time>2026-03-22T14:01:44Z</time></trkpt><trkpt lat="44.46288542222626" lon="11.6134999979346"><ele>30.333333333333336</ele><time>2026-03-22T14:01:45Z</time></trkpt><trkpt lat="44.46272950872727" lon="11.61336081659886"><ele>30.0</ele><time>2026-03-22T14:01:46Z</time></trkpt><trkpt lat="44.46257813747252" lon="11.613226331764436"><ele>30.0</ele><time>2026-03-22T14:01:47Z</time></trkpt><trkpt lat="44.462426119394536" lon="11.613092471201323"><ele>30.0</ele><time>2026-03-22T14:01:48Z</time></trkpt><trkpt lat="44.46227484520686" lon="11.612958828973127"><ele>30.0</ele><time>2026-03-22T14:01:49Z</time></trkpt><trkpt lat="44.46212478358538" lon="11.612824506176807"><ele>31.0</ele><time>2026-03-22T14:01:50Z</time></trkpt><trkpt lat="44.46196848055488" lon="11.612682640759198"><ele>32.0</ele><time>2026-03-22T14:01:51Z</time></trkpt><trkpt lat="44.461815913932455" lon="11.612545461875008"><ele>33.0</ele><time>2026-03-22T14:01:52Z</time></trkpt><trkpt lat="44.46166169860965" lon="11.612410424397831"><ele>33.0</ele><time>2026-03-22T14:01:53Z</time></trkpt><trkpt lat="44.46150567011167" lon="11.612275012118586"><ele>33.0</ele><time>2026-03-22T14:01:54Z</time></trkpt><trkpt lat="44.46134651635159" lon="11.612135934783337"><ele>33.0</ele><time>2026-03-22T14:01:55Z</time></trkpt><trkpt lat="44.46118950141076" lon="11.61199768715701"><ele>32.333333333333336</ele><time>2026-03-22T14:01:56Z</time></trkpt><trkpt lat="44.461037349353404" lon="11.611860239708497"><ele>31.666666666666668</ele><time>2026-03-22T14:01:57Z</time></trkpt><trkpt lat="44.460880102266295" lon="11.611724164193623"><ele>31.0</ele><time>2026-03-22T14:01:58Z</time></trkpt><trkpt lat="44.460723870194606" lon="11.611589364603331"><ele>31.0</ele><time>2026-03-22T14:01:59Z</time></trkpt><trkpt lat="44.46057043756208" lon="11.611456581771243"><ele>31.0</ele><time>2026-03-22T14:02:00Z</time></trkpt><trkpt lat="44.46041127485539" lon="11.61132029800835"><ele>31.0</ele><time>2026-03-22T14:02:01Z</time></trkpt><trkpt lat="44.460261417843164" lon="11.61119308525605"><ele>31.666666666666668</ele><time>2026-03-22T14:02:02Z</time></trkpt><trkpt lat="44.46010627027546" lon="11.611068723425277"><ele>32.333333333333336</ele><time>2026-03-22T14:02:03Z</time></trkpt><trkpt lat="44.459953630685455" lon="11.61094825558241"><ele>33.0</ele><time>2026-03-22T14:02:04Z</time></trkpt><trkpt lat="44.4597998884454" lon="11.610828079850654"><ele>33.0</ele><time>2026-03-22T14:02:05Z</time></trkpt><trkpt lat="44.459642859224374" lon="11.610710139161124"><ele>33.0</ele><time>2026-03-22T14:02:06Z</time></trkpt><trkpt lat="44.459484017942366" lon="11.610595365048402"><ele>33.0</ele><time>2026-03-22T14:02:07Z</time></trkpt><trkpt lat="44.45932316579289" lon="11.610478460046906"><ele>33.0</ele><time>2026-03-22T14:02:08Z</time></trkpt><trkpt lat="44.4591670999425" lon="11.610359410476537"><ele>33.0</ele><time>2026-03-22T14:02:09Z</time></trkpt><trkpt lat="44.45901122153329" lon="11.610239249480832"><ele>33.0</ele><time>2026-03-22T14:02:10Z</time></trkpt><trkpt lat="44.45885200773608" lon="11.610122494750495"><ele>33.0</ele><time>2026-03-22T14:02:11Z</time></trkpt><trkpt lat="44.45868778101063" lon="11.610004052225571"><ele>33.0</ele><time>2026-03-22T14:02:12Z</time></trkpt><trkpt lat="44.45852644963843" lon="11.609884006804803"><ele>33.0</ele><time>2026-03-22T14:02:13Z</time></trkpt><trkpt lat="44.45836460309596" lon="11.609762300505155"><ele>33.0</ele><time>2026-03-22T14:02:14Z</time></trkpt><trkpt lat="44.45820358810458" lon="11.60964019390703"><ele>33.0</ele><time>2026-03-22T14:02:15Z</time></trkpt><trkpt lat="44.45803962861135" lon="11.60951487348814"><ele>33.0</ele><time>2026-03-22T14:02:16Z</time></trkpt><trkpt lat="44.45788033860027" lon="11.609395510976865"><ele>33.333333333333336</ele><time>2026-03-22T14:02:17Z</time></trkpt><trkpt lat="44.457717799836615" lon="11.609276082055622"><ele>33.66666666666667</ele><time>2026-03-22T14:02:18Z</time></trkpt><trkpt lat="44.45756437895332" lon="11.609162693256065"><ele>34.0</ele><time>2026-03-22T14:02:19Z</time></trkpt><trkpt lat="44.45740972332267" lon="11.60904179205124"><ele>34.0</ele><time>2026-03-22T14:02:20Z</time></trkpt><trkpt lat="44.4572569859001" lon="11.608926409274343"><ele>34.0</ele><time>2026-03-22T14:02:21Z</time></trkpt><trkpt lat="44.45710649748052" lon="11.608815441241736"><ele>34.0</ele><time>2026-03-22T14:02:22Z</time></trkpt><trkpt lat="44.456957972474505" lon="11.608708816058526"><ele>34.0</ele><time>2026-03-22T14:02:23Z</time></trkpt><trkpt lat="44.45680645305861" lon="11.608594235758098"><ele>34.0</ele><time>2026-03-22T14:02:24Z</time></trkpt><trkpt lat="44.45665759398184" lon="11.60848299177566"><ele>34.0</ele><time>2026-03-22T14:02:25Z</time></trkpt><trkpt lat="44.45650868445263" lon="11.608373134414386"><ele>34.0</ele><time>2026-03-22T14:02:26Z</time></trkpt><trkpt lat="44.456358040353436" lon="11.608256705093948"><ele>34.0</ele><time>2026-03-22T14:02:27Z</time></trkpt><trkpt lat="44.456200848539666" lon="11.608137210771508"><ele>34.0</ele><time>2026-03-22T14:02:28Z</time></trkpt><trkpt lat="44.456044721792715" lon="11.608024784426817"><ele>34.0</ele><time>2026-03-22T14:02:29Z</time></trkpt><trkpt lat="44.455889162959494" lon="11.607909757510821"><ele>34.0</ele><time>2026-03-22T14:02:30Z</time></trkpt><trkpt lat="44.455734360255136" lon="11.607788315551606"><ele>34.0</ele><time>2026-03-22T14:02:31Z</time></trkpt><trkpt lat="44.45558805582769" lon="11.60767241022431"><ele>34.333333333333336</ele><time>2026-03-22T14:02:32Z</time></trkpt><trkpt lat="44.45543797666828" lon="11.60755424107992"><ele>34.666666666666664</ele><time>2026-03-22T14:02:33Z</time></trkpt><trkpt lat="44.455287401068865" lon="11.607444822109306"><ele>35.0</ele><time>2026-03-22T14:02:34Z</time></trkpt><trkpt lat="44.455134272796336" lon="11.607337942343001"><ele>35.0</ele><time>2026-03-22T14:02:35Z</time></trkpt><trkpt lat="44.454986118565074" lon="11.607226441954262"><ele>35.0</ele><time>2026-03-22T14:02:36Z</time></trkpt><trkpt lat="44.45483597774963" lon="11.60711574100804"><ele>35.0</ele><time>2026-03-22T14:02:37Z</time></trkpt><trkpt lat="44.45468001704366" lon="11.607002354986847"><ele>35.666666666666664</ele><time>2026-03-22T14:02:38Z</time></trkpt><trkpt lat="44.454524702704525" lon="11.60689097563523"><ele>36.333333333333336</ele><time>2026-03-22T14:02:39Z</time></trkpt><trkpt lat="44.45436332136241" lon="11.606782961434952"><ele>37.0</ele><time>2026-03-22T14:02:40Z</time></trkpt><trkpt lat="44.45420015009521" lon="11.60667971360446"><ele>37.0</ele><time>2026-03-22T14:02:41Z</time></trkpt><trkpt lat="44.45403754520006" lon="11.606577861925567"><ele>37.0</ele><time>2026-03-22T14:02:42Z</time></trkpt><trkpt lat="44.4538734186286" lon="11.606479435535817"><ele>37.0</ele><time>2026-03-22T14:02:43Z</time></trkpt><trkpt lat="44.45370892370444" lon="11.606389616994806"><ele>37.0</ele><time>2026-03-22T14:02:44Z</time></trkpt><trkpt lat="44.45354366818867" lon="11.606310167316295"><ele>37.0</ele><time>2026-03-22T14:02:45Z</time></trkpt><trkpt lat="44.453376787518934" lon="11.606241636471772"><ele>37.0</ele><time>2026-03-22T14:02:46Z</time></trkpt><trkpt lat="44.45320742190188" lon="11.606178807753658"><ele>36.333333333333336</ele><time>2026-03-22T14:02:47Z</time></trkpt><trkpt lat="44.45303288394955" lon="11.606122600807138"><ele>35.666666666666664</ele><time>2026-03-22T14:02:48Z</time></trkpt><trkpt lat="44.45286603180015" lon="11.606071683508368"><ele>35.0</ele><time>2026-03-22T14:02:49Z</time></trkpt><trkpt lat="44.45269811175849" lon="11.60603044384872"><ele>35.0</ele><time>2026-03-22T14:02:50Z</time></trkpt><trkpt lat="44.45252954150709" lon="11.605996718208987"><ele>35.0</ele><time>2026-03-22T14:02:51Z</time></trkpt><trkpt lat="44.4523587292717" lon="11.605970407103934"><ele>35.0</ele><time>2026-03-22T14:02:52Z</time></trkpt><trkpt lat="44.452188055438754" lon="11.605953283082506"><ele>35.0</ele><time>2026-03-22T14:02:53Z</time></trkpt><trkpt lat="44.4520141383994" lon="11.605944601485069"><ele>35.0</ele><time>2026-03-22T14:02:54Z</time></trkpt><trkpt lat="44.45183666097881" lon="11.605944413983762"><ele>35.0</ele><time>2026-03-22T14:02:55Z</time></trkpt><trkpt lat="44.451659622812166" lon="11.605950218413732"><ele>35.0</ele><time>2026-03-22T14:02:56Z</time></trkpt><trkpt lat="44.451483636106985" lon="11.605963327223312"><ele>35.0</ele><time>2026-03-22T14:02:57Z</time></trkpt><trkpt lat="44.451302442592414" lon="11.605987413574159"><ele>35.0</ele><time>2026-03-22T14:02:58Z</time></trkpt><trkpt lat="44.45112088868238" lon="11.605992316854325"><ele>35.0</ele><time>2026-03-22T14:02:59Z</time></trkpt><trkpt lat="44.45094730467264" lon="11.606022744851597"><ele>35.0</ele><time>2026-03-22T14:03:00Z</time></trkpt><trkpt lat="44.450774436220684" lon="11.606054124624126"><ele>35.0</ele><time>2026-03-22T14:03:01Z</time></trkpt><trkpt lat="44.4506017533994" lon="11.606090174490808"><ele>36.0</ele><time>2026-03-22T14:03:02Z</time></trkpt><trkpt lat="44.45042582254022" lon="11.60612761540377"><ele>37.0</ele><time>2026-03-22T14:03:03Z</time></trkpt><trkpt lat="44.450253508910144" lon="11.606187691990948"><ele>38.0</ele><time>2026-03-22T14:03:04Z</time></trkpt><trkpt lat="44.4500791742102" lon="11.606223345548585"><ele>38.0</ele><time>2026-03-22T14:03:05Z</time></trkpt><trkpt lat="44.449903214648515" lon="11.606259653212494"><ele>38.0</ele><time>2026-03-22T14:03:06Z</time></trkpt><trkpt lat="44.449731954969785" lon="11.606294872377203"><ele>38.0</ele><time>2026-03-22T14:03:07Z</time></trkpt><trkpt lat="44.44957018502684" lon="11.606329755881307"><ele>38.33333333333333</ele><time>2026-03-22T14:03:08Z</time></trkpt><trkpt lat="44.449404701058945" lon="11.60636663564526"><ele>38.666666666666664</ele><time>2026-03-22T14:03:09Z</time></trkpt><trkpt lat="44.44923759434868" lon="11.606403587219704"><ele>39.0</ele><time>2026-03-22T14:03:10Z</time></trkpt><trkpt lat="44.449059946335765" lon="11.60644119027615"><ele>39.0</ele><time>2026-03-22T14:03:11Z</time></trkpt><trkpt lat="44.44888543238741" lon="11.606480339538736"><ele>39.0</ele><time>2026-03-22T14:03:12Z</time></trkpt><trkpt lat="44.448709517674835" lon="11.606496579358675"><ele>39.0</ele><time>2026-03-22T14:03:13Z</time></trkpt><trkpt lat="44.448536563518935" lon="11.606533977453877"><ele>38.666666666666664</ele><time>2026-03-22T14:03:14Z</time></trkpt><trkpt lat="44.448362073026644" lon="11.606571707718192"><ele>38.33333333333333</ele><time>2026-03-22T14:03:15Z</time></trkpt><trkpt lat="44.44818497147716" lon="11.606610002579545"><ele>38.0</ele><time>2026-03-22T14:03:16Z</time></trkpt><trkpt lat="44.44801542821022" lon="11.60664666294841"><ele>38.33333333333333</ele><time>2026-03-22T14:03:17Z</time></trkpt><trkpt lat="44.44784192673343" lon="11.606702584321408"><ele>38.666666666666664</ele><time>2026-03-22T14:03:18Z</time></trkpt><trkpt lat="44.44766689308298" lon="11.606738681672462"><ele>39.0</ele><time>2026-03-22T14:03:19Z</time></trkpt><trkpt lat="44.4474978900072" lon="11.60677678947565"><ele>39.0</ele><time>2026-03-22T14:03:20Z</time></trkpt><trkpt lat="44.44732744952101" lon="11.606814649042736"><ele>39.0</ele><time>2026-03-22T14:03:21Z</time></trkpt><trkpt lat="44.44715630302854" lon="11.606851775366804"><ele>39.0</ele><time>2026-03-22T14:03:22Z</time></trkpt><trkpt lat="44.446980315989045" lon="11.606887726000501"><ele>39.0</ele><time>2026-03-22T14:03:23Z</time></trkpt><trkpt lat="44.44681233876369" lon="11.606921015992022"><ele>39.0</ele><time>2026-03-22T14:03:24Z</time></trkpt><trkpt lat="44.44664053700849" lon="11.606959675646003"><ele>39.0</ele><time>2026-03-22T14:03:25Z</time></trkpt><trkpt lat="44.44646827637295" lon="11.606998661946896"><ele>39.0</ele><time>2026-03-22T14:03:26Z</time></trkpt><trkpt lat="44.446295782252854" lon="11.607038885180662"><ele>39.0</ele><time>2026-03-22T14:03:27Z</time></trkpt><trkpt lat="44.44612273572761" lon="11.607074998540508"><ele>39.0</ele><time>2026-03-22T14:03:28Z</time></trkpt><trkpt lat="44.44595242474019" lon="11.607112036931923"><ele>39.0</ele><time>2026-03-22T14:03:29Z</time></trkpt><trkpt lat="44.445779430075945" lon="11.607149761076487"><ele>39.0</ele><time>2026-03-22T14:03:30Z</time></trkpt><trkpt lat="44.445610151127724" lon="11.607165187659113"><ele>39.0</ele><time>2026-03-22T14:03:31Z</time></trkpt><trkpt lat="44.44543961513295" lon="11.607200596086514"><ele>39.666666666666664</ele><time>2026-03-22T14:03:32Z</time></trkpt><trkpt lat="44.44526853422017" lon="11.607236117625025"><ele>40.33333333333333</ele><time>2026-03-22T14:03:33Z</time></trkpt><trkpt lat="44.44509256400948" lon="11.60727380513316"><ele>41.0</ele><time>2026-03-22T14:03:34Z</time></trkpt><trkpt lat="44.44491422376791" lon="11.60731239303853"><ele>41.0</ele><time>2026-03-22T14:03:35Z</time></trkpt><trkpt lat="44.444735026908006" lon="11.607351166279297"><ele>41.0</ele><time>2026-03-22T14:03:36Z</time></trkpt><trkpt lat="44.444557266001915" lon="11.607389628831971"><ele>41.0</ele><time>2026-03-22T14:03:37Z</time></trkpt><trkpt lat="44.44438331949128" lon="11.607448251079623"><ele>40.666666666666664</ele><time>2026-03-22T14:03:38Z</time></trkpt><trkpt lat="44.44420512550341" lon="11.60748806198244"><ele>40.333333333333336</ele><time>2026-03-22T14:03:39Z</time></trkpt><trkpt lat="44.44403869393643" lon="11.607525468207893"><ele>40.0</ele><time>2026-03-22T14:03:40Z</time></trkpt><trkpt lat="44.4438705037028" lon="11.607538551638479"><ele>40.333333333333336</ele><time>2026-03-22T14:03:41Z</time></trkpt><trkpt lat="44.4437073112145" lon="11.607573984086887"><ele>40.666666666666664</ele><time>2026-03-22T14:03:42Z</time></trkpt><trkpt lat="44.44354212670678" lon="11.607605345057479"><ele>41.0</ele><time>2026-03-22T14:03:43Z</time></trkpt><trkpt lat="44.44337322903898" lon="11.607630947215059"><ele>41.0</ele><time>2026-03-22T14:03:44Z</time></trkpt><trkpt lat="44.443200057544274" lon="11.607639359335542"><ele>41.0</ele><time>2026-03-22T14:03:45Z</time></trkpt><trkpt lat="44.44302894277478" lon="11.607635917091285"><ele>41.0</ele><time>2026-03-22T14:03:46Z</time></trkpt><trkpt lat="44.44286012882553" lon="11.607624029944002"><ele>41.0</ele><time>2026-03-22T14:03:47Z</time></trkpt><trkpt lat="44.44268909737466" lon="11.60758935129617"><ele>41.0</ele><time>2026-03-22T14:03:48Z</time></trkpt><trkpt lat="44.44252084093925" lon="11.607543734452623"><ele>41.0</ele><time>2026-03-22T14:03:49Z</time></trkpt><trkpt lat="44.44235788224229" lon="11.607483622578572"><ele>41.0</ele><time>2026-03-22T14:03:50Z</time></trkpt><trkpt lat="44.44219433186957" lon="11.607431733224379"><ele>41.0</ele><time>2026-03-22T14:03:51Z</time></trkpt><trkpt lat="44.44203736923312" lon="11.60734903944908"><ele>41.0</ele><time>2026-03-22T14:03:52Z</time></trkpt><trkpt lat="44.44189309119617" lon="11.607236436305154"><ele>41.0</ele><time>2026-03-22T14:03:53Z</time></trkpt><trkpt lat="44.441743813944925" lon="11.607140892673502"><ele>41.0</ele><time>2026-03-22T14:03:54Z</time></trkpt><trkpt lat="44.44158836618314" lon="11.607063237497968"><ele>41.0</ele><time>2026-03-22T14:03:55Z</time></trkpt><trkpt lat="44.441444330418875" lon="11.606960770534357"><ele>41.0</ele><time>2026-03-22T14:03:56Z</time></trkpt><trkpt lat="44.44130522018005" lon="11.606868673071624"><ele>41.0</ele><time>2026-03-22T14:03:57Z</time></trkpt><trkpt lat="44.441163370851875" lon="11.606780774202491"><ele>41.0</ele><time>2026-03-22T14:03:58Z</time></trkpt><trkpt lat="44.44102783409316" lon="11.606697691407678"><ele>41.0</ele><time>2026-03-22T14:03:59Z</time></trkpt><trkpt lat="44.440901257970395" lon="11.606621075484718"><ele>41.0</ele><time>2026-03-22T14:04:00Z</time></trkpt><trkpt lat="44.44076980545425" lon="11.60653999089309"><ele>41.0</ele><time>2026-03-22T14:04:01Z</time></trkpt><trkpt lat="44.440633205603326" lon="11.60646639479025"><ele>41.0</ele><time>2026-03-22T14:04:02Z</time></trkpt><trkpt lat="44.44049109002944" lon="11.606404119423283"><ele>41.33333333333333</ele><time>2026-03-22T14:04:03Z</time></trkpt><trkpt lat="44.44033921338227" lon="11.60636200667948"><ele>41.666666666666664</ele><time>2026-03-22T14:04:04Z</time></trkpt><trkpt lat="44.440184706026315" lon="11.606312504925754"><ele>42.0</ele><time>2026-03-22T14:04:05Z</time></trkpt><trkpt lat="44.44001941821227" lon="11.606288377304155"><ele>42.0</ele><time>2026-03-22T14:04:06Z</time></trkpt><trkpt lat="44.439849443576875" lon="11.60627623814052"><ele>42.0</ele><time>2026-03-22T14:04:07Z</time></trkpt><trkpt lat="44.439672595538134" lon="11.606281589140934"><ele>42.0</ele><time>2026-03-22T14:04:08Z</time></trkpt><trkpt lat="44.439492083147364" lon="11.606295960490806"><ele>42.0</ele><time>2026-03-22T14:04:09Z</time></trkpt><trkpt lat="44.439304479790806" lon="11.60631416935451"><ele>42.0</ele><time>2026-03-22T14:04:10Z</time></trkpt><trkpt lat="44.439119479909145" lon="11.606332690763146"><ele>42.0</ele><time>2026-03-22T14:04:11Z</time></trkpt><trkpt lat="44.43893465731146" lon="11.606351420639557"><ele>42.666666666666664</ele><time>2026-03-22T14:04:12Z</time></trkpt><trkpt lat="44.43875143560561" lon="11.606369988279074"><ele>43.33333333333333</ele><time>2026-03-22T14:04:13Z</time></trkpt><trkpt lat="44.438572824795116" lon="11.60638802060386"><ele>44.0</ele><time>2026-03-22T14:04:14Z</time></trkpt><trkpt lat="44.438396312023734" lon="11.606405079827445"><ele>44.0</ele><time>2026-03-22T14:04:15Z</time></trkpt><trkpt lat="44.43822033862097" lon="11.606422086920661"><ele>44.0</ele><time>2026-03-22T14:04:16Z</time></trkpt><trkpt lat="44.43804800984376" lon="11.606438693685973"><ele>44.0</ele><time>2026-03-22T14:04:17Z</time></trkpt><trkpt lat="44.43786993247875" lon="11.606455169933943"><ele>44.0</ele><time>2026-03-22T14:04:18Z</time></trkpt><trkpt lat="44.4376930407325" lon="11.606471538445277"><ele>44.0</ele><time>2026-03-22T14:04:19Z</time></trkpt><trkpt lat="44.43752024396987" lon="11.606488128980233"><ele>44.0</ele><time>2026-03-22T14:04:20Z</time></trkpt><trkpt lat="44.43734780970326" lon="11.606505798648215"><ele>44.0</ele><time>2026-03-22T14:04:21Z</time></trkpt><trkpt lat="44.43717049927789" lon="11.606523967986679"><ele>44.0</ele><time>2026-03-22T14:04:22Z</time></trkpt><trkpt lat="44.436998516310496" lon="11.606541591410338"><ele>44.0</ele><time>2026-03-22T14:04:23Z</time></trkpt><trkpt lat="44.436822344881364" lon="11.606557797402532"><ele>44.33333333333333</ele><time>2026-03-22T14:04:24Z</time></trkpt><trkpt lat="44.43664921935572" lon="11.606570365491022"><ele>44.666666666666664</ele><time>2026-03-22T14:04:25Z</time></trkpt><trkpt lat="44.436474805733404" lon="11.606571300814618"><ele>45.0</ele><time>2026-03-22T14:04:26Z</time></trkpt><trkpt lat="44.43630104339967" lon="11.606557117731255"><ele>45.0</ele><time>2026-03-22T14:04:27Z</time></trkpt><trkpt lat="44.436127286433866" lon="11.606525799695257"><ele>45.0</ele><time>2026-03-22T14:04:28Z</time></trkpt><trkpt lat="44.43595977030649" lon="11.606499776070468"><ele>45.0</ele><time>2026-03-22T14:04:29Z</time></trkpt><trkpt lat="44.43578984639347" lon="11.606435319970238"><ele>45.0</ele><time>2026-03-22T14:04:30Z</time></trkpt><trkpt lat="44.43561446039046" lon="11.606349936279463"><ele>45.0</ele><time>2026-03-22T14:04:31Z</time></trkpt><trkpt lat="44.435433809678656" lon="11.606253743093129"><ele>45.0</ele><time>2026-03-22T14:04:32Z</time></trkpt><trkpt lat="44.435260583100465" lon="11.606146670271341"><ele>44.333333333333336</ele><time>2026-03-22T14:04:33Z</time></trkpt><trkpt lat="44.43508986948595" lon="11.60603942811994"><ele>43.66666666666667</ele><time>2026-03-22T14:04:34Z</time></trkpt><trkpt lat="44.4349199611581" lon="11.605937195579092"><ele>43.0</ele><time>2026-03-22T14:04:35Z</time></trkpt><trkpt lat="44.43475529267746" lon="11.60583478470969"><ele>44.0</ele><time>2026-03-22T14:04:36Z</time></trkpt><trkpt lat="44.434593019173064" lon="11.605734883726335"><ele>45.0</ele><time>2026-03-22T14:04:37Z</time></trkpt><trkpt lat="44.4344332508702" lon="11.60563658697355"><ele>46.0</ele><time>2026-03-22T14:04:38Z</time></trkpt><trkpt lat="44.43427183876769" lon="11.605539320619906"><ele>46.0</ele><time>2026-03-22T14:04:39Z</time></trkpt><trkpt lat="44.434111549032956" lon="11.605450508910709"><ele>46.0</ele><time>2026-03-22T14:04:40Z</time></trkpt><trkpt lat="44.433946265754315" lon="11.605374870676657"><ele>46.0</ele><time>2026-03-22T14:04:41Z</time></trkpt><trkpt lat="44.433776961490814" lon="11.605317640361502"><ele>46.66666666666667</ele><time>2026-03-22T14:04:42Z</time></trkpt><trkpt lat="44.433610851702134" lon="11.60527721363173"><ele>47.333333333333336</ele><time>2026-03-22T14:04:43Z</time></trkpt><trkpt lat="44.43343389612124" lon="11.605249500658335"><ele>48.0</ele><time>2026-03-22T14:04:44Z</time></trkpt><trkpt lat="44.433262313090395" lon="11.605221710617345"><ele>48.0</ele><time>2026-03-22T14:04:45Z</time></trkpt><trkpt lat="44.433087904549986" lon="11.605193783812911"><ele>48.0</ele><time>2026-03-22T14:04:46Z</time></trkpt><trkpt lat="44.4329137561794" lon="11.605165292100958"><ele>48.0</ele><time>2026-03-22T14:04:47Z</time></trkpt><trkpt lat="44.432738633057916" lon="11.605136326886504"><ele>47.0</ele><time>2026-03-22T14:04:48Z</time></trkpt><trkpt lat="44.432561270943836" lon="11.605105526730322"><ele>46.0</ele><time>2026-03-22T14:04:49Z</time></trkpt><trkpt lat="44.43238386884281" lon="11.60506972165521"><ele>45.0</ele><time>2026-03-22T14:04:50Z</time></trkpt><trkpt lat="44.432209038374424" lon="11.605037958007705"><ele>44.666666666666664</ele><time>2026-03-22T14:04:51Z</time></trkpt><trkpt lat="44.43202972036029" lon="11.605011239307352"><ele>44.33333333333333</ele><time>2026-03-22T14:04:52Z</time></trkpt><trkpt lat="44.43185630599905" lon="11.6049763523292"><ele>44.0</ele><time>2026-03-22T14:04:53Z</time></trkpt><trkpt lat="44.431683306552934" lon="11.604943411478684"><ele>44.0</ele><time>2026-03-22T14:04:54Z</time></trkpt><trkpt lat="44.431512473098564" lon="11.604915463880062"><ele>44.0</ele><time>2026-03-22T14:04:55Z</time></trkpt><trkpt lat="44.43133547341988" lon="11.604882459003212"><ele>44.0</ele><time>2026-03-22T14:04:56Z</time></trkpt><trkpt lat="44.43116133614657" lon="11.604848013426727"><ele>44.666666666666664</ele><time>2026-03-22T14:04:57Z</time></trkpt><trkpt lat="44.43098528564419" lon="11.604814491485941"><ele>45.333333333333336</ele><time>2026-03-22T14:04:58Z</time></trkpt><trkpt lat="44.430802245513995" lon="11.60478242942007"><ele>46.0</ele><time>2026-03-22T14:04:59Z</time></trkpt><trkpt lat="44.430620693771885" lon="11.604752109990496"><ele>47.0</ele><time>2026-03-22T14:05:00Z</time></trkpt><trkpt lat="44.430436728065395" lon="11.604723044832307"><ele>48.0</ele><time>2026-03-22T14:05:01Z</time></trkpt><trkpt lat="44.430250920968874" lon="11.60466968321569"><ele>49.0</ele><time>2026-03-22T14:05:02Z</time></trkpt><trkpt lat="44.43006423739538" lon="11.604638599018305"><ele>49.0</ele><time>2026-03-22T14:05:03Z</time></trkpt><trkpt lat="44.42987810068158" lon="11.604638798130939"><ele>49.0</ele><time>2026-03-22T14:05:04Z</time></trkpt><trkpt lat="44.4296981376951" lon="11.604605924995"><ele>49.0</ele><time>2026-03-22T14:05:05Z</time></trkpt><trkpt lat="44.4295138112172" lon="11.604574004558511"><ele>48.33333333333333</ele><time>2026-03-22T14:05:06Z</time></trkpt><trkpt lat="44.429334535287914" lon="11.604543750808933"><ele>47.666666666666664</ele><time>2026-03-22T14:05:07Z</time></trkpt><trkpt lat="44.42915307535639" lon="11.60450916655206"><ele>47.0</ele><time>2026-03-22T14:05:08Z</time></trkpt><trkpt lat="44.42897641531521" lon="11.604474857928064"><ele>47.666666666666664</ele><time>2026-03-22T14:05:09Z</time></trkpt><trkpt lat="44.42879361544396" lon="11.604418171474682"><ele>48.33333333333333</ele><time>2026-03-22T14:05:10Z</time></trkpt><trkpt lat="44.428615198340424" lon="11.604382876436372"><ele>49.0</ele><time>2026-03-22T14:05:11Z</time></trkpt><trkpt lat="44.42843518599006" lon="11.604346603810768"><ele>49.0</ele><time>2026-03-22T14:05:12Z</time></trkpt><trkpt lat="44.42826075005729" lon="11.604311528573836"><ele>49.0</ele><time>2026-03-22T14:05:13Z</time></trkpt><trkpt lat="44.428085345687435" lon="11.604295906201964"><ele>49.0</ele><time>2026-03-22T14:05:14Z</time></trkpt><trkpt lat="44.427916370631415" lon="11.604249133063949"><ele>50.33333333333333</ele><time>2026-03-22T14:05:15Z</time></trkpt><trkpt lat="44.427748641581964" lon="11.604191239673357"><ele>51.66666666666667</ele><time>2026-03-22T14:05:16Z</time></trkpt><trkpt lat="44.42758387702788" lon="11.604118439008955"><ele>53.0</ele><time>2026-03-22T14:05:17Z</time></trkpt><trkpt lat="44.42742612841006" lon="11.60403507354035"><ele>53.0</ele><time>2026-03-22T14:05:18Z</time></trkpt><trkpt lat="44.42727264416691" lon="11.603942486521914"><ele>53.0</ele><time>2026-03-22T14:05:19Z</time></trkpt><trkpt lat="44.42711956004247" lon="11.603856245604357"><ele>53.0</ele><time>2026-03-22T14:05:20Z</time></trkpt><trkpt lat="44.42697068498073" lon="11.603773422499838"><ele>53.0</ele><time>2026-03-22T14:05:21Z</time></trkpt><trkpt lat="44.42681890342222" lon="11.603686472700597"><ele>53.0</ele><time>2026-03-22T14:05:22Z</time></trkpt><trkpt lat="44.42666432109634" lon="11.60359952713955"><ele>53.0</ele><time>2026-03-22T14:05:23Z</time></trkpt><trkpt lat="44.42651290958473" lon="11.603509666388987"><ele>53.0</ele><time>2026-03-22T14:05:24Z</time></trkpt><trkpt lat="44.42635634864505" lon="11.603417030318234"><ele>53.0</ele><time>2026-03-22T14:05:25Z</time></trkpt><trkpt lat="44.42620059397315" lon="11.603333139420906"><ele>53.0</ele><time>2026-03-22T14:05:26Z</time></trkpt><trkpt lat="44.42605505712412" lon="11.603256400367895"><ele>52.5</ele><time>2026-03-22T14:05:27Z</time></trkpt><trkpt lat="44.425914290728265" lon="11.603181504692653"><ele>52.0</ele><time>2026-03-22T14:05:28Z</time></trkpt><trkpt lat="44.42578421407558" lon="11.603109042791036"><ele>51.5</ele><time>2026-03-22T14:05:29Z</time></trkpt><trkpt lat="44.42565914217099" lon="11.603032686541216"><ele>51.0</ele><time>2026-03-22T14:05:30Z</time></trkpt><trkpt lat="44.42552465468993" lon="11.602958888229132"><ele>50.66666666666667</ele><time>2026-03-22T14:05:31Z</time></trkpt><trkpt lat="44.425376426254424" lon="11.60288496307342"><ele>50.333333333333336</ele><time>2026-03-22T14:05:32Z</time></trkpt><trkpt lat="44.42522486879556" lon="11.602798706362078"><ele>50.0</ele><time>2026-03-22T14:05:33Z</time></trkpt><trkpt lat="44.42506749833712" lon="11.602702264509094"><ele>51.0</ele><time>2026-03-22T14:05:34Z</time></trkpt><trkpt lat="44.4249051477137" lon="11.602608302711088"><ele>52.0</ele><time>2026-03-22T14:05:35Z</time></trkpt><trkpt lat="44.42473776076175" lon="11.602517224894322"><ele>53.0</ele><time>2026-03-22T14:05:36Z</time></trkpt><trkpt lat="44.424573357697405" lon="11.602426895885067"><ele>53.333333333333336</ele><time>2026-03-22T14:05:37Z</time></trkpt><trkpt lat="44.42441059076248" lon="11.602332331891558"><ele>53.66666666666667</ele><time>2026-03-22T14:05:38Z</time></trkpt><trkpt lat="44.424256140547364" lon="11.602239878549222"><ele>54.0</ele><time>2026-03-22T14:05:39Z</time></trkpt><trkpt lat="44.42410317346989" lon="11.602149438483606"><ele>54.0</ele><time>2026-03-22T14:05:40Z</time></trkpt><trkpt lat="44.42395482021486" lon="11.602065112270253"><ele>54.0</ele><time>2026-03-22T14:05:41Z</time></trkpt><trkpt lat="44.42379837738301" lon="11.601981565634933"><ele>54.0</ele><time>2026-03-22T14:05:42Z</time></trkpt><trkpt lat="44.42361485289001" lon="11.601881710394835"><ele>53.0</ele><time>2026-03-22T14:05:43Z</time></trkpt><trkpt lat="44.423421558861094" lon="11.601778413567356"><ele>52.0</ele><time>2026-03-22T14:05:44Z</time></trkpt><trkpt lat="44.42323986853031" lon="11.60168807393918"><ele>51.0</ele><time>2026-03-22T14:05:45Z</time></trkpt><trkpt lat="44.42307855285739" lon="11.601605989719939"><ele>51.33333333333333</ele><time>2026-03-22T14:05:46Z</time></trkpt><trkpt lat="44.42292382822103" lon="11.601525752511147"><ele>51.666666666666664</ele><time>2026-03-22T14:05:47Z</time></trkpt><trkpt lat="44.42276214687945" lon="11.601446690543716"><ele>52.0</ele><time>2026-03-22T14:05:48Z</time></trkpt><trkpt lat="44.42259928377075" lon="11.601370111259339"><ele>52.0</ele><time>2026-03-22T14:05:49Z</time></trkpt><trkpt lat="44.42243440749306" lon="11.60130017857123"><ele>52.0</ele><time>2026-03-22T14:05:50Z</time></trkpt><trkpt lat="44.42227396955672" lon="11.601228820300058"><ele>52.0</ele><time>2026-03-22T14:05:51Z</time></trkpt><trkpt lat="44.42211339300967" lon="11.60115863544724"><ele>52.0</ele><time>2026-03-22T14:05:52Z</time></trkpt><trkpt lat="44.42195240859936" lon="11.60108912494135"><ele>52.0</ele><time>2026-03-22T14:05:53Z</time></trkpt><trkpt lat="44.421793231299255" lon="11.601024295557002"><ele>52.0</ele><time>2026-03-22T14:05:54Z</time></trkpt><trkpt lat="44.421629448714135" lon="11.600956902475216"><ele>52.0</ele><time>2026-03-22T14:05:55Z</time></trkpt><trkpt lat="44.42146325298414" lon="11.60089226881044"><ele>52.0</ele><time>2026-03-22T14:05:56Z</time></trkpt><trkpt lat="44.421299927025935" lon="11.60082635009134"><ele>52.0</ele><time>2026-03-22T14:05:57Z</time></trkpt><trkpt lat="44.42114057467293" lon="11.600752776846823"><ele>53.0</ele><time>2026-03-22T14:05:58Z</time></trkpt><trkpt lat="44.42098106492951" lon="11.600667677012774"><ele>54.0</ele><time>2026-03-22T14:05:59Z</time></trkpt><trkpt lat="44.420824413948594" lon="11.600574911523074"><ele>55.0</ele><time>2026-03-22T14:06:00Z</time></trkpt><trkpt lat="44.420668600290035" lon="11.600475461216185"><ele>55.0</ele><time>2026-03-22T14:06:01Z</time></trkpt><trkpt lat="44.42051896766252" lon="11.600367063432655"><ele>55.0</ele><time>2026-03-22T14:06:02Z</time></trkpt><trkpt lat="44.42037044290989" lon="11.60025412380623"><ele>55.0</ele><time>2026-03-22T14:06:03Z</time></trkpt><trkpt lat="44.42022425532008" lon="11.600137261093035"><ele>54.33333333333333</ele><time>2026-03-22T14:06:04Z</time></trkpt><trkpt lat="44.42007783110542" lon="11.600018971624193"><ele>53.66666666666667</ele><time>2026-03-22T14:06:05Z</time></trkpt><trkpt lat="44.419929962388366" lon="11.599898527336496"><ele>53.0</ele><time>2026-03-22T14:06:06Z</time></trkpt><trkpt lat="44.41978047442427" lon="11.599784813905393"><ele>53.0</ele><time>2026-03-22T14:06:07Z</time></trkpt><trkpt lat="44.41963178140883" lon="11.599670539916556"><ele>53.0</ele><time>2026-03-22T14:06:08Z</time></trkpt><trkpt lat="44.41948043664716" lon="11.599560937781561"><ele>53.0</ele><time>2026-03-22T14:06:09Z</time></trkpt><trkpt lat="44.41932969678238" lon="11.599458115676567"><ele>53.0</ele><time>2026-03-22T14:06:10Z</time></trkpt><trkpt lat="44.41917772990098" lon="11.599371820892049"><ele>53.0</ele><time>2026-03-22T14:06:11Z</time></trkpt><trkpt lat="44.41902461602499" lon="11.59930120180749"><ele>53.0</ele><time>2026-03-22T14:06:12Z</time></trkpt><trkpt lat="44.418867039916194" lon="11.599241359506301"><ele>53.66666666666667</ele><time>2026-03-22T14:06:13Z</time></trkpt><trkpt lat="44.418706787744014" lon="11.599184606052498"><ele>54.33333333333333</ele><time>2026-03-22T14:06:14Z</time></trkpt><trkpt lat="44.41853997655404" lon="11.599127449075112"><ele>55.0</ele><time>2026-03-22T14:06:15Z</time></trkpt><trkpt lat="44.4183743352762" lon="11.599072234854482"><ele>55.0</ele><time>2026-03-22T14:06:16Z</time></trkpt><trkpt lat="44.41820139723664" lon="11.599018224876817"><ele>55.0</ele><time>2026-03-22T14:06:17Z</time></trkpt><trkpt lat="44.418031880232355" lon="11.598964836712863"><ele>55.0</ele><time>2026-03-22T14:06:18Z</time></trkpt><trkpt lat="44.41786189194676" lon="11.59891363196969"><ele>55.666666666666664</ele><time>2026-03-22T14:06:19Z</time></trkpt><trkpt lat="44.41769467399939" lon="11.59886114601698"><ele>56.33333333333333</ele><time>2026-03-22T14:06:20Z</time></trkpt><trkpt lat="44.41752114219889" lon="11.59880405366425"><ele>57.0</ele><time>2026-03-22T14:06:21Z</time></trkpt><trkpt lat="44.41735183563676" lon="11.598736695931857"><ele>57.0</ele><time>2026-03-22T14:06:22Z</time></trkpt><trkpt lat="44.41718012306503" lon="11.598663971156586"><ele>57.0</ele><time>2026-03-22T14:06:23Z</time></trkpt><trkpt lat="44.41701203267517" lon="11.59857343985643"><ele>57.0</ele><time>2026-03-22T14:06:24Z</time></trkpt><trkpt lat="44.416852782114525" lon="11.598457947204636"><ele>57.0</ele><time>2026-03-22T14:06:25Z</time></trkpt><trkpt lat="44.416703542267136" lon="11.598328695311581"><ele>57.0</ele><time>2026-03-22T14:06:26Z</time></trkpt><trkpt lat="44.41656137819973" lon="11.598185917238524"><ele>57.0</ele><time>2026-03-22T14:06:27Z</time></trkpt><trkpt lat="44.41642568829227" lon="11.598033513533212"><ele>56.0</ele><time>2026-03-22T14:06:28Z</time></trkpt><trkpt lat="44.416301825077355" lon="11.597871287575481"><ele>55.0</ele><time>2026-03-22T14:06:29Z</time></trkpt><trkpt lat="44.41618603027856" lon="11.597695283197215"><ele>54.0</ele><time>2026-03-22T14:06:30Z</time></trkpt><trkpt lat="44.416083074748194" lon="11.5975082068351"><ele>54.0</ele><time>2026-03-22T14:06:31Z</time></trkpt><trkpt lat="44.415983680991914" lon="11.597311622026533"><ele>54.0</ele><time>2026-03-22T14:06:32Z</time></trkpt><trkpt lat="44.415894342181765" lon="11.597111020513895"><ele>54.0</ele><time>2026-03-22T14:06:33Z</time></trkpt><trkpt lat="44.41579963612599" lon="11.596901625400404"><ele>54.66666666666667</ele><time>2026-03-22T14:06:34Z</time></trkpt><trkpt lat="44.41570995252782" lon="11.596699134335283"><ele>55.333333333333336</ele><time>2026-03-22T14:06:35Z</time></trkpt><trkpt lat="44.41561457008912" lon="11.59649686473382"><ele>56.0</ele><time>2026-03-22T14:06:36Z</time></trkpt><trkpt lat="44.415514473353596" lon="11.596292726977584"><ele>55.66666666666667</ele><time>2026-03-22T14:06:37Z</time></trkpt><trkpt lat="44.41541510246671" lon="11.596094659961565"><ele>55.33333333333333</ele><time>2026-03-22T14:06:38Z</time></trkpt><trkpt lat="44.41531226997756" lon="11.595890736931063"><ele>55.0</ele><time>2026-03-22T14:06:39Z</time></trkpt><trkpt lat="44.41521030199761" lon="11.595688174077967"><ele>55.0</ele><time>2026-03-22T14:06:40Z</time></trkpt><trkpt lat="44.415110370901985" lon="11.595498447495133"><ele>55.0</ele><time>2026-03-22T14:06:41Z</time></trkpt><trkpt lat="44.41500839564948" lon="11.595324552529862"><ele>55.0</ele><time>2026-03-22T14:06:42Z</time></trkpt><trkpt lat="44.41490416535464" lon="11.595164138708212"><ele>55.0</ele><time>2026-03-22T14:06:43Z</time></trkpt><trkpt lat="44.41480048733088" lon="11.595009799551592"><ele>55.0</ele><time>2026-03-22T14:06:44Z</time></trkpt><trkpt lat="44.414696975477476" lon="11.594856090946674"><ele>55.0</ele><time>2026-03-22T14:06:45Z</time></trkpt><trkpt lat="44.414590416596475" lon="11.594699787700858"><ele>56.0</ele><time>2026-03-22T14:06:46Z</time></trkpt><trkpt lat="44.41448312149418" lon="11.594548014348199"><ele>57.0</ele><time>2026-03-22T14:06:47Z</time></trkpt><trkpt lat="44.414371187892236" lon="11.594391062934424"><ele>58.0</ele><time>2026-03-22T14:06:48Z</time></trkpt><trkpt lat="44.4142568258752" lon="11.594229177403257"><ele>58.0</ele><time>2026-03-22T14:06:49Z</time></trkpt><trkpt lat="44.41413724648002" lon="11.594062185923248"><ele>58.0</ele><time>2026-03-22T14:06:50Z</time></trkpt><trkpt lat="44.41401784299627" lon="11.593891907026933"><ele>58.0</ele><time>2026-03-22T14:06:51Z</time></trkpt><trkpt lat="44.413896917341916" lon="11.593721630705774"><ele>57.33333333333333</ele><time>2026-03-22T14:06:52Z</time></trkpt><trkpt lat="44.41377381314159" lon="11.593553689327758"><ele>56.66666666666667</ele><time>2026-03-22T14:06:53Z</time></trkpt><trkpt lat="44.41364868558537" lon="11.593385322024755"><ele>56.0</ele><time>2026-03-22T14:06:54Z</time></trkpt><trkpt lat="44.41352500799979" lon="11.593211218639787"><ele>56.0</ele><time>2026-03-22T14:06:55Z</time></trkpt><trkpt lat="44.41340129036788" lon="11.593030584094079"><ele>56.0</ele><time>2026-03-22T14:06:56Z</time></trkpt><trkpt lat="44.41327831472693" lon="11.592853622255099"><ele>56.0</ele><time>2026-03-22T14:06:57Z</time></trkpt><trkpt lat="44.413156364115544" lon="11.592677126006512"><ele>56.0</ele><time>2026-03-22T14:06:58Z</time></trkpt><trkpt lat="44.41303214135804" lon="11.59250106673527"><ele>56.0</ele><time>2026-03-22T14:06:59Z</time></trkpt><trkpt lat="44.41290657714756" lon="11.592326683071327"><ele>56.0</ele><time>2026-03-22T14:07:00Z</time></trkpt><trkpt lat="44.412782913266874" lon="11.592148526277585"><ele>56.66666666666667</ele><time>2026-03-22T14:07:01Z</time></trkpt><trkpt lat="44.41266222850938" lon="11.591975876991013"><ele>57.33333333333333</ele><time>2026-03-22T14:07:02Z</time></trkpt><trkpt lat="44.41253715289598" lon="11.591800218775722"><ele>58.0</ele><time>2026-03-22T14:07:03Z</time></trkpt><trkpt lat="44.412408060075904" lon="11.591627283732654"><ele>58.0</ele><time>2026-03-22T14:07:04Z</time></trkpt><trkpt lat="44.41228347726613" lon="11.591454180418316"><ele>58.0</ele><time>2026-03-22T14:07:05Z</time></trkpt><trkpt lat="44.412164304809764" lon="11.591286422948802"><ele>58.0</ele><time>2026-03-22T14:07:06Z</time></trkpt><trkpt lat="44.41204566688347" lon="11.591123190865849"><ele>58.33333333333333</ele><time>2026-03-22T14:07:07Z</time></trkpt><trkpt lat="44.41192421514621" lon="11.590962458943888"><ele>58.66666666666667</ele><time>2026-03-22T14:07:08Z</time></trkpt><trkpt lat="44.4117968818761" lon="11.590809970289126"><ele>59.0</ele><time>2026-03-22T14:07:09Z</time></trkpt><trkpt lat="44.411660067891646" lon="11.590666528379517"><ele>59.0</ele><time>2026-03-22T14:07:10Z</time></trkpt><trkpt lat="44.41151791953985" lon="11.59052279809813"><ele>59.0</ele><time>2026-03-22T14:07:11Z</time></trkpt><trkpt lat="44.41137784223595" lon="11.590409178378899"><ele>59.0</ele><time>2026-03-22T14:07:12Z</time></trkpt><trkpt lat="44.41122275002254" lon="11.590292156794742"><ele>58.66666666666667</ele><time>2026-03-22T14:07:13Z</time></trkpt><trkpt lat="44.41105804764937" lon="11.590166797248317"><ele>58.33333333333333</ele><time>2026-03-22T14:07:14Z</time></trkpt><trkpt lat="44.41090555180799" lon="11.590050442540472"><ele>58.0</ele><time>2026-03-22T14:07:15Z</time></trkpt><trkpt lat="44.410764670885385" lon="11.5899420430261"><ele>58.0</ele><time>2026-03-22T14:07:16Z</time></trkpt><trkpt lat="44.410620095160226" lon="11.58985295235456"><ele>58.0</ele><time>2026-03-22T14:07:17Z</time></trkpt><trkpt lat="44.41047539548016" lon="11.589738546945096"><ele>58.0</ele><time>2026-03-22T14:07:18Z</time></trkpt><trkpt lat="44.410331123340576" lon="11.58962619099048"><ele>58.0</ele><time>2026-03-22T14:07:19Z</time></trkpt><trkpt lat="44.41018126635983" lon="11.589515022231783"><ele>58.0</ele><time>2026-03-22T14:07:20Z</time></trkpt><trkpt lat="44.410031907673854" lon="11.589409084967485"><ele>58.0</ele><time>2026-03-22T14:07:21Z</time></trkpt><trkpt lat="44.40988614136395" lon="11.589303725046591"><ele>58.0</ele><time>2026-03-22T14:07:22Z</time></trkpt><trkpt lat="44.409738350546" lon="11.589200576467277"><ele>58.0</ele><time>2026-03-22T14:07:23Z</time></trkpt><trkpt lat="44.409603176210105" lon="11.589115248812242"><ele>58.0</ele><time>2026-03-22T14:07:24Z</time></trkpt><trkpt lat="44.409469278798156" lon="11.589039267757808"><ele>57.75</ele><time>2026-03-22T14:07:25Z</time></trkpt><trkpt lat="44.40934250337034" lon="11.588952459079273"><ele>57.5</ele><time>2026-03-22T14:07:26Z</time></trkpt><trkpt lat="44.409215031190776" lon="11.58889236315907"><ele>57.25</ele><time>2026-03-22T14:07:27Z</time></trkpt><trkpt lat="44.40908056670297" lon="11.588833398788285"><ele>57.0</ele><time>2026-03-22T14:07:28Z</time></trkpt><trkpt lat="44.4089420062837" lon="11.588799556843611"><ele>57.25</ele><time>2026-03-22T14:07:29Z</time></trkpt><trkpt lat="44.408811354778" lon="11.58874744349515"><ele>57.5</ele><time>2026-03-22T14:07:30Z</time></trkpt><trkpt lat="44.40868149812796" lon="11.588700436360822"><ele>57.75</ele><time>2026-03-22T14:07:31Z</time></trkpt><trkpt lat="44.40855890009546" lon="11.588655376827596"><ele>58.0</ele><time>2026-03-22T14:07:32Z</time></trkpt><trkpt lat="44.40844763122501" lon="11.588613219989096"><ele>58.5</ele><time>2026-03-22T14:07:33Z</time></trkpt><trkpt lat="44.40833636215743" lon="11.588573587000017"><ele>59.0</ele><time>2026-03-22T14:07:34Z</time></trkpt><trkpt lat="44.40822544595314" lon="11.58853726597846"><ele>59.5</ele><time>2026-03-22T14:07:35Z</time></trkpt><trkpt lat="44.40811352334618" lon="11.588504591623398"><ele>60.0</ele><time>2026-03-22T14:07:36Z</time></trkpt><trkpt lat="44.408002025465606" lon="11.588470888779653"><ele>59.75</ele><time>2026-03-22T14:07:37Z</time></trkpt><trkpt lat="44.407891266095675" lon="11.588436471888508"><ele>59.5</ele><time>2026-03-22T14:07:38Z</time></trkpt><trkpt lat="44.40777473980421" lon="11.588404131386982"><ele>59.25</ele><time>2026-03-22T14:07:39Z</time></trkpt><trkpt lat="44.407656983470616" lon="11.588371352248396"><ele>59.0</ele><time>2026-03-22T14:07:40Z</time></trkpt><trkpt lat="44.40754139686742" lon="11.588340459833576"><ele>59.0</ele><time>2026-03-22T14:07:41Z</time></trkpt><trkpt lat="44.407435580965426" lon="11.588311101656561"><ele>59.00000000000001</ele><time>2026-03-22T14:07:42Z</time></trkpt><trkpt lat="44.40733787050011" lon="11.588276760142671"><ele>59.00000000000001</ele><time>2026-03-22T14:07:43Z</time></trkpt><trkpt lat="44.40723405352895" lon="11.588247303625938"><ele>59.0</ele><time>2026-03-22T14:07:44Z</time></trkpt><trkpt lat="44.40712055987689" lon="11.58821995450326"><ele>59.0</ele><time>2026-03-22T14:07:45Z</time></trkpt><trkpt lat="44.40699638548007" lon="11.588187419663708"><ele>59.0</ele><time>2026-03-22T14:07:46Z</time></trkpt><trkpt lat="44.406859990933796" lon="11.588154524777492"><ele>59.0</ele><time>2026-03-22T14:07:47Z</time></trkpt><trkpt lat="44.40672218834739" lon="11.588123842021034"><ele>59.0</ele><time>2026-03-22T14:07:48Z</time></trkpt><trkpt lat="44.40658639113283" lon="11.58809215717706"><ele>59.0</ele><time>2026-03-22T14:07:49Z</time></trkpt><trkpt lat="44.40644906216407" lon="11.58805654892163"><ele>59.25</ele><time>2026-03-22T14:07:50Z</time></trkpt><trkpt lat="44.40630810640717" lon="11.588018782321255"><ele>59.5</ele><time>2026-03-22T14:07:51Z</time></trkpt><trkpt lat="44.406165220867535" lon="11.587978411475568"><ele>59.75</ele><time>2026-03-22T14:07:52Z</time></trkpt><trkpt lat="44.40602436108214" lon="11.58793909927275"><ele>60.0</ele><time>2026-03-22T14:07:53Z</time></trkpt><trkpt lat="44.405881325111906" lon="11.58789705092187"><ele>60.0</ele><time>2026-03-22T14:07:54Z</time></trkpt><trkpt lat="44.40574117521994" lon="11.587857976688124"><ele>60.0</ele><time>2026-03-22T14:07:55Z</time></trkpt><trkpt lat="44.40560498016067" lon="11.587814341912361"><ele>60.0</ele><time>2026-03-22T14:07:56Z</time></trkpt><trkpt lat="44.40546677710028" lon="11.587769048564487"><ele>60.0</ele><time>2026-03-22T14:07:57Z</time></trkpt><trkpt lat="44.40532598960792" lon="11.587723626587081"><ele>60.5</ele><time>2026-03-22T14:07:58Z</time></trkpt><trkpt lat="44.40518626031142" lon="11.587672666821119"><ele>61.0</ele><time>2026-03-22T14:07:59Z</time></trkpt><trkpt lat="44.40504755781758" lon="11.58761937624195"><ele>61.5</ele><time>2026-03-22T14:08:00Z</time></trkpt><trkpt lat="44.40491194181038" lon="11.58756768151224"><ele>62.0</ele><time>2026-03-22T14:08:01Z</time></trkpt><trkpt lat="44.40477557971117" lon="11.587522084602204"><ele>62.25</ele><time>2026-03-22T14:08:02Z</time></trkpt><trkpt lat="44.40463615983613" lon="11.587482155082489"><ele>62.5</ele><time>2026-03-22T14:08:03Z</time></trkpt><trkpt lat="44.404502912663254" lon="11.587417856598591"><ele>62.75</ele><time>2026-03-22T14:08:04Z</time></trkpt><trkpt lat="44.40437514799046" lon="11.587366992754967"><ele>63.0</ele><time>2026-03-22T14:08:05Z</time></trkpt><trkpt lat="44.40425246915499" lon="11.587322275544164"><ele>63.0</ele><time>2026-03-22T14:08:06Z</time></trkpt><trkpt lat="44.40413721259613" lon="11.587284197894457"><ele>63.0</ele><time>2026-03-22T14:08:07Z</time></trkpt><trkpt lat="44.40401447224288" lon="11.587249485292311"><ele>63.0</ele><time>2026-03-22T14:08:08Z</time></trkpt><trkpt lat="44.40388190765222" lon="11.587233286278018"><ele>63.0</ele><time>2026-03-22T14:08:09Z</time></trkpt><trkpt lat="44.40375672759181" lon="11.587191333171328"><ele>63.599999999999994</ele><time>2026-03-22T14:08:10Z</time></trkpt><trkpt lat="44.40364708469764" lon="11.587148161340142"><ele>64.19999999999999</ele><time>2026-03-22T14:08:11Z</time></trkpt><trkpt lat="44.40355165836029" lon="11.58710381962082"><ele>64.8</ele><time>2026-03-22T14:08:12Z</time></trkpt><trkpt lat="44.40346829789176" lon="11.587062917856711"><ele>65.39999999999999</ele><time>2026-03-22T14:08:13Z</time></trkpt><trkpt lat="44.403396618871724" lon="11.587012390042641"><ele>66.0</ele><time>2026-03-22T14:08:14Z</time></trkpt><trkpt lat="44.40334130664673" lon="11.586960563509878"><ele>66.2</ele><time>2026-03-22T14:08:15Z</time></trkpt><trkpt lat="44.40328770520001" lon="11.586868516055373"><ele>66.39999999999999</ele><time>2026-03-22T14:08:18Z</time></trkpt><trkpt lat="44.40320254074295" lon="11.58675723380574"><ele>66.6</ele><time>2026-03-22T14:08:20Z</time></trkpt><trkpt lat="44.40313618929439" lon="11.586690827807102"><ele>66.8</ele><time>2026-03-22T14:08:21Z</time></trkpt><trkpt lat="44.40305929883462" lon="11.586642454165801"><ele>67.0</ele><time>2026-03-22T14:08:22Z</time></trkpt><trkpt lat="44.40297283735226" lon="11.586636631376464"><ele>67.6</ele><time>2026-03-22T14:08:23Z</time></trkpt><trkpt lat="44.40288379201788" lon="11.586671986168076"><ele>68.2</ele><time>2026-03-22T14:08:24Z</time></trkpt><trkpt lat="44.40280022140899" lon="11.586733827476657"><ele>68.8</ele><time>2026-03-22T14:08:25Z</time></trkpt><trkpt lat="44.40272742932754" lon="11.586801800656637"><ele>69.4</ele><time>2026-03-22T14:08:26Z</time></trkpt><trkpt lat="44.402638655183466" lon="11.586859859709241"><ele>70.0</ele><time>2026-03-22T14:08:27Z</time></trkpt><trkpt lat="44.402534127402426" lon="11.586894859700724"><ele>70.0</ele><time>2026-03-22T14:08:28Z</time></trkpt><trkpt lat="44.40241542279572" lon="11.586922557576475"><ele>70.0</ele><time>2026-03-22T14:08:29Z</time></trkpt><trkpt lat="44.4022964630694" lon="11.586970920496785"><ele>70.0</ele><time>2026-03-22T14:08:30Z</time></trkpt><trkpt lat="44.402176869054884" lon="11.586994007062762"><ele>70.0</ele><time>2026-03-22T14:08:31Z</time></trkpt><trkpt lat="44.40206113127434" lon="11.587052359252288"><ele>70.75</ele><time>2026-03-22T14:08:32Z</time></trkpt><trkpt lat="44.40193625331145" lon="11.587116742180603"><ele>71.5</ele><time>2026-03-22T14:08:33Z</time></trkpt><trkpt lat="44.40181335188637" lon="11.587179996192173"><ele>72.25</ele><time>2026-03-22T14:08:34Z</time></trkpt><trkpt lat="44.401689468518256" lon="11.587243755553153"><ele>73.0</ele><time>2026-03-22T14:08:35Z</time></trkpt><trkpt lat="44.40157278708103" lon="11.587303808339406"><ele>73.0</ele><time>2026-03-22T14:08:36Z</time></trkpt><trkpt lat="44.40147406366629" lon="11.587354916019756"><ele>73.0</ele><time>2026-03-22T14:08:37Z</time></trkpt><trkpt lat="44.40137938299019" lon="11.587404943203085"><ele>73.0</ele><time>2026-03-22T14:08:38Z</time></trkpt><trkpt lat="44.40126986624225" lon="11.587462809319803"><ele>73.0</ele><time>2026-03-22T14:08:39Z</time></trkpt><trkpt lat="44.40115812012508" lon="11.587521853405294"><ele>73.0</ele><time>2026-03-22T14:08:40Z</time></trkpt><trkpt lat="44.40106429671133" lon="11.587571349555597"><ele>73.2</ele><time>2026-03-22T14:08:41Z</time></trkpt><trkpt lat="44.40098253599565" lon="11.587613296350263"><ele>73.4</ele><time>2026-03-22T14:08:42Z</time></trkpt><trkpt lat="44.40091104867686" lon="11.587656567490878"><ele>73.60000000000001</ele><time>2026-03-22T14:08:43Z</time></trkpt><trkpt lat="44.40082977055202" lon="11.58770009136943"><ele>73.8</ele><time>2026-03-22T14:08:44Z</time></trkpt><trkpt lat="44.40073971736401" lon="11.587746239499616"><ele>74.0</ele><time>2026-03-22T14:08:45Z</time></trkpt><trkpt lat="44.40063761075644" lon="11.587793562966697"><ele>73.5</ele><time>2026-03-22T14:08:46Z</time></trkpt><trkpt lat="44.400534415309586" lon="11.587853937650495"><ele>73.0</ele><time>2026-03-22T14:08:47Z</time></trkpt><trkpt lat="44.40043635113179" lon="11.587927301810062"><ele>72.5</ele><time>2026-03-22T14:08:48Z</time></trkpt><trkpt lat="44.400339127926706" lon="11.588014447425934"><ele>72.0</ele><time>2026-03-22T14:08:49Z</time></trkpt><trkpt lat="44.40024439501118" lon="11.588116439556162"><ele>72.8</ele><time>2026-03-22T14:08:50Z</time></trkpt><trkpt lat="44.40015606961242" lon="11.588209305097962"><ele>73.6</ele><time>2026-03-22T14:08:51Z</time></trkpt><trkpt lat="44.40008061625541" lon="11.588303701429155"><ele>74.39999999999999</ele><time>2026-03-22T14:08:52Z</time></trkpt><trkpt lat="44.400011087890945" lon="11.588396904376076"><ele>75.2</ele><time>2026-03-22T14:08:53Z</time></trkpt><trkpt lat="44.39995390025002" lon="11.588487019017048"><ele>76.0</ele><time>2026-03-22T14:08:54Z</time></trkpt><trkpt lat="44.39990974842809" lon="11.588570488106132"><ele>76.0</ele><time>2026-03-22T14:08:55Z</time></trkpt><trkpt lat="44.399866146501964" lon="11.58865956968096"><ele>76.0</ele><time>2026-03-22T14:08:56Z</time></trkpt><trkpt lat="44.39982208023488" lon="11.588759210213695"><ele>76.0</ele><time>2026-03-22T14:08:57Z</time></trkpt><trkpt lat="44.3997775984022" lon="11.588856953041915"><ele>76.0</ele><time>2026-03-22T14:08:58Z</time></trkpt><trkpt lat="44.399739555457096" lon="11.588941885555853"><ele>76.0</ele><time>2026-03-22T14:08:59Z</time></trkpt><trkpt lat="44.399698170301605" lon="11.589030587610907"><ele>76.0</ele><time>2026-03-22T14:09:00Z</time></trkpt><trkpt lat="44.39965706416029" lon="11.589105479031463"><ele>76.16666666666666</ele><time>2026-03-22T14:09:01Z</time></trkpt><trkpt lat="44.39959466870594" lon="11.589162677947122"><ele>76.33333333333333</ele><time>2026-03-22T14:09:02Z</time></trkpt><trkpt lat="44.399510232205564" lon="11.589175685363905"><ele>76.5</ele><time>2026-03-22T14:09:03Z</time></trkpt><trkpt lat="44.39942777140877" lon="11.589136861551072"><ele>76.66666666666667</ele><time>2026-03-22T14:09:04Z</time></trkpt><trkpt lat="44.399362030994126" lon="11.589044965430519"><ele>76.83333333333334</ele><time>2026-03-22T14:09:05Z</time></trkpt><trkpt lat="44.39928744387581" lon="11.58901440476935"><ele>77.0</ele><time>2026-03-22T14:09:06Z</time></trkpt><trkpt lat="44.399215675180486" lon="11.58897464961629"><ele>77.0</ele><time>2026-03-22T14:09:07Z</time></trkpt><trkpt lat="44.3991487102174" lon="11.58890789209832"><ele>77.0</ele><time>2026-03-22T14:09:08Z</time></trkpt><trkpt lat="44.39908547519132" lon="11.588867023475013"><ele>77.0</ele><time>2026-03-22T14:09:09Z</time></trkpt><trkpt lat="44.39902766188251" lon="11.588829658817835"><ele>77.0</ele><time>2026-03-22T14:09:10Z</time></trkpt><trkpt lat="44.39896806718861" lon="11.588791142897389"><ele>77.0</ele><time>2026-03-22T14:09:11Z</time></trkpt><trkpt lat="44.39890019192043" lon="11.588747277984382"><ele>77.0</ele><time>2026-03-22T14:09:12Z</time></trkpt><trkpt lat="44.39883180059228" lon="11.588703234577775"><ele>77.0</ele><time>2026-03-22T14:09:13Z</time></trkpt><trkpt lat="44.39876190541801" lon="11.588658500300411"><ele>77.16666666666667</ele><time>2026-03-22T14:09:14Z</time></trkpt><trkpt lat="44.39869244575364" lon="11.588614231469522"><ele>77.33333333333334</ele><time>2026-03-22T14:09:15Z</time></trkpt><trkpt lat="44.39863001590832" lon="11.588574443089522"><ele>77.5</ele><time>2026-03-22T14:09:16Z</time></trkpt><trkpt lat="44.39852115680828" lon="11.588505063658685"><ele>77.66666666666667</ele><time>2026-03-22T14:09:18Z</time></trkpt><trkpt lat="44.398450729303725" lon="11.588460178060567"><ele>77.83333333333333</ele><time>2026-03-22T14:09:19Z</time></trkpt><trkpt lat="44.398365679234175" lon="11.588405897396976"><ele>78.0</ele><time>2026-03-22T14:09:20Z</time></trkpt><trkpt lat="44.39827856016261" lon="11.588350254746421"><ele>78.0</ele><time>2026-03-22T14:09:21Z</time></trkpt><trkpt lat="44.39818271121723" lon="11.588313399407497"><ele>78.0</ele><time>2026-03-22T14:09:22Z</time></trkpt><trkpt lat="44.398104057170386" lon="11.58826099770914"><ele>78.0</ele><time>2026-03-22T14:09:23Z</time></trkpt><trkpt lat="44.39802820555918" lon="11.588189947240494"><ele>78.0</ele><time>2026-03-22T14:09:24Z</time></trkpt><trkpt lat="44.39793502902077" lon="11.588151975063022"><ele>78.0</ele><time>2026-03-22T14:09:25Z</time></trkpt><trkpt lat="44.39786573856563" lon="11.58810996522117"><ele>78.8</ele><time>2026-03-22T14:09:26Z</time></trkpt><trkpt lat="44.3977912677738" lon="11.588055416620383"><ele>79.6</ele><time>2026-03-22T14:09:27Z</time></trkpt><trkpt lat="44.3977108592439" lon="11.588003202275697"><ele>80.39999999999999</ele><time>2026-03-22T14:09:28Z</time></trkpt><trkpt lat="44.397628817602666" lon="11.58795381110275"><ele>81.19999999999999</ele><time>2026-03-22T14:09:29Z</time></trkpt><trkpt lat="44.39754244008599" lon="11.58789625215406"><ele>82.0</ele><time>2026-03-22T14:09:30Z</time></trkpt><trkpt lat="44.39744885080549" lon="11.587839121942942"><ele>82.0</ele><time>2026-03-22T14:09:31Z</time></trkpt><trkpt lat="44.397340976129" lon="11.587771869167495"><ele>82.0</ele><time>2026-03-22T14:09:32Z</time></trkpt><trkpt lat="44.39724125488797" lon="11.587697058646938"><ele>82.0</ele><time>2026-03-22T14:09:33Z</time></trkpt><trkpt lat="44.39714725640472" lon="11.587646961028959"><ele>82.0</ele><time>2026-03-22T14:09:34Z</time></trkpt><trkpt lat="44.39705857992178" lon="11.587595342589164"><ele>82.0</ele><time>2026-03-22T14:09:35Z</time></trkpt><trkpt lat="44.396973284665116" lon="11.587555625599885"><ele>82.5</ele><time>2026-03-22T14:09:36Z</time></trkpt><trkpt lat="44.39688154729593" lon="11.587542203989068"><ele>83.0</ele><time>2026-03-22T14:09:37Z</time></trkpt><trkpt lat="44.39679307511144" lon="11.5875189786479"><ele>83.5</ele><time>2026-03-22T14:09:38Z</time></trkpt><trkpt lat="44.39672239786051" lon="11.587523777258841"><ele>84.0</ele><time>2026-03-22T14:09:39Z</time></trkpt><trkpt lat="44.39664614786778" lon="11.587549893025344"><ele>84.5</ele><time>2026-03-22T14:09:40Z</time></trkpt><trkpt lat="44.39657252939371" lon="11.587605894540886"><ele>85.0</ele><time>2026-03-22T14:09:41Z</time></trkpt><trkpt lat="44.396486525421054" lon="11.587714791542897"><ele>85.0</ele><time>2026-03-22T14:09:43Z</time></trkpt><trkpt lat="44.39641882055375" lon="11.587813817979367"><ele>85.0</ele><time>2026-03-22T14:09:45Z</time></trkpt><trkpt lat="44.396344099675716" lon="11.587892065437384"><ele>85.0</ele><time>2026-03-22T14:09:48Z</time></trkpt><trkpt lat="44.39622755549002" lon="11.587906879384297"><ele>85.0</ele><time>2026-03-22T14:09:50Z</time></trkpt><trkpt lat="44.396154760760275" lon="11.587877426544267"><ele>85.0</ele><time>2026-03-22T14:09:51Z</time></trkpt><trkpt lat="44.39608640841044" lon="11.587846210102397"><ele>84.83333333333333</ele><time>2026-03-22T14:09:52Z</time></trkpt><trkpt lat="44.39602146807467" lon="11.587814551802238"><ele>84.66666666666666</ele><time>2026-03-22T14:09:53Z</time></trkpt><trkpt lat="44.39595122036984" lon="11.587769288513533"><ele>84.5</ele><time>2026-03-22T14:09:54Z</time></trkpt><trkpt lat="44.39587225631979" lon="11.587738364775081"><ele>84.33333333333333</ele><time>2026-03-22T14:09:55Z</time></trkpt><trkpt lat="44.39578779978971" lon="11.587688044047905"><ele>84.16666666666667</ele><time>2026-03-22T14:09:56Z</time></trkpt><trkpt lat="44.39570461143145" lon="11.587646587970129"><ele>84.0</ele><time>2026-03-22T14:09:57Z</time></trkpt><trkpt lat="44.39562304771339" lon="11.587583166304585"><ele>84.0</ele><time>2026-03-22T14:09:58Z</time></trkpt><trkpt lat="44.39553455412624" lon="11.587541235225517"><ele>84.0</ele><time>2026-03-22T14:09:59Z</time></trkpt><trkpt lat="44.395454609470725" lon="11.587496357032384"><ele>84.0</ele><time>2026-03-22T14:10:00Z</time></trkpt><trkpt lat="44.39538025155974" lon="11.587455303221384"><ele>84.0</ele><time>2026-03-22T14:10:01Z</time></trkpt><trkpt lat="44.395297382091776" lon="11.587412355776388"><ele>84.0</ele><time>2026-03-22T14:10:02Z</time></trkpt><trkpt lat="44.395212412467885" lon="11.587365539420956"><ele>84.0</ele><time>2026-03-22T14:10:03Z</time></trkpt><trkpt lat="44.39512233624774" lon="11.587326225903254"><ele>84.2</ele><time>2026-03-22T14:10:04Z</time></trkpt><trkpt lat="44.39503462267154" lon="11.587269717446041"><ele>84.4</ele><time>2026-03-22T14:10:05Z</time></trkpt><trkpt lat="44.394946725660795" lon="11.587222042176164"><ele>84.6</ele><time>2026-03-22T14:10:06Z</time></trkpt><trkpt lat="44.394861030592935" lon="11.587168654495356"><ele>84.8</ele><time>2026-03-22T14:10:07Z</time></trkpt><trkpt lat="44.394773403832694" lon="11.58711742730808"><ele>85.0</ele><time>2026-03-22T14:10:08Z</time></trkpt><trkpt lat="44.394686908182365" lon="11.58706508877728"><ele>85.4</ele><time>2026-03-22T14:10:09Z</time></trkpt><trkpt lat="44.39459636466215" lon="11.587014763926677"><ele>85.8</ele><time>2026-03-22T14:10:10Z</time></trkpt><trkpt lat="44.39450160741969" lon="11.586953118396394"><ele>86.19999999999999</ele><time>2026-03-22T14:10:11Z</time></trkpt><trkpt lat="44.39440886146967" lon="11.586890667771748"><ele>86.6</ele><time>2026-03-22T14:10:12Z</time></trkpt><trkpt lat="44.39431375114721" lon="11.58682025443452"><ele>87.0</ele><time>2026-03-22T14:10:13Z</time></trkpt><trkpt lat="44.394223276879416" lon="11.586742703001516"><ele>87.0</ele><time>2026-03-22T14:10:14Z</time></trkpt><trkpt lat="44.39412720652545" lon="11.586659264785014"><ele>87.0</ele><time>2026-03-22T14:10:15Z</time></trkpt><trkpt lat="44.3940229113759" lon="11.586573803633929"><ele>87.0</ele><time>2026-03-22T14:10:16Z</time></trkpt><trkpt lat="44.39391681332109" lon="11.586489507829564"><ele>87.0</ele><time>2026-03-22T14:10:17Z</time></trkpt><trkpt lat="44.39381425922303" lon="11.586400192870551"><ele>87.0</ele><time>2026-03-22T14:10:18Z</time></trkpt><trkpt lat="44.3937209326818" lon="11.586317989909377"><ele>87.0</ele><time>2026-03-22T14:10:19Z</time></trkpt><trkpt lat="44.39363718575176" lon="11.586244781025346"><ele>87.0</ele><time>2026-03-22T14:10:20Z</time></trkpt><trkpt lat="44.39356902555891" lon="11.586183231901014"><ele>87.0</ele><time>2026-03-22T14:10:21Z</time></trkpt><trkpt lat="44.39349649315003" lon="11.586124580884857"><ele>87.0</ele><time>2026-03-22T14:10:22Z</time></trkpt><trkpt lat="44.39342370821724" lon="11.58606112433239"><ele>86.8</ele><time>2026-03-22T14:10:23Z</time></trkpt><trkpt lat="44.39334622554368" lon="11.585997084828826"><ele>86.6</ele><time>2026-03-22T14:10:24Z</time></trkpt><trkpt lat="44.393274170848535" lon="11.585930442375581"><ele>86.39999999999999</ele><time>2026-03-22T14:10:25Z</time></trkpt><trkpt lat="44.39319190568524" lon="11.585866807237506"><ele>86.19999999999999</ele><time>2026-03-22T14:10:26Z</time></trkpt><trkpt lat="44.39309607822548" lon="11.585797358052611"><ele>86.0</ele><time>2026-03-22T14:10:27Z</time></trkpt><trkpt lat="44.39298335763045" lon="11.585726732290377"><ele>86.75</ele><time>2026-03-22T14:10:28Z</time></trkpt><trkpt lat="44.39286342643791" lon="11.585642903899343"><ele>87.5</ele><time>2026-03-22T14:10:29Z</time></trkpt><trkpt lat="44.39273106227339" lon="11.585555611991413"><ele>88.25</ele><time>2026-03-22T14:10:30Z</time></trkpt><trkpt lat="44.39261005078436" lon="11.585491646352425"><ele>89.0</ele><time>2026-03-22T14:10:31Z</time></trkpt><trkpt lat="44.39250621150741" lon="11.585436456618488"><ele>89.0</ele><time>2026-03-22T14:10:32Z</time></trkpt><trkpt lat="44.39241971736917" lon="11.585390057453164"><ele>89.0</ele><time>2026-03-22T14:10:33Z</time></trkpt><trkpt lat="44.39233561690892" lon="11.585344870048827"><ele>89.0</ele><time>2026-03-22T14:10:34Z</time></trkpt><trkpt lat="44.39224163149433" lon="11.585301237151684"><ele>89.0</ele><time>2026-03-22T14:10:35Z</time></trkpt><trkpt lat="44.39214934246658" lon="11.585255221355432"><ele>89.0</ele><time>2026-03-22T14:10:36Z</time></trkpt><trkpt lat="44.39207401932182" lon="11.585208118265298"><ele>89.33333333333334</ele><time>2026-03-22T14:10:37Z</time></trkpt><trkpt lat="44.39201772314823" lon="11.585139718571646"><ele>89.66666666666667</ele><time>2026-03-22T14:10:38Z</time></trkpt><trkpt lat="44.39197530658687" lon="11.585035550540569"><ele>90.0</ele><time>2026-03-22T14:10:39Z</time></trkpt><trkpt lat="44.39193786990311" lon="11.584921595794187"><ele>90.33333333333333</ele><time>2026-03-22T14:10:40Z</time></trkpt><trkpt lat="44.39189761192594" lon="11.584836794842978"><ele>90.66666666666666</ele><time>2026-03-22T14:10:41Z</time></trkpt><trkpt lat="44.3918337098968" lon="11.584772807481437"><ele>91.0</ele><time>2026-03-22T14:10:42Z</time></trkpt><trkpt lat="44.39175209831964" lon="11.584713323776713"><ele>91.0</ele><time>2026-03-22T14:10:43Z</time></trkpt><trkpt lat="44.39164962226391" lon="11.584696288673804"><ele>91.0</ele><time>2026-03-22T14:10:44Z</time></trkpt><trkpt lat="44.39155366639604" lon="11.58476359795499"><ele>91.0</ele><time>2026-03-22T14:10:45Z</time></trkpt><trkpt lat="44.39146107274094" lon="11.584819788469815"><ele>91.0</ele><time>2026-03-22T14:10:46Z</time></trkpt><trkpt lat="44.39135970338447" lon="11.584877811113817"><ele>91.0</ele><time>2026-03-22T14:10:47Z</time></trkpt><trkpt lat="44.39126231348486" lon="11.584908815141366"><ele>91.4</ele><time>2026-03-22T14:10:48Z</time></trkpt><trkpt lat="44.39116509750234" lon="11.584914430893274"><ele>91.8</ele><time>2026-03-22T14:10:49Z</time></trkpt><trkpt lat="44.3910732199567" lon="11.584868740092508"><ele>92.2</ele><time>2026-03-22T14:10:50Z</time></trkpt><trkpt lat="44.39098460089887" lon="11.584846079554067"><ele>92.60000000000001</ele><time>2026-03-22T14:10:51Z</time></trkpt><trkpt lat="44.39089644028719" lon="11.58479084729863"><ele>93.0</ele><time>2026-03-22T14:10:52Z</time></trkpt><trkpt lat="44.39079959429913" lon="11.584723026883173"><ele>93.0</ele><time>2026-03-22T14:10:53Z</time></trkpt><trkpt lat="44.39070820838402" lon="11.584651810470469"><ele>93.0</ele><time>2026-03-22T14:10:54Z</time></trkpt><trkpt lat="44.39060944621584" lon="11.584567942932528"><ele>93.0</ele><time>2026-03-22T14:10:55Z</time></trkpt><trkpt lat="44.39050557119525" lon="11.584471450399441"><ele>93.0</ele><time>2026-03-22T14:10:56Z</time></trkpt><trkpt lat="44.39040149555353" lon="11.584367959996989"><ele>93.5</ele><time>2026-03-22T14:10:57Z</time></trkpt><trkpt lat="44.39030043492154" lon="11.584272672222408"><ele>94.0</ele><time>2026-03-22T14:10:58Z</time></trkpt><trkpt lat="44.390210722961164" lon="11.584179251009465"><ele>94.5</ele><time>2026-03-22T14:10:59Z</time></trkpt><trkpt lat="44.390118718102016" lon="11.584082390127834"><ele>95.0</ele><time>2026-03-22T14:11:00Z</time></trkpt><trkpt lat="44.390023783135824" lon="11.583980470578165"><ele>95.0</ele><time>2026-03-22T14:11:01Z</time></trkpt><trkpt lat="44.38993226790932" lon="11.583873366904319"><ele>95.0</ele><time>2026-03-22T14:11:02Z</time></trkpt><trkpt lat="44.38983070188736" lon="11.583762975613329"><ele>95.0</ele><time>2026-03-22T14:11:03Z</time></trkpt><trkpt lat="44.38972349048564" lon="11.583660590865525"><ele>95.0</ele><time>2026-03-22T14:11:04Z</time></trkpt><trkpt lat="44.389602743990565" lon="11.583556869576752"><ele>95.33333333333334</ele><time>2026-03-22T14:11:05Z</time></trkpt><trkpt lat="44.389461031739884" lon="11.583453443362028"><ele>95.66666666666667</ele><time>2026-03-22T14:11:06Z</time></trkpt><trkpt lat="44.38931282059751" lon="11.58333744854459"><ele>96.0</ele><time>2026-03-22T14:11:07Z</time></trkpt><trkpt lat="44.38914224948295" lon="11.583235261214163"><ele>96.0</ele><time>2026-03-22T14:11:08Z</time></trkpt><trkpt lat="44.388983265416115" lon="11.58312826080338"><ele>96.0</ele><time>2026-03-22T14:11:09Z</time></trkpt><trkpt lat="44.38882834613526" lon="11.58302123869348"><ele>96.0</ele><time>2026-03-22T14:11:10Z</time></trkpt><trkpt lat="44.38866757421249" lon="11.58291184526881"><ele>96.66666666666666</ele><time>2026-03-22T14:11:11Z</time></trkpt><trkpt lat="44.388509316616855" lon="11.582795830162768"><ele>97.33333333333333</ele><time>2026-03-22T14:11:12Z</time></trkpt><trkpt lat="44.38835195520248" lon="11.58267587259918"><ele>98.0</ele><time>2026-03-22T14:11:13Z</time></trkpt><trkpt lat="44.38819205584432" lon="11.582556638822785"><ele>98.0</ele><time>2026-03-22T14:11:14Z</time></trkpt><trkpt lat="44.388029974303656" lon="11.582441868200753"><ele>98.0</ele><time>2026-03-22T14:11:15Z</time></trkpt><trkpt lat="44.387877942255564" lon="11.5823332369735"><ele>98.0</ele><time>2026-03-22T14:11:16Z</time></trkpt><trkpt lat="44.38774306355493" lon="11.582226540820237"><ele>98.33333333333333</ele><time>2026-03-22T14:11:17Z</time></trkpt><trkpt lat="44.387606617788656" lon="11.582132286892083"><ele>98.66666666666666</ele><time>2026-03-22T14:11:18Z</time></trkpt><trkpt lat="44.387472161403196" lon="11.582039847105193"><ele>99.0</ele><time>2026-03-22T14:11:19Z</time></trkpt><trkpt lat="44.387333495228575" lon="11.58192500344738"><ele>100.0</ele><time>2026-03-22T14:11:20Z</time></trkpt><trkpt lat="44.38718785061813" lon="11.581839774197585"><ele>101.0</ele><time>2026-03-22T14:11:21Z</time></trkpt><trkpt lat="44.387049744323086" lon="11.58173790766915"><ele>102.0</ele><time>2026-03-22T14:11:22Z</time></trkpt><trkpt lat="44.386921198681875" lon="11.581644995654937"><ele>102.25</ele><time>2026-03-22T14:11:23Z</time></trkpt><trkpt lat="44.38680066875852" lon="11.581558388851583"><ele>102.5</ele><time>2026-03-22T14:11:24Z</time></trkpt><trkpt lat="44.38667999949565" lon="11.581474120865828"><ele>102.75</ele><time>2026-03-22T14:11:25Z</time></trkpt><trkpt lat="44.38656713299819" lon="11.581388993283324"><ele>103.0</ele><time>2026-03-22T14:11:26Z</time></trkpt><trkpt lat="44.38645712514171" lon="11.58130425508562"><ele>103.0</ele><time>2026-03-22T14:11:27Z</time></trkpt><trkpt lat="44.386351187242106" lon="11.581217025390826"><ele>103.0</ele><time>2026-03-22T14:11:28Z</time></trkpt><trkpt lat="44.38625933713751" lon="11.581133164896181"><ele>103.0</ele><time>2026-03-22T14:11:29Z</time></trkpt><trkpt lat="44.386157590452314" lon="11.581078098685515"><ele>103.0</ele><time>2026-03-22T14:11:30Z</time></trkpt><trkpt lat="44.38603809864325" lon="11.581036855860257"><ele>103.0</ele><time>2026-03-22T14:11:31Z</time></trkpt><trkpt lat="44.38590454996517" lon="11.581016612441104"><ele>103.0</ele><time>2026-03-22T14:11:32Z</time></trkpt><trkpt lat="44.38576003688548" lon="11.580984564220348"><ele>103.0</ele><time>2026-03-22T14:11:33Z</time></trkpt><trkpt lat="44.38561033986115" lon="11.580984097474303"><ele>103.0</ele><time>2026-03-22T14:11:34Z</time></trkpt><trkpt lat="44.38547106790558" lon="11.58098958714286"><ele>102.0</ele><time>2026-03-22T14:11:35Z</time></trkpt><trkpt lat="44.38534150032556" lon="11.580997212538207"><ele>101.0</ele><time>2026-03-22T14:11:36Z</time></trkpt><trkpt lat="44.385217041379136" lon="11.581007121050561"><ele>100.0</ele><time>2026-03-22T14:11:37Z</time></trkpt><trkpt lat="44.38509726225449" lon="11.58101540567257"><ele>99.0</ele><time>2026-03-22T14:11:38Z</time></trkpt><trkpt lat="44.384981430940556" lon="11.581022091868222"><ele>99.0</ele><time>2026-03-22T14:11:39Z</time></trkpt><trkpt lat="44.384856308180986" lon="11.581018950641017"><ele>99.0</ele><time>2026-03-22T14:11:40Z</time></trkpt><trkpt lat="44.384713685405366" lon="11.581005779816511"><ele>99.0</ele><time>2026-03-22T14:11:41Z</time></trkpt><trkpt lat="44.38455010443879" lon="11.580941525870205"><ele>99.0</ele><time>2026-03-22T14:11:42Z</time></trkpt><trkpt lat="44.38436911750687" lon="11.580866264199129"><ele>95.66666666666667</ele><time>2026-03-22T14:11:43Z</time></trkpt><trkpt lat="44.384200187890016" lon="11.580790189725258"><ele>92.33333333333334</ele><time>2026-03-22T14:11:44Z</time></trkpt><trkpt lat="44.38402790250525" lon="11.58076147969081"><ele>89.0</ele><time>2026-03-22T14:11:45Z</time></trkpt><trkpt lat="44.38384047791992" lon="11.580758207483113"><ele>87.33333333333334</ele><time>2026-03-22T14:11:46Z</time></trkpt><trkpt lat="44.38366155158292" lon="11.580768300418667"><ele>85.66666666666667</ele><time>2026-03-22T14:11:47Z</time></trkpt><trkpt lat="44.38350269839217" lon="11.580780358941436"><ele>84.0</ele><time>2026-03-22T14:11:48Z</time></trkpt><trkpt lat="44.38335182310327" lon="11.580790014628286"><ele>84.0</ele><time>2026-03-22T14:11:49Z</time></trkpt><trkpt lat="44.38321194563094" lon="11.580797521479484"><ele>84.0</ele><time>2026-03-22T14:11:50Z</time></trkpt><trkpt lat="44.383075476847175" lon="11.58080170418694"><ele>84.0</ele><time>2026-03-22T14:11:51Z</time></trkpt><trkpt lat="44.38294829459539" lon="11.580801032524985"><ele>84.0</ele><time>2026-03-22T14:11:52Z</time></trkpt><trkpt lat="44.382809825318695" lon="11.580784929793602"><ele>84.25</ele><time>2026-03-22T14:11:53Z</time></trkpt><trkpt lat="44.38266602386528" lon="11.580765522176243"><ele>84.5</ele><time>2026-03-22T14:11:54Z</time></trkpt><trkpt lat="44.38253507258703" lon="11.580726433536677"><ele>84.75</ele><time>2026-03-22T14:11:55Z</time></trkpt><trkpt lat="44.382395502777996" lon="11.580683072874484"><ele>85.0</ele><time>2026-03-22T14:11:56Z</time></trkpt><trkpt lat="44.38225172099847" lon="11.580609534995755"><ele>85.33333333333333</ele><time>2026-03-22T14:11:57Z</time></trkpt><trkpt lat="44.38210349977624" lon="11.58055686960168"><ele>85.66666666666667</ele><time>2026-03-22T14:11:58Z</time></trkpt><trkpt lat="44.381956494602285" lon="11.58050463628648"><ele>86.0</ele><time>2026-03-22T14:11:59Z</time></trkpt><trkpt lat="44.38180990359113" lon="11.580452477945729"><ele>86.0</ele><time>2026-03-22T14:12:00Z</time></trkpt><trkpt lat="44.38166957801271" lon="11.580407417774747"><ele>86.0</ele><time>2026-03-22T14:12:01Z</time></trkpt><trkpt lat="44.38152373908536" lon="11.580354468331722"><ele>86.0</ele><time>2026-03-22T14:12:02Z</time></trkpt><trkpt lat="44.381372427690934" lon="11.580310927031926"><ele>86.0</ele><time>2026-03-22T14:12:03Z</time></trkpt><trkpt lat="44.38122192008894" lon="11.580255557866572"><ele>86.33333333333334</ele><time>2026-03-22T14:12:04Z</time></trkpt><trkpt lat="44.38107044746844" lon="11.580207282513015"><ele>86.66666666666667</ele><time>2026-03-22T14:12:05Z</time></trkpt><trkpt lat="44.38091806541989" lon="11.580156316573147"><ele>87.0</ele><time>2026-03-22T14:12:06Z</time></trkpt><trkpt lat="44.38077363027389" lon="11.58010843785034"><ele>87.0</ele><time>2026-03-22T14:12:07Z</time></trkpt><trkpt lat="44.38062765381656" lon="11.580065067236351"><ele>87.0</ele><time>2026-03-22T14:12:08Z</time></trkpt><trkpt lat="44.38047344165719" lon="11.580018451592066"><ele>87.0</ele><time>2026-03-22T14:12:09Z</time></trkpt><trkpt lat="44.38031687846557" lon="11.579968127245145"><ele>87.0</ele><time>2026-03-22T14:12:10Z</time></trkpt><trkpt lat="44.380151892828984" lon="11.579918332024578"><ele>87.0</ele><time>2026-03-22T14:12:11Z</time></trkpt><trkpt lat="44.379988217548586" lon="11.579845661751913"><ele>87.0</ele><time>2026-03-22T14:12:12Z</time></trkpt><trkpt lat="44.37981757910035" lon="11.579793867491432"><ele>87.33333333333333</ele><time>2026-03-22T14:12:13Z</time></trkpt><trkpt lat="44.37964600834973" lon="11.579741288757718"><ele>87.66666666666666</ele><time>2026-03-22T14:12:14Z</time></trkpt><trkpt lat="44.379472521935426" lon="11.579687200301565"><ele>88.0</ele><time>2026-03-22T14:12:15Z</time></trkpt><trkpt lat="44.37929570016651" lon="11.579630005036087"><ele>88.0</ele><time>2026-03-22T14:12:16Z</time></trkpt><trkpt lat="44.379120045932616" lon="11.579566618310611"><ele>88.0</ele><time>2026-03-22T14:12:17Z</time></trkpt><trkpt lat="44.378944669509494" lon="11.579499784117877"><ele>88.0</ele><time>2026-03-22T14:12:18Z</time></trkpt><trkpt lat="44.378770937399196" lon="11.579432858011414"><ele>88.33333333333333</ele><time>2026-03-22T14:12:19Z</time></trkpt><trkpt lat="44.37858180729974" lon="11.579383196543834"><ele>88.66666666666667</ele><time>2026-03-22T14:12:20Z</time></trkpt><trkpt lat="44.378392053741585" lon="11.579316264409682"><ele>89.0</ele><time>2026-03-22T14:12:21Z</time></trkpt><trkpt lat="44.378202947730486" lon="11.579229907356039"><ele>89.0</ele><time>2026-03-22T14:12:22Z</time></trkpt><trkpt lat="44.378005749922394" lon="11.579164512323482"><ele>89.0</ele><time>2026-03-22T14:12:23Z</time></trkpt><trkpt lat="44.377808096077366" lon="11.579100387328584"><ele>89.0</ele><time>2026-03-22T14:12:24Z</time></trkpt><trkpt lat="44.37760942655001" lon="11.579064894592717"><ele>89.0</ele><time>2026-03-22T14:12:25Z</time></trkpt><trkpt lat="44.377427021775404" lon="11.579006785767072"><ele>89.0</ele><time>2026-03-22T14:12:26Z</time></trkpt><trkpt lat="44.377250895865664" lon="11.578954473302375"><ele>89.0</ele><time>2026-03-22T14:12:27Z</time></trkpt><trkpt lat="44.37707666850555" lon="11.578897992501718"><ele>89.33333333333334</ele><time>2026-03-22T14:12:28Z</time></trkpt><trkpt lat="44.37689844161347" lon="11.578840728534816"><ele>89.66666666666667</ele><time>2026-03-22T14:12:29Z</time></trkpt><trkpt lat="44.37672881525088" lon="11.578755297153199"><ele>90.0</ele><time>2026-03-22T14:12:30Z</time></trkpt><trkpt lat="44.37655071755879" lon="11.578697226613858"><ele>91.0</ele><time>2026-03-22T14:12:31Z</time></trkpt><trkpt lat="44.37637600870673" lon="11.5786402611048"><ele>92.0</ele><time>2026-03-22T14:12:32Z</time></trkpt><trkpt lat="44.376200388018155" lon="11.57858398619925"><ele>93.0</ele><time>2026-03-22T14:12:33Z</time></trkpt><trkpt lat="44.37603400707002" lon="11.578554594089509"><ele>93.66666666666667</ele><time>2026-03-22T14:12:34Z</time></trkpt><trkpt lat="44.3758878458807" lon="11.578484876845348"><ele>94.33333333333334</ele><time>2026-03-22T14:12:35Z</time></trkpt><trkpt lat="44.37574016190186" lon="11.578431568334654"><ele>95.0</ele><time>2026-03-22T14:12:36Z</time></trkpt><trkpt lat="44.375588278741475" lon="11.578368435612637"><ele>95.33333333333334</ele><time>2026-03-22T14:12:37Z</time></trkpt><trkpt lat="44.37544014615659" lon="11.57828856820321"><ele>95.66666666666667</ele><time>2026-03-22T14:12:38Z</time></trkpt><trkpt lat="44.37528745121577" lon="11.578204407946313"><ele>96.0</ele><time>2026-03-22T14:12:39Z</time></trkpt><trkpt lat="44.375130317038504" lon="11.578133466617517"><ele>96.0</ele><time>2026-03-22T14:12:40Z</time></trkpt><trkpt lat="44.37497397502692" lon="11.5780432416625"><ele>96.0</ele><time>2026-03-22T14:12:41Z</time></trkpt><trkpt lat="44.374809773949266" lon="11.577951778130288"><ele>96.0</ele><time>2026-03-22T14:12:42Z</time></trkpt><trkpt lat="44.37464867634945" lon="11.577841080645557"><ele>96.0</ele><time>2026-03-22T14:12:43Z</time></trkpt><trkpt lat="44.37448322944093" lon="11.577748607841704"><ele>96.0</ele><time>2026-03-22T14:12:44Z</time></trkpt><trkpt lat="44.37431435701667" lon="11.577655588293633"><ele>96.0</ele><time>2026-03-22T14:12:45Z</time></trkpt><trkpt lat="44.37414756837349" lon="11.577561624292198"><ele>96.0</ele><time>2026-03-22T14:12:46Z</time></trkpt><trkpt lat="44.373981458562945" lon="11.577468530923044"><ele>96.0</ele><time>2026-03-22T14:12:47Z</time></trkpt><trkpt lat="44.37380707162617" lon="11.577396364451378"><ele>96.0</ele><time>2026-03-22T14:12:48Z</time></trkpt><trkpt lat="44.373640926418986" lon="11.577298815447095"><ele>96.66666666666666</ele><time>2026-03-22T14:12:49Z</time></trkpt><trkpt lat="44.37347561829773" lon="11.577201528727421"><ele>97.33333333333333</ele><time>2026-03-22T14:12:50Z</time></trkpt><trkpt lat="44.37331832896791" lon="11.577101003651746"><ele>98.0</ele><time>2026-03-22T14:12:51Z</time></trkpt><trkpt lat="44.37316159443881" lon="11.577003317863706"><ele>97.66666666666666</ele><time>2026-03-22T14:12:52Z</time></trkpt><trkpt lat="44.37300925180429" lon="11.576895385474515"><ele>97.33333333333334</ele><time>2026-03-22T14:12:53Z</time></trkpt><trkpt lat="44.372849338475085" lon="11.576816759768894"><ele>97.0</ele><time>2026-03-22T14:12:54Z</time></trkpt><trkpt lat="44.37267939078352" lon="11.576765607805335"><ele>97.0</ele><time>2026-03-22T14:12:55Z</time></trkpt><trkpt lat="44.37249931028348" lon="11.576717057968319"><ele>97.0</ele><time>2026-03-22T14:12:56Z</time></trkpt><trkpt lat="44.37232101011174" lon="11.576694490089665"><ele>97.0</ele><time>2026-03-22T14:12:57Z</time></trkpt><trkpt lat="44.37214915939213" lon="11.57667216049853"><ele>97.0</ele><time>2026-03-22T14:12:58Z</time></trkpt><trkpt lat="44.3719792045899" lon="11.576643790158373"><ele>97.0</ele><time>2026-03-22T14:12:59Z</time></trkpt><trkpt lat="44.37181132879725" lon="11.576611881915278"><ele>97.0</ele><time>2026-03-22T14:13:00Z</time></trkpt><trkpt lat="44.371640165276766" lon="11.576577257054288"><ele>97.0</ele><time>2026-03-22T14:13:01Z</time></trkpt><trkpt lat="44.371466595821964" lon="11.576540555623513"><ele>97.0</ele><time>2026-03-22T14:13:02Z</time></trkpt><trkpt lat="44.37129669555803" lon="11.576502906064757"><ele>97.0</ele><time>2026-03-22T14:13:03Z</time></trkpt><trkpt lat="44.37113966493102" lon="11.576468378657037"><ele>97.33333333333334</ele><time>2026-03-22T14:13:04Z</time></trkpt><trkpt lat="44.37099090676863" lon="11.576440610479636"><ele>97.66666666666666</ele><time>2026-03-22T14:13:05Z</time></trkpt><trkpt lat="44.37083403185892" lon="11.57641726616739"><ele>98.0</ele><time>2026-03-22T14:13:06Z</time></trkpt><trkpt lat="44.370679027849356" lon="11.57639427306345"><ele>98.0</ele><time>2026-03-22T14:13:07Z</time></trkpt><trkpt lat="44.37052654506648" lon="11.576374427416058"><ele>98.0</ele><time>2026-03-22T14:13:08Z</time></trkpt><trkpt lat="44.37038056938561" lon="11.576365503910294"><ele>98.0</ele><time>2026-03-22T14:13:09Z</time></trkpt><trkpt lat="44.37024337527015" lon="11.576372841650489"><ele>98.0</ele><time>2026-03-22T14:13:10Z</time></trkpt><trkpt lat="44.37011694950376" lon="11.576388369356971"><ele>97.5</ele><time>2026-03-22T14:13:11Z</time></trkpt><trkpt lat="44.37000365573506" lon="11.576400684479955"><ele>97.0</ele><time>2026-03-22T14:13:12Z</time></trkpt><trkpt lat="44.36988346474896" lon="11.57639544745317"><ele>96.5</ele><time>2026-03-22T14:13:13Z</time></trkpt><trkpt lat="44.36974598081339" lon="11.576365759116394"><ele>96.0</ele><time>2026-03-22T14:13:14Z</time></trkpt><trkpt lat="44.36960022882227" lon="11.576319955865012"><ele>94.66666666666667</ele><time>2026-03-22T14:13:15Z</time></trkpt><trkpt lat="44.36946122006677" lon="11.576227512812473"><ele>93.33333333333334</ele><time>2026-03-22T14:13:16Z</time></trkpt><trkpt lat="44.36932675216974" lon="11.576127811907652"><ele>92.0</ele><time>2026-03-22T14:13:17Z</time></trkpt><trkpt lat="44.36919535187785" lon="11.576021110442062"><ele>92.0</ele><time>2026-03-22T14:13:18Z</time></trkpt><trkpt lat="44.369067031588614" lon="11.57592231089014"><ele>92.0</ele><time>2026-03-22T14:13:19Z</time></trkpt><trkpt lat="44.36892946663107" lon="11.575818047680032"><ele>92.0</ele><time>2026-03-22T14:13:20Z</time></trkpt><trkpt lat="44.36879591720873" lon="11.575703331912457"><ele>93.25</ele><time>2026-03-22T14:13:21Z</time></trkpt><trkpt lat="44.368665569044445" lon="11.57560056838953"><ele>94.5</ele><time>2026-03-22T14:13:22Z</time></trkpt><trkpt lat="44.36855062262672" lon="11.575510605272676"><ele>95.75</ele><time>2026-03-22T14:13:23Z</time></trkpt><trkpt lat="44.368434871961234" lon="11.575421690904907"><ele>97.0</ele><time>2026-03-22T14:13:24Z</time></trkpt><trkpt lat="44.36831988521125" lon="11.575328698171509"><ele>97.25</ele><time>2026-03-22T14:13:25Z</time></trkpt><trkpt lat="44.368198054534396" lon="11.575236365095876"><ele>97.5</ele><time>2026-03-22T14:13:26Z</time></trkpt><trkpt lat="44.3680664938048" lon="11.57515375347784"><ele>97.75</ele><time>2026-03-22T14:13:27Z</time></trkpt><trkpt lat="44.36791835667451" lon="11.575100744998812"><ele>98.0</ele><time>2026-03-22T14:13:28Z</time></trkpt><trkpt lat="44.36777499160736" lon="11.5750349319527"><ele>98.0</ele><time>2026-03-22T14:13:29Z</time></trkpt><trkpt lat="44.36762697971712" lon="11.574993189986987"><ele>98.0</ele><time>2026-03-22T14:13:30Z</time></trkpt><trkpt lat="44.36747843987907" lon="11.57494506081765"><ele>98.0</ele><time>2026-03-22T14:13:31Z</time></trkpt><trkpt lat="44.367329381997536" lon="11.574866468794125"><ele>98.0</ele><time>2026-03-22T14:13:32Z</time></trkpt><trkpt lat="44.36717382822245" lon="11.574776990579364"><ele>98.0</ele><time>2026-03-22T14:13:33Z</time></trkpt><trkpt lat="44.36701917290279" lon="11.574618416584135"><ele>98.0</ele><time>2026-03-22T14:13:34Z</time></trkpt><trkpt lat="44.36686347630233" lon="11.574433362723848"><ele>99.0</ele><time>2026-03-22T14:13:35Z</time></trkpt><trkpt lat="44.36672633976614" lon="11.574270258389674"><ele>100.0</ele><time>2026-03-22T14:13:36Z</time></trkpt><trkpt lat="44.36660351350314" lon="11.574127849246311"><ele>101.0</ele><time>2026-03-22T14:13:37Z</time></trkpt><trkpt lat="44.3664882941995" lon="11.573997528693495"><ele>101.0</ele><time>2026-03-22T14:13:38Z</time></trkpt><trkpt lat="44.36638083187151" lon="11.57388047444606"><ele>101.0</ele><time>2026-03-22T14:13:39Z</time></trkpt><trkpt lat="44.36627700263408" lon="11.573778958549559"><ele>101.0</ele><time>2026-03-22T14:13:40Z</time></trkpt><trkpt lat="44.36616483471767" lon="11.573680333817846"><ele>101.0</ele><time>2026-03-22T14:13:41Z</time></trkpt><trkpt lat="44.36603119632492" lon="11.573597216833624"><ele>102.33333333333333</ele><time>2026-03-22T14:13:42Z</time></trkpt><trkpt lat="44.365878610883236" lon="11.57354132044498"><ele>103.66666666666666</ele><time>2026-03-22T14:13:43Z</time></trkpt><trkpt lat="44.36571404027318" lon="11.573511234238904"><ele>105.0</ele><time>2026-03-22T14:13:44Z</time></trkpt><trkpt lat="44.36554919861888" lon="11.573495339975464"><ele>105.66666666666666</ele><time>2026-03-22T14:13:45Z</time></trkpt><trkpt lat="44.36538830739918" lon="11.573457862992798"><ele>106.33333333333333</ele><time>2026-03-22T14:13:46Z</time></trkpt><trkpt lat="44.36524204222712" lon="11.573439806302078"><ele>107.0</ele><time>2026-03-22T14:13:47Z</time></trkpt><trkpt lat="44.365101122269934" lon="11.573420240501523"><ele>107.0</ele><time>2026-03-22T14:13:48Z</time></trkpt><trkpt lat="44.36495136899013" lon="11.573396176573809"><ele>107.0</ele><time>2026-03-22T14:13:49Z</time></trkpt><trkpt lat="44.36478749416699" lon="11.573367746021347"><ele>107.0</ele><time>2026-03-22T14:13:50Z</time></trkpt><trkpt lat="44.364623929985065" lon="11.573339087040084"><ele>107.33333333333333</ele><time>2026-03-22T14:13:51Z</time></trkpt><trkpt lat="44.36446632120361" lon="11.573307816206377"><ele>107.66666666666666</ele><time>2026-03-22T14:13:52Z</time></trkpt><trkpt lat="44.36431881718301" lon="11.573280243597779"><ele>108.0</ele><time>2026-03-22T14:13:53Z</time></trkpt><trkpt lat="44.36417469353955" lon="11.573260161471346"><ele>108.0</ele><time>2026-03-22T14:13:54Z</time></trkpt><trkpt lat="44.36402994257299" lon="11.573251554313465"><ele>108.0</ele><time>2026-03-22T14:13:55Z</time></trkpt><trkpt lat="44.36390068473452" lon="11.573249536455519"><ele>108.0</ele><time>2026-03-22T14:13:56Z</time></trkpt><trkpt lat="44.36378608460142" lon="11.573250686886881"><ele>108.0</ele><time>2026-03-22T14:13:57Z</time></trkpt><trkpt lat="44.36368220199948" lon="11.57324514578961"><ele>106.5</ele><time>2026-03-22T14:13:58Z</time></trkpt><trkpt lat="44.36356921781622" lon="11.573221740516486"><ele>105.0</ele><time>2026-03-22T14:13:59Z</time></trkpt><trkpt lat="44.36345219952362" lon="11.573165457831553"><ele>103.5</ele><time>2026-03-22T14:14:00Z</time></trkpt><trkpt lat="44.363352546442925" lon="11.573028660250982"><ele>102.0</ele><time>2026-03-22T14:14:01Z</time></trkpt><trkpt lat="44.363271374062066" lon="11.572856317661723"><ele>103.66666666666666</ele><time>2026-03-22T14:14:02Z</time></trkpt><trkpt lat="44.363209311491836" lon="11.572663526561925"><ele>105.33333333333333</ele><time>2026-03-22T14:14:03Z</time></trkpt><trkpt lat="44.36315803279593" lon="11.572456391284511"><ele>107.0</ele><time>2026-03-22T14:14:04Z</time></trkpt><trkpt lat="44.36310868701843" lon="11.572261532480383"><ele>107.0</ele><time>2026-03-22T14:14:05Z</time></trkpt><trkpt lat="44.363048310981796" lon="11.572064334825939"><ele>107.0</ele><time>2026-03-22T14:14:06Z</time></trkpt><trkpt lat="44.36298739502349" lon="11.571874219435902"><ele>107.0</ele><time>2026-03-22T14:14:07Z</time></trkpt><trkpt lat="44.362933115679596" lon="11.571698976257734"><ele>107.0</ele><time>2026-03-22T14:14:08Z</time></trkpt><trkpt lat="44.36287961414967" lon="11.571526014587958"><ele>107.0</ele><time>2026-03-22T14:14:09Z</time></trkpt><trkpt lat="44.36282344567915" lon="11.57135197306883"><ele>107.0</ele><time>2026-03-22T14:14:10Z</time></trkpt><trkpt lat="44.36276881588741" lon="11.571187758571114"><ele>107.0</ele><time>2026-03-22T14:14:11Z</time></trkpt><trkpt lat="44.362719311192436" lon="11.571012337750572"><ele>107.0</ele><time>2026-03-22T14:14:12Z</time></trkpt><trkpt lat="44.362661020454844" lon="11.570835757074576"><ele>107.0</ele><time>2026-03-22T14:14:13Z</time></trkpt><trkpt lat="44.36259719907056" lon="11.57068320934618"><ele>107.0</ele><time>2026-03-22T14:14:14Z</time></trkpt><trkpt lat="44.362511234556756" lon="11.570553719398793"><ele>107.0</ele><time>2026-03-22T14:14:15Z</time></trkpt><trkpt lat="44.362405227756625" lon="11.570435414939029"><ele>107.0</ele><time>2026-03-22T14:14:16Z</time></trkpt><trkpt lat="44.3622933573132" lon="11.57032624350421"><ele>106.5</ele><time>2026-03-22T14:14:17Z</time></trkpt><trkpt lat="44.36217705172064" lon="11.570229779427475"><ele>106.0</ele><time>2026-03-22T14:14:18Z</time></trkpt><trkpt lat="44.362068053045654" lon="11.570146417980876"><ele>105.5</ele><time>2026-03-22T14:14:19Z</time></trkpt><trkpt lat="44.36197424752984" lon="11.570082037334581"><ele>105.0</ele><time>2026-03-22T14:14:20Z</time></trkpt><trkpt lat="44.36189238399596" lon="11.570032681508616"><ele>105.0</ele><time>2026-03-22T14:14:21Z</time></trkpt><trkpt lat="44.36181580339923" lon="11.569982247655286"><ele>105.0</ele><time>2026-03-22T14:14:22Z</time></trkpt><trkpt lat="44.36173469530653" lon="11.569903743220744"><ele>105.0</ele><time>2026-03-22T14:14:23Z</time></trkpt><trkpt lat="44.361654806737995" lon="11.569793280371767"><ele>105.0</ele><time>2026-03-22T14:14:24Z</time></trkpt><trkpt lat="44.36159088335118" lon="11.56965203164644"><ele>105.0</ele><time>2026-03-22T14:14:25Z</time></trkpt><trkpt lat="44.36153763610559" lon="11.569472994789392"><ele>107.0</ele><time>2026-03-22T14:14:26Z</time></trkpt><trkpt lat="44.36149905056098" lon="11.569285429893279"><ele>109.0</ele><time>2026-03-22T14:14:27Z</time></trkpt><trkpt lat="44.36146289519404" lon="11.56911219125218"><ele>111.0</ele><time>2026-03-22T14:14:28Z</time></trkpt><trkpt lat="44.361407514396724" lon="11.568938421436942"><ele>113.0</ele><time>2026-03-22T14:14:29Z</time></trkpt><trkpt lat="44.361347799289575" lon="11.56875428033215"><ele>109.33333333333333</ele><time>2026-03-22T14:14:30Z</time></trkpt><trkpt lat="44.361266704584004" lon="11.568575475691132"><ele>105.66666666666666</ele><time>2026-03-22T14:14:31Z</time></trkpt><trkpt lat="44.36117307276778" lon="11.568414603815908"><ele>102.0</ele><time>2026-03-22T14:14:32Z</time></trkpt><trkpt lat="44.3610648301371" lon="11.568251134610355"><ele>102.0</ele><time>2026-03-22T14:14:33Z</time></trkpt><trkpt lat="44.360951213767166" lon="11.568074946942073"><ele>102.0</ele><time>2026-03-22T14:14:34Z</time></trkpt><trkpt lat="44.36084370649045" lon="11.567908508666239"><ele>102.0</ele><time>2026-03-22T14:14:35Z</time></trkpt><trkpt lat="44.360742575107885" lon="11.567757683586331"><ele>101.75</ele><time>2026-03-22T14:14:36Z</time></trkpt><trkpt lat="44.360659047996265" lon="11.567632857598564"><ele>101.5</ele><time>2026-03-22T14:14:37Z</time></trkpt><trkpt lat="44.360582890434706" lon="11.567519068877779"><ele>101.25</ele><time>2026-03-22T14:14:38Z</time></trkpt><trkpt lat="44.360489010971236" lon="11.56741179756706"><ele>101.0</ele><time>2026-03-22T14:14:39Z</time></trkpt><trkpt lat="44.360363283048436" lon="11.567318452873353"><ele>100.0</ele><time>2026-03-22T14:14:40Z</time></trkpt><trkpt lat="44.360225618664735" lon="11.567241521715003"><ele>99.0</ele><time>2026-03-22T14:14:41Z</time></trkpt><trkpt lat="44.36008265576817" lon="11.567189435779767"><ele>98.0</ele><time>2026-03-22T14:14:42Z</time></trkpt><trkpt lat="44.35994685859054" lon="11.56712007137684"><ele>97.0</ele><time>2026-03-22T14:14:43Z</time></trkpt><trkpt lat="44.3598159953582" lon="11.567076966378634"><ele>96.33333333333334</ele><time>2026-03-22T14:14:44Z</time></trkpt><trkpt lat="44.35967419527056" lon="11.567030258749798"><ele>95.66666666666667</ele><time>2026-03-22T14:14:45Z</time></trkpt><trkpt lat="44.35952605223121" lon="11.566981461850283"><ele>95.0</ele><time>2026-03-22T14:14:46Z</time></trkpt><trkpt lat="44.35937425958987" lon="11.566933046534471"><ele>95.25</ele><time>2026-03-22T14:14:47Z</time></trkpt><trkpt lat="44.35923255603462" lon="11.56689172604552"><ele>95.5</ele><time>2026-03-22T14:14:48Z</time></trkpt><trkpt lat="44.3590886166948" lon="11.566866494541776"><ele>95.75</ele><time>2026-03-22T14:14:49Z</time></trkpt><trkpt lat="44.358938171913785" lon="11.566855514580007"><ele>96.0</ele><time>2026-03-22T14:14:50Z</time></trkpt><trkpt lat="44.35877800078307" lon="11.56685667149254"><ele>96.0</ele><time>2026-03-22T14:14:51Z</time></trkpt><trkpt lat="44.35861702602737" lon="11.566860532867345"><ele>96.0</ele><time>2026-03-22T14:14:52Z</time></trkpt><trkpt lat="44.35845427240536" lon="11.566866602129117"><ele>96.0</ele><time>2026-03-22T14:14:53Z</time></trkpt><trkpt lat="44.35831256392184" lon="11.56687188496856"><ele>96.0</ele><time>2026-03-22T14:14:54Z</time></trkpt><trkpt lat="44.358178263331794" lon="11.566870171867153"><ele>96.0</ele><time>2026-03-22T14:14:55Z</time></trkpt><trkpt lat="44.35804381643384" lon="11.56685466330383"><ele>96.0</ele><time>2026-03-22T14:14:56Z</time></trkpt><trkpt lat="44.35790989027415" lon="11.566809601000736"><ele>96.0</ele><time>2026-03-22T14:14:57Z</time></trkpt><trkpt lat="44.35777599133272" lon="11.566761748386366"><ele>96.33333333333334</ele><time>2026-03-22T14:14:58Z</time></trkpt><trkpt lat="44.357657454070946" lon="11.566651414454933"><ele>96.66666666666667</ele><time>2026-03-22T14:14:59Z</time></trkpt><trkpt lat="44.35754432995475" lon="11.566521714204258"><ele>97.0</ele><time>2026-03-22T14:15:00Z</time></trkpt><trkpt lat="44.357411805481576" lon="11.566367183571668"><ele>97.0</ele><time>2026-03-22T14:15:01Z</time></trkpt><trkpt lat="44.35726706040306" lon="11.566194900683223"><ele>97.0</ele><time>2026-03-22T14:15:02Z</time></trkpt><trkpt lat="44.357142522162775" lon="11.566054062817486"><ele>97.0</ele><time>2026-03-22T14:15:03Z</time></trkpt><trkpt lat="44.357035660484115" lon="11.565923883735811"><ele>96.5</ele><time>2026-03-22T14:15:04Z</time></trkpt><trkpt lat="44.356936163156206" lon="11.56580412753102"><ele>96.0</ele><time>2026-03-22T14:15:05Z</time></trkpt><trkpt lat="44.356841128119754" lon="11.565696881849933"><ele>95.5</ele><time>2026-03-22T14:15:06Z</time></trkpt><trkpt lat="44.3567502639203" lon="11.565597852520074"><ele>95.0</ele><time>2026-03-22T14:15:07Z</time></trkpt><trkpt lat="44.35664847375393" lon="11.565484730448349"><ele>95.0</ele><time>2026-03-22T14:15:08Z</time></trkpt><trkpt lat="44.356543363679386" lon="11.565363090091068"><ele>95.0</ele><time>2026-03-22T14:15:09Z</time></trkpt><trkpt lat="44.35643502659136" lon="11.565243783758174"><ele>95.0</ele><time>2026-03-22T14:15:10Z</time></trkpt><trkpt lat="44.35633127000333" lon="11.565121550359862"><ele>95.0</ele><time>2026-03-22T14:15:11Z</time></trkpt><trkpt lat="44.356230112317895" lon="11.564993008730674"><ele>95.25</ele><time>2026-03-22T14:15:12Z</time></trkpt><trkpt lat="44.356132847000566" lon="11.564860095350294"><ele>95.5</ele><time>2026-03-22T14:15:13Z</time></trkpt><trkpt lat="44.356038507223346" lon="11.564717606142151"><ele>95.75</ele><time>2026-03-22T14:15:14Z</time></trkpt><trkpt lat="44.35594335961782" lon="11.56457424419112"><ele>96.0</ele><time>2026-03-22T14:15:15Z</time></trkpt><trkpt lat="44.35585140125103" lon="11.564423782595904"><ele>96.25</ele><time>2026-03-22T14:15:16Z</time></trkpt><trkpt lat="44.35575888443139" lon="11.564279947172274"><ele>96.5</ele><time>2026-03-22T14:15:17Z</time></trkpt><trkpt lat="44.355671522788924" lon="11.564156750100006"><ele>96.75</ele><time>2026-03-22T14:15:18Z</time></trkpt><trkpt lat="44.35558196333752" lon="11.564048527990693"><ele>97.0</ele><time>2026-03-22T14:15:19Z</time></trkpt><trkpt lat="44.35547969054094" lon="11.563949198157871"><ele>97.0</ele><time>2026-03-22T14:15:20Z</time></trkpt><trkpt lat="44.35536583670362" lon="11.563872331289735"><ele>97.0</ele><time>2026-03-22T14:15:21Z</time></trkpt><trkpt lat="44.35525173220005" lon="11.563804451455692"><ele>97.0</ele><time>2026-03-22T14:15:22Z</time></trkpt><trkpt lat="44.355133160170766" lon="11.563772670846767"><ele>97.0</ele><time>2026-03-22T14:15:23Z</time></trkpt><trkpt lat="44.35503080428537" lon="11.563758642182602"><ele>97.0</ele><time>2026-03-22T14:15:24Z</time></trkpt><trkpt lat="44.35492766778722" lon="11.563750586333013"><ele>97.0</ele><time>2026-03-22T14:15:25Z</time></trkpt><trkpt lat="44.35481607028977" lon="11.563740153455472"><ele>97.0</ele><time>2026-03-22T14:15:26Z</time></trkpt><trkpt lat="44.35470166397181" lon="11.56372303908946"><ele>97.0</ele><time>2026-03-22T14:15:27Z</time></trkpt><trkpt lat="44.35457457213894" lon="11.563697676147733"><ele>97.25</ele><time>2026-03-22T14:15:28Z</time></trkpt><trkpt lat="44.35443377716578" lon="11.563661815211375"><ele>97.5</ele><time>2026-03-22T14:15:29Z</time></trkpt><trkpt lat="44.354279412723656" lon="11.563624155522392"><ele>97.75</ele><time>2026-03-22T14:15:30Z</time></trkpt><trkpt lat="44.3541417874725" lon="11.563594949067433"><ele>98.0</ele><time>2026-03-22T14:15:31Z</time></trkpt><trkpt lat="44.35402103437369" lon="11.56356714707944"><ele>98.0</ele><time>2026-03-22T14:15:32Z</time></trkpt><trkpt lat="44.35391197023267" lon="11.563538415241887"><ele>98.0</ele><time>2026-03-22T14:15:33Z</time></trkpt><trkpt lat="44.35379817598044" lon="11.563498984549987"><ele>98.0</ele><time>2026-03-22T14:15:34Z</time></trkpt><trkpt lat="44.35368953931241" lon="11.563371718144609"><ele>98.0</ele><time>2026-03-22T14:15:35Z</time></trkpt><trkpt lat="44.35358138467899" lon="11.563207958504483"><ele>98.80000000000001</ele><time>2026-03-22T14:15:36Z</time></trkpt><trkpt lat="44.35349924442221" lon="11.563054434940556"><ele>99.6</ele><time>2026-03-22T14:15:37Z</time></trkpt><trkpt lat="44.35343253794873" lon="11.562930594372729"><ele>100.4</ele><time>2026-03-22T14:15:38Z</time></trkpt><trkpt lat="44.353370840799876" lon="11.562822169515082"><ele>101.19999999999999</ele><time>2026-03-22T14:15:39Z</time></trkpt><trkpt lat="44.35330945116799" lon="11.562710563241996"><ele>102.0</ele><time>2026-03-22T14:15:40Z</time></trkpt><trkpt lat="44.35323908581812" lon="11.562592578140878"><ele>101.5</ele><time>2026-03-22T14:15:41Z</time></trkpt><trkpt lat="44.353168478006545" lon="11.56246397124927"><ele>101.0</ele><time>2026-03-22T14:15:42Z</time></trkpt><trkpt lat="44.35309331289697" lon="11.562333787312443"><ele>100.5</ele><time>2026-03-22T14:15:43Z</time></trkpt><trkpt lat="44.35302222901634" lon="11.562197212229995"><ele>100.0</ele><time>2026-03-22T14:15:44Z</time></trkpt><trkpt lat="44.35295134655662" lon="11.562069055893957"><ele>101.0</ele><time>2026-03-22T14:15:45Z</time></trkpt><trkpt lat="44.35287880912388" lon="11.561931099765227"><ele>102.0</ele><time>2026-03-22T14:15:46Z</time></trkpt><trkpt lat="44.35280145891135" lon="11.561789356215744"><ele>103.0</ele><time>2026-03-22T14:15:47Z</time></trkpt><trkpt lat="44.35272713577048" lon="11.561655901272804"><ele>104.0</ele><time>2026-03-22T14:15:48Z</time></trkpt><trkpt lat="44.35266664620472" lon="11.561531229443236"><ele>104.0</ele><time>2026-03-22T14:15:49Z</time></trkpt><trkpt lat="44.352603180822044" lon="11.561410550432266"><ele>104.0</ele><time>2026-03-22T14:15:50Z</time></trkpt><trkpt lat="44.352533157912596" lon="11.561291101063084"><ele>104.0</ele><time>2026-03-22T14:15:51Z</time></trkpt><trkpt lat="44.35246883546068" lon="11.561169599124852"><ele>104.0</ele><time>2026-03-22T14:15:52Z</time></trkpt><trkpt lat="44.35240553323936" lon="11.561045093054814"><ele>104.0</ele><time>2026-03-22T14:15:53Z</time></trkpt><trkpt lat="44.35233705720111" lon="11.560921053449102"><ele>104.0</ele><time>2026-03-22T14:15:54Z</time></trkpt><trkpt lat="44.35226732172294" lon="11.560795713770643"><ele>104.0</ele><time>2026-03-22T14:15:55Z</time></trkpt><trkpt lat="44.3521932596628" lon="11.560657068266948"><ele>104.0</ele><time>2026-03-22T14:15:56Z</time></trkpt><trkpt lat="44.352110199687225" lon="11.560510192767497"><ele>104.0</ele><time>2026-03-22T14:15:57Z</time></trkpt><trkpt lat="44.35201736078046" lon="11.560365204500437"><ele>103.33333333333333</ele><time>2026-03-22T14:15:58Z</time></trkpt><trkpt lat="44.35190457043793" lon="11.56023698290479"><ele>102.66666666666666</ele><time>2026-03-22T14:15:59Z</time></trkpt><trkpt lat="44.351773050718805" lon="11.560124594480449"><ele>102.0</ele><time>2026-03-22T14:16:00Z</time></trkpt><trkpt lat="44.351628199973305" lon="11.560017692820727"><ele>102.0</ele><time>2026-03-22T14:16:01Z</time></trkpt><trkpt lat="44.351489106799754" lon="11.559909501592726"><ele>102.0</ele><time>2026-03-22T14:16:02Z</time></trkpt><trkpt lat="44.351350447963014" lon="11.559803149121494"><ele>102.0</ele><time>2026-03-22T14:16:03Z</time></trkpt><trkpt lat="44.351209131217" lon="11.55968981850816"><ele>101.33333333333334</ele><time>2026-03-22T14:16:04Z</time></trkpt><trkpt lat="44.35106114870701" lon="11.559570322261052"><ele>100.66666666666667</ele><time>2026-03-22T14:16:05Z</time></trkpt><trkpt lat="44.3509126938687" lon="11.559449781327563"><ele>100.0</ele><time>2026-03-22T14:16:06Z</time></trkpt><trkpt lat="44.35075473742495" lon="11.559326253324167"><ele>100.0</ele><time>2026-03-22T14:16:07Z</time></trkpt><trkpt lat="44.35059985151239" lon="11.559205282564061"><ele>100.0</ele><time>2026-03-22T14:16:08Z</time></trkpt><trkpt lat="44.35044030739866" lon="11.559083982461669"><ele>100.0</ele><time>2026-03-22T14:16:09Z</time></trkpt><trkpt lat="44.35028330658306" lon="11.558959731964297"><ele>100.0</ele><time>2026-03-22T14:16:10Z</time></trkpt><trkpt lat="44.3501284290958" lon="11.558833834752775"><ele>100.0</ele><time>2026-03-22T14:16:11Z</time></trkpt><trkpt lat="44.34996449782242" lon="11.55870258542247"><ele>100.0</ele><time>2026-03-22T14:16:12Z</time></trkpt><trkpt lat="44.349798836478726" lon="11.558575051195087"><ele>100.33333333333334</ele><time>2026-03-22T14:16:13Z</time></trkpt><trkpt lat="44.349641228074546" lon="11.558449112730225"><ele>100.66666666666666</ele><time>2026-03-22T14:16:14Z</time></trkpt><trkpt lat="44.349484029265994" lon="11.558326600185955"><ele>101.0</ele><time>2026-03-22T14:16:15Z</time></trkpt><trkpt lat="44.34932635655564" lon="11.558204832902959"><ele>101.0</ele><time>2026-03-22T14:16:16Z</time></trkpt><trkpt lat="44.34917128437278" lon="11.558083187545225"><ele>101.0</ele><time>2026-03-22T14:16:17Z</time></trkpt><trkpt lat="44.3490180809595" lon="11.557959709404287"><ele>101.0</ele><time>2026-03-22T14:16:18Z</time></trkpt><trkpt lat="44.34886879424574" lon="11.55783479542535"><ele>101.33333333333333</ele><time>2026-03-22T14:16:19Z</time></trkpt><trkpt lat="44.34872070231397" lon="11.557714624058292"><ele>101.66666666666666</ele><time>2026-03-22T14:16:20Z</time></trkpt><trkpt lat="44.348573590636136" lon="11.557598913549942"><ele>102.0</ele><time>2026-03-22T14:16:21Z</time></trkpt><trkpt lat="44.34843683776086" lon="11.557488360477818"><ele>102.0</ele><time>2026-03-22T14:16:22Z</time></trkpt><trkpt lat="44.34829664736041" lon="11.55737911032063"><ele>102.0</ele><time>2026-03-22T14:16:23Z</time></trkpt><trkpt lat="44.34814859369684" lon="11.557285273210365"><ele>102.0</ele><time>2026-03-22T14:16:24Z</time></trkpt><trkpt lat="44.347987925791806" lon="11.55721117848258"><ele>102.33333333333334</ele><time>2026-03-22T14:16:25Z</time></trkpt><trkpt lat="44.34782108211005" lon="11.557150198428932"><ele>102.66666666666667</ele><time>2026-03-22T14:16:26Z</time></trkpt><trkpt lat="44.347663511447784" lon="11.557096839373923"><ele>103.0</ele><time>2026-03-22T14:16:27Z</time></trkpt><trkpt lat="44.347520393100645" lon="11.557043030906945"><ele>103.25</ele><time>2026-03-22T14:16:28Z</time></trkpt><trkpt lat="44.34738953066095" lon="11.556993977784796"><ele>103.5</ele><time>2026-03-22T14:16:29Z</time></trkpt><trkpt lat="44.34726128509567" lon="11.556951748828675"><ele>103.75</ele><time>2026-03-22T14:16:30Z</time></trkpt><trkpt lat="44.34712954804718" lon="11.556904182710586"><ele>104.0</ele><time>2026-03-22T14:16:31Z</time></trkpt><trkpt lat="44.34699712755236" lon="11.55684261651813"><ele>104.0</ele><time>2026-03-22T14:16:32Z</time></trkpt><trkpt lat="44.34686818699289" lon="11.55673219806806"><ele>104.0</ele><time>2026-03-22T14:16:33Z</time></trkpt><trkpt lat="44.346742797617935" lon="11.556582082693152"><ele>104.0</ele><time>2026-03-22T14:16:34Z</time></trkpt><trkpt lat="44.34662522376318" lon="11.556417566456926"><ele>104.0</ele><time>2026-03-22T14:16:35Z</time></trkpt><trkpt lat="44.34651263217484" lon="11.556257686877558"><ele>104.0</ele><time>2026-03-22T14:16:36Z</time></trkpt><trkpt lat="44.34639741071338" lon="11.556103039219312"><ele>104.0</ele><time>2026-03-22T14:16:37Z</time></trkpt><trkpt lat="44.34627762632497" lon="11.555938735479648"><ele>104.0</ele><time>2026-03-22T14:16:38Z</time></trkpt><trkpt lat="44.346158192153446" lon="11.555764975147763"><ele>104.0</ele><time>2026-03-22T14:16:39Z</time></trkpt><trkpt lat="44.346035916454206" lon="11.555596535228489"><ele>104.0</ele><time>2026-03-22T14:16:40Z</time></trkpt><trkpt lat="44.34591311580229" lon="11.555427422367874"><ele>104.0</ele><time>2026-03-22T14:16:41Z</time></trkpt><trkpt lat="44.345789293664794" lon="11.55526402447344"><ele>104.0</ele><time>2026-03-22T14:16:42Z</time></trkpt><trkpt lat="44.345661265257796" lon="11.55509514730599"><ele>104.0</ele><time>2026-03-22T14:16:43Z</time></trkpt><trkpt lat="44.34553198052589" lon="11.554920304763586"><ele>104.0</ele><time>2026-03-22T14:16:44Z</time></trkpt><trkpt lat="44.34539743271271" lon="11.554744095174144"><ele>104.0</ele><time>2026-03-22T14:16:45Z</time></trkpt><trkpt lat="44.34526824066901" lon="11.554574461678184"><ele>104.0</ele><time>2026-03-22T14:16:46Z</time></trkpt><trkpt lat="44.34514171490445" lon="11.554403029854305"><ele>105.0</ele><time>2026-03-22T14:16:47Z</time></trkpt><trkpt lat="44.34501259714121" lon="11.554222745497999"><ele>106.0</ele><time>2026-03-22T14:16:48Z</time></trkpt><trkpt lat="44.3448844095891" lon="11.554046521440156"><ele>107.0</ele><time>2026-03-22T14:16:49Z</time></trkpt><trkpt lat="44.34475561197775" lon="11.5538712398513"><ele>107.33333333333333</ele><time>2026-03-22T14:16:50Z</time></trkpt><trkpt lat="44.34463099415872" lon="11.553700283320108"><ele>107.66666666666666</ele><time>2026-03-22T14:16:51Z</time></trkpt><trkpt lat="44.344506095746034" lon="11.55353313665784"><ele>108.0</ele><time>2026-03-22T14:16:52Z</time></trkpt><trkpt lat="44.34439195993165" lon="11.553373192676553"><ele>108.0</ele><time>2026-03-22T14:16:53Z</time></trkpt><trkpt lat="44.344278624348675" lon="11.553216619685658"><ele>108.0</ele><time>2026-03-22T14:16:54Z</time></trkpt><trkpt lat="44.34417440601396" lon="11.553069419417445"><ele>108.0</ele><time>2026-03-22T14:16:55Z</time></trkpt><trkpt lat="44.34407730691172" lon="11.552937730233808"><ele>108.0</ele><time>2026-03-22T14:16:56Z</time></trkpt><trkpt lat="44.3439818820354" lon="11.552801149195401"><ele>108.33333333333334</ele><time>2026-03-22T14:16:57Z</time></trkpt><trkpt lat="44.34389930669102" lon="11.552635868496324"><ele>108.66666666666667</ele><time>2026-03-22T14:16:58Z</time></trkpt><trkpt lat="44.34383590082655" lon="11.552444500806011"><ele>109.0</ele><time>2026-03-22T14:16:59Z</time></trkpt><trkpt lat="44.34378644329123" lon="11.552235420677432"><ele>110.0</ele><time>2026-03-22T14:17:00Z</time></trkpt><trkpt lat="44.34375624414121" lon="11.55200824482287"><ele>111.0</ele><time>2026-03-22T14:17:01Z</time></trkpt><trkpt lat="44.343743235104604" lon="11.55177741644559"><ele>112.0</ele><time>2026-03-22T14:17:02Z</time></trkpt><trkpt lat="44.34373471047592" lon="11.551553018454428"><ele>112.0</ele><time>2026-03-22T14:17:03Z</time></trkpt><trkpt lat="44.34372354974503" lon="11.551317072268343"><ele>112.0</ele><time>2026-03-22T14:17:04Z</time></trkpt><trkpt lat="44.34371616613551" lon="11.551072191486913"><ele>112.0</ele><time>2026-03-22T14:17:05Z</time></trkpt><trkpt lat="44.34371858465924" lon="11.550818424946593"><ele>111.66666666666667</ele><time>2026-03-22T14:17:06Z</time></trkpt><trkpt lat="44.34373076852469" lon="11.550561712946493"><ele>111.33333333333334</ele><time>2026-03-22T14:17:07Z</time></trkpt><trkpt lat="44.34374928594359" lon="11.550298297889286"><ele>111.0</ele><time>2026-03-22T14:17:08Z</time></trkpt><trkpt lat="44.3437791197717" lon="11.550010535707928"><ele>112.0</ele><time>2026-03-22T14:17:09Z</time></trkpt><trkpt lat="44.343816470902134" lon="11.549738474688978"><ele>113.0</ele><time>2026-03-22T14:17:10Z</time></trkpt><trkpt lat="44.34385291013192" lon="11.549499294880203"><ele>114.0</ele><time>2026-03-22T14:17:11Z</time></trkpt><trkpt lat="44.34389379546986" lon="11.549288604409107"><ele>115.66666666666666</ele><time>2026-03-22T14:17:12Z</time></trkpt><trkpt lat="44.343931539184275" lon="11.549093404037437"><ele>117.33333333333333</ele><time>2026-03-22T14:17:13Z</time></trkpt><trkpt lat="44.34396526843917" lon="11.548889358729712"><ele>119.0</ele><time>2026-03-22T14:17:14Z</time></trkpt><trkpt lat="44.34399995799331" lon="11.548668602389473"><ele>119.0</ele><time>2026-03-22T14:17:15Z</time></trkpt><trkpt lat="44.34401296087975" lon="11.54843117736367"><ele>119.0</ele><time>2026-03-22T14:17:16Z</time></trkpt><trkpt lat="44.34399954176838" lon="11.548173386685727"><ele>119.0</ele><time>2026-03-22T14:17:17Z</time></trkpt><trkpt lat="44.34398511570284" lon="11.547920245291081"><ele>119.0</ele><time>2026-03-22T14:17:18Z</time></trkpt><trkpt lat="44.3439727677331" lon="11.547690585261645"><ele>119.0</ele><time>2026-03-22T14:17:19Z</time></trkpt><trkpt lat="44.34396619448106" lon="11.547485469424725"><ele>119.0</ele><time>2026-03-22T14:17:20Z</time></trkpt><trkpt lat="44.343961636980765" lon="11.547292717029844"><ele>119.0</ele><time>2026-03-22T14:17:21Z</time></trkpt><trkpt lat="44.34395218739463" lon="11.547089307315801"><ele>121.0</ele><time>2026-03-22T14:17:22Z</time></trkpt><trkpt lat="44.34396343480934" lon="11.546888611256872"><ele>123.0</ele><time>2026-03-22T14:17:23Z</time></trkpt><trkpt lat="44.34400370565512" lon="11.546694191746644"><ele>125.0</ele><time>2026-03-22T14:17:24Z</time></trkpt><trkpt lat="44.34406458328223" lon="11.546529592597533"><ele>127.0</ele><time>2026-03-22T14:17:25Z</time></trkpt><trkpt lat="44.344133137907065" lon="11.546370027375868"><ele>127.0</ele><time>2026-03-22T14:17:26Z</time></trkpt><trkpt lat="44.34420243142489" lon="11.54623329504801"><ele>127.0</ele><time>2026-03-22T14:17:27Z</time></trkpt><trkpt lat="44.34425107628034" lon="11.546103964822713"><ele>127.0</ele><time>2026-03-22T14:17:28Z</time></trkpt><trkpt lat="44.344275461898036" lon="11.545962058148433"><ele>127.0</ele><time>2026-03-22T14:17:29Z</time></trkpt><trkpt lat="44.34426501062858" lon="11.545786866618123"><ele>127.0</ele><time>2026-03-22T14:17:30Z</time></trkpt><trkpt lat="44.344235144494064" lon="11.54562202876565"><ele>127.0</ele><time>2026-03-22T14:17:31Z</time></trkpt><trkpt lat="44.34416594647895" lon="11.545473118423471"><ele>127.0</ele><time>2026-03-22T14:17:32Z</time></trkpt><trkpt lat="44.34405789929058" lon="11.545361382732443"><ele>127.0</ele><time>2026-03-22T14:17:33Z</time></trkpt><trkpt lat="44.3439298269337" lon="11.545277449661066"><ele>126.33333333333334</ele><time>2026-03-22T14:17:34Z</time></trkpt><trkpt lat="44.34378152263778" lon="11.545204252536589"><ele>125.66666666666666</ele><time>2026-03-22T14:17:35Z</time></trkpt><trkpt lat="44.343631511171026" lon="11.545113322253643"><ele>125.0</ele><time>2026-03-22T14:17:36Z</time></trkpt><trkpt lat="44.3434867544199" lon="11.54501426558547"><ele>125.0</ele><time>2026-03-22T14:17:37Z</time></trkpt><trkpt lat="44.34333930656469" lon="11.544905169379808"><ele>125.0</ele><time>2026-03-22T14:17:38Z</time></trkpt><trkpt lat="44.343192471469884" lon="11.544769690868897"><ele>125.0</ele><time>2026-03-22T14:17:39Z</time></trkpt><trkpt lat="44.34304722488634" lon="11.544605483964977"><ele>128.33333333333331</ele><time>2026-03-22T14:17:40Z</time></trkpt><trkpt lat="44.34289388701974" lon="11.544410682630627"><ele>131.66666666666666</ele><time>2026-03-22T14:17:41Z</time></trkpt><trkpt lat="44.342752652337964" lon="11.544235531110989"><ele>135.0</ele><time>2026-03-22T14:17:42Z</time></trkpt><trkpt lat="44.342631417281936" lon="11.54408801561242"><ele>135.0</ele><time>2026-03-22T14:17:43Z</time></trkpt><trkpt lat="44.342522603849545" lon="11.54395797292496"><ele>135.0</ele><time>2026-03-22T14:17:44Z</time></trkpt><trkpt lat="44.34241104283455" lon="11.54382745221507"><ele>135.0</ele><time>2026-03-22T14:17:45Z</time></trkpt><trkpt lat="44.34229711212875" lon="11.543693348350091"><ele>135.0</ele><time>2026-03-22T14:17:46Z</time></trkpt><trkpt lat="44.342181395923916" lon="11.543555158558679"><ele>135.0</ele><time>2026-03-22T14:17:47Z</time></trkpt><trkpt lat="44.34206245765208" lon="11.543414824332988"><ele>135.0</ele><time>2026-03-22T14:17:48Z</time></trkpt><trkpt lat="44.34194217549966" lon="11.5432737543382"><ele>135.0</ele><time>2026-03-22T14:17:49Z</time></trkpt><trkpt lat="44.341824441153555" lon="11.543133576046722"><ele>135.0</ele><time>2026-03-22T14:17:50Z</time></trkpt><trkpt lat="44.34170728587133" lon="11.542987920901686"><ele>135.0</ele><time>2026-03-22T14:17:51Z</time></trkpt><trkpt lat="44.34158362833612" lon="11.542835731212781"><ele>135.0</ele><time>2026-03-22T14:17:52Z</time></trkpt><trkpt lat="44.341458434814434" lon="11.54268601951014"><ele>134.66666666666666</ele><time>2026-03-22T14:17:53Z</time></trkpt><trkpt lat="44.34133228104083" lon="11.542537166155475"><ele>134.33333333333331</ele><time>2026-03-22T14:17:54Z</time></trkpt><trkpt lat="44.34120227701244" lon="11.542381380903345"><ele>134.0</ele><time>2026-03-22T14:17:55Z</time></trkpt><trkpt lat="44.34107296993137" lon="11.542224166809591"><ele>134.0</ele><time>2026-03-22T14:17:56Z</time></trkpt><trkpt lat="44.34093720416013" lon="11.54207147564128"><ele>134.0</ele><time>2026-03-22T14:17:57Z</time></trkpt><trkpt lat="44.3407983407428" lon="11.541924383381657"><ele>134.0</ele><time>2026-03-22T14:17:58Z</time></trkpt><trkpt lat="44.34065147717753" lon="11.541782640354452"><ele>135.66666666666666</ele><time>2026-03-22T14:17:59Z</time></trkpt><trkpt lat="44.34050129857828" lon="11.54164177344312"><ele>137.33333333333334</ele><time>2026-03-22T14:18:00Z</time></trkpt><trkpt lat="44.34035551058467" lon="11.541507172954924"><ele>139.0</ele><time>2026-03-22T14:18:01Z</time></trkpt><trkpt lat="44.34020816890893" lon="11.541375873697428"><ele>139.0</ele><time>2026-03-22T14:18:02Z</time></trkpt><trkpt lat="44.34007321820484" lon="11.541245625113568"><ele>139.0</ele><time>2026-03-22T14:18:03Z</time></trkpt><trkpt lat="44.33994865084091" lon="11.541125436588706"><ele>139.0</ele><time>2026-03-22T14:18:04Z</time></trkpt><trkpt lat="44.3398316335257" lon="11.54101376785813"><ele>140.25</ele><time>2026-03-22T14:18:05Z</time></trkpt><trkpt lat="44.33972278691678" lon="11.54090897738635"><ele>141.5</ele><time>2026-03-22T14:18:06Z</time></trkpt><trkpt lat="44.33961772215328" lon="11.540807412439793"><ele>142.75</ele><time>2026-03-22T14:18:07Z</time></trkpt><trkpt lat="44.33952220775016" lon="11.540719080212396"><ele>144.0</ele><time>2026-03-22T14:18:08Z</time></trkpt><trkpt lat="44.33942817592916" lon="11.540653053600957"><ele>144.0</ele><time>2026-03-22T14:18:09Z</time></trkpt><trkpt lat="44.33931450049966" lon="11.540592772285596"><ele>144.0</ele><time>2026-03-22T14:18:10Z</time></trkpt><trkpt lat="44.339166440130036" lon="11.54061530859688"><ele>144.0</ele><time>2026-03-22T14:18:11Z</time></trkpt><trkpt lat="44.33900802671591" lon="11.540620318221395"><ele>144.0</ele><time>2026-03-22T14:18:12Z</time></trkpt><trkpt lat="44.33885330887664" lon="11.540658473779795"><ele>144.0</ele><time>2026-03-22T14:18:13Z</time></trkpt><trkpt lat="44.338718584915746" lon="11.54068936063074"><ele>144.0</ele><time>2026-03-22T14:18:14Z</time></trkpt><trkpt lat="44.33859122908292" lon="11.540707048771893"><ele>144.0</ele><time>2026-03-22T14:18:15Z</time></trkpt><trkpt lat="44.3384614493855" lon="11.540713347475897"><ele>144.0</ele><time>2026-03-22T14:18:16Z</time></trkpt><trkpt lat="44.338324984872045" lon="11.540685396821369"><ele>144.0</ele><time>2026-03-22T14:18:17Z</time></trkpt><trkpt lat="44.33817443733513" lon="11.54061590613894"><ele>144.0</ele><time>2026-03-22T14:18:18Z</time></trkpt><trkpt lat="44.33801544393452" lon="11.54053456800863"><ele>144.0</ele><time>2026-03-22T14:18:19Z</time></trkpt><trkpt lat="44.33786480023165" lon="11.540469940476157"><ele>144.25</ele><time>2026-03-22T14:18:20Z</time></trkpt><trkpt lat="44.33773173287242" lon="11.54039477759929"><ele>144.5</ele><time>2026-03-22T14:18:21Z</time></trkpt><trkpt lat="44.33761359062134" lon="11.540307268451025"><ele>144.75</ele><time>2026-03-22T14:18:22Z</time></trkpt><trkpt lat="44.33749289886455" lon="11.540235483665109"><ele>145.0</ele><time>2026-03-22T14:18:23Z</time></trkpt><trkpt lat="44.337374615273404" lon="11.540154848189603"><ele>145.0</ele><time>2026-03-22T14:18:24Z</time></trkpt><trkpt lat="44.337255528121624" lon="11.540085601760888"><ele>145.0</ele><time>2026-03-22T14:18:25Z</time></trkpt><trkpt lat="44.33713802956831" lon="11.53998953593542"><ele>145.0</ele><time>2026-03-22T14:18:26Z</time></trkpt><trkpt lat="44.337021999282" lon="11.53988895001042"><ele>145.0</ele><time>2026-03-22T14:18:27Z</time></trkpt><trkpt lat="44.33691377641308" lon="11.539796870282457"><ele>142.75</ele><time>2026-03-22T14:18:28Z</time></trkpt><trkpt lat="44.336814695444886" lon="11.539712348078426"><ele>140.5</ele><time>2026-03-22T14:18:29Z</time></trkpt><trkpt lat="44.33672691660362" lon="11.539622169060904"><ele>138.25</ele><time>2026-03-22T14:18:30Z</time></trkpt><trkpt lat="44.336647273756235" lon="11.539502593146587"><ele>136.0</ele><time>2026-03-22T14:18:31Z</time></trkpt><trkpt lat="44.33657892553826" lon="11.539356171386991"><ele>136.0</ele><time>2026-03-22T14:18:32Z</time></trkpt><trkpt lat="44.33652851762423" lon="11.539184062617855"><ele>136.0</ele><time>2026-03-22T14:18:33Z</time></trkpt><trkpt lat="44.33649510138176" lon="11.538993336605607"><ele>136.0</ele><time>2026-03-22T14:18:34Z</time></trkpt><trkpt lat="44.336483393488095" lon="11.538779732146933"><ele>136.0</ele><time>2026-03-22T14:18:35Z</time></trkpt><trkpt lat="44.336487287400494" lon="11.538574429936892"><ele>135.66666666666669</ele><time>2026-03-22T14:18:36Z</time></trkpt><trkpt lat="44.33649410611573" lon="11.538373282477442"><ele>135.33333333333334</ele><time>2026-03-22T14:18:37Z</time></trkpt><trkpt lat="44.3365007643423" lon="11.538153908580835"><ele>135.0</ele><time>2026-03-22T14:18:38Z</time></trkpt><trkpt lat="44.33650514788718" lon="11.537924279486646"><ele>134.75</ele><time>2026-03-22T14:18:39Z</time></trkpt><trkpt lat="44.336515242079024" lon="11.537711929047525"><ele>134.5</ele><time>2026-03-22T14:18:40Z</time></trkpt><trkpt lat="44.33652234043712" lon="11.537516270142822"><ele>134.25</ele><time>2026-03-22T14:18:41Z</time></trkpt><trkpt lat="44.33652563032811" lon="11.537322214238737"><ele>134.0</ele><time>2026-03-22T14:18:42Z</time></trkpt><trkpt lat="44.33652601121535" lon="11.537127406441698"><ele>134.75</ele><time>2026-03-22T14:18:43Z</time></trkpt><trkpt lat="44.336530355747314" lon="11.536936134908398"><ele>135.5</ele><time>2026-03-22T14:18:44Z</time></trkpt><trkpt lat="44.33653249643454" lon="11.536753640204417"><ele>136.25</ele><time>2026-03-22T14:18:45Z</time></trkpt><trkpt lat="44.336530589686184" lon="11.536577802409218"><ele>137.0</ele><time>2026-03-22T14:18:46Z</time></trkpt><trkpt lat="44.33652167190662" lon="11.536402348898536"><ele>137.0</ele><time>2026-03-22T14:18:47Z</time></trkpt><trkpt lat="44.33649560525743" lon="11.536226009843768"><ele>137.0</ele><time>2026-03-22T14:18:48Z</time></trkpt><trkpt lat="44.336453054055816" lon="11.536053141734612"><ele>137.0</ele><time>2026-03-22T14:18:49Z</time></trkpt><trkpt lat="44.336388417086106" lon="11.53588673002243"><ele>137.0</ele><time>2026-03-22T14:18:50Z</time></trkpt><trkpt lat="44.33630517258792" lon="11.535727152301599"><ele>135.66666666666666</ele><time>2026-03-22T14:18:51Z</time></trkpt><trkpt lat="44.336198702773636" lon="11.535581354596328"><ele>134.33333333333334</ele><time>2026-03-22T14:18:52Z</time></trkpt><trkpt lat="44.33608266550031" lon="11.535458504159894"><ele>133.0</ele><time>2026-03-22T14:18:53Z</time></trkpt><trkpt lat="44.33595174459837" lon="11.535328088190461"><ele>133.0</ele><time>2026-03-22T14:18:54Z</time></trkpt><trkpt lat="44.335824585590096" lon="11.535189953074882"><ele>133.0</ele><time>2026-03-22T14:18:55Z</time></trkpt><trkpt lat="44.33570352309576" lon="11.53504659156746"><ele>133.0</ele><time>2026-03-22T14:18:56Z</time></trkpt><trkpt lat="44.33557747162871" lon="11.534896107045089"><ele>132.33333333333334</ele><time>2026-03-22T14:18:57Z</time></trkpt><trkpt lat="44.33544255405014" lon="11.534749301087452"><ele>131.66666666666666</ele><time>2026-03-22T14:18:58Z</time></trkpt><trkpt lat="44.33530489763904" lon="11.534604528300944"><ele>131.0</ele><time>2026-03-22T14:18:59Z</time></trkpt><trkpt lat="44.33516188017437" lon="11.534458203999355"><ele>131.0</ele><time>2026-03-22T14:19:00Z</time></trkpt><trkpt lat="44.335020906471314" lon="11.534314338133976"><ele>131.0</ele><time>2026-03-22T14:19:01Z</time></trkpt><trkpt lat="44.33488348251762" lon="11.534179560141238"><ele>131.0</ele><time>2026-03-22T14:19:02Z</time></trkpt><trkpt lat="44.33475673482058" lon="11.534061177142439"><ele>131.5</ele><time>2026-03-22T14:19:03Z</time></trkpt><trkpt lat="44.33464402170492" lon="11.5339421029703"><ele>132.0</ele><time>2026-03-22T14:19:04Z</time></trkpt><trkpt lat="44.33452946872828" lon="11.53383027874387"><ele>132.5</ele><time>2026-03-22T14:19:05Z</time></trkpt><trkpt lat="44.33441737857675" lon="11.533714372202128"><ele>133.0</ele><time>2026-03-22T14:19:06Z</time></trkpt><trkpt lat="44.33430603631272" lon="11.533602392682615"><ele>133.0</ele><time>2026-03-22T14:19:07Z</time></trkpt><trkpt lat="44.33418878385033" lon="11.533498060766432"><ele>133.0</ele><time>2026-03-22T14:19:08Z</time></trkpt><trkpt lat="44.3340560389001" lon="11.533411825876259"><ele>133.0</ele><time>2026-03-22T14:19:09Z</time></trkpt><trkpt lat="44.3339164595996" lon="11.53333982595579"><ele>133.0</ele><time>2026-03-22T14:19:10Z</time></trkpt><trkpt lat="44.33377645497818" lon="11.533255222626785"><ele>131.5</ele><time>2026-03-22T14:19:11Z</time></trkpt><trkpt lat="44.33364234189428" lon="11.533196078217873"><ele>130.0</ele><time>2026-03-22T14:19:12Z</time></trkpt><trkpt lat="44.33351997902843" lon="11.533144902731133"><ele>128.5</ele><time>2026-03-22T14:19:13Z</time></trkpt><trkpt lat="44.333399808924646" lon="11.533102142898818"><ele>127.0</ele><time>2026-03-22T14:19:14Z</time></trkpt><trkpt lat="44.333286840582474" lon="11.533071617529327"><ele>127.0</ele><time>2026-03-22T14:19:15Z</time></trkpt><trkpt lat="44.33316227803516" lon="11.533066751840112"><ele>127.0</ele><time>2026-03-22T14:19:16Z</time></trkpt><trkpt lat="44.33302301244345" lon="11.533094278213524"><ele>127.0</ele><time>2026-03-22T14:19:17Z</time></trkpt><trkpt lat="44.33288093088731" lon="11.533125480101297"><ele>127.0</ele><time>2026-03-22T14:19:18Z</time></trkpt><trkpt lat="44.33273235255432" lon="11.533138603517228"><ele>127.66666666666667</ele><time>2026-03-22T14:19:19Z</time></trkpt><trkpt lat="44.33258156704348" lon="11.533095552138214"><ele>128.33333333333334</ele><time>2026-03-22T14:19:20Z</time></trkpt><trkpt lat="44.332438826101274" lon="11.533011506271949"><ele>129.0</ele><time>2026-03-22T14:19:21Z</time></trkpt><trkpt lat="44.33230846193245" lon="11.53291516750579"><ele>129.0</ele><time>2026-03-22T14:19:22Z</time></trkpt><trkpt lat="44.332199140478885" lon="11.532813434272201"><ele>129.0</ele><time>2026-03-22T14:19:23Z</time></trkpt><trkpt lat="44.33209403602418" lon="11.532725877724435"><ele>129.0</ele><time>2026-03-22T14:19:24Z</time></trkpt><trkpt lat="44.33199984397229" lon="11.532605554232282"><ele>129.0</ele><time>2026-03-22T14:19:25Z</time></trkpt><trkpt lat="44.331915378059506" lon="11.532501605224617"><ele>129.0</ele><time>2026-03-22T14:19:26Z</time></trkpt><trkpt lat="44.33183587781622" lon="11.532405365106241"><ele>129.0</ele><time>2026-03-22T14:19:27Z</time></trkpt><trkpt lat="44.33176701918707" lon="11.532320234600325"><ele>129.0</ele><time>2026-03-22T14:19:28Z</time></trkpt><trkpt lat="44.331699091615974" lon="11.532239096805004"><ele>129.0</ele><time>2026-03-22T14:19:29Z</time></trkpt><trkpt lat="44.33163388726151" lon="11.532143637860647"><ele>129.0</ele><time>2026-03-22T14:19:30Z</time></trkpt><trkpt lat="44.3315889148369" lon="11.53202184616836"><ele>129.5</ele><time>2026-03-22T14:19:31Z</time></trkpt><trkpt lat="44.33156005110324" lon="11.531870569307271"><ele>130.0</ele><time>2026-03-22T14:19:32Z</time></trkpt><trkpt lat="44.331555259710804" lon="11.531701641603334"><ele>130.5</ele><time>2026-03-22T14:19:33Z</time></trkpt><trkpt lat="44.331559188090715" lon="11.531523046021382"><ele>131.0</ele><time>2026-03-22T14:19:34Z</time></trkpt><trkpt lat="44.3315667738775" lon="11.531342124390301"><ele>131.25</ele><time>2026-03-22T14:19:35Z</time></trkpt><trkpt lat="44.33156780888224" lon="11.531167791340266"><ele>131.5</ele><time>2026-03-22T14:19:36Z</time></trkpt><trkpt lat="44.33156584396483" lon="11.53098492325345"><ele>131.75</ele><time>2026-03-22T14:19:37Z</time></trkpt><trkpt lat="44.33156701556348" lon="11.530771459208566"><ele>132.0</ele><time>2026-03-22T14:19:38Z</time></trkpt><trkpt lat="44.331566566554216" lon="11.530539131336264"><ele>132.0</ele><time>2026-03-22T14:19:39Z</time></trkpt><trkpt lat="44.33157154665152" lon="11.5303078237206"><ele>132.0</ele><time>2026-03-22T14:19:40Z</time></trkpt><trkpt lat="44.33157318144569" lon="11.530060960080709"><ele>132.0</ele><time>2026-03-22T14:19:41Z</time></trkpt><trkpt lat="44.33157666593638" lon="11.529814969971525"><ele>132.0</ele><time>2026-03-22T14:19:42Z</time></trkpt><trkpt lat="44.33157777759843" lon="11.529593379310844"><ele>132.0</ele><time>2026-03-22T14:19:43Z</time></trkpt><trkpt lat="44.3315783736095" lon="11.529386907232986"><ele>132.0</ele><time>2026-03-22T14:19:44Z</time></trkpt><trkpt lat="44.33158080056103" lon="11.529204773549058"><ele>132.0</ele><time>2026-03-22T14:19:45Z</time></trkpt><trkpt lat="44.331562313024044" lon="11.529018899014856"><ele>132.25</ele><time>2026-03-22T14:19:46Z</time></trkpt><trkpt lat="44.331521920537924" lon="11.528827415579649"><ele>132.5</ele><time>2026-03-22T14:19:47Z</time></trkpt><trkpt lat="44.33147707945207" lon="11.528628342727611"><ele>132.75</ele><time>2026-03-22T14:19:48Z</time></trkpt><trkpt lat="44.33142281132399" lon="11.528422737351264"><ele>133.0</ele><time>2026-03-22T14:19:49Z</time></trkpt><trkpt lat="44.33135688787686" lon="11.528217115364079"><ele>132.0</ele><time>2026-03-22T14:19:50Z</time></trkpt><trkpt lat="44.33128417518059" lon="11.52802247444231"><ele>131.0</ele><time>2026-03-22T14:19:51Z</time></trkpt><trkpt lat="44.3312007827906" lon="11.52784302379375"><ele>130.0</ele><time>2026-03-22T14:19:52Z</time></trkpt><trkpt lat="44.33110173898827" lon="11.52767607265213"><ele>130.0</ele><time>2026-03-22T14:19:53Z</time></trkpt><trkpt lat="44.330985064163436" lon="11.527507249139912"><ele>130.0</ele><time>2026-03-22T14:19:54Z</time></trkpt><trkpt lat="44.33086245159448" lon="11.527346478789319"><ele>130.0</ele><time>2026-03-22T14:19:55Z</time></trkpt><trkpt lat="44.330748006202086" lon="11.527203587706188"><ele>130.0</ele><time>2026-03-22T14:19:56Z</time></trkpt><trkpt lat="44.33064250033848" lon="11.52707712392738"><ele>130.0</ele><time>2026-03-22T14:19:57Z</time></trkpt><trkpt lat="44.33053974193578" lon="11.526955918421532"><ele>130.0</ele><time>2026-03-22T14:19:58Z</time></trkpt><trkpt lat="44.33043401184767" lon="11.526834989728346"><ele>130.0</ele><time>2026-03-22T14:19:59Z</time></trkpt><trkpt lat="44.330320453665266" lon="11.526709174874211"><ele>130.0</ele><time>2026-03-22T14:20:00Z</time></trkpt><trkpt lat="44.330200274187334" lon="11.526576386459482"><ele>130.0</ele><time>2026-03-22T14:20:01Z</time></trkpt><trkpt lat="44.33008503745727" lon="11.526433246534845"><ele>130.0</ele><time>2026-03-22T14:20:02Z</time></trkpt><trkpt lat="44.329980426094856" lon="11.526289095307922"><ele>130.75</ele><time>2026-03-22T14:20:03Z</time></trkpt><trkpt lat="44.32988762373758" lon="11.52614064702775"><ele>131.5</ele><time>2026-03-22T14:20:04Z</time></trkpt><trkpt lat="44.329808339213486" lon="11.525980585110961"><ele>132.25</ele><time>2026-03-22T14:20:05Z</time></trkpt><trkpt lat="44.32974557354285" lon="11.525805154115568"><ele>133.0</ele><time>2026-03-22T14:20:06Z</time></trkpt><trkpt lat="44.32969436870473" lon="11.525631800306996"><ele>133.0</ele><time>2026-03-22T14:20:07Z</time></trkpt><trkpt lat="44.329653016125114" lon="11.525475987907324"><ele>133.0</ele><time>2026-03-22T14:20:08Z</time></trkpt><trkpt lat="44.32961847009551" lon="11.525344747876806"><ele>133.0</ele><time>2026-03-22T14:20:09Z</time></trkpt><trkpt lat="44.32958478743905" lon="11.525227369421106"><ele>133.0</ele><time>2026-03-22T14:20:10Z</time></trkpt><trkpt lat="44.32954359163089" lon="11.525133218728135"><ele>133.0</ele><time>2026-03-22T14:20:11Z</time></trkpt><trkpt lat="44.329472197268416" lon="11.525051205104692"><ele>133.5</ele><time>2026-03-22T14:20:12Z</time></trkpt><trkpt lat="44.32937584426295" lon="11.524980660988184"><ele>134.0</ele><time>2026-03-22T14:20:13Z</time></trkpt><trkpt lat="44.329261850507386" lon="11.524933137351873"><ele>134.5</ele><time>2026-03-22T14:20:14Z</time></trkpt><trkpt lat="44.32913492540911" lon="11.524884791136106"><ele>135.0</ele><time>2026-03-22T14:20:15Z</time></trkpt><trkpt lat="44.329002783779" lon="11.52480769565494"><ele>135.75</ele><time>2026-03-22T14:20:16Z</time></trkpt><trkpt lat="44.32886272540317" lon="11.5247683896137"><ele>136.5</ele><time>2026-03-22T14:20:17Z</time></trkpt><trkpt lat="44.328723575588235" lon="11.524755879734025"><ele>137.25</ele><time>2026-03-22T14:20:18Z</time></trkpt><trkpt lat="44.32859581237038" lon="11.524752159815113"><ele>138.0</ele><time>2026-03-22T14:20:19Z</time></trkpt><trkpt lat="44.32847533136254" lon="11.524747868065907"><ele>138.0</ele><time>2026-03-22T14:20:20Z</time></trkpt><trkpt lat="44.32834561564162" lon="11.524708593377023"><ele>138.0</ele><time>2026-03-22T14:20:21Z</time></trkpt><trkpt lat="44.328204153075475" lon="11.52464589693013"><ele>138.0</ele><time>2026-03-22T14:20:22Z</time></trkpt><trkpt lat="44.328078825298995" lon="11.524550747124998"><ele>138.0</ele><time>2026-03-22T14:20:23Z</time></trkpt><trkpt lat="44.32795623538637" lon="11.524483676421628"><ele>140.75</ele><time>2026-03-22T14:20:24Z</time></trkpt><trkpt lat="44.32782297509518" lon="11.52442630268409"><ele>143.5</ele><time>2026-03-22T14:20:25Z</time></trkpt><trkpt lat="44.3276809371332" lon="11.524401699499576"><ele>146.25</ele><time>2026-03-22T14:20:26Z</time></trkpt><trkpt lat="44.327544118116776" lon="11.524385812641734"><ele>149.0</ele><time>2026-03-22T14:20:27Z</time></trkpt><trkpt lat="44.32741074278089" lon="11.524370724940576"><ele>149.0</ele><time>2026-03-22T14:20:28Z</time></trkpt><trkpt lat="44.327275063750115" lon="11.524355376628403"><ele>149.0</ele><time>2026-03-22T14:20:29Z</time></trkpt><trkpt lat="44.32712779876709" lon="11.524338717698491"><ele>149.0</ele><time>2026-03-22T14:20:30Z</time></trkpt><trkpt lat="44.32698118460026" lon="11.5243224982701"><ele>149.0</ele><time>2026-03-22T14:20:31Z</time></trkpt><trkpt lat="44.32683856062844" lon="11.52431253048664"><ele>149.0</ele><time>2026-03-22T14:20:32Z</time></trkpt><trkpt lat="44.32670250419266" lon="11.524317659943765"><ele>149.0</ele><time>2026-03-22T14:20:33Z</time></trkpt><trkpt lat="44.32656889635284" lon="11.524336892296247"><ele>149.0</ele><time>2026-03-22T14:20:34Z</time></trkpt><trkpt lat="44.326444816927115" lon="11.524359035032113"><ele>149.0</ele><time>2026-03-22T14:20:35Z</time></trkpt><trkpt lat="44.326334936772" lon="11.524381150642876"><ele>148.16666666666666</ele><time>2026-03-22T14:20:36Z</time></trkpt><trkpt lat="44.3262389357678" lon="11.524400472865679"><ele>147.33333333333331</ele><time>2026-03-22T14:20:37Z</time></trkpt><trkpt lat="44.326159052942856" lon="11.524416550857127"><ele>146.5</ele><time>2026-03-22T14:20:38Z</time></trkpt><trkpt lat="44.32607965127605" lon="11.524430779441824"><ele>145.66666666666666</ele><time>2026-03-22T14:20:39Z</time></trkpt><trkpt lat="44.32600693892801" lon="11.52443502151364"><ele>144.83333333333334</ele><time>2026-03-22T14:20:40Z</time></trkpt><trkpt lat="44.32592760519605" lon="11.524424881883283"><ele>144.0</ele><time>2026-03-22T14:20:41Z</time></trkpt><trkpt lat="44.32586669896904" lon="11.524348382672692"><ele>144.0</ele><time>2026-03-22T14:20:42Z</time></trkpt><trkpt lat="44.32583182121592" lon="11.524248817750934"><ele>144.0</ele><time>2026-03-22T14:20:43Z</time></trkpt><trkpt lat="44.32582660128022" lon="11.524116627566013"><ele>144.0</ele><time>2026-03-22T14:20:44Z</time></trkpt><trkpt lat="44.32585805994121" lon="11.523974213544312"><ele>144.0</ele><time>2026-03-22T14:20:45Z</time></trkpt><trkpt lat="44.32592905616693" lon="11.523838310896702"><ele>144.0</ele><time>2026-03-22T14:20:46Z</time></trkpt><trkpt lat="44.32601606167721" lon="11.523707127276268"><ele>143.25</ele><time>2026-03-22T14:20:47Z</time></trkpt><trkpt lat="44.326098767100156" lon="11.523583104741459"><ele>142.5</ele><time>2026-03-22T14:20:48Z</time></trkpt><trkpt lat="44.326179904453085" lon="11.523455073711"><ele>141.75</ele><time>2026-03-22T14:20:49Z</time></trkpt><trkpt lat="44.32627206681851" lon="11.523331335659117"><ele>141.0</ele><time>2026-03-22T14:20:50Z</time></trkpt><trkpt lat="44.32636985689618" lon="11.523229437600344"><ele>143.6</ele><time>2026-03-22T14:20:51Z</time></trkpt><trkpt lat="44.32645586049219" lon="11.5231487189333"><ele>146.2</ele><time>2026-03-22T14:20:52Z</time></trkpt><trkpt lat="44.3265209138712" lon="11.523059644649944"><ele>148.8</ele><time>2026-03-22T14:20:53Z</time></trkpt><trkpt lat="44.32656962732803" lon="11.522929696983146"><ele>151.4</ele><time>2026-03-22T14:20:54Z</time></trkpt><trkpt lat="44.32658869251437" lon="11.522766142400869"><ele>154.0</ele><time>2026-03-22T14:20:55Z</time></trkpt><trkpt lat="44.32657506619189" lon="11.522583551897677"><ele>154.0</ele><time>2026-03-22T14:20:56Z</time></trkpt><trkpt lat="44.32652205590445" lon="11.522419284875328"><ele>154.0</ele><time>2026-03-22T14:20:57Z</time></trkpt><trkpt lat="44.32645991559515" lon="11.522255183343079"><ele>154.0</ele><time>2026-03-22T14:20:58Z</time></trkpt><trkpt lat="44.32638284114046" lon="11.52210360583135"><ele>154.0</ele><time>2026-03-22T14:20:59Z</time></trkpt><trkpt lat="44.32629254959108" lon="11.521965469197143"><ele>151.0</ele><time>2026-03-22T14:21:00Z</time></trkpt><trkpt lat="44.3261816596953" lon="11.52183181810797"><ele>148.0</ele><time>2026-03-22T14:21:01Z</time></trkpt><trkpt lat="44.32606304995854" lon="11.521699212662147"><ele>145.0</ele><time>2026-03-22T14:21:02Z</time></trkpt><trkpt lat="44.32594731954305" lon="11.521562903887215"><ele>145.0</ele><time>2026-03-22T14:21:03Z</time></trkpt><trkpt lat="44.32584771305634" lon="11.52141372305706"><ele>145.0</ele><time>2026-03-22T14:21:04Z</time></trkpt><trkpt lat="44.325764062872246" lon="11.521248001845054"><ele>145.0</ele><time>2026-03-22T14:21:05Z</time></trkpt><trkpt lat="44.32568556126567" lon="11.521083413703135"><ele>145.0</ele><time>2026-03-22T14:21:06Z</time></trkpt><trkpt lat="44.325620514687564" lon="11.52093526859666"><ele>145.25</ele><time>2026-03-22T14:21:07Z</time></trkpt><trkpt lat="44.325557460977436" lon="11.520797028304779"><ele>145.5</ele><time>2026-03-22T14:21:08Z</time></trkpt><trkpt lat="44.325494069735015" lon="11.520654783209663"><ele>145.75</ele><time>2026-03-22T14:21:09Z</time></trkpt><trkpt lat="44.32542988287251" lon="11.520496872854704"><ele>146.0</ele><time>2026-03-22T14:21:10Z</time></trkpt><trkpt lat="44.32538079894332" lon="11.5203208482508"><ele>146.0</ele><time>2026-03-22T14:21:11Z</time></trkpt><trkpt lat="44.32534724908154" lon="11.520158823106213"><ele>146.0</ele><time>2026-03-22T14:21:12Z</time></trkpt><trkpt lat="44.325319949464834" lon="11.520005172684039"><ele>146.0</ele><time>2026-03-22T14:21:13Z</time></trkpt><trkpt lat="44.32528759744684" lon="11.519842484148333"><ele>146.0</ele><time>2026-03-22T14:21:14Z</time></trkpt><trkpt lat="44.325247095089075" lon="11.519675873962052"><ele>147.0</ele><time>2026-03-22T14:21:15Z</time></trkpt><trkpt lat="44.32517918948436" lon="11.519526112100095"><ele>148.0</ele><time>2026-03-22T14:21:16Z</time></trkpt><trkpt lat="44.32508851843441" lon="11.519389283437174"><ele>149.0</ele><time>2026-03-22T14:21:17Z</time></trkpt><trkpt lat="44.32497761604955" lon="11.519262943104756"><ele>150.0</ele><time>2026-03-22T14:21:18Z</time></trkpt><trkpt lat="44.32484684630071" lon="11.51915282493695"><ele>149.66666666666666</ele><time>2026-03-22T14:21:19Z</time></trkpt><trkpt lat="44.324701884674454" lon="11.519053142784806"><ele>149.33333333333331</ele><time>2026-03-22T14:21:20Z</time></trkpt><trkpt lat="44.324564681054895" lon="11.518951243384501"><ele>149.0</ele><time>2026-03-22T14:21:21Z</time></trkpt><trkpt lat="44.324450165530486" lon="11.518850367236567"><ele>149.0</ele><time>2026-03-22T14:21:22Z</time></trkpt><trkpt lat="44.32434218565092" lon="11.518750147212357"><ele>149.0</ele><time>2026-03-22T14:21:23Z</time></trkpt><trkpt lat="44.32422576773639" lon="11.518668513148985"><ele>149.0</ele><time>2026-03-22T14:21:24Z</time></trkpt><trkpt lat="44.324102511665046" lon="11.518605072744503"><ele>149.0</ele><time>2026-03-22T14:21:25Z</time></trkpt><trkpt lat="44.323985297752444" lon="11.518527737821401"><ele>151.5</ele><time>2026-03-22T14:21:26Z</time></trkpt><trkpt lat="44.32385468943571" lon="11.51849443302633"><ele>154.0</ele><time>2026-03-22T14:21:27Z</time></trkpt><trkpt lat="44.323714216684635" lon="11.518486607443135"><ele>156.5</ele><time>2026-03-22T14:21:28Z</time></trkpt><trkpt lat="44.3235663457824" lon="11.518522707917485"><ele>159.0</ele><time>2026-03-22T14:21:29Z</time></trkpt><trkpt lat="44.32343914866234" lon="11.518540275638925"><ele>159.0</ele><time>2026-03-22T14:21:30Z</time></trkpt><trkpt lat="44.32333271348426" lon="11.518535152983755"><ele>159.0</ele><time>2026-03-22T14:21:31Z</time></trkpt><trkpt lat="44.3232190340459" lon="11.518485654502618"><ele>159.0</ele><time>2026-03-22T14:21:32Z</time></trkpt><trkpt lat="44.32309661143449" lon="11.518408873031705"><ele>159.0</ele><time>2026-03-22T14:21:33Z</time></trkpt><trkpt lat="44.32299789276771" lon="11.518303783915817"><ele>159.0</ele><time>2026-03-22T14:21:34Z</time></trkpt><trkpt lat="44.32289116998576" lon="11.518233075467702"><ele>159.0</ele><time>2026-03-22T14:21:35Z</time></trkpt><trkpt lat="44.32277649795644" lon="11.518185859255887"><ele>159.0</ele><time>2026-03-22T14:21:36Z</time></trkpt><trkpt lat="44.32264771479683" lon="11.518172389650381"><ele>159.0</ele><time>2026-03-22T14:21:37Z</time></trkpt><trkpt lat="44.32251998804726" lon="11.518193399667126"><ele>159.0</ele><time>2026-03-22T14:21:38Z</time></trkpt><trkpt lat="44.32241307513804" lon="11.518206354711479"><ele>159.0</ele><time>2026-03-22T14:21:39Z</time></trkpt><trkpt lat="44.32232262296615" lon="11.518203720601552"><ele>159.0</ele><time>2026-03-22T14:21:40Z</time></trkpt><trkpt lat="44.32223141620955" lon="11.518188315351921"><ele>159.0</ele><time>2026-03-22T14:21:41Z</time></trkpt><trkpt lat="44.322149021358" lon="11.518084962344824"><ele>159.0</ele><time>2026-03-22T14:21:42Z</time></trkpt><trkpt lat="44.32208298813223" lon="11.517937854342332"><ele>158.75</ele><time>2026-03-22T14:21:43Z</time></trkpt><trkpt lat="44.322021795857744" lon="11.517772204743082"><ele>158.5</ele><time>2026-03-22T14:21:44Z</time></trkpt><trkpt lat="44.32196141788879" lon="11.517607602321002"><ele>158.25</ele><time>2026-03-22T14:21:45Z</time></trkpt><trkpt lat="44.3218976688012" lon="11.517447012486507"><ele>158.0</ele><time>2026-03-22T14:21:46Z</time></trkpt><trkpt lat="44.321828510934495" lon="11.517284240294373"><ele>158.0</ele><time>2026-03-22T14:21:47Z</time></trkpt><trkpt lat="44.321765003262385" lon="11.517146697704574"><ele>158.0</ele><time>2026-03-22T14:21:48Z</time></trkpt><trkpt lat="44.321704910788526" lon="11.517021825402518"><ele>158.0</ele><time>2026-03-22T14:21:49Z</time></trkpt><trkpt lat="44.321643681304934" lon="11.516880929298631"><ele>158.0</ele><time>2026-03-22T14:21:50Z</time></trkpt><trkpt lat="44.32159972454109" lon="11.516709454267227"><ele>159.0</ele><time>2026-03-22T14:21:51Z</time></trkpt><trkpt lat="44.32157014671643" lon="11.516516401326358"><ele>160.0</ele><time>2026-03-22T14:21:52Z</time></trkpt><trkpt lat="44.32154732172942" lon="11.516311062832987"><ele>161.0</ele><time>2026-03-22T14:21:53Z</time></trkpt><trkpt lat="44.32152055695857" lon="11.516115328131809"><ele>162.0</ele><time>2026-03-22T14:21:54Z</time></trkpt><trkpt lat="44.321498596509485" lon="11.515936119163257"><ele>162.33333333333334</ele><time>2026-03-22T14:21:55Z</time></trkpt><trkpt lat="44.32148256029421" lon="11.515743055874331"><ele>162.66666666666669</ele><time>2026-03-22T14:21:56Z</time></trkpt><trkpt lat="44.32148241711924" lon="11.515528745850462"><ele>163.0</ele><time>2026-03-22T14:21:57Z</time></trkpt><trkpt lat="44.32149036059846" lon="11.51530310406528"><ele>163.0</ele><time>2026-03-22T14:21:58Z</time></trkpt><trkpt lat="44.32150352261164" lon="11.515084113755254"><ele>163.0</ele><time>2026-03-22T14:21:59Z</time></trkpt><trkpt lat="44.32152912778527" lon="11.514861332103237"><ele>163.0</ele><time>2026-03-22T14:22:00Z</time></trkpt><trkpt lat="44.32155186952956" lon="11.514648227211838"><ele>162.5</ele><time>2026-03-22T14:22:01Z</time></trkpt><trkpt lat="44.32157384885844" lon="11.514449872416622"><ele>162.0</ele><time>2026-03-22T14:22:02Z</time></trkpt><trkpt lat="44.321584837981234" lon="11.51425152353415"><ele>161.5</ele><time>2026-03-22T14:22:03Z</time></trkpt><trkpt lat="44.3215916471227" lon="11.514071785481793"><ele>161.0</ele><time>2026-03-22T14:22:04Z</time></trkpt><trkpt lat="44.321597302448055" lon="11.5139017843806"><ele>160.5</ele><time>2026-03-22T14:22:05Z</time></trkpt><trkpt lat="44.321593248422246" lon="11.513727140068976"><ele>160.0</ele><time>2026-03-22T14:22:06Z</time></trkpt><trkpt lat="44.32159486788406" lon="11.513540872651713"><ele>159.5</ele><time>2026-03-22T14:22:07Z</time></trkpt><trkpt lat="44.321608523069365" lon="11.513346143115875"><ele>159.0</ele><time>2026-03-22T14:22:08Z</time></trkpt><trkpt lat="44.32165278040822" lon="11.513162636228273"><ele>159.0</ele><time>2026-03-22T14:22:09Z</time></trkpt><trkpt lat="44.321720352270745" lon="11.512993903516422"><ele>159.0</ele><time>2026-03-22T14:22:10Z</time></trkpt><trkpt lat="44.32178243271937" lon="11.512842924598699"><ele>159.0</ele><time>2026-03-22T14:22:11Z</time></trkpt><trkpt lat="44.321821701988306" lon="11.512693014716078"><ele>159.0</ele><time>2026-03-22T14:22:12Z</time></trkpt><trkpt lat="44.3218531648283" lon="11.512534520993462"><ele>158.8</ele><time>2026-03-22T14:22:13Z</time></trkpt><trkpt lat="44.32187923558805" lon="11.512388624309253"><ele>158.60000000000002</ele><time>2026-03-22T14:22:14Z</time></trkpt><trkpt lat="44.321885659295816" lon="11.51225147995525"><ele>158.4</ele><time>2026-03-22T14:22:15Z</time></trkpt><trkpt lat="44.32186579833405" lon="11.512095810219835"><ele>158.20000000000002</ele><time>2026-03-22T14:22:16Z</time></trkpt><trkpt lat="44.32181657764064" lon="11.511933977292426"><ele>158.0</ele><time>2026-03-22T14:22:17Z</time></trkpt><trkpt lat="44.32173651476155" lon="11.511782312169553"><ele>158.5</ele><time>2026-03-22T14:22:18Z</time></trkpt><trkpt lat="44.32162876904084" lon="11.51164579929892"><ele>159.0</ele><time>2026-03-22T14:22:19Z</time></trkpt><trkpt lat="44.321510804098224" lon="11.51151625476006"><ele>159.5</ele><time>2026-03-22T14:22:20Z</time></trkpt><trkpt lat="44.321400552450946" lon="11.511385159873479"><ele>160.0</ele><time>2026-03-22T14:22:21Z</time></trkpt><trkpt lat="44.32128621015438" lon="11.511244385830244"><ele>158.33333333333334</ele><time>2026-03-22T14:22:22Z</time></trkpt><trkpt lat="44.321154398732226" lon="11.511117995286313"><ele>156.66666666666666</ele><time>2026-03-22T14:22:23Z</time></trkpt><trkpt lat="44.32101214549505" lon="11.511007193755887"><ele>155.0</ele><time>2026-03-22T14:22:24Z</time></trkpt><trkpt lat="44.32087591088224" lon="11.51088537469542"><ele>155.0</ele><time>2026-03-22T14:22:25Z</time></trkpt><trkpt lat="44.32075848846677" lon="11.510738879816085"><ele>155.0</ele><time>2026-03-22T14:22:26Z</time></trkpt><trkpt lat="44.32065804592534" lon="11.510580300778729"><ele>155.0</ele><time>2026-03-22T14:22:27Z</time></trkpt><trkpt lat="44.3205720052535" lon="11.51043200945178"><ele>155.0</ele><time>2026-03-22T14:22:28Z</time></trkpt><trkpt lat="44.32047736809989" lon="11.510298845577797"><ele>154.0</ele><time>2026-03-22T14:22:29Z</time></trkpt><trkpt lat="44.32036344193334" lon="11.510167423855027"><ele>153.0</ele><time>2026-03-22T14:22:30Z</time></trkpt><trkpt lat="44.32025356291787" lon="11.510063806475689"><ele>152.0</ele><time>2026-03-22T14:22:31Z</time></trkpt><trkpt lat="44.3201710342653" lon="11.509967913526728"><ele>151.0</ele><time>2026-03-22T14:22:32Z</time></trkpt><trkpt lat="44.32011029784381" lon="11.509876073066835"><ele>151.0</ele><time>2026-03-22T14:22:33Z</time></trkpt><trkpt lat="44.32006424964617" lon="11.509774140744105"><ele>151.0</ele><time>2026-03-22T14:22:34Z</time></trkpt><trkpt lat="44.320035493831035" lon="11.509623058776228"><ele>151.0</ele><time>2026-03-22T14:22:35Z</time></trkpt><trkpt lat="44.32003147176365" lon="11.509454531429261"><ele>151.0</ele><time>2026-03-22T14:22:36Z</time></trkpt><trkpt lat="44.32007191881451" lon="11.50925729404708"><ele>151.5</ele><time>2026-03-22T14:22:37Z</time></trkpt><trkpt lat="44.32012120643482" lon="11.509097737304849"><ele>152.0</ele><time>2026-03-22T14:22:38Z</time></trkpt><trkpt lat="44.32015799281768" lon="11.508959558164642"><ele>152.5</ele><time>2026-03-22T14:22:39Z</time></trkpt><trkpt lat="44.320162741266444" lon="11.508802923450956"><ele>153.0</ele><time>2026-03-22T14:22:40Z</time></trkpt><trkpt lat="44.320135313380206" lon="11.508625353299628"><ele>153.0</ele><time>2026-03-22T14:22:41Z</time></trkpt><trkpt lat="44.32007726403753" lon="11.508444172301546"><ele>153.0</ele><time>2026-03-22T14:22:42Z</time></trkpt><trkpt lat="44.320037164019304" lon="11.508234067712616"><ele>153.0</ele><time>2026-03-22T14:22:43Z</time></trkpt><trkpt lat="44.32000304193872" lon="11.508041564647852"><ele>153.0</ele><time>2026-03-22T14:22:44Z</time></trkpt><trkpt lat="44.31997354856078" lon="11.507849872617903"><ele>154.33333333333334</ele><time>2026-03-22T14:22:45Z</time></trkpt><trkpt lat="44.31994382066692" lon="11.507649694485618"><ele>155.66666666666669</ele><time>2026-03-22T14:22:46Z</time></trkpt><trkpt lat="44.319906385684355" lon="11.507430430259003"><ele>157.0</ele><time>2026-03-22T14:22:47Z</time></trkpt><trkpt lat="44.3198654644069" lon="11.50719768693656"><ele>159.33333333333334</ele><time>2026-03-22T14:22:48Z</time></trkpt><trkpt lat="44.319827251910205" lon="11.506965302892176"><ele>161.66666666666666</ele><time>2026-03-22T14:22:49Z</time></trkpt><trkpt lat="44.31979219669536" lon="11.5067428177759"><ele>164.0</ele><time>2026-03-22T14:22:50Z</time></trkpt><trkpt lat="44.31975877015445" lon="11.506537426328851"><ele>160.5</ele><time>2026-03-22T14:22:51Z</time></trkpt><trkpt lat="44.31972628776971" lon="11.506343829844976"><ele>157.0</ele><time>2026-03-22T14:22:52Z</time></trkpt><trkpt lat="44.31969153108487" lon="11.506146983311314"><ele>153.5</ele><time>2026-03-22T14:22:53Z</time></trkpt><trkpt lat="44.319661789138394" lon="11.505953445866469"><ele>150.0</ele><time>2026-03-22T14:22:54Z</time></trkpt><trkpt lat="44.31963121351349" lon="11.505743333460453"><ele>150.0</ele><time>2026-03-22T14:22:55Z</time></trkpt><trkpt lat="44.31960037477145" lon="11.50552952182836"><ele>150.0</ele><time>2026-03-22T14:22:56Z</time></trkpt><trkpt lat="44.31956281456893" lon="11.505307657749334"><ele>150.0</ele><time>2026-03-22T14:22:57Z</time></trkpt><trkpt lat="44.3195217331176" lon="11.505084422058932"><ele>150.33333333333334</ele><time>2026-03-22T14:22:58Z</time></trkpt><trkpt lat="44.31948495834809" lon="11.50485057017969"><ele>150.66666666666669</ele><time>2026-03-22T14:22:59Z</time></trkpt><trkpt lat="44.31945423872995" lon="11.504625372599813"><ele>151.0</ele><time>2026-03-22T14:23:00Z</time></trkpt><trkpt lat="44.31942798718158" lon="11.504414969200898"><ele>151.25</ele><time>2026-03-22T14:23:01Z</time></trkpt><trkpt lat="44.319407206020934" lon="11.504229307083019"><ele>151.5</ele><time>2026-03-22T14:23:02Z</time></trkpt><trkpt lat="44.31938639489541" lon="11.504038920554748"><ele>151.75</ele><time>2026-03-22T14:23:03Z</time></trkpt><trkpt lat="44.31938023569109" lon="11.503842841936587"><ele>152.0</ele><time>2026-03-22T14:23:04Z</time></trkpt><trkpt lat="44.319389031344144" lon="11.503645530635335"><ele>152.5</ele><time>2026-03-22T14:23:05Z</time></trkpt><trkpt lat="44.31941317840569" lon="11.503446209831306"><ele>153.0</ele><time>2026-03-22T14:23:06Z</time></trkpt><trkpt lat="44.31945621931107" lon="11.503247765256505"><ele>153.5</ele><time>2026-03-22T14:23:07Z</time></trkpt><trkpt lat="44.31951147112254" lon="11.503053716394875"><ele>154.0</ele><time>2026-03-22T14:23:08Z</time></trkpt><trkpt lat="44.31957896151432" lon="11.502887942268902"><ele>154.0</ele><time>2026-03-22T14:23:09Z</time></trkpt><trkpt lat="44.31963719266333" lon="11.502745858386907"><ele>154.0</ele><time>2026-03-22T14:23:10Z</time></trkpt><trkpt lat="44.31969482599827" lon="11.50260768137797"><ele>154.0</ele><time>2026-03-22T14:23:11Z</time></trkpt><trkpt lat="44.31975297147601" lon="11.502454856757321"><ele>154.0</ele><time>2026-03-22T14:23:12Z</time></trkpt><trkpt lat="44.319798228436746" lon="11.502315813971384"><ele>155.5</ele><time>2026-03-22T14:23:13Z</time></trkpt><trkpt lat="44.31982371877517" lon="11.502163989249027"><ele>157.0</ele><time>2026-03-22T14:23:14Z</time></trkpt><trkpt lat="44.319834906477446" lon="11.501999338525902"><ele>158.5</ele><time>2026-03-22T14:23:15Z</time></trkpt><trkpt lat="44.319841871945336" lon="11.501825878947216"><ele>160.0</ele><time>2026-03-22T14:23:16Z</time></trkpt><trkpt lat="44.31984111567766" lon="11.501668374156615"><ele>160.0</ele><time>2026-03-22T14:23:17Z</time></trkpt><trkpt lat="44.31983169303042" lon="11.501529848255986"><ele>160.0</ele><time>2026-03-22T14:23:18Z</time></trkpt><trkpt lat="44.31982267541101" lon="11.501414100316833"><ele>160.0</ele><time>2026-03-22T14:23:19Z</time></trkpt><trkpt lat="44.319810993782376" lon="11.50130111209079"><ele>160.0</ele><time>2026-03-22T14:23:20Z</time></trkpt><trkpt lat="44.319808958798156" lon="11.501172138141946"><ele>160.0</ele><time>2026-03-22T14:23:21Z</time></trkpt><trkpt lat="44.31982040090285" lon="11.501029213046388"><ele>160.75</ele><time>2026-03-22T14:23:22Z</time></trkpt><trkpt lat="44.319837624459296" lon="11.500887136709343"><ele>161.5</ele><time>2026-03-22T14:23:23Z</time></trkpt><trkpt lat="44.31985358954061" lon="11.5007297648956"><ele>162.25</ele><time>2026-03-22T14:23:24Z</time></trkpt><trkpt lat="44.3198483442793" lon="11.500559453111514"><ele>163.0</ele><time>2026-03-22T14:23:25Z</time></trkpt><trkpt lat="44.31982648969198" lon="11.500404896713519"><ele>163.0</ele><time>2026-03-22T14:23:26Z</time></trkpt><trkpt lat="44.319797700936576" lon="11.500252388857104"><ele>163.0</ele><time>2026-03-22T14:23:27Z</time></trkpt><trkpt lat="44.319771768693066" lon="11.500090328308577"><ele>163.0</ele><time>2026-03-22T14:23:28Z</time></trkpt><trkpt lat="44.31975197493828" lon="11.49991380744195"><ele>163.0</ele><time>2026-03-22T14:23:29Z</time></trkpt><trkpt lat="44.31973865593867" lon="11.49973964703073"><ele>161.75</ele><time>2026-03-22T14:23:30Z</time></trkpt><trkpt lat="44.319718104623114" lon="11.499556408188099"><ele>160.5</ele><time>2026-03-22T14:23:31Z</time></trkpt><trkpt lat="44.31967065104317" lon="11.499364461441937"><ele>159.25</ele><time>2026-03-22T14:23:32Z</time></trkpt><trkpt lat="44.31959960661966" lon="11.499173488287536"><ele>158.0</ele><time>2026-03-22T14:23:33Z</time></trkpt><trkpt lat="44.31952255472617" lon="11.499019699550198"><ele>158.0</ele><time>2026-03-22T14:23:34Z</time></trkpt><trkpt lat="44.31944494742238" lon="11.498885734508713"><ele>158.0</ele><time>2026-03-22T14:23:35Z</time></trkpt><trkpt lat="44.319383405708315" lon="11.498750433528205"><ele>158.0</ele><time>2026-03-22T14:23:36Z</time></trkpt><trkpt lat="44.31933540990717" lon="11.498583352145877"><ele>158.0</ele><time>2026-03-22T14:23:37Z</time></trkpt><trkpt lat="44.31931030112931" lon="11.498396902409167"><ele>158.25</ele><time>2026-03-22T14:23:38Z</time></trkpt><trkpt lat="44.31930334013653" lon="11.498210656978806"><ele>158.5</ele><time>2026-03-22T14:23:39Z</time></trkpt><trkpt lat="44.319308237355806" lon="11.498022166195522"><ele>158.75</ele><time>2026-03-22T14:23:40Z</time></trkpt><trkpt lat="44.319326489163764" lon="11.497822325844718"><ele>159.0</ele><time>2026-03-22T14:23:41Z</time></trkpt><trkpt lat="44.3193531102067" lon="11.497602057485873"><ele>159.0</ele><time>2026-03-22T14:23:42Z</time></trkpt><trkpt lat="44.319397757243934" lon="11.497364594742006"><ele>159.0</ele><time>2026-03-22T14:23:43Z</time></trkpt><trkpt lat="44.31944640249138" lon="11.497124264187688"><ele>159.0</ele><time>2026-03-22T14:23:44Z</time></trkpt><trkpt lat="44.31949957404082" lon="11.49692039993652"><ele>159.0</ele><time>2026-03-22T14:23:45Z</time></trkpt><trkpt lat="44.31955029959001" lon="11.496727257218922"><ele>159.0</ele><time>2026-03-22T14:23:46Z</time></trkpt><trkpt lat="44.31959192407548" lon="11.496528908607978"><ele>159.0</ele><time>2026-03-22T14:23:47Z</time></trkpt><trkpt lat="44.31961368037682" lon="11.496319474060213"><ele>159.0</ele><time>2026-03-22T14:23:48Z</time></trkpt><trkpt lat="44.319613357649395" lon="11.496112434479171"><ele>159.25</ele><time>2026-03-22T14:23:49Z</time></trkpt><trkpt lat="44.31960343398161" lon="11.495911570466552"><ele>159.5</ele><time>2026-03-22T14:23:50Z</time></trkpt><trkpt lat="44.319589817685866" lon="11.495713627621326"><ele>159.75</ele><time>2026-03-22T14:23:51Z</time></trkpt><trkpt lat="44.319578754313525" lon="11.495511466051735"><ele>160.0</ele><time>2026-03-22T14:23:52Z</time></trkpt><trkpt lat="44.319585205488664" lon="11.495318048942906"><ele>160.33333333333334</ele><time>2026-03-22T14:23:53Z</time></trkpt><trkpt lat="44.31961736598399" lon="11.495113864279109"><ele>160.66666666666666</ele><time>2026-03-22T14:23:54Z</time></trkpt><trkpt lat="44.31966914184571" lon="11.494892737058752"><ele>161.0</ele><time>2026-03-22T14:23:55Z</time></trkpt><trkpt lat="44.31972029279566" lon="11.494699256856858"><ele>163.0</ele><time>2026-03-22T14:23:56Z</time></trkpt><trkpt lat="44.319767138924455" lon="11.49453297893153"><ele>165.0</ele><time>2026-03-22T14:23:57Z</time></trkpt><trkpt lat="44.31981673776326" lon="11.494376066338686"><ele>167.0</ele><time>2026-03-22T14:23:58Z</time></trkpt><trkpt lat="44.31985587693792" lon="11.494228315509185"><ele>169.0</ele><time>2026-03-22T14:23:59Z</time></trkpt><trkpt lat="44.31987989170401" lon="11.494072272455952"><ele>169.0</ele><time>2026-03-22T14:24:00Z</time></trkpt><trkpt lat="44.31988619950135" lon="11.493903087206323"><ele>169.0</ele><time>2026-03-22T14:24:01Z</time></trkpt><trkpt lat="44.319878173300175" lon="11.49373260421415"><ele>169.0</ele><time>2026-03-22T14:24:02Z</time></trkpt><trkpt lat="44.31984003270513" lon="11.493564315280835"><ele>169.0</ele><time>2026-03-22T14:24:03Z</time></trkpt><trkpt lat="44.31977803109165" lon="11.493396185482352"><ele>168.5</ele><time>2026-03-22T14:24:04Z</time></trkpt><trkpt lat="44.31970237996931" lon="11.493228336914836"><ele>168.0</ele><time>2026-03-22T14:24:05Z</time></trkpt><trkpt lat="44.31962890962784" lon="11.493069206493749"><ele>167.5</ele><time>2026-03-22T14:24:06Z</time></trkpt><trkpt lat="44.319564597338875" lon="11.492905548491963"><ele>167.0</ele><time>2026-03-22T14:24:07Z</time></trkpt><trkpt lat="44.31951541964655" lon="11.492728800981098"><ele>168.75</ele><time>2026-03-22T14:24:08Z</time></trkpt><trkpt lat="44.31947589433598" lon="11.492553823186912"><ele>170.5</ele><time>2026-03-22T14:24:09Z</time></trkpt><trkpt lat="44.319444868828334" lon="11.492399464673483"><ele>172.25</ele><time>2026-03-22T14:24:10Z</time></trkpt><trkpt lat="44.3194154722824" lon="11.492242239203598"><ele>174.0</ele><time>2026-03-22T14:24:11Z</time></trkpt><trkpt lat="44.31938714650753" lon="11.492091393546687"><ele>173.25</ele><time>2026-03-22T14:24:12Z</time></trkpt><trkpt lat="44.31939710895745" lon="11.491894421191619"><ele>172.5</ele><time>2026-03-22T14:24:13Z</time></trkpt><trkpt lat="44.31939605682981" lon="11.49169090220226"><ele>171.75</ele><time>2026-03-22T14:24:14Z</time></trkpt><trkpt lat="44.31940449165703" lon="11.491486361862673"><ele>171.0</ele><time>2026-03-22T14:24:15Z</time></trkpt><trkpt lat="44.31942643147115" lon="11.491264745531316"><ele>169.33333333333334</ele><time>2026-03-22T14:24:16Z</time></trkpt><trkpt lat="44.319463784570075" lon="11.491030959675818"><ele>167.66666666666669</ele><time>2026-03-22T14:24:17Z</time></trkpt><trkpt lat="44.319508422319714" lon="11.490796759455238"><ele>166.0</ele><time>2026-03-22T14:24:18Z</time></trkpt><trkpt lat="44.31954065748545" lon="11.49056444261689"><ele>166.0</ele><time>2026-03-22T14:24:19Z</time></trkpt><trkpt lat="44.31955730365591" lon="11.49033730678763"><ele>166.0</ele><time>2026-03-22T14:24:20Z</time></trkpt><trkpt lat="44.31955654560278" lon="11.490133177375588"><ele>166.0</ele><time>2026-03-22T14:24:21Z</time></trkpt><trkpt lat="44.31955163708836" lon="11.489947440069768"><ele>166.0</ele><time>2026-03-22T14:24:22Z</time></trkpt><trkpt lat="44.31954330043077" lon="11.489769267681696"><ele>166.5</ele><time>2026-03-22T14:24:23Z</time></trkpt><trkpt lat="44.31954184015611" lon="11.489586747549765"><ele>167.0</ele><time>2026-03-22T14:24:24Z</time></trkpt><trkpt lat="44.31955255849139" lon="11.489402390704745"><ele>167.5</ele><time>2026-03-22T14:24:25Z</time></trkpt><trkpt lat="44.31957299812251" lon="11.489216559528833"><ele>168.0</ele><time>2026-03-22T14:24:26Z</time></trkpt><trkpt lat="44.3196206653039" lon="11.489028748644998"><ele>168.0</ele><time>2026-03-22T14:24:27Z</time></trkpt><trkpt lat="44.31968728801398" lon="11.488842246066245"><ele>168.0</ele><time>2026-03-22T14:24:28Z</time></trkpt><trkpt lat="44.31975093587234" lon="11.488652763352748"><ele>168.0</ele><time>2026-03-22T14:24:29Z</time></trkpt><trkpt lat="44.319791199428636" lon="11.488461169585273"><ele>168.0</ele><time>2026-03-22T14:24:30Z</time></trkpt><trkpt lat="44.31980760638054" lon="11.488256928116256"><ele>170.5</ele><time>2026-03-22T14:24:31Z</time></trkpt><trkpt lat="44.31981031883892" lon="11.488046531317908"><ele>173.0</ele><time>2026-03-22T14:24:32Z</time></trkpt><trkpt lat="44.31979761420509" lon="11.487831911623402"><ele>175.5</ele><time>2026-03-22T14:24:33Z</time></trkpt><trkpt lat="44.31978751882887" lon="11.487635466473725"><ele>178.0</ele><time>2026-03-22T14:24:34Z</time></trkpt><trkpt lat="44.3197845556197" lon="11.487457889344336"><ele>177.8</ele><time>2026-03-22T14:24:35Z</time></trkpt><trkpt lat="44.31978406154003" lon="11.48730328239299"><ele>177.60000000000002</ele><time>2026-03-22T14:24:36Z</time></trkpt><trkpt lat="44.31978990818567" lon="11.487153828041045"><ele>177.39999999999998</ele><time>2026-03-22T14:24:37Z</time></trkpt><trkpt lat="44.3198107334311" lon="11.487008629227427"><ele>177.2</ele><time>2026-03-22T14:24:38Z</time></trkpt><trkpt lat="44.3198528555948" lon="11.48686855090072"><ele>177.0</ele><time>2026-03-22T14:24:39Z</time></trkpt><trkpt lat="44.31991978687847" lon="11.486731637071633"><ele>177.0</ele><time>2026-03-22T14:24:40Z</time></trkpt><trkpt lat="44.32000222860545" lon="11.48660074649726"><ele>177.0</ele><time>2026-03-22T14:24:41Z</time></trkpt><trkpt lat="44.32008599999829" lon="11.486495345872653"><ele>177.0</ele><time>2026-03-22T14:24:42Z</time></trkpt><trkpt lat="44.320153983892396" lon="11.486402070945813"><ele>177.0</ele><time>2026-03-22T14:24:43Z</time></trkpt><trkpt lat="44.32020915495863" lon="11.486287272585898"><ele>177.0</ele><time>2026-03-22T14:24:44Z</time></trkpt><trkpt lat="44.320252763388794" lon="11.48613946843464"><ele>176.25</ele><time>2026-03-22T14:24:45Z</time></trkpt><trkpt lat="44.320277539792805" lon="11.485978119623457"><ele>175.5</ele><time>2026-03-22T14:24:46Z</time></trkpt><trkpt lat="44.32028786614422" lon="11.485802494529258"><ele>174.75</ele><time>2026-03-22T14:24:47Z</time></trkpt><trkpt lat="44.32028665638708" lon="11.485629576901559"><ele>174.0</ele><time>2026-03-22T14:24:48Z</time></trkpt><trkpt lat="44.320281288673634" lon="11.48546074516815"><ele>173.75</ele><time>2026-03-22T14:24:49Z</time></trkpt><trkpt lat="44.32028069025924" lon="11.485298543108733"><ele>173.5</ele><time>2026-03-22T14:24:50Z</time></trkpt><trkpt lat="44.32027793996013" lon="11.485129960825661"><ele>173.25</ele><time>2026-03-22T14:24:51Z</time></trkpt><trkpt lat="44.32027822577114" lon="11.484946504080217"><ele>173.0</ele><time>2026-03-22T14:24:52Z</time></trkpt><trkpt lat="44.32028097626202" lon="11.484749622576318"><ele>172.75</ele><time>2026-03-22T14:24:53Z</time></trkpt><trkpt lat="44.320288003143325" lon="11.48455751950331"><ele>172.5</ele><time>2026-03-22T14:24:54Z</time></trkpt><trkpt lat="44.320290612788405" lon="11.484377988213403"><ele>172.25</ele><time>2026-03-22T14:24:55Z</time></trkpt><trkpt lat="44.32029115179074" lon="11.484210702397895"><ele>172.0</ele><time>2026-03-22T14:24:56Z</time></trkpt><trkpt lat="44.32028314731408" lon="11.48404584288909"><ele>172.0</ele><time>2026-03-22T14:24:57Z</time></trkpt><trkpt lat="44.32027185884703" lon="11.483885376314841"><ele>172.0</ele><time>2026-03-22T14:24:58Z</time></trkpt><trkpt lat="44.320253258623765" lon="11.483721984679677"><ele>172.0</ele><time>2026-03-22T14:24:59Z</time></trkpt><trkpt lat="44.32022156214672" lon="11.483555762629097"><ele>172.0</ele><time>2026-03-22T14:25:00Z</time></trkpt><trkpt lat="44.32017847431796" lon="11.483389260709423"><ele>173.0</ele><time>2026-03-22T14:25:01Z</time></trkpt><trkpt lat="44.32011879179276" lon="11.483215050073335"><ele>174.0</ele><time>2026-03-22T14:25:02Z</time></trkpt><trkpt lat="44.320060498529976" lon="11.483035823831926"><ele>175.0</ele><time>2026-03-22T14:25:03Z</time></trkpt><trkpt lat="44.31998721084501" lon="11.48285649893174"><ele>176.0</ele><time>2026-03-22T14:25:04Z</time></trkpt><trkpt lat="44.319906558689574" lon="11.482673798201365"><ele>175.75</ele><time>2026-03-22T14:25:05Z</time></trkpt><trkpt lat="44.31982367594831" lon="11.482493799912735"><ele>175.5</ele><time>2026-03-22T14:25:06Z</time></trkpt><trkpt lat="44.31974686308986" lon="11.482328659692103"><ele>175.25</ele><time>2026-03-22T14:25:07Z</time></trkpt><trkpt lat="44.31967818360452" lon="11.482178781789736"><ele>175.0</ele><time>2026-03-22T14:25:08Z</time></trkpt><trkpt lat="44.3196128644015" lon="11.482038299986948"><ele>175.0</ele><time>2026-03-22T14:25:09Z</time></trkpt><trkpt lat="44.31954278378599" lon="11.481892637088668"><ele>175.0</ele><time>2026-03-22T14:25:10Z</time></trkpt><trkpt lat="44.31946587757375" lon="11.481737185614058"><ele>175.0</ele><time>2026-03-22T14:25:11Z</time></trkpt><trkpt lat="44.31939085876128" lon="11.48158267199631"><ele>175.0</ele><time>2026-03-22T14:25:12Z</time></trkpt><trkpt lat="44.31931780887084" lon="11.481429574391191"><ele>175.0</ele><time>2026-03-22T14:25:13Z</time></trkpt><trkpt lat="44.319242368548736" lon="11.481275446562346"><ele>175.0</ele><time>2026-03-22T14:25:14Z</time></trkpt><trkpt lat="44.31916074451105" lon="11.481124149257315"><ele>175.0</ele><time>2026-03-22T14:25:15Z</time></trkpt><trkpt lat="44.31907869923986" lon="11.480976416390128"><ele>175.0</ele><time>2026-03-22T14:25:16Z</time></trkpt><trkpt lat="44.31899779540399" lon="11.480832712019952"><ele>175.25</ele><time>2026-03-22T14:25:17Z</time></trkpt><trkpt lat="44.31891163816053" lon="11.480690489797295"><ele>175.5</ele><time>2026-03-22T14:25:18Z</time></trkpt><trkpt lat="44.318818848249535" lon="11.480552476993692"><ele>175.75</ele><time>2026-03-22T14:25:19Z</time></trkpt><trkpt lat="44.31871543318865" lon="11.480428144861428"><ele>176.0</ele><time>2026-03-22T14:25:20Z</time></trkpt><trkpt lat="44.31860309380578" lon="11.48031165916078"><ele>177.0</ele><time>2026-03-22T14:25:21Z</time></trkpt><trkpt lat="44.31849636036798" lon="11.480210577318449"><ele>178.0</ele><time>2026-03-22T14:25:22Z</time></trkpt><trkpt lat="44.31839488689344" lon="11.4801290064053"><ele>179.0</ele><time>2026-03-22T14:25:23Z</time></trkpt><trkpt lat="44.31829612756999" lon="11.48005692946237"><ele>180.0</ele><time>2026-03-22T14:25:24Z</time></trkpt><trkpt lat="44.31819569132347" lon="11.479969672284485"><ele>180.0</ele><time>2026-03-22T14:25:25Z</time></trkpt><trkpt lat="44.31809999678902" lon="11.479863591856947"><ele>180.0</ele><time>2026-03-22T14:25:26Z</time></trkpt><trkpt lat="44.31801470050323" lon="11.479743266862567"><ele>180.0</ele><time>2026-03-22T14:25:27Z</time></trkpt><trkpt lat="44.317941810687856" lon="11.479598391379737"><ele>180.0</ele><time>2026-03-22T14:25:28Z</time></trkpt><trkpt lat="44.317884220679986" lon="11.479438256895135"><ele>178.75</ele><time>2026-03-22T14:25:29Z</time></trkpt><trkpt lat="44.31781844614727" lon="11.47928759234295"><ele>177.5</ele><time>2026-03-22T14:25:30Z</time></trkpt><trkpt lat="44.31772486910639" lon="11.479152652113465"><ele>176.25</ele><time>2026-03-22T14:25:31Z</time></trkpt><trkpt lat="44.317619074240554" lon="11.479033607887837"><ele>175.0</ele><time>2026-03-22T14:25:32Z</time></trkpt><trkpt lat="44.317513758098706" lon="11.478929715004437"><ele>175.0</ele><time>2026-03-22T14:25:33Z</time></trkpt><trkpt lat="44.31740577059181" lon="11.478840855327372"><ele>175.0</ele><time>2026-03-22T14:25:34Z</time></trkpt><trkpt lat="44.31730222016955" lon="11.478742527452287"><ele>175.0</ele><time>2026-03-22T14:25:35Z</time></trkpt><trkpt lat="44.31720619482619" lon="11.478630063150494"><ele>175.0</ele><time>2026-03-22T14:25:36Z</time></trkpt><trkpt lat="44.31711119745326" lon="11.47851592455731"><ele>175.25</ele><time>2026-03-22T14:25:37Z</time></trkpt><trkpt lat="44.3170217111786" lon="11.478387717731891"><ele>175.5</ele><time>2026-03-22T14:25:38Z</time></trkpt><trkpt lat="44.31694378670014" lon="11.478242042695728"><ele>175.75</ele><time>2026-03-22T14:25:39Z</time></trkpt><trkpt lat="44.31689380990715" lon="11.478089863704456"><ele>176.0</ele><time>2026-03-22T14:25:40Z</time></trkpt><trkpt lat="44.31685257641327" lon="11.477946111300595"><ele>177.25</ele><time>2026-03-22T14:25:41Z</time></trkpt><trkpt lat="44.316804073293" lon="11.47780737548132"><ele>178.5</ele><time>2026-03-22T14:25:42Z</time></trkpt><trkpt lat="44.31673756839228" lon="11.477670374268252"><ele>179.75</ele><time>2026-03-22T14:25:43Z</time></trkpt><trkpt lat="44.31665451128986" lon="11.477544969124141"><ele>181.0</ele><time>2026-03-22T14:25:44Z</time></trkpt><trkpt lat="44.31654540957024" lon="11.477441048129618"><ele>181.0</ele><time>2026-03-22T14:25:45Z</time></trkpt><trkpt lat="44.31642945913735" lon="11.477352160152918"><ele>181.0</ele><time>2026-03-22T14:25:46Z</time></trkpt><trkpt lat="44.31632335924737" lon="11.477243901358424"><ele>181.0</ele><time>2026-03-22T14:25:47Z</time></trkpt><trkpt lat="44.31621442740983" lon="11.477185822877846"><ele>181.0</ele><time>2026-03-22T14:25:48Z</time></trkpt><trkpt lat="44.316124927603425" lon="11.477095163128798"><ele>180.75</ele><time>2026-03-22T14:25:49Z</time></trkpt><trkpt lat="44.31603872607146" lon="11.476984730342878"><ele>180.5</ele><time>2026-03-22T14:25:50Z</time></trkpt><trkpt lat="44.31596509589908" lon="11.476846191843924"><ele>180.25</ele><time>2026-03-22T14:25:51Z</time></trkpt><trkpt lat="44.31589770882548" lon="11.476685813788514"><ele>180.0</ele><time>2026-03-22T14:25:52Z</time></trkpt><trkpt lat="44.31583322219028" lon="11.476511071396232"><ele>180.0</ele><time>2026-03-22T14:25:53Z</time></trkpt><trkpt lat="44.31576582927224" lon="11.476325293327196"><ele>180.0</ele><time>2026-03-22T14:25:54Z</time></trkpt><trkpt lat="44.315683883224104" lon="11.4761199622699"><ele>180.0</ele><time>2026-03-22T14:25:55Z</time></trkpt><trkpt lat="44.31560103703481" lon="11.47592423649155"><ele>179.25</ele><time>2026-03-22T14:25:56Z</time></trkpt><trkpt lat="44.31553579376341" lon="11.475755941162488"><ele>178.5</ele><time>2026-03-22T14:25:57Z</time></trkpt><trkpt lat="44.3154819970265" lon="11.475598387516298"><ele>177.75</ele><time>2026-03-22T14:25:58Z</time></trkpt><trkpt lat="44.315428212479496" lon="11.475445625758105"><ele>177.0</ele><time>2026-03-22T14:25:59Z</time></trkpt><trkpt lat="44.315372731099586" lon="11.475280061640394"><ele>177.0</ele><time>2026-03-22T14:26:00Z</time></trkpt><trkpt lat="44.31532534584342" lon="11.475098249244796"><ele>177.0</ele><time>2026-03-22T14:26:01Z</time></trkpt><trkpt lat="44.31528099364596" lon="11.474903284482693"><ele>177.0</ele><time>2026-03-22T14:26:02Z</time></trkpt><trkpt lat="44.315238446588936" lon="11.474706352187466"><ele>177.0</ele><time>2026-03-22T14:26:03Z</time></trkpt><trkpt lat="44.31518943678101" lon="11.474515148193637"><ele>178.5</ele><time>2026-03-22T14:26:04Z</time></trkpt><trkpt lat="44.31514086293801" lon="11.474320499602065"><ele>180.0</ele><time>2026-03-22T14:26:05Z</time></trkpt><trkpt lat="44.31509964020794" lon="11.474123369837947"><ele>181.5</ele><time>2026-03-22T14:26:06Z</time></trkpt><trkpt lat="44.31507206608673" lon="11.473934656103149"><ele>183.0</ele><time>2026-03-22T14:26:07Z</time></trkpt><trkpt lat="44.31505657318967" lon="11.473750803685668"><ele>184.0</ele><time>2026-03-22T14:26:08Z</time></trkpt><trkpt lat="44.315045182350005" lon="11.473564950219078"><ele>185.0</ele><time>2026-03-22T14:26:09Z</time></trkpt><trkpt lat="44.315030207989295" lon="11.473382678232504"><ele>186.0</ele><time>2026-03-22T14:26:10Z</time></trkpt><trkpt lat="44.31501043268092" lon="11.473207008021907"><ele>187.0</ele><time>2026-03-22T14:26:11Z</time></trkpt><trkpt lat="44.31498297144823" lon="11.473029284224165"><ele>187.25</ele><time>2026-03-22T14:26:12Z</time></trkpt><trkpt lat="44.314938426267325" lon="11.472848446723578"><ele>187.5</ele><time>2026-03-22T14:26:13Z</time></trkpt><trkpt lat="44.3148736601976" lon="11.472678845364737"><ele>187.75</ele><time>2026-03-22T14:26:14Z</time></trkpt><trkpt lat="44.31480833657154" lon="11.472534866782652"><ele>188.0</ele><time>2026-03-22T14:26:15Z</time></trkpt><trkpt lat="44.31474818867981" lon="11.472405168602544"><ele>188.25</ele><time>2026-03-22T14:26:16Z</time></trkpt><trkpt lat="44.31472509473542" lon="11.472252193560022"><ele>188.5</ele><time>2026-03-22T14:26:17Z</time></trkpt><trkpt lat="44.31471905184616" lon="11.472075163897017"><ele>188.75</ele><time>2026-03-22T14:26:18Z</time></trkpt><trkpt lat="44.31474050951961" lon="11.471888098353988"><ele>189.0</ele><time>2026-03-22T14:26:19Z</time></trkpt><trkpt lat="44.314773669327764" lon="11.471688001453689"><ele>189.0</ele><time>2026-03-22T14:26:20Z</time></trkpt><trkpt lat="44.31481364190256" lon="11.471490621392514"><ele>189.0</ele><time>2026-03-22T14:26:21Z</time></trkpt><trkpt lat="44.31486120349243" lon="11.471302104621588"><ele>189.0</ele><time>2026-03-22T14:26:22Z</time></trkpt><trkpt lat="44.31491415761368" lon="11.471094897132929"><ele>189.0</ele><time>2026-03-22T14:26:23Z</time></trkpt><trkpt lat="44.31496704998388" lon="11.470875453245629"><ele>189.0</ele><time>2026-03-22T14:26:24Z</time></trkpt><trkpt lat="44.31502382834603" lon="11.470644988924343"><ele>189.0</ele><time>2026-03-22T14:26:25Z</time></trkpt><trkpt lat="44.315073886591314" lon="11.470430925833261"><ele>189.0</ele><time>2026-03-22T14:26:26Z</time></trkpt><trkpt lat="44.31512035462135" lon="11.470242478512494"><ele>188.25</ele><time>2026-03-22T14:26:27Z</time></trkpt><trkpt lat="44.315163514608344" lon="11.470053289511734"><ele>187.5</ele><time>2026-03-22T14:26:28Z</time></trkpt><trkpt lat="44.31520937005105" lon="11.469865481125705"><ele>186.75</ele><time>2026-03-22T14:26:29Z</time></trkpt><trkpt lat="44.31525918210191" lon="11.469686734983236"><ele>186.0</ele><time>2026-03-22T14:26:30Z</time></trkpt><trkpt lat="44.31530721106799" lon="11.469521488444498"><ele>185.25</ele><time>2026-03-22T14:26:31Z</time></trkpt><trkpt lat="44.315350424663656" lon="11.469365957657155"><ele>184.5</ele><time>2026-03-22T14:26:32Z</time></trkpt><trkpt lat="44.31538986019085" lon="11.469218368657511"><ele>183.75</ele><time>2026-03-22T14:26:33Z</time></trkpt><trkpt lat="44.3154336191282" lon="11.46907009353122"><ele>183.0</ele><time>2026-03-22T14:26:34Z</time></trkpt><trkpt lat="44.31547812291532" lon="11.468925094688892"><ele>183.0</ele><time>2026-03-22T14:26:35Z</time></trkpt><trkpt lat="44.315521905683575" lon="11.468776310413595"><ele>183.0</ele><time>2026-03-22T14:26:36Z</time></trkpt><trkpt lat="44.31556949993204" lon="11.468632568920606"><ele>183.0</ele><time>2026-03-22T14:26:37Z</time></trkpt><trkpt lat="44.3156174744574" lon="11.468488562027607"><ele>183.0</ele><time>2026-03-22T14:26:38Z</time></trkpt><trkpt lat="44.31565841046158" lon="11.4683548530379"><ele>183.0</ele><time>2026-03-22T14:26:39Z</time></trkpt><trkpt lat="44.3156968224701" lon="11.468231988506245"><ele>183.60000000000002</ele><time>2026-03-22T14:26:40Z</time></trkpt><trkpt lat="44.31572532920446" lon="11.468118633155136"><ele>184.20000000000002</ele><time>2026-03-22T14:26:41Z</time></trkpt><trkpt lat="44.31573316400142" lon="11.467982928647551"><ele>184.8</ele><time>2026-03-22T14:26:42Z</time></trkpt><trkpt lat="44.315714461029835" lon="11.467836690494769"><ele>185.4</ele><time>2026-03-22T14:26:43Z</time></trkpt><trkpt lat="44.31567360758678" lon="11.467677842736776"><ele>186.0</ele><time>2026-03-22T14:26:44Z</time></trkpt><trkpt lat="44.3156098808877" lon="11.467516058324835"><ele>185.25</ele><time>2026-03-22T14:26:45Z</time></trkpt><trkpt lat="44.31555825139052" lon="11.467362067908443"><ele>184.5</ele><time>2026-03-22T14:26:46Z</time></trkpt><trkpt lat="44.31551357054576" lon="11.467206312098872"><ele>183.75</ele><time>2026-03-22T14:26:47Z</time></trkpt><trkpt lat="44.3154958335535" lon="11.467027055620504"><ele>183.0</ele><time>2026-03-22T14:26:48Z</time></trkpt><trkpt lat="44.315512444598404" lon="11.466829134039578"><ele>183.0</ele><time>2026-03-22T14:26:49Z</time></trkpt><trkpt lat="44.31554104730645" lon="11.46664568597998"><ele>183.0</ele><time>2026-03-22T14:26:50Z</time></trkpt><trkpt lat="44.3155516785575" lon="11.466488439811052"><ele>183.0</ele><time>2026-03-22T14:26:51Z</time></trkpt><trkpt lat="44.31555137755496" lon="11.466341417776928"><ele>183.0</ele><time>2026-03-22T14:26:52Z</time></trkpt><trkpt lat="44.315535710585124" lon="11.466188516566609"><ele>183.5</ele><time>2026-03-22T14:26:53Z</time></trkpt><trkpt lat="44.31550388246494" lon="11.466034775856246"><ele>184.0</ele><time>2026-03-22T14:26:54Z</time></trkpt><trkpt lat="44.315441884446905" lon="11.465888952334135"><ele>184.5</ele><time>2026-03-22T14:26:55Z</time></trkpt><trkpt lat="44.315355264528684" lon="11.465742704911696"><ele>185.0</ele><time>2026-03-22T14:26:56Z</time></trkpt><trkpt lat="44.31525744974818" lon="11.465609692368876"><ele>185.0</ele><time>2026-03-22T14:26:57Z</time></trkpt><trkpt lat="44.315165729332854" lon="11.465487928200059"><ele>185.0</ele><time>2026-03-22T14:26:58Z</time></trkpt><trkpt lat="44.31507162187055" lon="11.465357408915796"><ele>185.0</ele><time>2026-03-22T14:26:59Z</time></trkpt><trkpt lat="44.314964913294176" lon="11.465220494510579"><ele>185.0</ele><time>2026-03-22T14:27:00Z</time></trkpt><trkpt lat="44.31484438753005" lon="11.465091227529118"><ele>185.0</ele><time>2026-03-22T14:27:01Z</time></trkpt><trkpt lat="44.3147089037539" lon="11.464974694504175"><ele>185.0</ele><time>2026-03-22T14:27:02Z</time></trkpt><trkpt lat="44.314552969339424" lon="11.464847302760656"><ele>185.0</ele><time>2026-03-22T14:27:03Z</time></trkpt><trkpt lat="44.314370396031514" lon="11.464706417380297"><ele>187.0</ele><time>2026-03-22T14:27:04Z</time></trkpt><trkpt lat="44.31421116993055" lon="11.46455755090192"><ele>189.0</ele><time>2026-03-22T14:27:05Z</time></trkpt><trkpt lat="44.31406044879814" lon="11.464465763491285"><ele>191.0</ele><time>2026-03-22T14:27:06Z</time></trkpt><trkpt lat="44.31393874925202" lon="11.46434253344264"><ele>190.5</ele><time>2026-03-22T14:27:07Z</time></trkpt><trkpt lat="44.31380849886249" lon="11.46426078686315"><ele>190.0</ele><time>2026-03-22T14:27:08Z</time></trkpt><trkpt lat="44.31368708379272" lon="11.464159109167086"><ele>189.5</ele><time>2026-03-22T14:27:09Z</time></trkpt><trkpt lat="44.31355980130986" lon="11.464063717317378"><ele>189.0</ele><time>2026-03-22T14:27:10Z</time></trkpt><trkpt lat="44.31343130518396" lon="11.463968779270092"><ele>189.0</ele><time>2026-03-22T14:27:11Z</time></trkpt><trkpt lat="44.31330029360731" lon="11.463847787515382"><ele>189.0</ele><time>2026-03-22T14:27:12Z</time></trkpt><trkpt lat="44.313156803699215" lon="11.463742301464077"><ele>189.0</ele><time>2026-03-22T14:27:13Z</time></trkpt><trkpt lat="44.31301396792252" lon="11.463639466676957"><ele>188.0</ele><time>2026-03-22T14:27:14Z</time></trkpt><trkpt lat="44.31286454435102" lon="11.463558246109733"><ele>187.0</ele><time>2026-03-22T14:27:15Z</time></trkpt><trkpt lat="44.31272399969581" lon="11.463457642000014"><ele>186.0</ele><time>2026-03-22T14:27:16Z</time></trkpt><trkpt lat="44.312582219963716" lon="11.463354834183155"><ele>186.0</ele><time>2026-03-22T14:27:17Z</time></trkpt><trkpt lat="44.312440372160154" lon="11.463238502198566"><ele>186.0</ele><time>2026-03-22T14:27:18Z</time></trkpt><trkpt lat="44.31229467986112" lon="11.46312213172805"><ele>186.0</ele><time>2026-03-22T14:27:19Z</time></trkpt><trkpt lat="44.31215488268523" lon="11.462996022397572"><ele>185.66666666666666</ele><time>2026-03-22T14:27:20Z</time></trkpt><trkpt lat="44.31202787404312" lon="11.462875054826965"><ele>185.33333333333331</ele><time>2026-03-22T14:27:21Z</time></trkpt><trkpt lat="44.31190336895792" lon="11.462756616926397"><ele>185.0</ele><time>2026-03-22T14:27:22Z</time></trkpt><trkpt lat="44.3117828023201" lon="11.462642755745698"><ele>185.0</ele><time>2026-03-22T14:27:23Z</time></trkpt><trkpt lat="44.31166319726793" lon="11.462529076606877"><ele>185.0</ele><time>2026-03-22T14:27:24Z</time></trkpt><trkpt lat="44.31154443317185" lon="11.4624121511704"><ele>185.0</ele><time>2026-03-22T14:27:25Z</time></trkpt><trkpt lat="44.31143000923545" lon="11.46229046658831"><ele>185.0</ele><time>2026-03-22T14:27:26Z</time></trkpt><trkpt lat="44.311319507799645" lon="11.462169928407311"><ele>185.0</ele><time>2026-03-22T14:27:27Z</time></trkpt><trkpt lat="44.31121685612653" lon="11.462058286550857"><ele>185.0</ele><time>2026-03-22T14:27:28Z</time></trkpt><trkpt lat="44.311123761382845" lon="11.461959650493368"><ele>185.0</ele><time>2026-03-22T14:27:29Z</time></trkpt><trkpt lat="44.311043792646544" lon="11.461870415840608"><ele>185.0</ele><time>2026-03-22T14:27:30Z</time></trkpt><trkpt lat="44.310971026901626" lon="11.461765028149447"><ele>185.0</ele><time>2026-03-22T14:27:31Z</time></trkpt><trkpt lat="44.31090660572635" lon="11.461627004234716"><ele>185.0</ele><time>2026-03-22T14:27:32Z</time></trkpt><trkpt lat="44.31086682345722" lon="11.461463173288164"><ele>185.0</ele><time>2026-03-22T14:27:33Z</time></trkpt><trkpt lat="44.31085013104835" lon="11.461282784003247"><ele>185.0</ele><time>2026-03-22T14:27:34Z</time></trkpt><trkpt lat="44.31085199275924" lon="11.461092973302733"><ele>186.0</ele><time>2026-03-22T14:27:35Z</time></trkpt><trkpt lat="44.31085269396389" lon="11.460899514797998"><ele>187.0</ele><time>2026-03-22T14:27:36Z</time></trkpt><trkpt lat="44.31084599324216" lon="11.46070649906894"><ele>188.0</ele><time>2026-03-22T14:27:37Z</time></trkpt><trkpt lat="44.31083491250753" lon="11.46051457605879"><ele>189.0</ele><time>2026-03-22T14:27:38Z</time></trkpt><trkpt lat="44.310828185462" lon="11.460346996677913"><ele>189.79999999999998</ele><time>2026-03-22T14:27:39Z</time></trkpt><trkpt lat="44.31082339676133" lon="11.460204720152195"><ele>190.6</ele><time>2026-03-22T14:27:40Z</time></trkpt><trkpt lat="44.31082023927829" lon="11.46007339795484"><ele>191.4</ele><time>2026-03-22T14:27:41Z</time></trkpt><trkpt lat="44.31081646880567" lon="11.459958906479867"><ele>192.2</ele><time>2026-03-22T14:27:42Z</time></trkpt><trkpt lat="44.3107994130647" lon="11.45983971509365"><ele>193.0</ele><time>2026-03-22T14:27:43Z</time></trkpt><trkpt lat="44.310768312042676" lon="11.45971812870802"><ele>193.0</ele><time>2026-03-22T14:27:44Z</time></trkpt><trkpt lat="44.31072201000549" lon="11.459597554961219"><ele>193.0</ele><time>2026-03-22T14:27:45Z</time></trkpt><trkpt lat="44.310664132188236" lon="11.459486440579921"><ele>193.0</ele><time>2026-03-22T14:27:46Z</time></trkpt><trkpt lat="44.31059772692718" lon="11.459367507831232"><ele>193.0</ele><time>2026-03-22T14:27:47Z</time></trkpt><trkpt lat="44.31052371987833" lon="11.459237557768484"><ele>193.0</ele><time>2026-03-22T14:27:48Z</time></trkpt><trkpt lat="44.310455623406376" lon="11.459116068205407"><ele>192.83333333333331</ele><time>2026-03-22T14:27:49Z</time></trkpt><trkpt lat="44.3103966828455" lon="11.459010746230645"><ele>192.66666666666666</ele><time>2026-03-22T14:27:50Z</time></trkpt><trkpt lat="44.310340351675016" lon="11.458914734634456"><ele>192.5</ele><time>2026-03-22T14:27:51Z</time></trkpt><trkpt lat="44.310285334002536" lon="11.458825499249205"><ele>192.33333333333331</ele><time>2026-03-22T14:27:52Z</time></trkpt><trkpt lat="44.31023099880218" lon="11.458741444222174"><ele>192.16666666666666</ele><time>2026-03-22T14:27:53Z</time></trkpt><trkpt lat="44.31018613654739" lon="11.458664759579111"><ele>192.0</ele><time>2026-03-22T14:27:54Z</time></trkpt><trkpt lat="44.31014385473601" lon="11.458596198645287"><ele>192.0</ele><time>2026-03-22T14:27:55Z</time></trkpt><trkpt lat="44.310074060225965" lon="11.458504097095446"><ele>192.0</ele><time>2026-03-22T14:27:57Z</time></trkpt><trkpt lat="44.31004957740909" lon="11.458415807356523"><ele>192.0</ele><time>2026-03-22T14:27:59Z</time></trkpt><trkpt lat="44.31007593114091" lon="11.458311367500052"><ele>192.0</ele><time>2026-03-22T14:28:02Z</time></trkpt><trkpt lat="44.310121852280936" lon="11.458234598102985"><ele>192.0</ele><time>2026-03-22T14:28:04Z</time></trkpt><trkpt lat="44.310175321413816" lon="11.458171689075897"><ele>192.0</ele><time>2026-03-22T14:28:06Z</time></trkpt><trkpt lat="44.31022636060331" lon="11.458111638186137"><ele>192.0</ele><time>2026-03-22T14:28:10Z</time></trkpt><trkpt lat="44.31027469854922" lon="11.458209400885956"><ele>192.0</ele><time>2026-03-22T14:28:14Z</time></trkpt><trkpt lat="44.310344439171814" lon="11.45826221211961"><ele>192.0</ele><time>2026-03-22T14:28:52Z</time></trkpt></trkseg><trkseg><trkpt lat="44.31043895550747" lon="11.458318930284744"><ele>192.0</ele><time>2026-03-22T14:41:43Z</time></trkpt><trkpt lat="44.310502274520985" lon="11.458326047922956"><ele>192.0</ele><time>2026-03-22T14:41:45Z</time></trkpt><trkpt lat="44.31057095897159" lon="11.458303185129074"><ele>192.0</ele><time>2026-03-22T14:41:47Z</time></trkpt><trkpt lat="44.31066945325579" lon="11.458223701921991"><ele>192.0</ele><time>2026-03-22T14:41:49Z</time></trkpt><trkpt lat="44.310722494387505" lon="11.458174450162755"><ele>192.0</ele><time>2026-03-22T14:41:50Z</time></trkpt><trkpt lat="44.31076954080117" lon="11.458110974315751"><ele>192.0</ele><time>2026-03-22T14:41:52Z</time></trkpt><trkpt lat="44.310729187859216" lon="11.45798884942583"><ele>192.0</ele><time>2026-03-22T14:41:55Z</time></trkpt><trkpt lat="44.31066703981759" lon="11.457931074337093"><ele>192.0</ele><time>2026-03-22T14:41:57Z</time></trkpt><trkpt lat="44.310529122636396" lon="11.457999677704457"><ele>192.0</ele><time>2026-03-22T14:41:59Z</time></trkpt><trkpt lat="44.31041935846979" lon="11.458094821220637"><ele>192.0</ele><time>2026-03-22T14:42:01Z</time></trkpt><trkpt lat="44.310354131295874" lon="11.45815136000742"><ele>192.0</ele><time>2026-03-22T14:42:03Z</time></trkpt><trkpt lat="44.31030659637698" lon="11.458212951102698"><ele>192.0</ele><time>2026-03-22T14:42:07Z</time></trkpt><trkpt lat="44.31023963689343" lon="11.458135449307713"><ele>192.0</ele><time>2026-03-22T14:42:10Z</time></trkpt><trkpt lat="44.310170890510605" lon="11.458137537189293"><ele>192.0</ele><time>2026-03-22T14:42:12Z</time></trkpt><trkpt lat="44.31010866194829" lon="11.458168790106276"><ele>192.0</ele><time>2026-03-22T14:42:14Z</time></trkpt><trkpt lat="44.31005454125829" lon="11.458252114235467"><ele>192.0</ele><time>2026-03-22T14:42:17Z</time></trkpt><trkpt lat="44.31001473845532" lon="11.458347385082606"><ele>192.0</ele><time>2026-03-22T14:42:29Z</time></trkpt><trkpt lat="44.309915435038675" lon="11.458303788021505"><ele>192.0</ele><time>2026-03-22T14:42:33Z</time></trkpt><trkpt lat="44.309844254492816" lon="11.45822971544669"><ele>192.0</ele><time>2026-03-22T14:42:35Z</time></trkpt><trkpt lat="44.30973204762259" lon="11.458128077811248"><ele>192.0</ele><time>2026-03-22T14:42:37Z</time></trkpt><trkpt lat="44.30964656278153" lon="11.458063597228964"><ele>192.0</ele><time>2026-03-22T14:42:38Z</time></trkpt><trkpt lat="44.30956198100891" lon="11.458005011755027"><ele>192.0</ele><time>2026-03-22T14:42:39Z</time></trkpt><trkpt lat="44.30946644052366" lon="11.45794099652306"><ele>192.25</ele><time>2026-03-22T14:42:40Z</time></trkpt><trkpt lat="44.309346009807115" lon="11.457869213447523"><ele>192.5</ele><time>2026-03-22T14:42:41Z</time></trkpt><trkpt lat="44.309229922960604" lon="11.457799456174612"><ele>192.75</ele><time>2026-03-22T14:42:42Z</time></trkpt><trkpt lat="44.30911130044766" lon="11.457723879617683"><ele>193.0</ele><time>2026-03-22T14:42:43Z</time></trkpt><trkpt lat="44.30899390722001" lon="11.457654679354757"><ele>192.60000000000002</ele><time>2026-03-22T14:42:44Z</time></trkpt><trkpt lat="44.308892410553824" lon="11.457595991631889"><ele>192.20000000000002</ele><time>2026-03-22T14:42:45Z</time></trkpt><trkpt lat="44.308781521644335" lon="11.45753250748587"><ele>191.8</ele><time>2026-03-22T14:42:46Z</time></trkpt><trkpt lat="44.30867916850773" lon="11.45746814721763"><ele>191.4</ele><time>2026-03-22T14:42:47Z</time></trkpt><trkpt lat="44.30858506185069" lon="11.457400385672699"><ele>191.0</ele><time>2026-03-22T14:42:48Z</time></trkpt><trkpt lat="44.308492196757356" lon="11.45729420156959"><ele>191.0</ele><time>2026-03-22T14:42:49Z</time></trkpt><trkpt lat="44.30840042765553" lon="11.457159935937275"><ele>191.0</ele><time>2026-03-22T14:42:50Z</time></trkpt><trkpt lat="44.30833706408726" lon="11.456994831229997"><ele>191.0</ele><time>2026-03-22T14:42:51Z</time></trkpt><trkpt lat="44.30827299670501" lon="11.45680662506566"><ele>191.0</ele><time>2026-03-22T14:42:52Z</time></trkpt><trkpt lat="44.30822874938641" lon="11.456613616364082"><ele>191.5</ele><time>2026-03-22T14:42:53Z</time></trkpt><trkpt lat="44.308190831894485" lon="11.456432711732345"><ele>192.0</ele><time>2026-03-22T14:42:54Z</time></trkpt><trkpt lat="44.308141019655665" lon="11.456238155135926"><ele>192.5</ele><time>2026-03-22T14:42:55Z</time></trkpt><trkpt lat="44.30807764643609" lon="11.45602282916537"><ele>193.0</ele><time>2026-03-22T14:42:56Z</time></trkpt><trkpt lat="44.307999608112745" lon="11.455790270408771"><ele>193.0</ele><time>2026-03-22T14:42:57Z</time></trkpt><trkpt lat="44.30792527844461" lon="11.455570292126342"><ele>193.0</ele><time>2026-03-22T14:42:58Z</time></trkpt><trkpt lat="44.30785063870167" lon="11.455353411572856"><ele>193.0</ele><time>2026-03-22T14:42:59Z</time></trkpt><trkpt lat="44.307766202971266" lon="11.45513377515299"><ele>194.0</ele><time>2026-03-22T14:43:00Z</time></trkpt><trkpt lat="44.30769653006175" lon="11.454933323957784"><ele>195.0</ele><time>2026-03-22T14:43:01Z</time></trkpt><trkpt lat="44.3076382194112" lon="11.454747248627879"><ele>196.0</ele><time>2026-03-22T14:43:02Z</time></trkpt><trkpt lat="44.307581569943345" lon="11.454575344569696"><ele>197.0</ele><time>2026-03-22T14:43:03Z</time></trkpt><trkpt lat="44.307512027154715" lon="11.454402309862859"><ele>199.33333333333334</ele><time>2026-03-22T14:43:04Z</time></trkpt><trkpt lat="44.30743060327829" lon="11.45422035075009"><ele>201.66666666666669</ele><time>2026-03-22T14:43:05Z</time></trkpt><trkpt lat="44.30735092442196" lon="11.454037526633915"><ele>204.0</ele><time>2026-03-22T14:43:06Z</time></trkpt><trkpt lat="44.30727671842823" lon="11.453864409281321"><ele>202.5</ele><time>2026-03-22T14:43:07Z</time></trkpt><trkpt lat="44.30721193011805" lon="11.453706332018697"><ele>201.0</ele><time>2026-03-22T14:43:08Z</time></trkpt><trkpt lat="44.30715353842748" lon="11.453565041963456"><ele>199.5</ele><time>2026-03-22T14:43:09Z</time></trkpt><trkpt lat="44.307100098121964" lon="11.45342945889775"><ele>198.0</ele><time>2026-03-22T14:43:10Z</time></trkpt><trkpt lat="44.307049814865266" lon="11.453307038526352"><ele>198.0</ele><time>2026-03-22T14:43:11Z</time></trkpt><trkpt lat="44.306994293655755" lon="11.453183791910554"><ele>198.0</ele><time>2026-03-22T14:43:12Z</time></trkpt><trkpt lat="44.30691706052701" lon="11.453060812530614"><ele>198.0</ele><time>2026-03-22T14:43:13Z</time></trkpt><trkpt lat="44.306814517368714" lon="11.452959643434863"><ele>198.0</ele><time>2026-03-22T14:43:14Z</time></trkpt><trkpt lat="44.30669402591593" lon="11.45287655045655"><ele>198.0</ele><time>2026-03-22T14:43:15Z</time></trkpt><trkpt lat="44.30656853158673" lon="11.452784944740339"><ele>198.0</ele><time>2026-03-22T14:43:16Z</time></trkpt><trkpt lat="44.30644836513925" lon="11.452679062950105"><ele>198.0</ele><time>2026-03-22T14:43:17Z</time></trkpt><trkpt lat="44.30635072627817" lon="11.452569819307481"><ele>198.0</ele><time>2026-03-22T14:43:18Z</time></trkpt><trkpt lat="44.30626621846227" lon="11.45245369121074"><ele>198.0</ele><time>2026-03-22T14:43:19Z</time></trkpt><trkpt lat="44.306184233928875" lon="11.452318757703074"><ele>198.0</ele><time>2026-03-22T14:43:20Z</time></trkpt><trkpt lat="44.306125220276265" lon="11.452156104919709"><ele>198.0</ele><time>2026-03-22T14:43:21Z</time></trkpt><trkpt lat="44.306086061812415" lon="11.451969580866816"><ele>198.0</ele><time>2026-03-22T14:43:22Z</time></trkpt><trkpt lat="44.30605878475242" lon="11.451793790084771"><ele>199.25</ele><time>2026-03-22T14:43:23Z</time></trkpt><trkpt lat="44.306021363892256" lon="11.451638910921236"><ele>200.5</ele><time>2026-03-22T14:43:24Z</time></trkpt><trkpt lat="44.30596384316393" lon="11.4514997956346"><ele>201.75</ele><time>2026-03-22T14:43:25Z</time></trkpt><trkpt lat="44.30587798325542" lon="11.451364636097793"><ele>203.0</ele><time>2026-03-22T14:43:26Z</time></trkpt><trkpt lat="44.30578430558195" lon="11.451231087052042"><ele>203.0</ele><time>2026-03-22T14:43:27Z</time></trkpt><trkpt lat="44.305690003778125" lon="11.451104410524675"><ele>203.0</ele><time>2026-03-22T14:43:28Z</time></trkpt><trkpt lat="44.305570453497246" lon="11.450982879916378"><ele>203.0</ele><time>2026-03-22T14:43:29Z</time></trkpt><trkpt lat="44.30544043327658" lon="11.450880471159905"><ele>203.0</ele><time>2026-03-22T14:43:30Z</time></trkpt><trkpt lat="44.305289987861" lon="11.45077860459151"><ele>203.0</ele><time>2026-03-22T14:43:31Z</time></trkpt><trkpt lat="44.30514381646997" lon="11.450693338813876"><ele>203.0</ele><time>2026-03-22T14:43:32Z</time></trkpt><trkpt lat="44.30500784866987" lon="11.450628800347816"><ele>203.0</ele><time>2026-03-22T14:43:33Z</time></trkpt><trkpt lat="44.30488301110974" lon="11.450540736289977"><ele>203.0</ele><time>2026-03-22T14:43:34Z</time></trkpt><trkpt lat="44.3047592008612" lon="11.450435878571517"><ele>205.0</ele><time>2026-03-22T14:43:35Z</time></trkpt><trkpt lat="44.30461939820522" lon="11.450324795833424"><ele>207.0</ele><time>2026-03-22T14:43:35.999Z</time></trkpt><trkpt lat="44.30448230200544" lon="11.450175340503415"><ele>209.0</ele><time>2026-03-22T14:43:36.999Z</time></trkpt><trkpt lat="44.3043553669317" lon="11.45003541298391"><ele>209.0</ele><time>2026-03-22T14:43:37.999Z</time></trkpt><trkpt lat="44.30424307665489" lon="11.449911770795717"><ele>209.0</ele><time>2026-03-22T14:43:38.999Z</time></trkpt><trkpt lat="44.30413372879354" lon="11.449811506908611"><ele>209.0</ele><time>2026-03-22T14:43:39.999Z</time></trkpt><trkpt lat="44.30401492635964" lon="11.449713491280155"><ele>209.0</ele><time>2026-03-22T14:43:40.999Z</time></trkpt><trkpt lat="44.30389273361929" lon="11.449609455507304"><ele>209.25</ele><time>2026-03-22T14:43:41.999Z</time></trkpt><trkpt lat="44.30377634792597" lon="11.449505302928726"><ele>209.5</ele><time>2026-03-22T14:43:42.999Z</time></trkpt><trkpt lat="44.30367384342409" lon="11.449417250774015"><ele>209.75</ele><time>2026-03-22T14:43:43.999Z</time></trkpt><trkpt lat="44.30356748867058" lon="11.449319125791895"><ele>210.0</ele><time>2026-03-22T14:43:44.999Z</time></trkpt><trkpt lat="44.303459832446414" lon="11.44919144959754"><ele>210.0</ele><time>2026-03-22T14:43:45.999Z</time></trkpt><trkpt lat="44.30336542610016" lon="11.449044289117188"><ele>210.0</ele><time>2026-03-22T14:43:46.999Z</time></trkpt><trkpt lat="44.303296401592036" lon="11.448907132876746"><ele>210.0</ele><time>2026-03-22T14:43:47.999Z</time></trkpt><trkpt lat="44.30323154348142" lon="11.448798062159913"><ele>210.0</ele><time>2026-03-22T14:43:48.999Z</time></trkpt><trkpt lat="44.30316202130969" lon="11.448715519916048"><ele>209.8</ele><time>2026-03-22T14:43:49.999Z</time></trkpt><trkpt lat="44.30308739062401" lon="11.448654307153772"><ele>209.6</ele><time>2026-03-22T14:43:50.999Z</time></trkpt><trkpt lat="44.30300809670201" lon="11.448602698042755"><ele>209.39999999999998</ele><time>2026-03-22T14:43:51.999Z</time></trkpt><trkpt lat="44.302917639326566" lon="11.448554851801934"><ele>209.2</ele><time>2026-03-22T14:43:52.999Z</time></trkpt><trkpt lat="44.30281594463126" lon="11.448527956503538"><ele>209.0</ele><time>2026-03-22T14:43:53.999Z</time></trkpt><trkpt lat="44.30271123612215" lon="11.448492148913932"><ele>209.0</ele><time>2026-03-22T14:43:54.999Z</time></trkpt><trkpt lat="44.302594926077425" lon="11.44851003737559"><ele>209.0</ele><time>2026-03-22T14:43:55.999Z</time></trkpt><trkpt lat="44.30246247641867" lon="11.4485901895494"><ele>209.0</ele><time>2026-03-22T14:43:56.999Z</time></trkpt><trkpt lat="44.30232107649059" lon="11.448646036427311"><ele>209.0</ele><time>2026-03-22T14:43:57.999Z</time></trkpt><trkpt lat="44.30220130943063" lon="11.448705362730706"><ele>209.39999999999998</ele><time>2026-03-22T14:43:58.999Z</time></trkpt><trkpt lat="44.30209766643027" lon="11.448761741126983"><ele>209.8</ele><time>2026-03-22T14:43:59.999Z</time></trkpt><trkpt lat="44.302011274353305" lon="11.44879967557589"><ele>210.2</ele><time>2026-03-22T14:44:00.999Z</time></trkpt><trkpt lat="44.30192930887727" lon="11.448809799300045"><ele>210.60000000000002</ele><time>2026-03-22T14:44:01.999Z</time></trkpt><trkpt lat="44.301863337263995" lon="11.448737795366698"><ele>211.0</ele><time>2026-03-22T14:44:02.999Z</time></trkpt><trkpt lat="44.301791794237445" lon="11.44864921634896"><ele>211.0</ele><time>2026-03-22T14:44:03.999Z</time></trkpt><trkpt lat="44.301710283519334" lon="11.448543759433607"><ele>211.0</ele><time>2026-03-22T14:44:04.999Z</time></trkpt><trkpt lat="44.30163343197747" lon="11.448422555774806"><ele>211.0</ele><time>2026-03-22T14:44:05.999Z</time></trkpt><trkpt lat="44.30155423026617" lon="11.448287679554614"><ele>211.0</ele><time>2026-03-22T14:44:06.999Z</time></trkpt><trkpt lat="44.3014570025862" lon="11.44816708381293"><ele>211.0</ele><time>2026-03-22T14:44:07.999Z</time></trkpt><trkpt lat="44.30137224627132" lon="11.448054944142623"><ele>211.0</ele><time>2026-03-22T14:44:08.999Z</time></trkpt><trkpt lat="44.30128866687834" lon="11.447935500345396"><ele>211.0</ele><time>2026-03-22T14:44:09.999Z</time></trkpt><trkpt lat="44.30117183313009" lon="11.44783007920919"><ele>211.0</ele><time>2026-03-22T14:44:10.999Z</time></trkpt><trkpt lat="44.30104011287019" lon="11.447713176772794"><ele>211.0</ele><time>2026-03-22T14:44:11.999Z</time></trkpt><trkpt lat="44.30091018058818" lon="11.447592810296035"><ele>211.0</ele><time>2026-03-22T14:44:12.999Z</time></trkpt><trkpt lat="44.30078349320532" lon="11.447492965019089"><ele>211.0</ele><time>2026-03-22T14:44:13.999Z</time></trkpt><trkpt lat="44.30066366321832" lon="11.447401854607504"><ele>211.0</ele><time>2026-03-22T14:44:14.999Z</time></trkpt><trkpt lat="44.30053194039214" lon="11.447319896240366"><ele>211.0</ele><time>2026-03-22T14:44:15.999Z</time></trkpt><trkpt lat="44.30039011858453" lon="11.447251855054255"><ele>211.0</ele><time>2026-03-22T14:44:16.999Z</time></trkpt><trkpt lat="44.30025172693183" lon="11.4472013934707"><ele>211.0</ele><time>2026-03-22T14:44:17.999Z</time></trkpt><trkpt lat="44.30013101241148" lon="11.44714314293655"><ele>211.0</ele><time>2026-03-22T14:44:18.999Z</time></trkpt><trkpt lat="44.300018958197306" lon="11.447093830531356"><ele>211.0</ele><time>2026-03-22T14:44:19.999Z</time></trkpt><trkpt lat="44.29991967754445" lon="11.447043897412362"><ele>211.0</ele><time>2026-03-22T14:44:20.999Z</time></trkpt><trkpt lat="44.299827241287346" lon="11.446992132144874"><ele>211.0</ele><time>2026-03-22T14:44:21.999Z</time></trkpt><trkpt lat="44.29974109365871" lon="11.446947200271756"><ele>211.0</ele><time>2026-03-22T14:44:22.999Z</time></trkpt><trkpt lat="44.29963905755543" lon="11.446919005998875"><ele>211.0</ele><time>2026-03-22T14:44:23.999Z</time></trkpt><trkpt lat="44.29952242820138" lon="11.446911637675676"><ele>211.25</ele><time>2026-03-22T14:44:24.999Z</time></trkpt><trkpt lat="44.29940108390724" lon="11.446916338283582"><ele>211.5</ele><time>2026-03-22T14:44:25.999Z</time></trkpt><trkpt lat="44.29926725681954" lon="11.446902871231547"><ele>211.75</ele><time>2026-03-22T14:44:26.999Z</time></trkpt><trkpt lat="44.29912711035393" lon="11.446848315298872"><ele>212.0</ele><time>2026-03-22T14:44:27.999Z</time></trkpt><trkpt lat="44.299004188844876" lon="11.446772029576104"><ele>212.2</ele><time>2026-03-22T14:44:28.999Z</time></trkpt><trkpt lat="44.29889629463771" lon="11.446678056852713"><ele>212.39999999999998</ele><time>2026-03-22T14:44:29.999Z</time></trkpt><trkpt lat="44.29880480268936" lon="11.446598206204492"><ele>212.60000000000002</ele><time>2026-03-22T14:44:30.999Z</time></trkpt><trkpt lat="44.298717023407306" lon="11.446543170167013"><ele>212.8</ele><time>2026-03-22T14:44:31.999Z</time></trkpt><trkpt lat="44.298615117053906" lon="11.44651866290386"><ele>213.0</ele><time>2026-03-22T14:44:32.999Z</time></trkpt><trkpt lat="44.298493936200906" lon="11.44653400625072"><ele>213.0</ele><time>2026-03-22T14:44:33.999Z</time></trkpt><trkpt lat="44.298357697553335" lon="11.446563171263254"><ele>213.0</ele><time>2026-03-22T14:44:34.999Z</time></trkpt><trkpt lat="44.29821685442717" lon="11.446632967468348"><ele>213.0</ele><time>2026-03-22T14:44:35.999Z</time></trkpt><trkpt lat="44.29807002801498" lon="11.446706354189315"><ele>213.0</ele><time>2026-03-22T14:44:36.999Z</time></trkpt><trkpt lat="44.29792208326993" lon="11.446776127522666"><ele>212.75</ele><time>2026-03-22T14:44:37.999Z</time></trkpt><trkpt lat="44.29776204106897" lon="11.446827456579019"><ele>212.5</ele><time>2026-03-22T14:44:38.999Z</time></trkpt><trkpt lat="44.297618150475365" lon="11.4468496039767"><ele>212.25</ele><time>2026-03-22T14:44:39.999Z</time></trkpt><trkpt lat="44.29749016307929" lon="11.44684222128237"><ele>212.0</ele><time>2026-03-22T14:44:40.999Z</time></trkpt><trkpt lat="44.29735994363114" lon="11.446809905690985"><ele>212.0</ele><time>2026-03-22T14:44:41.999Z</time></trkpt><trkpt lat="44.29726632500113" lon="11.446803113094607"><ele>212.0</ele><time>2026-03-22T14:44:42.999Z</time></trkpt><trkpt lat="44.29718710732334" lon="11.446813860973384"><ele>212.0</ele><time>2026-03-22T14:44:43.999Z</time></trkpt><trkpt lat="44.29710937269868" lon="11.44687707386826"><ele>212.0</ele><time>2026-03-22T14:44:44.999Z</time></trkpt><trkpt lat="44.29701658703409" lon="11.446966965660922"><ele>212.0</ele><time>2026-03-22T14:44:45.999Z</time></trkpt><trkpt lat="44.296928046221915" lon="11.447109013746179"><ele>215.5</ele><time>2026-03-22T14:44:46.999Z</time></trkpt><trkpt lat="44.29683541846915" lon="11.447211368405197"><ele>219.0</ele><time>2026-03-22T14:44:47.999Z</time></trkpt><trkpt lat="44.296744006462674" lon="11.447258827943694"><ele>222.5</ele><time>2026-03-22T14:44:48.999Z</time></trkpt><trkpt lat="44.29663093342391" lon="11.447287184971566"><ele>226.0</ele><time>2026-03-22T14:44:49.999Z</time></trkpt><trkpt lat="44.296509022373684" lon="11.447286719321882"><ele>226.8</ele><time>2026-03-22T14:44:50.999Z</time></trkpt><trkpt lat="44.296405587745596" lon="11.447285120575014"><ele>227.60000000000002</ele><time>2026-03-22T14:44:51.999Z</time></trkpt><trkpt lat="44.29630892965026" lon="11.447271937229615"><ele>228.4</ele><time>2026-03-22T14:44:52.999Z</time></trkpt><trkpt lat="44.296203229834944" lon="11.447233286408462"><ele>229.2</ele><time>2026-03-22T14:44:53.999Z</time></trkpt><trkpt lat="44.296092955258246" lon="11.447151534428"><ele>230.0</ele><time>2026-03-22T14:44:54.999Z</time></trkpt><trkpt lat="44.29597110798578" lon="11.447078153769436"><ele>227.8</ele><time>2026-03-22T14:44:55.999Z</time></trkpt><trkpt lat="44.295851044181205" lon="11.447002429297312"><ele>225.6</ele><time>2026-03-22T14:44:56.999Z</time></trkpt><trkpt lat="44.29573294058968" lon="11.446954356997338"><ele>223.39999999999998</ele><time>2026-03-22T14:44:57.999Z</time></trkpt><trkpt lat="44.29563707952281" lon="11.44692280894642"><ele>221.2</ele><time>2026-03-22T14:44:58.999Z</time></trkpt><trkpt lat="44.295547850466285" lon="11.446906536130607"><ele>219.0</ele><time>2026-03-22T14:44:59.999Z</time></trkpt><trkpt lat="44.29545123537246" lon="11.446910440948773"><ele>219.0</ele><time>2026-03-22T14:45:00.999Z</time></trkpt><trkpt lat="44.29535314703937" lon="11.446940045869573"><ele>219.0</ele><time>2026-03-22T14:45:01.999Z</time></trkpt><trkpt lat="44.295250403132" lon="11.44701352577459"><ele>219.0</ele><time>2026-03-22T14:45:02.999Z</time></trkpt><trkpt lat="44.29514873097401" lon="11.44711839698078"><ele>219.0</ele><time>2026-03-22T14:45:03.999Z</time></trkpt><trkpt lat="44.295031890190515" lon="11.447220971640842"><ele>219.5</ele><time>2026-03-22T14:45:04.999Z</time></trkpt><trkpt lat="44.29493316356526" lon="11.447333650833308"><ele>220.0</ele><time>2026-03-22T14:45:05.999Z</time></trkpt><trkpt lat="44.29482968934292" lon="11.447453456535396"><ele>220.5</ele><time>2026-03-22T14:45:06.999Z</time></trkpt><trkpt lat="44.294714275852485" lon="11.447590460289705"><ele>221.0</ele><time>2026-03-22T14:45:07.999Z</time></trkpt><trkpt lat="44.29460029671546" lon="11.44773624127334"><ele>221.0</ele><time>2026-03-22T14:45:08.999Z</time></trkpt><trkpt lat="44.29449862056456" lon="11.447870554671155"><ele>221.0</ele><time>2026-03-22T14:45:09.999Z</time></trkpt><trkpt lat="44.294403601166564" lon="11.4479808372158"><ele>221.0</ele><time>2026-03-22T14:45:10.999Z</time></trkpt><trkpt lat="44.29429546951307" lon="11.44806494474667"><ele>221.0</ele><time>2026-03-22T14:45:11.999Z</time></trkpt><trkpt lat="44.29416561933302" lon="11.448126493114412"><ele>222.8</ele><time>2026-03-22T14:45:12.999Z</time></trkpt><trkpt lat="44.294037884454866" lon="11.448176324647577"><ele>224.60000000000002</ele><time>2026-03-22T14:45:13.999Z</time></trkpt><trkpt lat="44.29392707487625" lon="11.44820454472767"><ele>226.4</ele><time>2026-03-22T14:45:14.999Z</time></trkpt><trkpt lat="44.29383126014331" lon="11.448215119726731"><ele>228.2</ele><time>2026-03-22T14:45:15.999Z</time></trkpt><trkpt lat="44.29374235154931" lon="11.448206117143512"><ele>230.0</ele><time>2026-03-22T14:45:16.999Z</time></trkpt><trkpt lat="44.29364048860332" lon="11.44813744503395"><ele>230.0</ele><time>2026-03-22T14:45:17.999Z</time></trkpt><trkpt lat="44.29356589852173" lon="11.448018452244222"><ele>230.0</ele><time>2026-03-22T14:45:18.999Z</time></trkpt><trkpt lat="44.293484252954606" lon="11.447932707575763"><ele>230.0</ele><time>2026-03-22T14:45:19.999Z</time></trkpt><trkpt lat="44.29341284912569" lon="11.44784309756159"><ele>230.0</ele><time>2026-03-22T14:45:20.999Z</time></trkpt><trkpt lat="44.2933315042551" lon="11.44780882164834"><ele>230.0</ele><time>2026-03-22T14:45:21.999Z</time></trkpt><trkpt lat="44.293253185459115" lon="11.447821502004173"><ele>229.5</ele><time>2026-03-22T14:45:22.999Z</time></trkpt><trkpt lat="44.29316984302737" lon="11.447818490147634"><ele>229.0</ele><time>2026-03-22T14:45:23.999Z</time></trkpt><trkpt lat="44.293069423661414" lon="11.447894593472785"><ele>228.5</ele><time>2026-03-22T14:45:24.999Z</time></trkpt><trkpt lat="44.29298444428391" lon="11.448014038960972"><ele>228.0</ele><time>2026-03-22T14:45:25.999Z</time></trkpt><trkpt lat="44.29287837376776" lon="11.448138333832336"><ele>228.0</ele><time>2026-03-22T14:45:26.999Z</time></trkpt><trkpt lat="44.292783347027914" lon="11.448302454096455"><ele>228.0</ele><time>2026-03-22T14:45:27.999Z</time></trkpt><trkpt lat="44.29271192399325" lon="11.448456903059366"><ele>228.0</ele><time>2026-03-22T14:45:28.999Z</time></trkpt><trkpt lat="44.292631880862814" lon="11.448541562941783"><ele>228.0</ele><time>2026-03-22T14:45:29.999Z</time></trkpt><trkpt lat="44.292569459949604" lon="11.448599388715712"><ele>228.0</ele><time>2026-03-22T14:45:30.999Z</time></trkpt><trkpt lat="44.29250452201796" lon="11.448652469852238"><ele>228.0</ele><time>2026-03-22T14:45:31.999Z</time></trkpt><trkpt lat="44.292397037228106" lon="11.448620138165575"><ele>228.0</ele><time>2026-03-22T14:45:32.999Z</time></trkpt><trkpt lat="44.29227715715024" lon="11.44856207171574"><ele>228.0</ele><time>2026-03-22T14:45:33.999Z</time></trkpt><trkpt lat="44.292137875531736" lon="11.448511858133594"><ele>229.0</ele><time>2026-03-22T14:45:34.999Z</time></trkpt><trkpt lat="44.292005976456814" lon="11.448448986081784"><ele>230.0</ele><time>2026-03-22T14:45:35.999Z</time></trkpt><trkpt lat="44.29189580817082" lon="11.448401439735898"><ele>231.0</ele><time>2026-03-22T14:45:36.999Z</time></trkpt><trkpt lat="44.29180975612758" lon="11.448367138254426"><ele>232.0</ele><time>2026-03-22T14:45:37.999Z</time></trkpt><trkpt lat="44.291746446131626" lon="11.448350637326492"><ele>233.0</ele><time>2026-03-22T14:45:38.999Z</time></trkpt><trkpt lat="44.291674862874416" lon="11.448346487754003"><ele>233.0</ele><time>2026-03-22T14:45:39.999Z</time></trkpt><trkpt lat="44.29158755715454" lon="11.448344310997655"><ele>233.0</ele><time>2026-03-22T14:45:40.999Z</time></trkpt><trkpt lat="44.29148502050713" lon="11.448342151675291"><ele>233.0</ele><time>2026-03-22T14:45:41.999Z</time></trkpt><trkpt lat="44.29137054001234" lon="11.448349813613088"><ele>233.0</ele><time>2026-03-22T14:45:42.999Z</time></trkpt><trkpt lat="44.29125628100109" lon="11.448353554912666"><ele>233.0</ele><time>2026-03-22T14:45:43.999Z</time></trkpt><trkpt lat="44.29115025088888" lon="11.448360204728585"><ele>232.8</ele><time>2026-03-22T14:45:44.999Z</time></trkpt><trkpt lat="44.29103054305242" lon="11.44837220939687"><ele>232.60000000000002</ele><time>2026-03-22T14:45:45.999Z</time></trkpt><trkpt lat="44.29091858019565" lon="11.448384722923068"><ele>232.39999999999998</ele><time>2026-03-22T14:45:46.999Z</time></trkpt><trkpt lat="44.29082701867307" lon="11.448417136286924"><ele>232.2</ele><time>2026-03-22T14:45:47.999Z</time></trkpt><trkpt lat="44.29073674847062" lon="11.44845287722983"><ele>232.0</ele><time>2026-03-22T14:45:48.999Z</time></trkpt><trkpt lat="44.29062865714131" lon="11.44850955717597"><ele>232.0</ele><time>2026-03-22T14:45:49.999Z</time></trkpt><trkpt lat="44.29051727856478" lon="11.448596690602676"><ele>232.0</ele><time>2026-03-22T14:45:50.999Z</time></trkpt><trkpt lat="44.290411857963676" lon="11.448703493677556"><ele>232.0</ele><time>2026-03-22T14:45:51.999Z</time></trkpt><trkpt lat="44.29032085158569" lon="11.448797059986516"><ele>232.0</ele><time>2026-03-22T14:45:52.999Z</time></trkpt><trkpt lat="44.29024272491712" lon="11.448883354792205"><ele>233.25</ele><time>2026-03-22T14:45:53.999Z</time></trkpt><trkpt lat="44.290161571684564" lon="11.44897127506449"><ele>234.5</ele><time>2026-03-22T14:45:54.999Z</time></trkpt><trkpt lat="44.29007533026005" lon="11.449061712443697"><ele>235.75</ele><time>2026-03-22T14:45:55.999Z</time></trkpt><trkpt lat="44.289966727748606" lon="11.449134369046877"><ele>237.0</ele><time>2026-03-22T14:45:56.999Z</time></trkpt><trkpt lat="44.28984343626065" lon="11.449192326114405"><ele>236.5</ele><time>2026-03-22T14:45:57.999Z</time></trkpt><trkpt lat="44.289714136032316" lon="11.449232697423046"><ele>236.0</ele><time>2026-03-22T14:45:58.999Z</time></trkpt><trkpt lat="44.289569439374894" lon="11.449244573041724"><ele>235.5</ele><time>2026-03-22T14:45:59.999Z</time></trkpt><trkpt lat="44.28941621855892" lon="11.4492893755926"><ele>235.0</ele><time>2026-03-22T14:46:00.999Z</time></trkpt><trkpt lat="44.28924294731237" lon="11.449300142955545"><ele>235.0</ele><time>2026-03-22T14:46:01.999Z</time></trkpt><trkpt lat="44.289073882490776" lon="11.44930149774859"><ele>235.0</ele><time>2026-03-22T14:46:02.999Z</time></trkpt><trkpt lat="44.288927955154264" lon="11.449304475816302"><ele>235.0</ele><time>2026-03-22T14:46:03.999Z</time></trkpt><trkpt lat="44.288800109524395" lon="11.449315534519302"><ele>235.0</ele><time>2026-03-22T14:46:04.999Z</time></trkpt><trkpt lat="44.288688750264434" lon="11.449342965490144"><ele>235.0</ele><time>2026-03-22T14:46:05.999Z</time></trkpt><trkpt lat="44.288572109860944" lon="11.449384080645777"><ele>235.0</ele><time>2026-03-22T14:46:06.999Z</time></trkpt><trkpt lat="44.28844890697319" lon="11.44944317485187"><ele>235.0</ele><time>2026-03-22T14:46:07.999Z</time></trkpt><trkpt lat="44.2883121670418" lon="11.449525041459111"><ele>235.0</ele><time>2026-03-22T14:46:08.999Z</time></trkpt><trkpt lat="44.28817167850323" lon="11.449613890731026"><ele>235.5</ele><time>2026-03-22T14:46:09.999Z</time></trkpt><trkpt lat="44.28802973890913" lon="11.4496724875301"><ele>236.0</ele><time>2026-03-22T14:46:10.999Z</time></trkpt><trkpt lat="44.28791291163064" lon="11.44972547032113"><ele>236.5</ele><time>2026-03-22T14:46:11.999Z</time></trkpt><trkpt lat="44.28781423911157" lon="11.449787246375475"><ele>237.0</ele><time>2026-03-22T14:46:12.999Z</time></trkpt><trkpt lat="44.287717890819216" lon="11.449827191734443"><ele>237.0</ele><time>2026-03-22T14:46:13.999Z</time></trkpt><trkpt lat="44.28763772433311" lon="11.449899523681667"><ele>237.0</ele><time>2026-03-22T14:46:14.999Z</time></trkpt><trkpt lat="44.287572813293394" lon="11.450014286071315"><ele>237.0</ele><time>2026-03-22T14:46:15.999Z</time></trkpt><trkpt lat="44.28751097530119" lon="11.450173913356297"><ele>237.0</ele><time>2026-03-22T14:46:16.999Z</time></trkpt><trkpt lat="44.287435522142" lon="11.450337152801149"><ele>237.25</ele><time>2026-03-22T14:46:17.999Z</time></trkpt><trkpt lat="44.28736723740501" lon="11.450516438328515"><ele>237.5</ele><time>2026-03-22T14:46:18.999Z</time></trkpt><trkpt lat="44.28729619350622" lon="11.450696918960753"><ele>237.75</ele><time>2026-03-22T14:46:19.999Z</time></trkpt><trkpt lat="44.287225112929214" lon="11.450869243922677"><ele>238.0</ele><time>2026-03-22T14:46:20.999Z</time></trkpt><trkpt lat="44.28716828209985" lon="11.451033506105517"><ele>238.0</ele><time>2026-03-22T14:46:21.999Z</time></trkpt><trkpt lat="44.28708961946811" lon="11.451150651739479"><ele>238.0</ele><time>2026-03-22T14:46:22.999Z</time></trkpt><trkpt lat="44.28700606215615" lon="11.451254759915034"><ele>238.0</ele><time>2026-03-22T14:46:23.999Z</time></trkpt><trkpt lat="44.28690280021472" lon="11.451335359183831"><ele>238.0</ele><time>2026-03-22T14:46:24.999Z</time></trkpt><trkpt lat="44.28677852935238" lon="11.451374055190366"><ele>239.8</ele><time>2026-03-22T14:46:25.999Z</time></trkpt><trkpt lat="44.28667522167698" lon="11.451424611311895"><ele>241.60000000000002</ele><time>2026-03-22T14:46:26.999Z</time></trkpt><trkpt lat="44.28660031483656" lon="11.451452322466642"><ele>243.39999999999998</ele><time>2026-03-22T14:46:27.999Z</time></trkpt><trkpt lat="44.28655054202367" lon="11.451527554014021"><ele>245.2</ele><time>2026-03-22T14:46:28.999Z</time></trkpt><trkpt lat="44.28650591323772" lon="11.451653945265909"><ele>247.0</ele><time>2026-03-22T14:46:29.999Z</time></trkpt><trkpt lat="44.286463949042336" lon="11.451788826581918"><ele>247.0</ele><time>2026-03-22T14:46:30.999Z</time></trkpt><trkpt lat="44.28643333739955" lon="11.45192484820438"><ele>247.0</ele><time>2026-03-22T14:46:31.999Z</time></trkpt><trkpt lat="44.28638127906425" lon="11.452028077196015"><ele>247.0</ele><time>2026-03-22T14:46:32.999Z</time></trkpt><trkpt lat="44.286289965121576" lon="11.45212046515756"><ele>247.0</ele><time>2026-03-22T14:46:33.999Z</time></trkpt><trkpt lat="44.28617969884716" lon="11.452174139629495"><ele>247.0</ele><time>2026-03-22T14:46:34.999Z</time></trkpt><trkpt lat="44.28606814423872" lon="11.452170323177036"><ele>247.2</ele><time>2026-03-22T14:46:35.999Z</time></trkpt><trkpt lat="44.2859660666255" lon="11.45216281677957"><ele>247.39999999999998</ele><time>2026-03-22T14:46:36.999Z</time></trkpt><trkpt lat="44.28588804254192" lon="11.452077896361894"><ele>247.60000000000002</ele><time>2026-03-22T14:46:37.999Z</time></trkpt><trkpt lat="44.28584983490009" lon="11.451946747483449"><ele>247.8</ele><time>2026-03-22T14:46:38.999Z</time></trkpt><trkpt lat="44.28580352511666" lon="11.451839173897314"><ele>248.0</ele><time>2026-03-22T14:46:39.999Z</time></trkpt><trkpt lat="44.285771984489436" lon="11.451718154824976"><ele>248.0</ele><time>2026-03-22T14:46:40.999Z</time></trkpt><trkpt lat="44.28571473675008" lon="11.451612877659729"><ele>248.0</ele><time>2026-03-22T14:46:41.999Z</time></trkpt><trkpt lat="44.28563318545563" lon="11.451536349199893"><ele>248.0</ele><time>2026-03-22T14:46:42.999Z</time></trkpt><trkpt lat="44.285525937656736" lon="11.451490226278246"><ele>248.0</ele><time>2026-03-22T14:46:43.999Z</time></trkpt><trkpt lat="44.285399484457464" lon="11.451459083433335"><ele>248.0</ele><time>2026-03-22T14:46:44.999Z</time></trkpt><trkpt lat="44.28527314190371" lon="11.451443914012959"><ele>249.75</ele><time>2026-03-22T14:46:45.999Z</time></trkpt><trkpt lat="44.285138539699716" lon="11.451424703133188"><ele>251.5</ele><time>2026-03-22T14:46:46.999Z</time></trkpt><trkpt lat="44.285011835038965" lon="11.451384960726292"><ele>253.25</ele><time>2026-03-22T14:46:47.999Z</time></trkpt><trkpt lat="44.28489505479018" lon="11.4513718289734"><ele>255.0</ele><time>2026-03-22T14:46:48.999Z</time></trkpt><trkpt lat="44.28476978186688" lon="11.451369623192264"><ele>254.2</ele><time>2026-03-22T14:46:49.999Z</time></trkpt><trkpt lat="44.284658433766275" lon="11.451401730189605"><ele>253.4</ele><time>2026-03-22T14:46:50.999Z</time></trkpt><trkpt lat="44.28456063281126" lon="11.45141393238083"><ele>252.60000000000002</ele><time>2026-03-22T14:46:51.999Z</time></trkpt><trkpt lat="44.28447156060699" lon="11.451440215247722"><ele>251.8</ele><time>2026-03-22T14:46:52.999Z</time></trkpt><trkpt lat="44.28437559063263" lon="11.451490752155191"><ele>251.0</ele><time>2026-03-22T14:46:53.999Z</time></trkpt><trkpt lat="44.28428379454321" lon="11.451528185359756"><ele>251.0</ele><time>2026-03-22T14:46:54.999Z</time></trkpt><trkpt lat="44.28421113046098" lon="11.451593826825064"><ele>251.00000000000003</ele><time>2026-03-22T14:46:56Z</time></trkpt><trkpt lat="44.28414404744157" lon="11.451695686040098"><ele>251.00000000000003</ele><time>2026-03-22T14:46:57Z</time></trkpt><trkpt lat="44.284096746819166" lon="11.45183886590858"><ele>251.0</ele><time>2026-03-22T14:46:58Z</time></trkpt><trkpt lat="44.284061037880846" lon="11.451990643676908"><ele>251.0</ele><time>2026-03-22T14:46:59Z</time></trkpt><trkpt lat="44.28405064248" lon="11.45216713403406"><ele>251.8</ele><time>2026-03-22T14:47:00Z</time></trkpt><trkpt lat="44.28406708040244" lon="11.452335222837752"><ele>252.60000000000002</ele><time>2026-03-22T14:47:01Z</time></trkpt><trkpt lat="44.284096386878346" lon="11.452478457414637"><ele>253.4</ele><time>2026-03-22T14:47:02Z</time></trkpt><trkpt lat="44.28409555856655" lon="11.452598889691117"><ele>254.2</ele><time>2026-03-22T14:47:03Z</time></trkpt><trkpt lat="44.28407651647716" lon="11.452784995085405"><ele>255.0</ele><time>2026-03-22T14:47:05Z</time></trkpt><trkpt lat="44.28399293967645" lon="11.452846845377403"><ele>254.4</ele><time>2026-03-22T14:47:06Z</time></trkpt><trkpt lat="44.28390058835214" lon="11.452911386888163"><ele>253.8</ele><time>2026-03-22T14:47:07Z</time></trkpt><trkpt lat="44.28379406547893" lon="11.452973213374237"><ele>253.2</ele><time>2026-03-22T14:47:08Z</time></trkpt><trkpt lat="44.28368359867423" lon="11.453004054498354"><ele>252.6</ele><time>2026-03-22T14:47:09Z</time></trkpt><trkpt lat="44.28357342827379" lon="11.453000400187124"><ele>252.0</ele><time>2026-03-22T14:47:10Z</time></trkpt><trkpt lat="44.28347295303195" lon="11.452929235255532"><ele>252.0</ele><time>2026-03-22T14:47:11Z</time></trkpt><trkpt lat="44.28336656864559" lon="11.452850389671937"><ele>252.0</ele><time>2026-03-22T14:47:12Z</time></trkpt><trkpt lat="44.283276181170024" lon="11.45280447283964"><ele>252.0</ele><time>2026-03-22T14:47:13Z</time></trkpt><trkpt lat="44.28318174575362" lon="11.452770422586301"><ele>252.0</ele><time>2026-03-22T14:47:14Z</time></trkpt><trkpt lat="44.28306691222739" lon="11.4527608472464"><ele>252.0</ele><time>2026-03-22T14:47:15Z</time></trkpt><trkpt lat="44.28294837370269" lon="11.452763983686308"><ele>251.6</ele><time>2026-03-22T14:47:16Z</time></trkpt><trkpt lat="44.282852733686056" lon="11.452771267008279"><ele>251.2</ele><time>2026-03-22T14:47:17Z</time></trkpt><trkpt lat="44.28277189466325" lon="11.45278488142052"><ele>250.8</ele><time>2026-03-22T14:47:18Z</time></trkpt><trkpt lat="44.282688694385854" lon="11.452818013496152"><ele>250.4</ele><time>2026-03-22T14:47:19Z</time></trkpt><trkpt lat="44.282601034382644" lon="11.452868229616199"><ele>250.0</ele><time>2026-03-22T14:47:20Z</time></trkpt><trkpt lat="44.28254450503574" lon="11.453007819949649"><ele>250.2</ele><time>2026-03-22T14:47:21Z</time></trkpt><trkpt lat="44.282498483270444" lon="11.453159121117835"><ele>250.4</ele><time>2026-03-22T14:47:22Z</time></trkpt><trkpt lat="44.28245202786946" lon="11.453302281118855"><ele>250.60000000000002</ele><time>2026-03-22T14:47:23Z</time></trkpt><trkpt lat="44.282404610262" lon="11.453417328658457"><ele>250.8</ele><time>2026-03-22T14:47:24Z</time></trkpt><trkpt lat="44.28234135032047" lon="11.453504159227384"><ele>251.0</ele><time>2026-03-22T14:47:25Z</time></trkpt><trkpt lat="44.28225432075188" lon="11.45357009030668"><ele>251.0</ele><time>2026-03-22T14:47:26Z</time></trkpt><trkpt lat="44.28214619828813" lon="11.453604747500567"><ele>251.00000000000003</ele><time>2026-03-22T14:47:27Z</time></trkpt><trkpt lat="44.28202220382344" lon="11.453636826718006"><ele>251.00000000000003</ele><time>2026-03-22T14:47:28Z</time></trkpt><trkpt lat="44.28191196698131" lon="11.453662317334041"><ele>251.0</ele><time>2026-03-22T14:47:29Z</time></trkpt><trkpt lat="44.28182109081766" lon="11.453694262451492"><ele>251.0</ele><time>2026-03-22T14:47:30Z</time></trkpt><trkpt lat="44.281748066017975" lon="11.45376545443457"><ele>253.5</ele><time>2026-03-22T14:47:31Z</time></trkpt><trkpt lat="44.28165893972179" lon="11.453850427747104"><ele>256.0</ele><time>2026-03-22T14:47:32Z</time></trkpt><trkpt lat="44.28159151574589" lon="11.454009090783842"><ele>258.5</ele><time>2026-03-22T14:47:33Z</time></trkpt><trkpt lat="44.281526916860024" lon="11.454151027156914"><ele>261.0</ele><time>2026-03-22T14:47:34Z</time></trkpt><trkpt lat="44.281450553102125" lon="11.454276891969654"><ele>261.5</ele><time>2026-03-22T14:47:35Z</time></trkpt><trkpt lat="44.281365651384164" lon="11.454374348728818"><ele>262.0</ele><time>2026-03-22T14:47:36Z</time></trkpt><trkpt lat="44.28127161993078" lon="11.454470226684222"><ele>262.5</ele><time>2026-03-22T14:47:37Z</time></trkpt><trkpt lat="44.28117285189765" lon="11.454574078261908"><ele>263.0</ele><time>2026-03-22T14:47:38Z</time></trkpt><trkpt lat="44.28105237063758" lon="11.454668055910155"><ele>263.0</ele><time>2026-03-22T14:47:39Z</time></trkpt><trkpt lat="44.28092176634674" lon="11.454766808901677"><ele>263.0</ele><time>2026-03-22T14:47:40Z</time></trkpt><trkpt lat="44.28079412092892" lon="11.45488296626257"><ele>263.0</ele><time>2026-03-22T14:47:41Z</time></trkpt><trkpt lat="44.28066917311136" lon="11.455028547404595"><ele>263.5</ele><time>2026-03-22T14:47:42Z</time></trkpt><trkpt lat="44.2805637119569" lon="11.455154424794621"><ele>264.0</ele><time>2026-03-22T14:47:43Z</time></trkpt><trkpt lat="44.2804768765954" lon="11.455254150949992"><ele>264.5</ele><time>2026-03-22T14:47:44Z</time></trkpt><trkpt lat="44.28040105044541" lon="11.455348565451644"><ele>265.0</ele><time>2026-03-22T14:47:45Z</time></trkpt><trkpt lat="44.28032610272521" lon="11.45546260285541"><ele>265.0</ele><time>2026-03-22T14:47:46Z</time></trkpt><trkpt lat="44.28025385860093" lon="11.455604466085404"><ele>265.0</ele><time>2026-03-22T14:47:47Z</time></trkpt><trkpt lat="44.280169233929946" lon="11.45575229217976"><ele>265.0</ele><time>2026-03-22T14:47:48Z</time></trkpt><trkpt lat="44.280102877117876" lon="11.45593168118407"><ele>265.0</ele><time>2026-03-22T14:47:49Z</time></trkpt><trkpt lat="44.280034981803496" lon="11.456119215004003"><ele>267.25</ele><time>2026-03-22T14:47:50Z</time></trkpt><trkpt lat="44.279966413133636" lon="11.456300231640045"><ele>269.5</ele><time>2026-03-22T14:47:51Z</time></trkpt><trkpt lat="44.27990365406343" lon="11.456465736357815"><ele>271.75</ele><time>2026-03-22T14:47:52Z</time></trkpt><trkpt lat="44.27985065167274" lon="11.456608132804758"><ele>274.0</ele><time>2026-03-22T14:47:53Z</time></trkpt><trkpt lat="44.27980181346441" lon="11.456746919629351"><ele>273.25</ele><time>2026-03-22T14:47:54Z</time></trkpt><trkpt lat="44.27976097498219" lon="11.45690770237634"><ele>272.5</ele><time>2026-03-22T14:47:55Z</time></trkpt><trkpt lat="44.279721783902886" lon="11.457079369407476"><ele>271.75</ele><time>2026-03-22T14:47:56Z</time></trkpt><trkpt lat="44.279681534752086" lon="11.457254540427337"><ele>271.0</ele><time>2026-03-22T14:47:57Z</time></trkpt><trkpt lat="44.27968846007046" lon="11.457419293893588"><ele>271.0</ele><time>2026-03-22T14:47:58Z</time></trkpt><trkpt lat="44.27969140358393" lon="11.457552024530436"><ele>271.0</ele><time>2026-03-22T14:47:59Z</time></trkpt><trkpt lat="44.279700425396314" lon="11.457658373448464"><ele>271.0</ele><time>2026-03-22T14:48:00Z</time></trkpt><trkpt lat="44.27967882158457" lon="11.457746710514513"><ele>271.0</ele><time>2026-03-22T14:48:01Z</time></trkpt><trkpt lat="44.27967063049228" lon="11.457836409000183"><ele>271.0</ele><time>2026-03-22T14:48:02Z</time></trkpt><trkpt lat="44.27961135039733" lon="11.457924160255383"><ele>271.0</ele><time>2026-03-22T14:48:03Z</time></trkpt><trkpt lat="44.27952314101273" lon="11.457989506829104"><ele>271.0</ele><time>2026-03-22T14:48:04Z</time></trkpt><trkpt lat="44.27940751490133" lon="11.457960625203224"><ele>271.0</ele><time>2026-03-22T14:48:05Z</time></trkpt><trkpt lat="44.279298343825076" lon="11.457939983139898"><ele>271.0</ele><time>2026-03-22T14:48:06Z</time></trkpt><trkpt lat="44.27919845537152" lon="11.457917516684688"><ele>271.0</ele><time>2026-03-22T14:48:07Z</time></trkpt><trkpt lat="44.27908878277773" lon="11.45792876527369"><ele>271.0</ele><time>2026-03-22T14:48:08Z</time></trkpt><trkpt lat="44.278969096955926" lon="11.457972010807858"><ele>271.0</ele><time>2026-03-22T14:48:09Z</time></trkpt><trkpt lat="44.2788495813193" lon="11.458036885038247"><ele>271.0</ele><time>2026-03-22T14:48:10Z</time></trkpt><trkpt lat="44.27874335953481" lon="11.458116486327876"><ele>271.0</ele><time>2026-03-22T14:48:11Z</time></trkpt><trkpt lat="44.2786452044097" lon="11.458205880765133"><ele>271.0</ele><time>2026-03-22T14:48:12Z</time></trkpt><trkpt lat="44.27854366861059" lon="11.458318398851958"><ele>271.0</ele><time>2026-03-22T14:48:13Z</time></trkpt><trkpt lat="44.2784607228463" lon="11.458438851062265"><ele>271.0</ele><time>2026-03-22T14:48:14Z</time></trkpt><trkpt lat="44.2783808059776" lon="11.45853481396993"><ele>271.0</ele><time>2026-03-22T14:48:15Z</time></trkpt><trkpt lat="44.278313584046884" lon="11.458648223069817"><ele>271.0</ele><time>2026-03-22T14:48:16Z</time></trkpt><trkpt lat="44.27825580896502" lon="11.458744056681368"><ele>271.0</ele><time>2026-03-22T14:48:17Z</time></trkpt><trkpt lat="44.278202564964324" lon="11.458821791819448"><ele>270.6</ele><time>2026-03-22T14:48:18Z</time></trkpt><trkpt lat="44.278098831517156" lon="11.458933668678265"><ele>270.20000000000005</ele><time>2026-03-22T14:48:20Z</time></trkpt><trkpt lat="44.278021205834484" lon="11.458954950283289"><ele>269.79999999999995</ele><time>2026-03-22T14:48:21Z</time></trkpt><trkpt lat="44.277942864898904" lon="11.45895636390812"><ele>269.4</ele><time>2026-03-22T14:48:22Z</time></trkpt><trkpt lat="44.277867001309694" lon="11.458888907601175"><ele>269.0</ele><time>2026-03-22T14:48:23Z</time></trkpt><trkpt lat="44.277785137061485" lon="11.458816854389845"><ele>269.59999999999997</ele><time>2026-03-22T14:48:24Z</time></trkpt><trkpt lat="44.27769206022826" lon="11.458744586927724"><ele>270.2</ele><time>2026-03-22T14:48:25Z</time></trkpt><trkpt lat="44.277585723513624" lon="11.458668614255556"><ele>270.79999999999995</ele><time>2026-03-22T14:48:26Z</time></trkpt><trkpt lat="44.27748749629624" lon="11.45859614164732"><ele>271.4</ele><time>2026-03-22T14:48:27Z</time></trkpt><trkpt lat="44.27740560907542" lon="11.458532823833512"><ele>272.0</ele><time>2026-03-22T14:48:28Z</time></trkpt><trkpt lat="44.277330660979636" lon="11.458490380169343"><ele>274.25</ele><time>2026-03-22T14:48:29Z</time></trkpt><trkpt lat="44.27723343288572" lon="11.45847538302594"><ele>276.5</ele><time>2026-03-22T14:48:30Z</time></trkpt><trkpt lat="44.2771175715034" lon="11.458509310240744"><ele>278.75</ele><time>2026-03-22T14:48:30.999Z</time></trkpt><trkpt lat="44.27699530734465" lon="11.458599560770947"><ele>281.0</ele><time>2026-03-22T14:48:31.999Z</time></trkpt><trkpt lat="44.2768829047034" lon="11.458720772189736"><ele>279.25</ele><time>2026-03-22T14:48:32.999Z</time></trkpt><trkpt lat="44.276762728433305" lon="11.458804584094725"><ele>277.5</ele><time>2026-03-22T14:48:33.999Z</time></trkpt><trkpt lat="44.27662743989808" lon="11.458858188040157"><ele>275.75</ele><time>2026-03-22T14:48:34.999Z</time></trkpt><trkpt lat="44.276484003037595" lon="11.458870099551316"><ele>274.0</ele><time>2026-03-22T14:48:35.999Z</time></trkpt><trkpt lat="44.276331253924575" lon="11.458864746944164"><ele>274.0</ele><time>2026-03-22T14:48:36.999Z</time></trkpt><trkpt lat="44.27615101400944" lon="11.458840972958988"><ele>274.0</ele><time>2026-03-22T14:48:37.999Z</time></trkpt><trkpt lat="44.275987481556086" lon="11.458810479368113"><ele>274.0</ele><time>2026-03-22T14:48:38.999Z</time></trkpt><trkpt lat="44.27584720131481" lon="11.458804947898479"><ele>275.0</ele><time>2026-03-22T14:48:39.999Z</time></trkpt><trkpt lat="44.27572666041169" lon="11.458771658447198"><ele>276.0</ele><time>2026-03-22T14:48:40.999Z</time></trkpt><trkpt lat="44.275616381099745" lon="11.45874868289973"><ele>277.0</ele><time>2026-03-22T14:48:42Z</time></trkpt><trkpt lat="44.275502435160604" lon="11.458715690307633"><ele>278.0</ele><time>2026-03-22T14:48:43Z</time></trkpt><trkpt lat="44.2753793059526" lon="11.458656813691551"><ele>278.0</ele><time>2026-03-22T14:48:44Z</time></trkpt><trkpt lat="44.27525015488688" lon="11.458577093564829"><ele>278.0</ele><time>2026-03-22T14:48:45Z</time></trkpt><trkpt lat="44.27512388570485" lon="11.45848079896534"><ele>278.0</ele><time>2026-03-22T14:48:46Z</time></trkpt><trkpt lat="44.27500242417544" lon="11.458363484751349"><ele>278.0</ele><time>2026-03-22T14:48:47Z</time></trkpt><trkpt lat="44.274904140440285" lon="11.458258768896545"><ele>278.0</ele><time>2026-03-22T14:48:48Z</time></trkpt><trkpt lat="44.274821667338166" lon="11.458162690477751"><ele>278.0</ele><time>2026-03-22T14:48:49Z</time></trkpt><trkpt lat="44.27474341515627" lon="11.458079217663215"><ele>278.0</ele><time>2026-03-22T14:48:50Z</time></trkpt><trkpt lat="44.274661761340944" lon="11.457996842088315"><ele>278.0</ele><time>2026-03-22T14:48:51Z</time></trkpt><trkpt lat="44.2745741697756" lon="11.457911586172397"><ele>278.0</ele><time>2026-03-22T14:48:52Z</time></trkpt><trkpt lat="44.27449173687154" lon="11.457853817746368"><ele>279.5</ele><time>2026-03-22T14:48:53Z</time></trkpt><trkpt lat="44.27442016694286" lon="11.457810297212598"><ele>281.0</ele><time>2026-03-22T14:48:54Z</time></trkpt><trkpt lat="44.27435524616445" lon="11.457778368395324"><ele>282.5</ele><time>2026-03-22T14:48:55Z</time></trkpt><trkpt lat="44.27428963474655" lon="11.45775519657915"><ele>284.0</ele><time>2026-03-22T14:48:56Z</time></trkpt><trkpt lat="44.27421703718196" lon="11.457734470797355"><ele>285.5</ele><time>2026-03-22T14:48:57Z</time></trkpt><trkpt lat="44.27409837335483" lon="11.457700970015104"><ele>287.0</ele><time>2026-03-22T14:48:59Z</time></trkpt><trkpt lat="44.27400210603746" lon="11.457671226663782"><ele>287.0</ele><time>2026-03-22T14:49:01Z</time></trkpt><trkpt lat="44.273925299267354" lon="11.457620584055372"><ele>287.0</ele><time>2026-03-22T14:49:03Z</time></trkpt><trkpt lat="44.27387126597149" lon="11.45751898706081"><ele>287.0</ele><time>2026-03-22T14:49:05Z</time></trkpt><trkpt lat="44.2738358257236" lon="11.457432640160693"><ele>287.0</ele><time>2026-03-22T14:49:06Z</time></trkpt><trkpt lat="44.27377636851651" lon="11.45738866637151"><ele>287.0</ele><time>2026-03-22T14:49:07Z</time></trkpt><trkpt lat="44.27370597820529" lon="11.457386238964856"><ele>287.0</ele><time>2026-03-22T14:49:08Z</time></trkpt><trkpt lat="44.27363545320421" lon="11.457382131796512"><ele>287.0</ele><time>2026-03-22T14:49:09Z</time></trkpt><trkpt lat="44.27355944825274" lon="11.457272935819846"><ele>287.0</ele><time>2026-03-22T14:49:11Z</time></trkpt><trkpt lat="44.27357309285494" lon="11.45712698753841"><ele>287.0</ele><time>2026-03-22T14:49:13Z</time></trkpt><trkpt lat="44.273636535916026" lon="11.457074887769448"><ele>287.0</ele><time>2026-03-22T14:49:14Z</time></trkpt><trkpt lat="44.27371193520982" lon="11.457088717234011"><ele>287.0</ele><time>2026-03-22T14:49:15Z</time></trkpt><trkpt lat="44.27381145833164" lon="11.457039754811232"><ele>288.8</ele><time>2026-03-22T14:49:17Z</time></trkpt><trkpt lat="44.2738798378983" lon="11.456840169706465"><ele>290.6</ele><time>2026-03-22T14:49:19Z</time></trkpt><trkpt lat="44.273914536263455" lon="11.456705334625653"><ele>292.40000000000003</ele><time>2026-03-22T14:49:20Z</time></trkpt><trkpt lat="44.27394022815615" lon="11.456580769666564"><ele>294.2</ele><time>2026-03-22T14:49:21Z</time></trkpt><trkpt lat="44.27396744613928" lon="11.456478560422171"><ele>296.0</ele><time>2026-03-22T14:49:22Z</time></trkpt><trkpt lat="44.27399454367076" lon="11.456378173651332"><ele>296.6</ele><time>2026-03-22T14:49:23Z</time></trkpt><trkpt lat="44.274041319679895" lon="11.456293279893732"><ele>297.20000000000005</ele><time>2026-03-22T14:49:24Z</time></trkpt><trkpt lat="44.27410685362282" lon="11.456239821548632"><ele>297.79999999999995</ele><time>2026-03-22T14:49:25Z</time></trkpt><trkpt lat="44.27419607803648" lon="11.456220974003346"><ele>298.4</ele><time>2026-03-22T14:49:26Z</time></trkpt><trkpt lat="44.27429280299562" lon="11.456242770865599"><ele>299.0</ele><time>2026-03-22T14:49:27Z</time></trkpt><trkpt lat="44.274411118786624" lon="11.456274138637163"><ele>300.8</ele><time>2026-03-22T14:49:28Z</time></trkpt><trkpt lat="44.27451231168757" lon="11.45628214832242"><ele>302.59999999999997</ele><time>2026-03-22T14:49:29Z</time></trkpt><trkpt lat="44.274614732551605" lon="11.456279433577597"><ele>304.4</ele><time>2026-03-22T14:49:30Z</time></trkpt><trkpt lat="44.27472942905779" lon="11.456274776019185"><ele>306.2</ele><time>2026-03-22T14:49:31Z</time></trkpt><trkpt lat="44.27482695722051" lon="11.456269847806999"><ele>308.0</ele><time>2026-03-22T14:49:32Z</time></trkpt><trkpt lat="44.274899823573676" lon="11.456269050067599"><ele>309.0</ele><time>2026-03-22T14:49:33Z</time></trkpt><trkpt lat="44.27499005885425" lon="11.456245358508594"><ele>310.0</ele><time>2026-03-22T14:49:35Z</time></trkpt><trkpt lat="44.27505636814752" lon="11.456115660638998"><ele>311.0</ele><time>2026-03-22T14:49:37Z</time></trkpt><trkpt lat="44.275030355878684" lon="11.456023954932222"><ele>312.0</ele><time>2026-03-22T14:49:38Z</time></trkpt><trkpt lat="44.27497256741351" lon="11.455958718691281"><ele>313.0</ele><time>2026-03-22T14:49:39Z</time></trkpt><trkpt lat="44.274894727150155" lon="11.455894629130611"><ele>314.0</ele><time>2026-03-22T14:49:40Z</time></trkpt><trkpt lat="44.27480049436184" lon="11.455817651962361"><ele>314.33333333333337</ele><time>2026-03-22T14:49:41Z</time></trkpt><trkpt lat="44.27471208554134" lon="11.45571580514716"><ele>314.6666666666667</ele><time>2026-03-22T14:49:42Z</time></trkpt><trkpt lat="44.27464495863324" lon="11.455641453724516"><ele>315.0</ele><time>2026-03-22T14:49:43Z</time></trkpt><trkpt lat="44.27459371390701" lon="11.455579731370314"><ele>315.3333333333333</ele><time>2026-03-22T14:49:44Z</time></trkpt><trkpt lat="44.27453668152874" lon="11.455519459530569"><ele>315.66666666666663</ele><time>2026-03-22T14:49:45Z</time></trkpt><trkpt lat="44.27447692441918" lon="11.45544887175968"><ele>316.0</ele><time>2026-03-22T14:49:46Z</time></trkpt><trkpt lat="44.274429759453795" lon="11.455362848860542"><ele>316.0</ele><time>2026-03-22T14:49:47Z</time></trkpt><trkpt lat="44.274386839912715" lon="11.45526743189425"><ele>316.0</ele><time>2026-03-22T14:49:48Z</time></trkpt><trkpt lat="44.27435950380822" lon="11.45518339379291"><ele>316.0</ele><time>2026-03-22T14:49:49Z</time></trkpt><trkpt lat="44.27432435593316" lon="11.455084769959965"><ele>316.0</ele><time>2026-03-22T14:49:50Z</time></trkpt><trkpt lat="44.274283272316694" lon="11.454977426206947"><ele>316.0</ele><time>2026-03-22T14:49:51Z</time></trkpt><trkpt lat="44.27423221476651" lon="11.454863142098423"><ele>316.0</ele><time>2026-03-22T14:49:52Z</time></trkpt><trkpt lat="44.27417820844276" lon="11.454743222931683"><ele>317.4</ele><time>2026-03-22T14:49:53Z</time></trkpt><trkpt lat="44.274127659019925" lon="11.454616795294497"><ele>318.8</ele><time>2026-03-22T14:49:54Z</time></trkpt><trkpt lat="44.27407525076139" lon="11.45447756266057"><ele>320.2</ele><time>2026-03-22T14:49:55Z</time></trkpt><trkpt lat="44.274019721759984" lon="11.454342386565383"><ele>321.59999999999997</ele><time>2026-03-22T14:49:56Z</time></trkpt><trkpt lat="44.27396189821319" lon="11.454204889069166"><ele>323.0</ele><time>2026-03-22T14:49:57Z</time></trkpt><trkpt lat="44.27390927119092" lon="11.454073395122755"><ele>323.75</ele><time>2026-03-22T14:49:58Z</time></trkpt><trkpt lat="44.2738560306252" lon="11.453933197306947"><ele>324.5</ele><time>2026-03-22T14:49:59Z</time></trkpt><trkpt lat="44.27379706884841" lon="11.453786325894269"><ele>325.25</ele><time>2026-03-22T14:50:00Z</time></trkpt><trkpt lat="44.27373393897549" lon="11.453640078702321"><ele>326.0</ele><time>2026-03-22T14:50:01Z</time></trkpt><trkpt lat="44.27367166292816" lon="11.45348837896668"><ele>327.8</ele><time>2026-03-22T14:50:02Z</time></trkpt><trkpt lat="44.273614486123435" lon="11.453335806714952"><ele>329.6</ele><time>2026-03-22T14:50:03Z</time></trkpt><trkpt lat="44.27356830022169" lon="11.45319805206374"><ele>331.4</ele><time>2026-03-22T14:50:04Z</time></trkpt><trkpt lat="44.27353249994441" lon="11.453064632191156"><ele>333.2</ele><time>2026-03-22T14:50:05Z</time></trkpt><trkpt lat="44.27351096377704" lon="11.452920068631672"><ele>335.0</ele><time>2026-03-22T14:50:06Z</time></trkpt><trkpt lat="44.27349496996087" lon="11.452762754219556"><ele>337.25</ele><time>2026-03-22T14:50:07Z</time></trkpt><trkpt lat="44.273488551651425" lon="11.452593248154544"><ele>339.5</ele><time>2026-03-22T14:50:08Z</time></trkpt><trkpt lat="44.27347837255345" lon="11.452409146738765"><ele>341.75</ele><time>2026-03-22T14:50:09Z</time></trkpt><trkpt lat="44.273456702464436" lon="11.452206991592075"><ele>344.0</ele><time>2026-03-22T14:50:10Z</time></trkpt><trkpt lat="44.27342429869703" lon="11.451992701618016"><ele>345.2</ele><time>2026-03-22T14:50:11Z</time></trkpt><trkpt lat="44.27339687147136" lon="11.451804455273024"><ele>346.4</ele><time>2026-03-22T14:50:12Z</time></trkpt><trkpt lat="44.27337389645498" lon="11.451649039505618"><ele>347.6</ele><time>2026-03-22T14:50:13Z</time></trkpt><trkpt lat="44.27335051709709" lon="11.451522415491358"><ele>348.8</ele><time>2026-03-22T14:50:14Z</time></trkpt><trkpt lat="44.273329788474044" lon="11.45140843934746"><ele>350.0</ele><time>2026-03-22T14:50:15Z</time></trkpt><trkpt lat="44.27331193447586" lon="11.451293448555901"><ele>351.2</ele><time>2026-03-22T14:50:16Z</time></trkpt><trkpt lat="44.273308445887594" lon="11.451183922578247"><ele>352.4</ele><time>2026-03-22T14:50:17Z</time></trkpt><trkpt lat="44.27332910050166" lon="11.451064331225533"><ele>353.6</ele><time>2026-03-22T14:50:18Z</time></trkpt><trkpt lat="44.27338119936135" lon="11.450940826147175"><ele>354.8</ele><time>2026-03-22T14:50:19Z</time></trkpt><trkpt lat="44.27346614198542" lon="11.450830618804973"><ele>356.0</ele><time>2026-03-22T14:50:20Z</time></trkpt><trkpt lat="44.27355951101913" lon="11.450739218843237"><ele>356.0</ele><time>2026-03-22T14:50:21Z</time></trkpt><trkpt lat="44.273623206852875" lon="11.450642949853801"><ele>356.0</ele><time>2026-03-22T14:50:22Z</time></trkpt><trkpt lat="44.27366438111176" lon="11.450510701172655"><ele>356.0</ele><time>2026-03-22T14:50:23Z</time></trkpt><trkpt lat="44.27369448493963" lon="11.450354142400199"><ele>356.0</ele><time>2026-03-22T14:50:24Z</time></trkpt><trkpt lat="44.27373351063618" lon="11.45018642077971"><ele>356.0</ele><time>2026-03-22T14:50:25Z</time></trkpt><trkpt lat="44.27379179449231" lon="11.450058507043378"><ele>356.33333333333337</ele><time>2026-03-22T14:50:26Z</time></trkpt><trkpt lat="44.27386486684971" lon="11.44997526783824"><ele>356.6666666666667</ele><time>2026-03-22T14:50:27Z</time></trkpt><trkpt lat="44.273952305298955" lon="11.449915849029969"><ele>357.0</ele><time>2026-03-22T14:50:28Z</time></trkpt><trkpt lat="44.27402323723953" lon="11.4498659250324"><ele>357.3333333333333</ele><time>2026-03-22T14:50:29Z</time></trkpt><trkpt lat="44.274066005403846" lon="11.449724811641198"><ele>357.66666666666663</ele><time>2026-03-22T14:50:31Z</time></trkpt><trkpt lat="44.274041526739126" lon="11.449643725950098"><ele>358.0</ele><time>2026-03-22T14:50:32Z</time></trkpt><trkpt lat="44.27390257051787" lon="11.449574055518731"><ele>359.79999999999995</ele><time>2026-03-22T14:50:34Z</time></trkpt><trkpt lat="44.27379386133444" lon="11.449578228570475"><ele>361.6</ele><time>2026-03-22T14:50:35Z</time></trkpt><trkpt lat="44.27368941808181" lon="11.449584242581796"><ele>363.4</ele><time>2026-03-22T14:50:36Z</time></trkpt><trkpt lat="44.273583755882285" lon="11.449591230098248"><ele>365.20000000000005</ele><time>2026-03-22T14:50:37Z</time></trkpt><trkpt lat="44.273458452853234" lon="11.449600435824012"><ele>367.0</ele><time>2026-03-22T14:50:38Z</time></trkpt><trkpt lat="44.27330249018999" lon="11.449615916369966"><ele>367.20000000000005</ele><time>2026-03-22T14:50:39Z</time></trkpt><trkpt lat="44.27316779148352" lon="11.449664113909742"><ele>367.4</ele><time>2026-03-22T14:50:40Z</time></trkpt><trkpt lat="44.27307288478411" lon="11.449702103403837"><ele>367.6</ele><time>2026-03-22T14:50:41Z</time></trkpt><trkpt lat="44.2729930063846" lon="11.449703079862767"><ele>367.79999999999995</ele><time>2026-03-22T14:50:42Z</time></trkpt><trkpt lat="44.272928372794325" lon="11.449734752335191"><ele>368.0</ele><time>2026-03-22T14:50:43Z</time></trkpt><trkpt lat="44.27283594620631" lon="11.44970173926854"><ele>369.83333333333337</ele><time>2026-03-22T14:50:44Z</time></trkpt><trkpt lat="44.27275135632151" lon="11.449659888413194"><ele>371.6666666666667</ele><time>2026-03-22T14:50:45Z</time></trkpt><trkpt lat="44.2726808093042" lon="11.449605223406827"><ele>373.5</ele><time>2026-03-22T14:50:46Z</time></trkpt><trkpt lat="44.27262799529018" lon="11.449544394208312"><ele>375.3333333333333</ele><time>2026-03-22T14:50:47Z</time></trkpt><trkpt lat="44.27258446224627" lon="11.449454790615526"><ele>377.16666666666663</ele><time>2026-03-22T14:50:48Z</time></trkpt><trkpt lat="44.27255186810688" lon="11.449347699556295"><ele>379.0</ele><time>2026-03-22T14:50:49Z</time></trkpt><trkpt lat="44.27253806977039" lon="11.449099310405263"><ele>380.16666666666663</ele><time>2026-03-22T14:50:51Z</time></trkpt><trkpt lat="44.272548559652684" lon="11.448977435113063"><ele>381.3333333333333</ele><time>2026-03-22T14:50:52Z</time></trkpt><trkpt lat="44.27256536022562" lon="11.448866378932724"><ele>382.5</ele><time>2026-03-22T14:50:53Z</time></trkpt><trkpt lat="44.27258376608043" lon="11.44874985904191"><ele>383.66666666666663</ele><time>2026-03-22T14:50:54Z</time></trkpt><trkpt lat="44.27259885805041" lon="11.448625514501288"><ele>384.8333333333333</ele><time>2026-03-22T14:50:55Z</time></trkpt><trkpt lat="44.27260783384223" lon="11.448495197944197"><ele>386.0</ele><time>2026-03-22T14:50:56Z</time></trkpt><trkpt lat="44.27261204283923" lon="11.44837527549587"><ele>388.0</ele><time>2026-03-22T14:50:57Z</time></trkpt><trkpt lat="44.272613520806416" lon="11.448256404862878"><ele>390.0</ele><time>2026-03-22T14:50:58Z</time></trkpt><trkpt lat="44.272609983750264" lon="11.448126414611322"><ele>392.0</ele><time>2026-03-22T14:50:59Z</time></trkpt><trkpt lat="44.27259676299439" lon="11.447992326425007"><ele>394.0</ele><time>2026-03-22T14:51:00Z</time></trkpt><trkpt lat="44.272564599884205" lon="11.447847270611122"><ele>396.0</ele><time>2026-03-22T14:51:01Z</time></trkpt><trkpt lat="44.272550616820645" lon="11.447729595523226"><ele>396.6</ele><time>2026-03-22T14:51:02Z</time></trkpt><trkpt lat="44.2725330105592" lon="11.447543607613449"><ele>397.20000000000005</ele><time>2026-03-22T14:51:04Z</time></trkpt><trkpt lat="44.27251574949037" lon="11.447420381806179"><ele>397.79999999999995</ele><time>2026-03-22T14:51:05Z</time></trkpt><trkpt lat="44.27248600440345" lon="11.447305749067766"><ele>398.4</ele><time>2026-03-22T14:51:06Z</time></trkpt><trkpt lat="44.272440133750074" lon="11.44719731362773"><ele>399.0</ele><time>2026-03-22T14:51:07Z</time></trkpt><trkpt lat="44.27238230622326" lon="11.447079584812952"><ele>399.0</ele><time>2026-03-22T14:51:08Z</time></trkpt><trkpt lat="44.272319529972556" lon="11.446959545072538"><ele>399.0</ele><time>2026-03-22T14:51:09Z</time></trkpt><trkpt lat="44.272251767351555" lon="11.446849520309513"><ele>399.0</ele><time>2026-03-22T14:51:10Z</time></trkpt><trkpt lat="44.272183336728375" lon="11.44674951058646"><ele>399.0</ele><time>2026-03-22T14:51:11Z</time></trkpt><trkpt lat="44.27211230236828" lon="11.44663434651571"><ele>399.0</ele><time>2026-03-22T14:51:12Z</time></trkpt><trkpt lat="44.27203976529869" lon="11.446508084839925"><ele>402.5</ele><time>2026-03-22T14:51:13Z</time></trkpt><trkpt lat="44.27196977220303" lon="11.446390389614255"><ele>406.0</ele><time>2026-03-22T14:51:14Z</time></trkpt><trkpt lat="44.27188964301258" lon="11.446268628142342"><ele>409.5</ele><time>2026-03-22T14:51:15Z</time></trkpt><trkpt lat="44.27181059573564" lon="11.446133932080905"><ele>413.0</ele><time>2026-03-22T14:51:16Z</time></trkpt><trkpt lat="44.27173435063297" lon="11.446016693977105"><ele>412.99999999999994</ele><time>2026-03-22T14:51:17Z</time></trkpt><trkpt lat="44.27167694329244" lon="11.445920781630488"><ele>413.0</ele><time>2026-03-22T14:51:18Z</time></trkpt><trkpt lat="44.27162212740195" lon="11.44583602296389"><ele>413.0</ele><time>2026-03-22T14:51:19Z</time></trkpt><trkpt lat="44.27156191874269" lon="11.445742230215723"><ele>413.0</ele><time>2026-03-22T14:51:20Z</time></trkpt><trkpt lat="44.27150533689929" lon="11.445657852937217"><ele>412.99999999999994</ele><time>2026-03-22T14:51:21Z</time></trkpt><trkpt lat="44.271425351073326" lon="11.445593642649754"><ele>413.0</ele><time>2026-03-22T14:51:22Z</time></trkpt><trkpt lat="44.27133242678008" lon="11.445553709089962"><ele>416.25</ele><time>2026-03-22T14:51:23Z</time></trkpt><trkpt lat="44.2712245195391" lon="11.445527066338023"><ele>419.5</ele><time>2026-03-22T14:51:24Z</time></trkpt><trkpt lat="44.271110654671546" lon="11.445485222780832"><ele>422.75</ele><time>2026-03-22T14:51:25Z</time></trkpt><trkpt lat="44.2709829067664" lon="11.445477126364734"><ele>426.0</ele><time>2026-03-22T14:51:26Z</time></trkpt><trkpt lat="44.27085282981645" lon="11.445494283355014"><ele>426.0</ele><time>2026-03-22T14:51:27Z</time></trkpt><trkpt lat="44.27074227985449" lon="11.445469665939047"><ele>426.0</ele><time>2026-03-22T14:51:28Z</time></trkpt><trkpt lat="44.270653164464676" lon="11.445466070990223"><ele>426.0</ele><time>2026-03-22T14:51:29Z</time></trkpt><trkpt lat="44.27057462568708" lon="11.44544711938461"><ele>426.0</ele><time>2026-03-22T14:51:30Z</time></trkpt><trkpt lat="44.27049928634537" lon="11.44541767822588"><ele>426.0</ele><time>2026-03-22T14:51:31Z</time></trkpt><trkpt lat="44.27041449501387" lon="11.445359403789542"><ele>426.6</ele><time>2026-03-22T14:51:32Z</time></trkpt><trkpt lat="44.27032891505527" lon="11.445283563808685"><ele>427.20000000000005</ele><time>2026-03-22T14:51:33Z</time></trkpt><trkpt lat="44.270248538352305" lon="11.445192373345913"><ele>427.79999999999995</ele><time>2026-03-22T14:51:34Z</time></trkpt><trkpt lat="44.27019374250855" lon="11.44508184602464"><ele>428.4</ele><time>2026-03-22T14:51:35Z</time></trkpt><trkpt lat="44.27014080498401" lon="11.444939755920352"><ele>429.0</ele><time>2026-03-22T14:51:36Z</time></trkpt><trkpt lat="44.27008748836428" lon="11.444788437212685"><ele>429.0</ele><time>2026-03-22T14:51:37Z</time></trkpt><trkpt lat="44.27004045590842" lon="11.444660985268003"><ele>429.0</ele><time>2026-03-22T14:51:38Z</time></trkpt><trkpt lat="44.26999157015225" lon="11.44455390009516"><ele>429.0</ele><time>2026-03-22T14:51:39Z</time></trkpt><trkpt lat="44.26994018310828" lon="11.44444485636456"><ele>429.0</ele><time>2026-03-22T14:51:40Z</time></trkpt><trkpt lat="44.269889672049885" lon="11.444328438097843"><ele>429.0</ele><time>2026-03-22T14:51:41Z</time></trkpt><trkpt lat="44.269833633188796" lon="11.444209343273512"><ele>430.4</ele><time>2026-03-22T14:51:42Z</time></trkpt><trkpt lat="44.269767953640994" lon="11.444081780701609"><ele>431.79999999999995</ele><time>2026-03-22T14:51:43Z</time></trkpt><trkpt lat="44.26969778675157" lon="11.443960214363884"><ele>433.20000000000005</ele><time>2026-03-22T14:51:44Z</time></trkpt><trkpt lat="44.26962471278726" lon="11.443850408301056"><ele>434.6</ele><time>2026-03-22T14:51:45Z</time></trkpt><trkpt lat="44.26955837218938" lon="11.443739646782372"><ele>436.0</ele><time>2026-03-22T14:51:46Z</time></trkpt><trkpt lat="44.26949610245506" lon="11.443634338319832"><ele>436.0</ele><time>2026-03-22T14:51:47Z</time></trkpt><trkpt lat="44.269441300450524" lon="11.443533382109841"><ele>436.0</ele><time>2026-03-22T14:51:48Z</time></trkpt><trkpt lat="44.26939321615659" lon="11.44343076997003"><ele>436.0</ele><time>2026-03-22T14:51:49Z</time></trkpt><trkpt lat="44.26933909045167" lon="11.443320909409865"><ele>436.0</ele><time>2026-03-22T14:51:50Z</time></trkpt><trkpt lat="44.2692892069064" lon="11.44319981107656"><ele>436.0</ele><time>2026-03-22T14:51:51Z</time></trkpt><trkpt lat="44.26926083681241" lon="11.443078949227788"><ele>435.6</ele><time>2026-03-22T14:51:52Z</time></trkpt><trkpt lat="44.269252319060634" lon="11.442962113357455"><ele>435.20000000000005</ele><time>2026-03-22T14:51:53Z</time></trkpt><trkpt lat="44.26924906191571" lon="11.442843367701297"><ele>434.79999999999995</ele><time>2026-03-22T14:51:54Z</time></trkpt><trkpt lat="44.26925179466366" lon="11.442705226228533"><ele>434.4</ele><time>2026-03-22T14:51:55Z</time></trkpt><trkpt lat="44.26925589987624" lon="11.442559605681337"><ele>434.0</ele><time>2026-03-22T14:51:56Z</time></trkpt><trkpt lat="44.2692650553498" lon="11.442426643891203"><ele>434.0</ele><time>2026-03-22T14:51:57Z</time></trkpt><trkpt lat="44.26927612683511" lon="11.4423003766712"><ele>434.0</ele><time>2026-03-22T14:51:58Z</time></trkpt><trkpt lat="44.26929038843836" lon="11.44217837284483"><ele>434.0</ele><time>2026-03-22T14:51:59Z</time></trkpt><trkpt lat="44.26931343715224" lon="11.442037191725898"><ele>434.0</ele><time>2026-03-22T14:52:00Z</time></trkpt><trkpt lat="44.26933713303086" lon="11.441890253093122"><ele>434.0</ele><time>2026-03-22T14:52:01Z</time></trkpt><trkpt lat="44.26936255936698" lon="11.44173821871649"><ele>433.99999999999994</ele><time>2026-03-22T14:52:02Z</time></trkpt><trkpt lat="44.26938387924134" lon="11.441590093755284"><ele>434.0</ele><time>2026-03-22T14:52:03Z</time></trkpt><trkpt lat="44.269399940622144" lon="11.441461493756194"><ele>434.0</ele><time>2026-03-22T14:52:04Z</time></trkpt><trkpt lat="44.269414048069756" lon="11.441347328129783"><ele>434.0</ele><time>2026-03-22T14:52:05Z</time></trkpt><trkpt lat="44.26943856631218" lon="11.441242785581844"><ele>433.99999999999994</ele><time>2026-03-22T14:52:06Z</time></trkpt><trkpt lat="44.269456001276964" lon="11.441151111174143"><ele>434.0</ele><time>2026-03-22T14:52:07Z</time></trkpt><trkpt lat="44.26946152157326" lon="11.440956452505512"><ele>432.66666666666663</ele><time>2026-03-22T14:52:09Z</time></trkpt><trkpt lat="44.26943572826605" lon="11.440849552143222"><ele>431.3333333333333</ele><time>2026-03-22T14:52:10Z</time></trkpt><trkpt lat="44.26940163409127" lon="11.440765326938905"><ele>430.0</ele><time>2026-03-22T14:52:11Z</time></trkpt><trkpt lat="44.26936264533979" lon="11.440677605830187"><ele>428.66666666666663</ele><time>2026-03-22T14:52:12Z</time></trkpt><trkpt lat="44.26931863699607" lon="11.440569612531137"><ele>427.3333333333333</ele><time>2026-03-22T14:52:13Z</time></trkpt><trkpt lat="44.26927401088052" lon="11.440461351513823"><ele>426.0</ele><time>2026-03-22T14:52:14Z</time></trkpt><trkpt lat="44.269237876460934" lon="11.440360060482968"><ele>423.85714285714283</ele><time>2026-03-22T14:52:15Z</time></trkpt><trkpt lat="44.2692045153789" lon="11.440267235505752"><ele>421.7142857142857</ele><time>2026-03-22T14:52:16Z</time></trkpt><trkpt lat="44.2691729512818" lon="11.440170595040051"><ele>419.57142857142856</ele><time>2026-03-22T14:52:17Z</time></trkpt><trkpt lat="44.2691414263591" lon="11.440080676989185"><ele>417.42857142857144</ele><time>2026-03-22T14:52:18Z</time></trkpt><trkpt lat="44.2691125397806" lon="11.439985593743176"><ele>415.2857142857143</ele><time>2026-03-22T14:52:19Z</time></trkpt><trkpt lat="44.26907947697285" lon="11.439883439936354"><ele>413.1428571428571</ele><time>2026-03-22T14:52:20Z</time></trkpt><trkpt lat="44.26904460860974" lon="11.43979774985501"><ele>411.0</ele><time>2026-03-22T14:52:21Z</time></trkpt><trkpt lat="44.26897468040721" lon="11.439668948864204"><ele>413.8333333333333</ele><time>2026-03-22T14:52:23Z</time></trkpt><trkpt lat="44.26892612791631" lon="11.439612852952164"><ele>416.66666666666663</ele><time>2026-03-22T14:52:24Z</time></trkpt><trkpt lat="44.26887588549137" lon="11.439538083196782"><ele>419.5</ele><time>2026-03-22T14:52:25Z</time></trkpt><trkpt lat="44.26879545669615" lon="11.439500868902682"><ele>422.3333333333333</ele><time>2026-03-22T14:52:26Z</time></trkpt><trkpt lat="44.26874838497669" lon="11.43943032893448"><ele>425.16666666666663</ele><time>2026-03-22T14:52:27Z</time></trkpt><trkpt lat="44.268695306307905" lon="11.43933820380598"><ele>428.0</ele><time>2026-03-22T14:52:28Z</time></trkpt><trkpt lat="44.26865651546531" lon="11.439218372915272"><ele>427.99999999999994</ele><time>2026-03-22T14:52:29Z</time></trkpt><trkpt lat="44.268640813994985" lon="11.439100553984904"><ele>428.0</ele><time>2026-03-22T14:52:30Z</time></trkpt><trkpt lat="44.26862745830775" lon="11.438999684564136"><ele>428.0</ele><time>2026-03-22T14:52:31Z</time></trkpt><trkpt lat="44.268597546126614" lon="11.4389025927014"><ele>428.0</ele><time>2026-03-22T14:52:32Z</time></trkpt><trkpt lat="44.26854137965444" lon="11.438805894353893"><ele>427.99999999999994</ele><time>2026-03-22T14:52:33Z</time></trkpt><trkpt lat="44.2684708684055" lon="11.438729079390038"><ele>428.0</ele><time>2026-03-22T14:52:34Z</time></trkpt><trkpt lat="44.2683944626417" lon="11.438671168732713"><ele>426.0</ele><time>2026-03-22T14:52:35Z</time></trkpt><trkpt lat="44.268335567561536" lon="11.438595191018635"><ele>423.99999999999994</ele><time>2026-03-22T14:52:36Z</time></trkpt><trkpt lat="44.2682927879011" lon="11.438471702663621"><ele>422.0</ele><time>2026-03-22T14:52:37Z</time></trkpt><trkpt lat="44.268272752634125" lon="11.438325535843674"><ele>420.0</ele><time>2026-03-22T14:52:38Z</time></trkpt><trkpt lat="44.268258549223724" lon="11.438194069026416"><ele>418.0</ele><time>2026-03-22T14:52:39Z</time></trkpt><trkpt lat="44.268245299664144" lon="11.438096104830054"><ele>418.0</ele><time>2026-03-22T14:52:40Z</time></trkpt><trkpt lat="44.268217960735164" lon="11.437991120568917"><ele>418.0</ele><time>2026-03-22T14:52:41Z</time></trkpt><trkpt lat="44.26817832822222" lon="11.437865958321064"><ele>418.0</ele><time>2026-03-22T14:52:42Z</time></trkpt><trkpt lat="44.26813146222408" lon="11.43772389617577"><ele>418.0</ele><time>2026-03-22T14:52:43Z</time></trkpt><trkpt lat="44.26808009418343" lon="11.437585213670925"><ele>418.0</ele><time>2026-03-22T14:52:44Z</time></trkpt><trkpt lat="44.26803131928619" lon="11.437455559825933"><ele>419.6666666666667</ele><time>2026-03-22T14:52:45Z</time></trkpt><trkpt lat="44.26799375642427" lon="11.43736143933519"><ele>421.33333333333337</ele><time>2026-03-22T14:52:46Z</time></trkpt><trkpt lat="44.267959898157415" lon="11.437276799441335"><ele>423.0</ele><time>2026-03-22T14:52:47Z</time></trkpt><trkpt lat="44.26793283213496" lon="11.437186544321724"><ele>424.66666666666663</ele><time>2026-03-22T14:52:48Z</time></trkpt><trkpt lat="44.26793004662728" lon="11.437086077062345"><ele>426.3333333333333</ele><time>2026-03-22T14:52:49Z</time></trkpt><trkpt lat="44.26795101969374" lon="11.436963227561753"><ele>428.0</ele><time>2026-03-22T14:52:50Z</time></trkpt><trkpt lat="44.267998170199874" lon="11.436842691965103"><ele>427.99999999999994</ele><time>2026-03-22T14:52:51Z</time></trkpt><trkpt lat="44.2680381498639" lon="11.436740420136653"><ele>428.0</ele><time>2026-03-22T14:52:52Z</time></trkpt><trkpt lat="44.26804710669397" lon="11.436580539568938"><ele>428.0</ele><time>2026-03-22T14:52:54Z</time></trkpt><trkpt lat="44.26800270681426" lon="11.436475876580062"><ele>428.0</ele><time>2026-03-22T14:52:55Z</time></trkpt><trkpt lat="44.267950024398665" lon="11.436405511577295"><ele>427.99999999999994</ele><time>2026-03-22T14:52:56Z</time></trkpt><trkpt lat="44.26788620591069" lon="11.436340589947571"><ele>428.0</ele><time>2026-03-22T14:52:57Z</time></trkpt><trkpt lat="44.26781504255179" lon="11.43632721009169"><ele>428.0</ele><time>2026-03-22T14:52:58Z</time></trkpt><trkpt lat="44.26774205304324" lon="11.436309116090483"><ele>427.99999999999994</ele><time>2026-03-22T14:52:59Z</time></trkpt><trkpt lat="44.267649057699956" lon="11.436267484384583"><ele>427.99999999999994</ele><time>2026-03-22T14:53:01Z</time></trkpt><trkpt lat="44.26755416183226" lon="11.436141352202915"><ele>428.0</ele><time>2026-03-22T14:53:03Z</time></trkpt><trkpt lat="44.267512474755215" lon="11.436048404299344"><ele>428.0</ele><time>2026-03-22T14:53:04Z</time></trkpt><trkpt lat="44.26746291406457" lon="11.435914697850937"><ele>428.28571428571433</ele><time>2026-03-22T14:53:06Z</time></trkpt><trkpt lat="44.26743200587968" lon="11.435812422767869"><ele>428.57142857142856</ele><time>2026-03-22T14:53:08Z</time></trkpt><trkpt lat="44.2674199938637" lon="11.435720113371326"><ele>428.8571428571429</ele><time>2026-03-22T14:53:10Z</time></trkpt><trkpt lat="44.26740248514949" lon="11.435611767997345"><ele>429.14285714285717</ele><time>2026-03-22T14:53:14Z</time></trkpt><trkpt lat="44.26734038376791" lon="11.435524027031239"><ele>429.42857142857144</ele><time>2026-03-22T14:53:33Z</time></trkpt><trkpt lat="44.267312060241" lon="11.43544416164636"><ele>429.7142857142857</ele><time>2026-03-22T14:53:35Z</time></trkpt><trkpt lat="44.267290664781555" lon="11.43536132318262"><ele>430.0</ele><time>2026-03-22T14:53:37Z</time></trkpt><trkpt lat="44.2672753281143" lon="11.43524028383707"><ele>432.0</ele><time>2026-03-22T14:53:39Z</time></trkpt><trkpt lat="44.26729535333871" lon="11.435119839746"><ele>434.0</ele><time>2026-03-22T14:53:41Z</time></trkpt><trkpt lat="44.26737246795417" lon="11.434979151663333"><ele>436.0</ele><time>2026-03-22T14:53:43Z</time></trkpt><trkpt lat="44.26745488869437" lon="11.434941787101566"><ele>438.0</ele><time>2026-03-22T14:53:44Z</time></trkpt><trkpt lat="44.26755527047879" lon="11.434904100917059"><ele>440.0</ele><time>2026-03-22T14:53:45Z</time></trkpt><trkpt lat="44.26765727169154" lon="11.434880665794338"><ele>439.99999999999994</ele><time>2026-03-22T14:53:46Z</time></trkpt><trkpt lat="44.26773224133388" lon="11.434862548427349"><ele>440.0</ele><time>2026-03-22T14:53:47Z</time></trkpt><trkpt lat="44.26783670826123" lon="11.434806485834565"><ele>440.0</ele><time>2026-03-22T14:53:49Z</time></trkpt><trkpt lat="44.2679047112854" lon="11.434765437691924"><ele>440.0</ele><time>2026-03-22T14:53:50Z</time></trkpt><trkpt lat="44.26797495506892" lon="11.434695905408363"><ele>439.99999999999994</ele><time>2026-03-22T14:53:51Z</time></trkpt><trkpt lat="44.26803508574655" lon="11.43462637466653"><ele>440.0</ele><time>2026-03-22T14:53:52Z</time></trkpt><trkpt lat="44.268082538029496" lon="11.434562699502779"><ele>441.8333333333333</ele><time>2026-03-22T14:53:53Z</time></trkpt><trkpt lat="44.268131660376525" lon="11.434498992479458"><ele>443.66666666666663</ele><time>2026-03-22T14:54:26Z</time></trkpt><trkpt lat="44.26818066092625" lon="11.434428784734957"><ele>445.5</ele><time>2026-03-22T14:54:41Z</time></trkpt><trkpt lat="44.268107121234294" lon="11.434532748084095"><ele>447.33333333333337</ele><time>2026-03-22T14:55:04Z</time></trkpt><trkpt lat="44.26815837712411" lon="11.434456604407"><ele>449.1666666666667</ele><time>2026-03-22T14:55:10Z</time></trkpt><trkpt lat="44.26823585245941" lon="11.43436458139436"><ele>451.0</ele><time>2026-03-22T15:02:54Z</time></trkpt><trkpt lat="44.26828332840595" lon="11.434241636254391"><ele>451.00000000000006</ele><time>2026-03-22T15:02:56Z</time></trkpt><trkpt lat="44.26834214269946" lon="11.43412998998771"><ele>451.0</ele><time>2026-03-22T15:02:58Z</time></trkpt><trkpt lat="44.26838572324983" lon="11.434056081162945"><ele>451.0</ele><time>2026-03-22T15:02:59Z</time></trkpt><trkpt lat="44.26844705056216" lon="11.433993373873019"><ele>451.0</ele><time>2026-03-22T15:03:00Z</time></trkpt><trkpt lat="44.268539756383596" lon="11.433965849229358"><ele>451.00000000000006</ele><time>2026-03-22T15:03:01Z</time></trkpt><trkpt lat="44.26863081799733" lon="11.433956230995992"><ele>451.0</ele><time>2026-03-22T15:03:02Z</time></trkpt><trkpt lat="44.2687309906178" lon="11.433932247096552"><ele>451.0</ele><time>2026-03-22T15:03:03Z</time></trkpt><trkpt lat="44.26884626014251" lon="11.433880920006635"><ele>451.0</ele><time>2026-03-22T15:03:04Z</time></trkpt><trkpt lat="44.26895755319788" lon="11.433821219000844"><ele>451.0</ele><time>2026-03-22T15:03:05Z</time></trkpt><trkpt lat="44.26904395431261" lon="11.433778320698138"><ele>451.0</ele><time>2026-03-22T15:03:06Z</time></trkpt><trkpt lat="44.26911417232172" lon="11.433740663284157"><ele>451.0</ele><time>2026-03-22T15:03:07Z</time></trkpt><trkpt lat="44.2691935701245" lon="11.433689173235052"><ele>453.0</ele><time>2026-03-22T15:03:08Z</time></trkpt><trkpt lat="44.269290087624334" lon="11.433622297235235"><ele>455.0</ele><time>2026-03-22T15:03:09Z</time></trkpt><trkpt lat="44.269401994867685" lon="11.433565752004679"><ele>457.0</ele><time>2026-03-22T15:03:10Z</time></trkpt><trkpt lat="44.26951674351387" lon="11.43353344254008"><ele>459.0</ele><time>2026-03-22T15:03:11Z</time></trkpt><trkpt lat="44.26960934504001" lon="11.433528231657057"><ele>461.0</ele><time>2026-03-22T15:03:12Z</time></trkpt><trkpt lat="44.26971840827119" lon="11.433541830529794"><ele>461.16666666666663</ele><time>2026-03-22T15:03:14Z</time></trkpt><trkpt lat="44.269814033058715" lon="11.433495162560122"><ele>461.3333333333333</ele><time>2026-03-22T15:03:16Z</time></trkpt><trkpt lat="44.26986430134889" lon="11.433432238191113"><ele>461.5</ele><time>2026-03-22T15:03:17Z</time></trkpt><trkpt lat="44.26990962116429" lon="11.433337147071974"><ele>461.66666666666663</ele><time>2026-03-22T15:03:18Z</time></trkpt><trkpt lat="44.269942280135446" lon="11.433213545489478"><ele>461.8333333333333</ele><time>2026-03-22T15:03:19Z</time></trkpt><trkpt lat="44.269978931748824" lon="11.433081142715219"><ele>462.0</ele><time>2026-03-22T15:03:20Z</time></trkpt><trkpt lat="44.270032204936996" lon="11.432979266273682"><ele>463.8333333333333</ele><time>2026-03-22T15:03:21Z</time></trkpt><trkpt lat="44.270092340860025" lon="11.432883135248561"><ele>465.66666666666663</ele><time>2026-03-22T15:03:22Z</time></trkpt><trkpt lat="44.270152480652925" lon="11.432813592272913"><ele>467.5</ele><time>2026-03-22T15:03:23Z</time></trkpt><trkpt lat="44.27021314012622" lon="11.432754220642634"><ele>469.3333333333333</ele><time>2026-03-22T15:03:24Z</time></trkpt><trkpt lat="44.270273198411516" lon="11.43269701096157"><ele>471.16666666666663</ele><time>2026-03-22T15:03:25Z</time></trkpt><trkpt lat="44.27033684312373" lon="11.432634155200642"><ele>473.0</ele><time>2026-03-22T15:03:26Z</time></trkpt><trkpt lat="44.27040276621793" lon="11.432561985565377"><ele>472.99999999999994</ele><time>2026-03-22T15:03:27Z</time></trkpt><trkpt lat="44.270464625237274" lon="11.432483561067531"><ele>473.0</ele><time>2026-03-22T15:03:28Z</time></trkpt><trkpt lat="44.270523212487056" lon="11.432400786537112"><ele>473.0</ele><time>2026-03-22T15:03:29Z</time></trkpt><trkpt lat="44.270584073509866" lon="11.432310271955513"><ele>473.0</ele><time>2026-03-22T15:03:30Z</time></trkpt><trkpt lat="44.270649066946774" lon="11.432213918303434"><ele>472.99999999999994</ele><time>2026-03-22T15:03:31Z</time></trkpt><trkpt lat="44.270714835592315" lon="11.432114125367107"><ele>473.0</ele><time>2026-03-22T15:03:32Z</time></trkpt><trkpt lat="44.27076662648879" lon="11.432022245350712"><ele>474.66666666666663</ele><time>2026-03-22T15:03:33Z</time></trkpt><trkpt lat="44.27081088490285" lon="11.431953461445982"><ele>476.3333333333333</ele><time>2026-03-22T15:03:34Z</time></trkpt><trkpt lat="44.27086719885684" lon="11.431889900334609"><ele>478.0</ele><time>2026-03-22T15:03:35Z</time></trkpt><trkpt lat="44.27094145291655" lon="11.431841372540102"><ele>479.66666666666663</ele><time>2026-03-22T15:03:36Z</time></trkpt><trkpt lat="44.271028100381955" lon="11.431811963365895"><ele>481.3333333333333</ele><time>2026-03-22T15:03:37Z</time></trkpt><trkpt lat="44.271124871746714" lon="11.431795637799004"><ele>483.0</ele><time>2026-03-22T15:03:38Z</time></trkpt><trkpt lat="44.27122686392465" lon="11.431792070887946"><ele>483.0</ele><time>2026-03-22T15:03:39Z</time></trkpt><trkpt lat="44.271317679489655" lon="11.43179914438826"><ele>482.99999999999994</ele><time>2026-03-22T15:03:40Z</time></trkpt><trkpt lat="44.27141036253613" lon="11.431796632730247"><ele>482.99999999999994</ele><time>2026-03-22T15:03:41Z</time></trkpt><trkpt lat="44.2715112412445" lon="11.431778395856757"><ele>483.0</ele><time>2026-03-22T15:03:42Z</time></trkpt><trkpt lat="44.27159774608504" lon="11.431751596338625"><ele>483.0</ele><time>2026-03-22T15:03:43Z</time></trkpt><trkpt lat="44.271713440408085" lon="11.4317138281591"><ele>483.8333333333333</ele><time>2026-03-22T15:03:45Z</time></trkpt><trkpt lat="44.271824278644516" lon="11.431663399070505"><ele>484.66666666666663</ele><time>2026-03-22T15:03:47Z</time></trkpt><trkpt lat="44.27187681573197" lon="11.431529583316403"><ele>485.5</ele><time>2026-03-22T15:03:49Z</time></trkpt><trkpt lat="44.27186230784913" lon="11.431441263359801"><ele>486.3333333333333</ele><time>2026-03-22T15:03:50Z</time></trkpt><trkpt lat="44.271816346465016" lon="11.431370468840331"><ele>487.16666666666663</ele><time>2026-03-22T15:03:51Z</time></trkpt><trkpt lat="44.27174742617717" lon="11.431317308260871"><ele>488.0</ele><time>2026-03-22T15:03:52Z</time></trkpt><trkpt lat="44.271666059710846" lon="11.431267338118019"><ele>489.8333333333333</ele><time>2026-03-22T15:03:53Z</time></trkpt><trkpt lat="44.27160562336675" lon="11.431173294499372"><ele>491.66666666666663</ele><time>2026-03-22T15:03:54Z</time></trkpt><trkpt lat="44.27154490914864" lon="11.431108049347232"><ele>493.5</ele><time>2026-03-22T15:03:55Z</time></trkpt><trkpt lat="44.27149418121704" lon="11.431024909880794"><ele>495.33333333333337</ele><time>2026-03-22T15:03:56Z</time></trkpt><trkpt lat="44.2714426478538" lon="11.430934433399557"><ele>497.1666666666667</ele><time>2026-03-22T15:03:57Z</time></trkpt><trkpt lat="44.271388291586234" lon="11.43083209836528"><ele>499.0</ele><time>2026-03-22T15:03:58Z</time></trkpt><trkpt lat="44.271331673741926" lon="11.430729639896441"><ele>499.2</ele><time>2026-03-22T15:03:59Z</time></trkpt><trkpt lat="44.271269301283105" lon="11.430619601641604"><ele>499.4</ele><time>2026-03-22T15:04:00Z</time></trkpt><trkpt lat="44.271205234824116" lon="11.430502095851603"><ele>499.6</ele><time>2026-03-22T15:04:01Z</time></trkpt><trkpt lat="44.27113885805928" lon="11.43038466765496"><ele>499.8</ele><time>2026-03-22T15:04:02Z</time></trkpt><trkpt lat="44.27107447238682" lon="11.4302708696184"><ele>500.0</ele><time>2026-03-22T15:04:03Z</time></trkpt><trkpt lat="44.27100574375427" lon="11.430156122120508"><ele>501.99999999999994</ele><time>2026-03-22T15:04:04Z</time></trkpt><trkpt lat="44.270935769046105" lon="11.430039860271673"><ele>504.0</ele><time>2026-03-22T15:04:05Z</time></trkpt><trkpt lat="44.27088108497641" lon="11.42994886695824"><ele>506.0</ele><time>2026-03-22T15:04:06Z</time></trkpt><trkpt lat="44.27083231298549" lon="11.42988668275815"><ele>508.0</ele><time>2026-03-22T15:04:07Z</time></trkpt><trkpt lat="44.270778368609186" lon="11.429813810084264"><ele>509.99999999999994</ele><time>2026-03-22T15:04:08Z</time></trkpt><trkpt lat="44.27073967964462" lon="11.429733548472662"><ele>512.0</ele><time>2026-03-22T15:04:09Z</time></trkpt><trkpt lat="44.270717777883135" lon="11.429642444906158"><ele>513.3333333333333</ele><time>2026-03-22T15:04:10Z</time></trkpt><trkpt lat="44.2707121486812" lon="11.429540210852545"><ele>514.6666666666666</ele><time>2026-03-22T15:04:11Z</time></trkpt><trkpt lat="44.270721582623025" lon="11.429429594985683"><ele>516.0</ele><time>2026-03-22T15:04:12Z</time></trkpt><trkpt lat="44.27073124248463" lon="11.42931383760644"><ele>517.3333333333334</ele><time>2026-03-22T15:04:13Z</time></trkpt><trkpt lat="44.27071302756884" lon="11.42920096420223"><ele>518.6666666666667</ele><time>2026-03-22T15:04:14Z</time></trkpt><trkpt lat="44.270671670591085" lon="11.429072182686072"><ele>520.0</ele><time>2026-03-22T15:04:15Z</time></trkpt><trkpt lat="44.270595693500546" lon="11.42897656555076"><ele>522.3333333333334</ele><time>2026-03-22T15:04:16Z</time></trkpt><trkpt lat="44.270528713817924" lon="11.428910131686925"><ele>524.6666666666667</ele><time>2026-03-22T15:04:17Z</time></trkpt><trkpt lat="44.27049643839303" lon="11.428826125720526"><ele>527.0</ele><time>2026-03-22T15:04:18Z</time></trkpt><trkpt lat="44.270499041299516" lon="11.42871823307202"><ele>529.3333333333334</ele><time>2026-03-22T15:04:19Z</time></trkpt><trkpt lat="44.270523017175805" lon="11.428607732288215"><ele>531.6666666666666</ele><time>2026-03-22T15:04:20Z</time></trkpt><trkpt lat="44.2705702905947" lon="11.428498585349393"><ele>534.0</ele><time>2026-03-22T15:04:21Z</time></trkpt><trkpt lat="44.270604893404204" lon="11.428424826313659"><ele>532.8333333333334</ele><time>2026-03-22T15:04:22Z</time></trkpt><trkpt lat="44.27062605994111" lon="11.428307517872774"><ele>531.6666666666666</ele><time>2026-03-22T15:04:24Z</time></trkpt><trkpt lat="44.270588917677124" lon="11.428165849461694"><ele>530.5</ele><time>2026-03-22T15:04:26Z</time></trkpt><trkpt lat="44.27055673525285" lon="11.428088849591369"><ele>529.3333333333333</ele><time>2026-03-22T15:04:27Z</time></trkpt><trkpt lat="44.27050432120168" lon="11.428023724915166"><ele>528.1666666666666</ele><time>2026-03-22T15:04:28Z</time></trkpt><trkpt lat="44.270445054427675" lon="11.427957905515978"><ele>527.0</ele><time>2026-03-22T15:04:29Z</time></trkpt><trkpt lat="44.27035676528985" lon="11.427926187109351"><ele>529.6666666666666</ele><time>2026-03-22T15:04:30Z</time></trkpt><trkpt lat="44.270264856067904" lon="11.427911219778018"><ele>532.3333333333333</ele><time>2026-03-22T15:04:31Z</time></trkpt><trkpt lat="44.270193147622834" lon="11.427906267208774"><ele>535.0</ele><time>2026-03-22T15:04:32Z</time></trkpt><trkpt lat="44.27012263898198" lon="11.427890929288521"><ele>537.6666666666666</ele><time>2026-03-22T15:04:33Z</time></trkpt><trkpt lat="44.270052104617676" lon="11.427847508645918"><ele>540.3333333333334</ele><time>2026-03-22T15:04:34Z</time></trkpt><trkpt lat="44.26997753344499" lon="11.427775760848457"><ele>543.0</ele><time>2026-03-22T15:04:35Z</time></trkpt><trkpt lat="44.269926744269675" lon="11.427647876855643"><ele>543.0</ele><time>2026-03-22T15:04:36Z</time></trkpt><trkpt lat="44.26990005996007" lon="11.427526199884216"><ele>543.0</ele><time>2026-03-22T15:04:37Z</time></trkpt><trkpt lat="44.26987303740009" lon="11.427439871769687"><ele>543.0</ele><time>2026-03-22T15:04:38Z</time></trkpt><trkpt lat="44.26983071277766" lon="11.427365697370018"><ele>543.0</ele><time>2026-03-22T15:04:39Z</time></trkpt><trkpt lat="44.26978347526971" lon="11.427289080833336"><ele>543.0</ele><time>2026-03-22T15:04:40Z</time></trkpt><trkpt lat="44.26975325225762" lon="11.427196777287538"><ele>543.0</ele><time>2026-03-22T15:04:41Z</time></trkpt><trkpt lat="44.26975183420394" lon="11.427086885546338"><ele>543.6666666666666</ele><time>2026-03-22T15:04:42Z</time></trkpt><trkpt lat="44.26978726597619" lon="11.426977462275545"><ele>544.3333333333334</ele><time>2026-03-22T15:04:43Z</time></trkpt><trkpt lat="44.26984888207388" lon="11.426884615448708"><ele>545.0</ele><time>2026-03-22T15:04:44Z</time></trkpt><trkpt lat="44.269899929893974" lon="11.426813991995328"><ele>545.6666666666667</ele><time>2026-03-22T15:04:45Z</time></trkpt><trkpt lat="44.26991605258045" lon="11.426659573560531"><ele>546.3333333333334</ele><time>2026-03-22T15:04:47Z</time></trkpt><trkpt lat="44.26987901788494" lon="11.426571054391172"><ele>547.0</ele><time>2026-03-22T15:04:48Z</time></trkpt><trkpt lat="44.2698113634779" lon="11.426493731086136"><ele>550.1666666666667</ele><time>2026-03-22T15:04:49Z</time></trkpt><trkpt lat="44.26973893582556" lon="11.426422089178498"><ele>553.3333333333334</ele><time>2026-03-22T15:04:50Z</time></trkpt><trkpt lat="44.269675373192875" lon="11.426357360292332"><ele>556.5</ele><time>2026-03-22T15:04:51Z</time></trkpt><trkpt lat="44.26962762230936" lon="11.426251350066686"><ele>559.6666666666666</ele><time>2026-03-22T15:04:52Z</time></trkpt><trkpt lat="44.269567493300464" lon="11.426144746788163"><ele>562.8333333333333</ele><time>2026-03-22T15:04:53Z</time></trkpt><trkpt lat="44.269512211857396" lon="11.426073166465414"><ele>566.0</ele><time>2026-03-22T15:04:54Z</time></trkpt><trkpt lat="44.26948060515142" lon="11.42598902716475"><ele>566.0</ele><time>2026-03-22T15:04:55Z</time></trkpt><trkpt lat="44.26941840272844" lon="11.425896688412722"><ele>566.0</ele><time>2026-03-22T15:04:56Z</time></trkpt><trkpt lat="44.2693646937922" lon="11.425783390462039"><ele>566.0</ele><time>2026-03-22T15:04:57Z</time></trkpt><trkpt lat="44.269317367132444" lon="11.42568646091945"><ele>566.0</ele><time>2026-03-22T15:04:58Z</time></trkpt><trkpt lat="44.26926742473439" lon="11.425612417188974"><ele>566.0</ele><time>2026-03-22T15:04:59Z</time></trkpt><trkpt lat="44.269203613358734" lon="11.42556491066298"><ele>566.0</ele><time>2026-03-22T15:05:00Z</time></trkpt><trkpt lat="44.269131618814086" lon="11.425499460031826"><ele>566.0</ele><time>2026-03-22T15:05:01Z</time></trkpt><trkpt lat="44.26903314062479" lon="11.425503621019947"><ele>566.0</ele><time>2026-03-22T15:05:02Z</time></trkpt><trkpt lat="44.26895928815342" lon="11.425462936692197"><ele>566.0</ele><time>2026-03-22T15:05:03Z</time></trkpt><trkpt lat="44.26888508026542" lon="11.425454553812008"><ele>566.0</ele><time>2026-03-22T15:05:04Z</time></trkpt><trkpt lat="44.26881878286039" lon="11.425396094919707"><ele>566.0</ele><time>2026-03-22T15:05:05Z</time></trkpt><trkpt lat="44.268768387165125" lon="11.425301555337818"><ele>566.0</ele><time>2026-03-22T15:05:06Z</time></trkpt><trkpt lat="44.268735119333215" lon="11.425182865959878"><ele>568.8</ele><time>2026-03-22T15:05:07Z</time></trkpt><trkpt lat="44.26871538133225" lon="11.425050250368363"><ele>571.6</ele><time>2026-03-22T15:05:08Z</time></trkpt><trkpt lat="44.26871795678622" lon="11.424902577312874"><ele>574.4</ele><time>2026-03-22T15:05:09Z</time></trkpt><trkpt lat="44.26873451958881" lon="11.42474680110701"><ele>577.2</ele><time>2026-03-22T15:05:10Z</time></trkpt><trkpt lat="44.26875057981218" lon="11.424608392999813"><ele>580.0</ele><time>2026-03-22T15:05:11Z</time></trkpt><trkpt lat="44.26876297688864" lon="11.424490917093388"><ele>581.0</ele><time>2026-03-22T15:05:12Z</time></trkpt><trkpt lat="44.2687769511127" lon="11.42434125178061"><ele>582.0</ele><time>2026-03-22T15:05:13Z</time></trkpt><trkpt lat="44.268804632600265" lon="11.424181691683522"><ele>583.0</ele><time>2026-03-22T15:05:14Z</time></trkpt><trkpt lat="44.268838967904976" lon="11.424017624902316"><ele>584.0</ele><time>2026-03-22T15:05:15Z</time></trkpt><trkpt lat="44.268888929493485" lon="11.423863063413416"><ele>584.3333333333333</ele><time>2026-03-22T15:05:16Z</time></trkpt><trkpt lat="44.268941661646025" lon="11.4237303891844"><ele>584.6666666666666</ele><time>2026-03-22T15:05:17Z</time></trkpt><trkpt lat="44.26899196745739" lon="11.423629645855932"><ele>585.0</ele><time>2026-03-22T15:05:18Z</time></trkpt><trkpt lat="44.269020680954846" lon="11.42354904377168"><ele>585.3333333333334</ele><time>2026-03-22T15:05:18.999Z</time></trkpt><trkpt lat="44.26908042385407" lon="11.423426514260894"><ele>585.6666666666667</ele><time>2026-03-22T15:05:20.999Z</time></trkpt><trkpt lat="44.26912818718704" lon="11.423365492243688"><ele>586.0</ele><time>2026-03-22T15:05:21.999Z</time></trkpt><trkpt lat="44.26920802620547" lon="11.423321689886459"><ele>586.0</ele><time>2026-03-22T15:05:22.999Z</time></trkpt><trkpt lat="44.26929505537204" lon="11.423304684399588"><ele>586.0</ele><time>2026-03-22T15:05:23.999Z</time></trkpt><trkpt lat="44.26939134424227" lon="11.423312912328859"><ele>586.0</ele><time>2026-03-22T15:05:24.999Z</time></trkpt><trkpt lat="44.26946824675694" lon="11.423318707328809"><ele>586.0</ele><time>2026-03-22T15:05:25.999Z</time></trkpt><trkpt lat="44.269554288687615" lon="11.423257692048406"><ele>586.0</ele><time>2026-03-22T15:05:27.999Z</time></trkpt><trkpt lat="44.26958608907958" lon="11.423137463224995"><ele>586.0</ele><time>2026-03-22T15:05:29.999Z</time></trkpt><trkpt lat="44.26961842971528" lon="11.423033474728488"><ele>586.0</ele><time>2026-03-22T15:05:32.999Z</time></trkpt><trkpt lat="44.269552520420234" lon="11.423026786105458"><ele>586.0</ele><time>2026-03-22T15:05:34.999Z</time></trkpt><trkpt lat="44.26958026242397" lon="11.42312200182456"><ele>586.0</ele><time>2026-03-22T15:05:40.999Z</time></trkpt><trkpt lat="44.26957566700494" lon="11.423225179429643"><ele>586.0</ele><time>2026-03-22T15:05:42.999Z</time></trkpt><trkpt lat="44.26951441977586" lon="11.423033399678568"><ele>586.0</ele><time>2026-03-22T15:05:43.999Z</time></trkpt><trkpt lat="44.2694142523089" lon="11.422983047302695"><ele>586.0</ele><time>2026-03-22T15:05:45.999Z</time></trkpt><trkpt lat="44.269295566020794" lon="11.422965662009185"><ele>586.0</ele><time>2026-03-22T15:05:47.999Z</time></trkpt><trkpt lat="44.269175040668294" lon="11.42294749064734"><ele>586.0</ele><time>2026-03-22T15:05:50Z</time></trkpt><trkpt lat="44.2690910148902" lon="11.422934635055887"><ele>586.0</ele><time>2026-03-22T15:05:52Z</time></trkpt><trkpt lat="44.268980893904136" lon="11.423599349581707"><ele>585.6</ele><time>2026-03-22T15:05:54Z</time></trkpt><trkpt lat="44.268941897038886" lon="11.423706555576212"><ele>585.2</ele><time>2026-03-22T15:05:55Z</time></trkpt><trkpt lat="44.26889581176022" lon="11.423830865548137"><ele>584.8</ele><time>2026-03-22T15:05:56Z</time></trkpt><trkpt lat="44.26885153373937" lon="11.423945610638924"><ele>584.4</ele><time>2026-03-22T15:05:57Z</time></trkpt><trkpt lat="44.26881234828816" lon="11.424055818759241"><ele>584.0</ele><time>2026-03-22T15:05:58Z</time></trkpt><trkpt lat="44.26878303034696" lon="11.424166185444648"><ele>584.0</ele><time>2026-03-22T15:05:59Z</time></trkpt><trkpt lat="44.26877074402559" lon="11.424282824924939"><ele>584.0</ele><time>2026-03-22T15:06:00Z</time></trkpt><trkpt lat="44.26875735017225" lon="11.424412622862057"><ele>584.0</ele><time>2026-03-22T15:06:01Z</time></trkpt><trkpt lat="44.26873231218181" lon="11.424558230654238"><ele>584.0</ele><time>2026-03-22T15:06:02Z</time></trkpt><trkpt lat="44.26872022457884" lon="11.424703162511578"><ele>584.0</ele><time>2026-03-22T15:06:03Z</time></trkpt><trkpt lat="44.26871514633206" lon="11.424836182013674"><ele>583.3333333333333</ele><time>2026-03-22T15:06:04Z</time></trkpt><trkpt lat="44.26870345918599" lon="11.42495703203751"><ele>582.6666666666666</ele><time>2026-03-22T15:06:05Z</time></trkpt><trkpt lat="44.268683902106815" lon="11.425074204457326"><ele>582.0</ele><time>2026-03-22T15:06:06Z</time></trkpt><trkpt lat="44.26871725766801" lon="11.425195815488928"><ele>581.3333333333334</ele><time>2026-03-22T15:06:07Z</time></trkpt><trkpt lat="44.26874694545671" lon="11.425309765504377"><ele>580.6666666666667</ele><time>2026-03-22T15:06:08Z</time></trkpt><trkpt lat="44.26879158415963" lon="11.425410881592319"><ele>580.0</ele><time>2026-03-22T15:06:09Z</time></trkpt><trkpt lat="44.26885151120362" lon="11.425479614889731"><ele>579.8333333333334</ele><time>2026-03-22T15:06:10Z</time></trkpt><trkpt lat="44.26893288979117" lon="11.42552800157504"><ele>579.6666666666667</ele><time>2026-03-22T15:06:11Z</time></trkpt><trkpt lat="44.269028493107655" lon="11.425547767155301"><ele>579.5</ele><time>2026-03-22T15:06:12Z</time></trkpt><trkpt lat="44.26911713236364" lon="11.425555101254147"><ele>579.3333333333334</ele><time>2026-03-22T15:06:13Z</time></trkpt><trkpt lat="44.26919936069224" lon="11.4255746138334"><ele>579.1666666666666</ele><time>2026-03-22T15:06:14Z</time></trkpt><trkpt lat="44.26926673548425" lon="11.425632130165301"><ele>579.0</ele><time>2026-03-22T15:06:15Z</time></trkpt><trkpt lat="44.26932122338537" lon="11.425759555399354"><ele>576.4</ele><time>2026-03-22T15:06:16Z</time></trkpt><trkpt lat="44.26938190682922" lon="11.425892308746953"><ele>573.8</ele><time>2026-03-22T15:06:17Z</time></trkpt><trkpt lat="44.26946247755406" lon="11.426004402954355"><ele>571.2</ele><time>2026-03-22T15:06:18Z</time></trkpt><trkpt lat="44.2695217636336" lon="11.426114479795084"><ele>568.6</ele><time>2026-03-22T15:06:19Z</time></trkpt><trkpt lat="44.269582424085634" lon="11.426220981956934"><ele>566.0</ele><time>2026-03-22T15:06:20Z</time></trkpt><trkpt lat="44.26963761184501" lon="11.426319410914171"><ele>566.0</ele><time>2026-03-22T15:06:21Z</time></trkpt><trkpt lat="44.26968134332024" lon="11.42640621495187"><ele>566.0</ele><time>2026-03-22T15:06:22Z</time></trkpt><trkpt lat="44.269740236679425" lon="11.426485476276667"><ele>566.0</ele><time>2026-03-22T15:06:23Z</time></trkpt><trkpt lat="44.269798315420175" lon="11.426548238990467"><ele>566.0</ele><time>2026-03-22T15:06:24Z</time></trkpt><trkpt lat="44.26988398142107" lon="11.426677885951003"><ele>566.0</ele><time>2026-03-22T15:06:26Z</time></trkpt><trkpt lat="44.26988332617044" lon="11.426780823820524"><ele>566.0</ele><time>2026-03-22T15:06:27Z</time></trkpt><trkpt lat="44.269844556441576" lon="11.426876149642304"><ele>566.0</ele><time>2026-03-22T15:06:28Z</time></trkpt><trkpt lat="44.26976787084574" lon="11.42692896151742"><ele>566.0</ele><time>2026-03-22T15:06:29Z</time></trkpt><trkpt lat="44.26970782335212" lon="11.427068357982971"><ele>566.0</ele><time>2026-03-22T15:06:31Z</time></trkpt><trkpt lat="44.26970210661788" lon="11.427162039753801"><ele>566.0</ele><time>2026-03-22T15:06:32Z</time></trkpt><trkpt lat="44.269743010618136" lon="11.427268892391524"><ele>566.0</ele><time>2026-03-22T15:06:33Z</time></trkpt><trkpt lat="44.269788228156266" lon="11.427364726569717"><ele>566.0</ele><time>2026-03-22T15:06:34Z</time></trkpt><trkpt lat="44.2698508929197" lon="11.427459276282868"><ele>562.1666666666666</ele><time>2026-03-22T15:06:35Z</time></trkpt><trkpt lat="44.26988042667992" lon="11.427566400381732"><ele>558.3333333333333</ele><time>2026-03-22T15:06:36Z</time></trkpt><trkpt lat="44.26991764846013" lon="11.427676240992598"><ele>554.5</ele><time>2026-03-22T15:06:37Z</time></trkpt><trkpt lat="44.26996001335583" lon="11.4277631332186"><ele>550.6666666666666</ele><time>2026-03-22T15:06:38Z</time></trkpt><trkpt lat="44.269990125223636" lon="11.427842213225489"><ele>546.8333333333334</ele><time>2026-03-22T15:06:39Z</time></trkpt><trkpt lat="44.270101114885364" lon="11.427939476797494"><ele>543.0</ele><time>2026-03-22T15:06:41Z</time></trkpt><trkpt lat="44.27018404382809" lon="11.427960928232709"><ele>543.0</ele><time>2026-03-22T15:06:42Z</time></trkpt><trkpt lat="44.270277658034594" lon="11.42796792034719"><ele>543.0</ele><time>2026-03-22T15:06:43Z</time></trkpt><trkpt lat="44.270362608719196" lon="11.427974271559153"><ele>543.0</ele><time>2026-03-22T15:06:44Z</time></trkpt><trkpt lat="44.2704359019069" lon="11.428000498424796"><ele>543.0</ele><time>2026-03-22T15:06:45Z</time></trkpt><trkpt lat="44.270499314850355" lon="11.42806341573633"><ele>543.0</ele><time>2026-03-22T15:06:46Z</time></trkpt><trkpt lat="44.27055564527873" lon="11.42815349318646"><ele>543.0</ele><time>2026-03-22T15:06:47Z</time></trkpt><trkpt lat="44.27058527855163" lon="11.428252600292439"><ele>543.1666666666666</ele><time>2026-03-22T15:06:48Z</time></trkpt><trkpt lat="44.27059158175996" lon="11.428350496306107"><ele>543.3333333333334</ele><time>2026-03-22T15:06:49Z</time></trkpt><trkpt lat="44.270552284561475" lon="11.428443337291688"><ele>543.5</ele><time>2026-03-22T15:06:50Z</time></trkpt><trkpt lat="44.27050547566885" lon="11.428531517364911"><ele>543.6666666666667</ele><time>2026-03-22T15:06:51Z</time></trkpt><trkpt lat="44.27047102754869" lon="11.428631611737183"><ele>543.8333333333334</ele><time>2026-03-22T15:06:52Z</time></trkpt><trkpt lat="44.270469311967844" lon="11.428730073681518"><ele>544.0</ele><time>2026-03-22T15:06:53Z</time></trkpt><trkpt lat="44.27046790280665" lon="11.428832803250911"><ele>542.3333333333334</ele><time>2026-03-22T15:06:54Z</time></trkpt><trkpt lat="44.270503771571384" lon="11.428928946608634"><ele>540.6666666666667</ele><time>2026-03-22T15:06:55Z</time></trkpt><trkpt lat="44.2705636491379" lon="11.429018487104285"><ele>539.0</ele><time>2026-03-22T15:06:56Z</time></trkpt><trkpt lat="44.27063449789926" lon="11.429080514962974"><ele>537.3333333333334</ele><time>2026-03-22T15:06:57Z</time></trkpt><trkpt lat="44.270685683054126" lon="11.429174434029221"><ele>535.6666666666666</ele><time>2026-03-22T15:06:58Z</time></trkpt><trkpt lat="44.27071397310142" lon="11.42928705797316"><ele>534.0</ele><time>2026-03-22T15:06:59Z</time></trkpt><trkpt lat="44.270677828997044" lon="11.42941407325181"><ele>531.6666666666666</ele><time>2026-03-22T15:07:00Z</time></trkpt><trkpt lat="44.270688431749875" lon="11.429529052040438"><ele>529.3333333333334</ele><time>2026-03-22T15:07:01Z</time></trkpt><trkpt lat="44.2706801025262" lon="11.429623654328026"><ele>527.0</ele><time>2026-03-22T15:07:02Z</time></trkpt><trkpt lat="44.27069975668423" lon="11.429719196764655"><ele>524.6666666666667</ele><time>2026-03-22T15:07:03Z</time></trkpt><trkpt lat="44.27074982551588" lon="11.429816100339618"><ele>522.3333333333334</ele><time>2026-03-22T15:07:04Z</time></trkpt><trkpt lat="44.27081245760029" lon="11.429907655630736"><ele>520.0</ele><time>2026-03-22T15:07:05Z</time></trkpt><trkpt lat="44.270883665595" lon="11.430006863169227"><ele>518.4</ele><time>2026-03-22T15:07:06Z</time></trkpt><trkpt lat="44.270949181994446" lon="11.430110001529698"><ele>516.8</ele><time>2026-03-22T15:07:07Z</time></trkpt><trkpt lat="44.27101557588785" lon="11.43021446474366"><ele>515.2</ele><time>2026-03-22T15:07:08Z</time></trkpt><trkpt lat="44.27107848079104" lon="11.430324957339057"><ele>513.6</ele><time>2026-03-22T15:07:09Z</time></trkpt><trkpt lat="44.27113934824923" lon="11.430433844141263"><ele>512.0</ele><time>2026-03-22T15:07:10Z</time></trkpt><trkpt lat="44.271208738506765" lon="11.430551116659677"><ele>509.6</ele><time>2026-03-22T15:07:11Z</time></trkpt><trkpt lat="44.27127429650639" lon="11.430668234278858"><ele>507.20000000000005</ele><time>2026-03-22T15:07:12Z</time></trkpt><trkpt lat="44.27133050363461" lon="11.430773297849067"><ele>504.8</ele><time>2026-03-22T15:07:13Z</time></trkpt><trkpt lat="44.271392631993905" lon="11.430879749792865"><ele>502.4</ele><time>2026-03-22T15:07:13.999Z</time></trkpt><trkpt lat="44.271456172647376" lon="11.430983861120447"><ele>500.0</ele><time>2026-03-22T15:07:14.999Z</time></trkpt><trkpt lat="44.27151648820654" lon="11.431083249099261"><ele>499.8333333333333</ele><time>2026-03-22T15:07:15.999Z</time></trkpt><trkpt lat="44.27156700764428" lon="11.43117114690181"><ele>499.66666666666663</ele><time>2026-03-22T15:07:16.999Z</time></trkpt><trkpt lat="44.27161748779588" lon="11.431251261743068"><ele>499.5</ele><time>2026-03-22T15:07:17.999Z</time></trkpt><trkpt lat="44.271670534816" lon="11.431316088216585"><ele>499.33333333333337</ele><time>2026-03-22T15:07:18.999Z</time></trkpt><trkpt lat="44.27172586998443" lon="11.431367303298078"><ele>499.1666666666667</ele><time>2026-03-22T15:07:19.999Z</time></trkpt><trkpt lat="44.27182240244576" lon="11.431431797470553"><ele>499.0</ele><time>2026-03-22T15:07:21.999Z</time></trkpt><trkpt lat="44.271836175449444" lon="11.431576922032786"><ele>497.1666666666667</ele><time>2026-03-22T15:07:23.999Z</time></trkpt><trkpt lat="44.27179458830607" lon="11.43164719024413"><ele>495.33333333333337</ele><time>2026-03-22T15:07:24.999Z</time></trkpt><trkpt lat="44.271720406791374" lon="11.431665443233875"><ele>493.5</ele><time>2026-03-22T15:07:25.999Z</time></trkpt><trkpt lat="44.271588560380266" lon="11.431691739348292"><ele>491.66666666666663</ele><time>2026-03-22T15:07:27.999Z</time></trkpt><trkpt lat="44.2715092290706" lon="11.431714118131808"><ele>489.8333333333333</ele><time>2026-03-22T15:07:28.999Z</time></trkpt><trkpt lat="44.27143652618025" lon="11.431732080787624"><ele>488.0</ele><time>2026-03-22T15:07:29.999Z</time></trkpt><trkpt lat="44.27135670661847" lon="11.43174658356064"><ele>487.16666666666663</ele><time>2026-03-22T15:07:30.999Z</time></trkpt><trkpt lat="44.27127113661692" lon="11.431750442819792"><ele>486.3333333333333</ele><time>2026-03-22T15:07:31.999Z</time></trkpt><trkpt lat="44.271184077900394" lon="11.431752747388854"><ele>485.5</ele><time>2026-03-22T15:07:32.999Z</time></trkpt><trkpt lat="44.27110159426413" lon="11.4317784710794"><ele>484.66666666666663</ele><time>2026-03-22T15:07:33.999Z</time></trkpt><trkpt lat="44.271023734392095" lon="11.431786614884397"><ele>483.8333333333333</ele><time>2026-03-22T15:07:34.999Z</time></trkpt><trkpt lat="44.27094889048147" lon="11.43180896865923"><ele>483.0</ele><time>2026-03-22T15:07:35.999Z</time></trkpt><trkpt lat="44.27087415029705" lon="11.431864956556044"><ele>483.0</ele><time>2026-03-22T15:07:36.999Z</time></trkpt><trkpt lat="44.27079402861562" lon="11.431911209620552"><ele>482.99999999999994</ele><time>2026-03-22T15:07:37.999Z</time></trkpt><trkpt lat="44.27073954750025" lon="11.432010600142705"><ele>482.99999999999994</ele><time>2026-03-22T15:07:38.999Z</time></trkpt><trkpt lat="44.27066478331693" lon="11.432107487536525"><ele>483.0</ele><time>2026-03-22T15:07:39.999Z</time></trkpt><trkpt lat="44.27060372255883" lon="11.43220222959768"><ele>483.0</ele><time>2026-03-22T15:07:40.999Z</time></trkpt><trkpt lat="44.270539851053414" lon="11.432296642924989"><ele>481.0</ele><time>2026-03-22T15:07:41.999Z</time></trkpt><trkpt lat="44.27047049669068" lon="11.432392120608789"><ele>478.99999999999994</ele><time>2026-03-22T15:07:42.999Z</time></trkpt><trkpt lat="44.27039415235192" lon="11.43248690155738"><ele>476.99999999999994</ele><time>2026-03-22T15:07:43.999Z</time></trkpt><trkpt lat="44.270318339738736" lon="11.432572871696669"><ele>475.0</ele><time>2026-03-22T15:07:44.999Z</time></trkpt><trkpt lat="44.27024235018513" lon="11.432654183096945"><ele>473.0</ele><time>2026-03-22T15:07:45.999Z</time></trkpt><trkpt lat="44.27016746473698" lon="11.432732922290475"><ele>472.99999999999994</ele><time>2026-03-22T15:07:46.999Z</time></trkpt><trkpt lat="44.27010799340444" lon="11.432828083114583"><ele>473.0</ele><time>2026-03-22T15:07:47.999Z</time></trkpt><trkpt lat="44.27004261715288" lon="11.432900933500711"><ele>473.0</ele><time>2026-03-22T15:07:48.999Z</time></trkpt><trkpt lat="44.269985695900374" lon="11.432997204884469"><ele>473.0</ele><time>2026-03-22T15:07:49.999Z</time></trkpt><trkpt lat="44.269947181855535" lon="11.433087960398014"><ele>472.99999999999994</ele><time>2026-03-22T15:07:50.999Z</time></trkpt><trkpt lat="44.26991748808584" lon="11.433179245692184"><ele>473.0</ele><time>2026-03-22T15:07:51.999Z</time></trkpt><trkpt lat="44.269888992326756" lon="11.433262282066977"><ele>471.16666666666663</ele><time>2026-03-22T15:07:52.999Z</time></trkpt><trkpt lat="44.26981997940432" lon="11.43339230544925"><ele>469.3333333333333</ele><time>2026-03-22T15:07:54.999Z</time></trkpt><trkpt lat="44.269781277577536" lon="11.433467692458072"><ele>467.5</ele><time>2026-03-22T15:07:55.999Z</time></trkpt><trkpt lat="44.26970693075627" lon="11.43350555601658"><ele>465.66666666666663</ele><time>2026-03-22T15:07:56.999Z</time></trkpt><trkpt lat="44.2696266275497" lon="11.433513688603785"><ele>463.8333333333333</ele><time>2026-03-22T15:07:57.999Z</time></trkpt><trkpt lat="44.26953606345888" lon="11.43348454183619"><ele>462.0</ele><time>2026-03-22T15:07:59Z</time></trkpt><trkpt lat="44.269448638525475" lon="11.433503044792653"><ele>461.8</ele><time>2026-03-22T15:08:00Z</time></trkpt><trkpt lat="44.26936213536057" lon="11.433540645683122"><ele>461.6</ele><time>2026-03-22T15:08:01Z</time></trkpt><trkpt lat="44.26926787070598" lon="11.43358651863681"><ele>461.40000000000003</ele><time>2026-03-22T15:08:02Z</time></trkpt><trkpt lat="44.269162226524365" lon="11.433642379618812"><ele>461.20000000000005</ele><time>2026-03-22T15:08:03Z</time></trkpt><trkpt lat="44.269062690373076" lon="11.43369573180681"><ele>461.0</ele><time>2026-03-22T15:08:04Z</time></trkpt><trkpt lat="44.268980006556504" lon="11.433765759728697"><ele>461.49999999999994</ele><time>2026-03-22T15:08:05Z</time></trkpt><trkpt lat="44.26889317317078" lon="11.433788414220718"><ele>462.0</ele><time>2026-03-22T15:08:06Z</time></trkpt><trkpt lat="44.26881784579864" lon="11.433824922514003"><ele>462.5</ele><time>2026-03-22T15:08:07Z</time></trkpt><trkpt lat="44.26874968954614" lon="11.433873505677338"><ele>463.0</ele><time>2026-03-22T15:08:08Z</time></trkpt><trkpt lat="44.268675882307726" lon="11.433898867452386"><ele>463.49999999999994</ele><time>2026-03-22T15:08:09Z</time></trkpt><trkpt lat="44.268598632966196" lon="11.433923016448398"><ele>464.0</ele><time>2026-03-22T15:08:10Z</time></trkpt><trkpt lat="44.26852621296425" lon="11.433933900540115"><ele>461.4</ele><time>2026-03-22T15:08:11Z</time></trkpt><trkpt lat="44.268462318801724" lon="11.43394514536927"><ele>458.79999999999995</ele><time>2026-03-22T15:08:12Z</time></trkpt><trkpt lat="44.26833973767683" lon="11.434021832549842"><ele>456.20000000000005</ele><time>2026-03-22T15:08:14Z</time></trkpt><trkpt lat="44.26829810193483" lon="11.434133109427153"><ele>453.6</ele><time>2026-03-22T15:08:15Z</time></trkpt><trkpt lat="44.26824959019363" lon="11.434231047247133"><ele>451.0</ele><time>2026-03-22T15:08:16Z</time></trkpt><trkpt lat="44.26818571656218" lon="11.434305406117467"><ele>451.00000000000006</ele><time>2026-03-22T15:08:17Z</time></trkpt><trkpt lat="44.26812879863641" lon="11.43439812906262"><ele>451.0</ele><time>2026-03-22T15:08:18Z</time></trkpt><trkpt lat="44.26806639851033" lon="11.434494067882813"><ele>451.0</ele><time>2026-03-22T15:08:19Z</time></trkpt><trkpt lat="44.268005734089954" lon="11.434580088812565"><ele>451.0</ele><time>2026-03-22T15:08:20Z</time></trkpt><trkpt lat="44.267944464671274" lon="11.434658452297814"><ele>451.00000000000006</ele><time>2026-03-22T15:08:21Z</time></trkpt><trkpt lat="44.26788408592146" lon="11.434750831205498"><ele>451.0</ele><time>2026-03-22T15:08:22Z</time></trkpt><trkpt lat="44.26779297122171" lon="11.434791512084184"><ele>449.1666666666667</ele><time>2026-03-22T15:08:23Z</time></trkpt><trkpt lat="44.26770289894672" lon="11.43482242563777"><ele>447.33333333333337</ele><time>2026-03-22T15:08:24Z</time></trkpt><trkpt lat="44.26761636418596" lon="11.434850663596619"><ele>445.5</ele><time>2026-03-22T15:08:25Z</time></trkpt><trkpt lat="44.26754046070952" lon="11.434892414621835"><ele>443.66666666666663</ele><time>2026-03-22T15:08:26Z</time></trkpt><trkpt lat="44.26747282107785" lon="11.434914254874494"><ele>441.8333333333333</ele><time>2026-03-22T15:08:27Z</time></trkpt><trkpt lat="44.26736298588132" lon="11.434964843666915"><ele>440.0</ele><time>2026-03-22T15:08:29Z</time></trkpt><trkpt lat="44.26728186646082" lon="11.435057176661207"><ele>440.0</ele><time>2026-03-22T15:08:31Z</time></trkpt><trkpt lat="44.26723678841339" lon="11.435224000626432"><ele>440.0</ele><time>2026-03-22T15:08:33Z</time></trkpt><trkpt lat="44.26726891469862" lon="11.435324507788325"><ele>440.0</ele><time>2026-03-22T15:08:34Z</time></trkpt><trkpt lat="44.267297418358226" lon="11.435428457715593"><ele>440.0</ele><time>2026-03-22T15:08:35Z</time></trkpt><trkpt lat="44.267328383188875" lon="11.435541134972697"><ele>440.0</ele><time>2026-03-22T15:08:36Z</time></trkpt><trkpt lat="44.26734905940885" lon="11.435662195465298"><ele>438.3333333333333</ele><time>2026-03-22T15:08:37Z</time></trkpt><trkpt lat="44.267387173796465" lon="11.435771348872265"><ele>436.66666666666663</ele><time>2026-03-22T15:08:38Z</time></trkpt><trkpt lat="44.26742586410805" lon="11.435890623866312"><ele>435.0</ele><time>2026-03-22T15:08:39Z</time></trkpt><trkpt lat="44.26747038237583" lon="11.43600796460521"><ele>433.33333333333337</ele><time>2026-03-22T15:08:40Z</time></trkpt><trkpt lat="44.267509026025216" lon="11.436106133856313"><ele>431.6666666666667</ele><time>2026-03-22T15:08:41Z</time></trkpt><trkpt lat="44.26754348499887" lon="11.436195349250752"><ele>430.0</ele><time>2026-03-22T15:08:42Z</time></trkpt><trkpt lat="44.26758551010282" lon="11.4362751616049"><ele>429.6666666666667</ele><time>2026-03-22T15:08:43Z</time></trkpt><trkpt lat="44.26765307468722" lon="11.436337147615605"><ele>429.33333333333337</ele><time>2026-03-22T15:08:44Z</time></trkpt><trkpt lat="44.26773935978106" lon="11.436375681652311"><ele>429.0</ele><time>2026-03-22T15:08:45Z</time></trkpt><trkpt lat="44.26782108054415" lon="11.436388737774484"><ele>428.66666666666663</ele><time>2026-03-22T15:08:46Z</time></trkpt><trkpt lat="44.26789154839171" lon="11.436406509735054"><ele>428.3333333333333</ele><time>2026-03-22T15:08:47Z</time></trkpt><trkpt lat="44.26798666736839" lon="11.43651538256811"><ele>428.0</ele><time>2026-03-22T15:08:49Z</time></trkpt><trkpt lat="44.26802005255651" lon="11.43660984244564"><ele>427.99999999999994</ele><time>2026-03-22T15:08:50Z</time></trkpt><trkpt lat="44.26802318440721" lon="11.436732424324486"><ele>428.0</ele><time>2026-03-22T15:08:51Z</time></trkpt><trkpt lat="44.26797319800408" lon="11.43683055743924"><ele>428.0</ele><time>2026-03-22T15:08:52Z</time></trkpt><trkpt lat="44.26792267467585" lon="11.436914802059611"><ele>428.0</ele><time>2026-03-22T15:08:53Z</time></trkpt><trkpt lat="44.26789813106021" lon="11.436999858252857"><ele>427.99999999999994</ele><time>2026-03-22T15:08:54Z</time></trkpt><trkpt lat="44.26789371329087" lon="11.437093220934385"><ele>428.0</ele><time>2026-03-22T15:08:55Z</time></trkpt><trkpt lat="44.26789981899221" lon="11.43720015454376"><ele>428.59999999999997</ele><time>2026-03-22T15:08:56Z</time></trkpt><trkpt lat="44.26794026010074" lon="11.437310450875458"><ele>429.19999999999993</ele><time>2026-03-22T15:08:57Z</time></trkpt><trkpt lat="44.26798587667821" lon="11.437408082068835"><ele>429.8</ele><time>2026-03-22T15:08:58Z</time></trkpt><trkpt lat="44.268025748879666" lon="11.437535078795849"><ele>430.4</ele><time>2026-03-22T15:08:59Z</time></trkpt><trkpt lat="44.26808159584118" lon="11.437655643000658"><ele>431.0</ele><time>2026-03-22T15:09:00Z</time></trkpt><trkpt lat="44.26814030741593" lon="11.437817684017665"><ele>428.4</ele><time>2026-03-22T15:09:01Z</time></trkpt><trkpt lat="44.2681865256073" lon="11.437964017915057"><ele>425.8</ele><time>2026-03-22T15:09:02Z</time></trkpt><trkpt lat="44.26821996651007" lon="11.438088771298819"><ele>423.2</ele><time>2026-03-22T15:09:03Z</time></trkpt><trkpt lat="44.26824293798568" lon="11.438203587560178"><ele>420.59999999999997</ele><time>2026-03-22T15:09:04Z</time></trkpt><trkpt lat="44.2682575043666" lon="11.438324493931084"><ele>418.0</ele><time>2026-03-22T15:09:05Z</time></trkpt><trkpt lat="44.26826719184254" lon="11.438457364861412"><ele>418.00000000000006</ele><time>2026-03-22T15:09:06Z</time></trkpt><trkpt lat="44.268290925193604" lon="11.438586091788551"><ele>418.0</ele><time>2026-03-22T15:09:07Z</time></trkpt><trkpt lat="44.268345080023614" lon="11.438692078799045"><ele>418.0</ele><time>2026-03-22T15:09:08Z</time></trkpt><trkpt lat="44.268418640549726" lon="11.43875530351365"><ele>418.0</ele><time>2026-03-22T15:09:09Z</time></trkpt><trkpt lat="44.26849428150386" lon="11.43879810893757"><ele>418.00000000000006</ele><time>2026-03-22T15:09:10Z</time></trkpt><trkpt lat="44.26856469726402" lon="11.438874909977296"><ele>418.0</ele><time>2026-03-22T15:09:11Z</time></trkpt><trkpt lat="44.26859118698357" lon="11.43899279612727"><ele>420.0</ele><time>2026-03-22T15:09:12Z</time></trkpt><trkpt lat="44.26860026869378" lon="11.439131322784784"><ele>422.0</ele><time>2026-03-22T15:09:13Z</time></trkpt><trkpt lat="44.268642342403886" lon="11.43925996318083"><ele>423.99999999999994</ele><time>2026-03-22T15:09:14Z</time></trkpt><trkpt lat="44.26867046979403" lon="11.439391935598321"><ele>426.0</ele><time>2026-03-22T15:09:15Z</time></trkpt><trkpt lat="44.26873705686812" lon="11.43949324573928"><ele>428.0</ele><time>2026-03-22T15:09:16Z</time></trkpt><trkpt lat="44.26880948361194" lon="11.43955445218307"><ele>428.0</ele><time>2026-03-22T15:09:17Z</time></trkpt><trkpt lat="44.26889071016063" lon="11.439609919668182"><ele>427.99999999999994</ele><time>2026-03-22T15:09:18Z</time></trkpt><trkpt lat="44.2689690044122" lon="11.439688650931647"><ele>427.99999999999994</ele><time>2026-03-22T15:09:19Z</time></trkpt><trkpt lat="44.26902020622594" lon="11.43982037276704"><ele>428.0</ele><time>2026-03-22T15:09:20Z</time></trkpt><trkpt lat="44.26907169517453" lon="11.43997255619224"><ele>428.0</ele><time>2026-03-22T15:09:21Z</time></trkpt><trkpt lat="44.26912580019419" lon="11.440135656753933"><ele>427.5</ele><time>2026-03-22T15:09:22Z</time></trkpt><trkpt lat="44.2691742798667" lon="11.440278890595721"><ele>427.0</ele><time>2026-03-22T15:09:23Z</time></trkpt><trkpt lat="44.26924054627791" lon="11.44041916194714"><ele>426.5</ele><time>2026-03-22T15:09:24Z</time></trkpt><trkpt lat="44.26929178664214" lon="11.4405753988305"><ele>426.0</ele><time>2026-03-22T15:09:25Z</time></trkpt><trkpt lat="44.26933763375282" lon="11.4407025634124"><ele>426.0</ele><time>2026-03-22T15:09:26Z</time></trkpt><trkpt lat="44.269379346578305" lon="11.440794320917282"><ele>426.0</ele><time>2026-03-22T15:09:27Z</time></trkpt><trkpt lat="44.269428187409765" lon="11.44094851345891"><ele>426.0</ele><time>2026-03-22T15:09:29Z</time></trkpt><trkpt lat="44.26941979351214" lon="11.441070425932622"><ele>426.0</ele><time>2026-03-22T15:09:30Z</time></trkpt><trkpt lat="44.2694047086492" lon="11.44118612042294"><ele>426.0</ele><time>2026-03-22T15:09:31Z</time></trkpt><trkpt lat="44.269381948439005" lon="11.441315984913544"><ele>427.6</ele><time>2026-03-22T15:09:32Z</time></trkpt><trkpt lat="44.26935500560881" lon="11.44146784551959"><ele>429.20000000000005</ele><time>2026-03-22T15:09:33Z</time></trkpt><trkpt lat="44.269330340820495" lon="11.441622283499903"><ele>430.79999999999995</ele><time>2026-03-22T15:09:34Z</time></trkpt><trkpt lat="44.26930772933419" lon="11.44177435496288"><ele>432.4</ele><time>2026-03-22T15:09:35Z</time></trkpt><trkpt lat="44.26928619181857" lon="11.441927622944576"><ele>434.0</ele><time>2026-03-22T15:09:36Z</time></trkpt><trkpt lat="44.26927442195204" lon="11.442097083925558"><ele>434.0</ele><time>2026-03-22T15:09:37Z</time></trkpt><trkpt lat="44.269246267637364" lon="11.442272496184357"><ele>434.0</ele><time>2026-03-22T15:09:38Z</time></trkpt><trkpt lat="44.26922803949878" lon="11.442454071894115"><ele>434.0</ele><time>2026-03-22T15:09:39Z</time></trkpt><trkpt lat="44.26921865460504" lon="11.442628346866574"><ele>434.0</ele><time>2026-03-22T15:09:40Z</time></trkpt><trkpt lat="44.26921340372312" lon="11.442776248102636"><ele>434.0</ele><time>2026-03-22T15:09:41Z</time></trkpt><trkpt lat="44.2692184224987" lon="11.442899344531806"><ele>434.0</ele><time>2026-03-22T15:09:42Z</time></trkpt><trkpt lat="44.26922507838511" lon="11.443003036851332"><ele>434.0</ele><time>2026-03-22T15:09:43Z</time></trkpt><trkpt lat="44.269236356673765" lon="11.443118962675042"><ele>434.0</ele><time>2026-03-22T15:09:44Z</time></trkpt><trkpt lat="44.2692715812822" lon="11.44324552011853"><ele>434.0</ele><time>2026-03-22T15:09:45Z</time></trkpt><trkpt lat="44.2693291456475" lon="11.443377664992525"><ele>434.4</ele><time>2026-03-22T15:09:46Z</time></trkpt><trkpt lat="44.26939966307779" lon="11.443495420244437"><ele>434.79999999999995</ele><time>2026-03-22T15:09:47Z</time></trkpt><trkpt lat="44.26946128643856" lon="11.443606568604139"><ele>435.20000000000005</ele><time>2026-03-22T15:09:48Z</time></trkpt><trkpt lat="44.26950605787767" lon="11.443731170379465"><ele>435.6</ele><time>2026-03-22T15:09:49Z</time></trkpt><trkpt lat="44.269576617776096" lon="11.443843452322882"><ele>436.0</ele><time>2026-03-22T15:09:50Z</time></trkpt><trkpt lat="44.26964670336925" lon="11.443960362997787"><ele>436.0</ele><time>2026-03-22T15:09:51Z</time></trkpt><trkpt lat="44.26972273083036" lon="11.444088011821613"><ele>436.0</ele><time>2026-03-22T15:09:52Z</time></trkpt><trkpt lat="44.26977982713568" lon="11.444187414120014"><ele>436.0</ele><time>2026-03-22T15:09:53Z</time></trkpt><trkpt lat="44.26982746542383" lon="11.44428571031256"><ele>436.0</ele><time>2026-03-22T15:09:54Z</time></trkpt><trkpt lat="44.26987466194293" lon="11.444392019111937"><ele>436.0</ele><time>2026-03-22T15:09:55Z</time></trkpt><trkpt lat="44.26992259788413" lon="11.444508774111952"><ele>434.6</ele><time>2026-03-22T15:09:56Z</time></trkpt><trkpt lat="44.269969943336974" lon="11.444626145723435"><ele>433.20000000000005</ele><time>2026-03-22T15:09:57Z</time></trkpt><trkpt lat="44.270016935949" lon="11.444742642626059"><ele>431.79999999999995</ele><time>2026-03-22T15:09:58Z</time></trkpt><trkpt lat="44.27006490591582" lon="11.444861562442775"><ele>430.4</ele><time>2026-03-22T15:09:59Z</time></trkpt><trkpt lat="44.27011016283091" lon="11.444973756463298"><ele>429.0</ele><time>2026-03-22T15:10:00Z</time></trkpt><trkpt lat="44.27015385229907" lon="11.445078157744023"><ele>429.0</ele><time>2026-03-22T15:10:01Z</time></trkpt><trkpt lat="44.270209374911666" lon="11.445166252995543"><ele>429.0</ele><time>2026-03-22T15:10:02Z</time></trkpt><trkpt lat="44.27024549029166" lon="11.445257017738125"><ele>429.0</ele><time>2026-03-22T15:10:03Z</time></trkpt><trkpt lat="44.270344260784256" lon="11.445359756334016"><ele>429.0</ele><time>2026-03-22T15:10:05Z</time></trkpt><trkpt lat="44.27040588841037" lon="11.44539263637495"><ele>429.0</ele><time>2026-03-22T15:10:06Z</time></trkpt><trkpt lat="44.270474000423526" lon="11.445431606134083"><ele>429.0</ele><time>2026-03-22T15:10:07Z</time></trkpt><trkpt lat="44.270550276397174" lon="11.445474218924195"><ele>428.5</ele><time>2026-03-22T15:10:08Z</time></trkpt><trkpt lat="44.27063340240468" lon="11.445505193251368"><ele>428.0</ele><time>2026-03-22T15:10:09Z</time></trkpt><trkpt lat="44.270719741289284" lon="11.445519566481318"><ele>427.5</ele><time>2026-03-22T15:10:10Z</time></trkpt><trkpt lat="44.27080770514167" lon="11.445520599816046"><ele>427.0</ele><time>2026-03-22T15:10:11Z</time></trkpt><trkpt lat="44.27089364780501" lon="11.445520639886997"><ele>426.5</ele><time>2026-03-22T15:10:12Z</time></trkpt><trkpt lat="44.27097665908658" lon="11.445516046934259"><ele>426.0</ele><time>2026-03-22T15:10:13Z</time></trkpt><trkpt lat="44.27105544708287" lon="11.445518691361054"><ele>426.0</ele><time>2026-03-22T15:10:14Z</time></trkpt><trkpt lat="44.27113636825716" lon="11.445539683372866"><ele>426.0</ele><time>2026-03-22T15:10:15Z</time></trkpt><trkpt lat="44.271215403858974" lon="11.445550559077457"><ele>426.0</ele><time>2026-03-22T15:10:16Z</time></trkpt><trkpt lat="44.27129400331552" lon="11.445569623382445"><ele>426.0</ele><time>2026-03-22T15:10:17Z</time></trkpt><trkpt lat="44.27136959393197" lon="11.44559373400818"><ele>426.0</ele><time>2026-03-22T15:10:18Z</time></trkpt><trkpt lat="44.27144026310915" lon="11.4456374183542"><ele>426.0</ele><time>2026-03-22T15:10:19Z</time></trkpt><trkpt lat="44.27150719107689" lon="11.445683884550837"><ele>423.8333333333333</ele><time>2026-03-22T15:10:20Z</time></trkpt><trkpt lat="44.27155496515362" lon="11.445760511626727"><ele>421.66666666666663</ele><time>2026-03-22T15:10:21Z</time></trkpt><trkpt lat="44.271603683704726" lon="11.44584071248381"><ele>419.5</ele><time>2026-03-22T15:10:22Z</time></trkpt><trkpt lat="44.27164357009951" lon="11.445928846707151"><ele>417.3333333333333</ele><time>2026-03-22T15:10:23Z</time></trkpt><trkpt lat="44.27171642326891" lon="11.446042111109477"><ele>415.16666666666663</ele><time>2026-03-22T15:10:24Z</time></trkpt><trkpt lat="44.271787473734" lon="11.446152170891102"><ele>413.0</ele><time>2026-03-22T15:10:25Z</time></trkpt><trkpt lat="44.271853231142686" lon="11.446253159770412"><ele>413.59999999999997</ele><time>2026-03-22T15:10:26Z</time></trkpt><trkpt lat="44.27190734185171" lon="11.446354583738344"><ele>414.2</ele><time>2026-03-22T15:10:27Z</time></trkpt><trkpt lat="44.27197447888864" lon="11.446461041827213"><ele>414.8</ele><time>2026-03-22T15:10:28Z</time></trkpt><trkpt lat="44.272026064858466" lon="11.44653985962363"><ele>415.4</ele><time>2026-03-22T15:10:29Z</time></trkpt><trkpt lat="44.272090480635015" lon="11.44662751610749"><ele>416.0</ele><time>2026-03-22T15:10:30Z</time></trkpt><trkpt lat="44.27215156148729" lon="11.446725463741911"><ele>415.99999999999994</ele><time>2026-03-22T15:10:31Z</time></trkpt><trkpt lat="44.27220971558771" lon="11.44682914554566"><ele>416.0</ele><time>2026-03-22T15:10:32Z</time></trkpt><trkpt lat="44.27227943810966" lon="11.446927970888144"><ele>416.0</ele><time>2026-03-22T15:10:33Z</time></trkpt><trkpt lat="44.27234044118579" lon="11.447020359696372"><ele>416.0</ele><time>2026-03-22T15:10:34Z</time></trkpt><trkpt lat="44.27238736572866" lon="11.447115175082402"><ele>415.99999999999994</ele><time>2026-03-22T15:10:35Z</time></trkpt><trkpt lat="44.27242577581592" lon="11.447199704829282"><ele>416.0</ele><time>2026-03-22T15:10:36Z</time></trkpt><trkpt lat="44.27245690963596" lon="11.447285496458631"><ele>413.8333333333333</ele><time>2026-03-22T15:10:37Z</time></trkpt><trkpt lat="44.27248387178394" lon="11.447390847044035"><ele>411.66666666666663</ele><time>2026-03-22T15:10:38Z</time></trkpt><trkpt lat="44.272493143237874" lon="11.447507560129047"><ele>409.5</ele><time>2026-03-22T15:10:39Z</time></trkpt><trkpt lat="44.272516165322706" lon="11.44762727748548"><ele>407.33333333333337</ele><time>2026-03-22T15:10:40Z</time></trkpt><trkpt lat="44.27253556823651" lon="11.44774621493397"><ele>405.1666666666667</ele><time>2026-03-22T15:10:41Z</time></trkpt><trkpt lat="44.272555005989354" lon="11.447863281088988"><ele>403.0</ele><time>2026-03-22T15:10:42Z</time></trkpt><trkpt lat="44.272559149507146" lon="11.447983959574518"><ele>401.83333333333337</ele><time>2026-03-22T15:10:43Z</time></trkpt><trkpt lat="44.27257559801198" lon="11.448108750742477"><ele>400.6666666666667</ele><time>2026-03-22T15:10:44Z</time></trkpt><trkpt lat="44.27258932112907" lon="11.448230920739284"><ele>399.5</ele><time>2026-03-22T15:10:45Z</time></trkpt><trkpt lat="44.27257505199434" lon="11.448351824492791"><ele>398.33333333333337</ele><time>2026-03-22T15:10:46Z</time></trkpt><trkpt lat="44.27258795434922" lon="11.448471936662372"><ele>397.1666666666667</ele><time>2026-03-22T15:10:47Z</time></trkpt><trkpt lat="44.272575296199896" lon="11.448587228466113"><ele>396.0</ele><time>2026-03-22T15:10:48Z</time></trkpt><trkpt lat="44.27256663274769" lon="11.448705413262111"><ele>394.3333333333333</ele><time>2026-03-22T15:10:49Z</time></trkpt><trkpt lat="44.272545716066645" lon="11.448812129930245"><ele>392.66666666666663</ele><time>2026-03-22T15:10:50Z</time></trkpt><trkpt lat="44.272530422915736" lon="11.448917472193287"><ele>391.0</ele><time>2026-03-22T15:10:51Z</time></trkpt><trkpt lat="44.27251725907884" lon="11.44904074625618"><ele>389.3333333333333</ele><time>2026-03-22T15:10:52Z</time></trkpt><trkpt lat="44.27251127661823" lon="11.44915808113449"><ele>387.66666666666663</ele><time>2026-03-22T15:10:53Z</time></trkpt><trkpt lat="44.2725105824188" lon="11.449265595123393"><ele>386.0</ele><time>2026-03-22T15:10:54Z</time></trkpt><trkpt lat="44.27252078942118" lon="11.44935883248975"><ele>386.00000000000006</ele><time>2026-03-22T15:10:55Z</time></trkpt><trkpt lat="44.27254243639422" lon="11.449446347089724"><ele>386.0</ele><time>2026-03-22T15:10:56Z</time></trkpt><trkpt lat="44.27257731400284" lon="11.449522162441742"><ele>386.0</ele><time>2026-03-22T15:10:57Z</time></trkpt><trkpt lat="44.27262530511007" lon="11.449586954243964"><ele>386.0</ele><time>2026-03-22T15:10:58Z</time></trkpt><trkpt lat="44.272681106901295" lon="11.449644638423095"><ele>386.0</ele><time>2026-03-22T15:10:59Z</time></trkpt><trkpt lat="44.272747820295464" lon="11.44969730606253"><ele>386.00000000000006</ele><time>2026-03-22T15:11:00Z</time></trkpt><trkpt lat="44.27281816464658" lon="11.449735238341807"><ele>386.0</ele><time>2026-03-22T15:11:01Z</time></trkpt><trkpt lat="44.272894464189925" lon="11.449758669640122"><ele>384.8333333333333</ele><time>2026-03-22T15:11:02Z</time></trkpt><trkpt lat="44.272967281023206" lon="11.449761706116236"><ele>383.66666666666663</ele><time>2026-03-22T15:11:03Z</time></trkpt><trkpt lat="44.273052501690294" lon="11.449744888274752"><ele>382.5</ele><time>2026-03-22T15:11:04Z</time></trkpt><trkpt lat="44.27313409011817" lon="11.449715639867971"><ele>381.3333333333333</ele><time>2026-03-22T15:11:05Z</time></trkpt><trkpt lat="44.27322437528268" lon="11.449682513392194"><ele>380.16666666666663</ele><time>2026-03-22T15:11:06Z</time></trkpt><trkpt lat="44.27331871119333" lon="11.449660428694948"><ele>379.0</ele><time>2026-03-22T15:11:07Z</time></trkpt><trkpt lat="44.27340238361302" lon="11.449648832425735"><ele>377.16666666666663</ele><time>2026-03-22T15:11:08Z</time></trkpt><trkpt lat="44.27348750386637" lon="11.449644560302815"><ele>375.3333333333333</ele><time>2026-03-22T15:11:09Z</time></trkpt><trkpt lat="44.27357101855275" lon="11.449640985423008"><ele>373.5</ele><time>2026-03-22T15:11:10Z</time></trkpt><trkpt lat="44.2736421528267" lon="11.449636953646284"><ele>371.6666666666667</ele><time>2026-03-22T15:11:11Z</time></trkpt><trkpt lat="44.273717660626986" lon="11.449627953315792"><ele>369.83333333333337</ele><time>2026-03-22T15:11:12Z</time></trkpt><trkpt lat="44.273791635772135" lon="11.449624916548704"><ele>368.0</ele><time>2026-03-22T15:11:13Z</time></trkpt><trkpt lat="44.273856837363724" lon="11.449620859635358"><ele>368.0</ele><time>2026-03-22T15:11:14Z</time></trkpt><trkpt lat="44.273957464791785" lon="11.449621839348987"><ele>368.0</ele><time>2026-03-22T15:11:16Z</time></trkpt><trkpt lat="44.274020405012216" lon="11.449688289406959"><ele>368.0</ele><time>2026-03-22T15:11:18Z</time></trkpt><trkpt lat="44.27400382827568" lon="11.449821890299843"><ele>368.0</ele><time>2026-03-22T15:11:20Z</time></trkpt><trkpt lat="44.27391487204055" lon="11.449896466882294"><ele>368.0</ele><time>2026-03-22T15:11:22Z</time></trkpt><trkpt lat="44.27379693029323" lon="11.449991929182406"><ele>368.0</ele><time>2026-03-22T15:11:24Z</time></trkpt><trkpt lat="44.2737289642233" lon="11.450079841838857"><ele>368.0</ele><time>2026-03-22T15:11:25Z</time></trkpt><trkpt lat="44.2736771312172" lon="11.45018883879995"><ele>368.0</ele><time>2026-03-22T15:11:26Z</time></trkpt><trkpt lat="44.2736507545716" lon="11.450314858698082"><ele>368.0</ele><time>2026-03-22T15:11:27Z</time></trkpt><trkpt lat="44.273620996406414" lon="11.45043593636392"><ele>368.0</ele><time>2026-03-22T15:11:28Z</time></trkpt><trkpt lat="44.273589338903975" lon="11.450557116555867"><ele>366.0</ele><time>2026-03-22T15:11:29Z</time></trkpt><trkpt lat="44.27354658404791" lon="11.450649945219766"><ele>364.0</ele><time>2026-03-22T15:11:30Z</time></trkpt><trkpt lat="44.27350026739195" lon="11.450739028315084"><ele>362.0</ele><time>2026-03-22T15:11:31Z</time></trkpt><trkpt lat="44.27343634385549" lon="11.45080384528484"><ele>360.0</ele><time>2026-03-22T15:11:32Z</time></trkpt><trkpt lat="44.27336272391367" lon="11.450875415327648"><ele>358.0</ele><time>2026-03-22T15:11:33Z</time></trkpt><trkpt lat="44.273304432795825" lon="11.450954745589444"><ele>356.0</ele><time>2026-03-22T15:11:34Z</time></trkpt><trkpt lat="44.27326620005841" lon="11.451060049977528"><ele>356.0</ele><time>2026-03-22T15:11:35Z</time></trkpt><trkpt lat="44.27325736064138" lon="11.45120814060442"><ele>356.0</ele><time>2026-03-22T15:11:36Z</time></trkpt><trkpt lat="44.2732763348205" lon="11.451364523988362"><ele>356.0</ele><time>2026-03-22T15:11:37Z</time></trkpt><trkpt lat="44.273298729987815" lon="11.4515137602607"><ele>356.0</ele><time>2026-03-22T15:11:38Z</time></trkpt><trkpt lat="44.27332108103926" lon="11.451660667246271"><ele>356.0</ele><time>2026-03-22T15:11:39Z</time></trkpt><trkpt lat="44.27334715335571" lon="11.451825791943428"><ele>354.8</ele><time>2026-03-22T15:11:40Z</time></trkpt><trkpt lat="44.27337243737721" lon="11.451993095811488"><ele>353.6</ele><time>2026-03-22T15:11:41Z</time></trkpt><trkpt lat="44.273393169675124" lon="11.452151036438842"><ele>352.4</ele><time>2026-03-22T15:11:42Z</time></trkpt><trkpt lat="44.27340715840524" lon="11.452294472765516"><ele>351.2</ele><time>2026-03-22T15:11:43Z</time></trkpt><trkpt lat="44.273419223230405" lon="11.452443607269277"><ele>350.0</ele><time>2026-03-22T15:11:44Z</time></trkpt><trkpt lat="44.273428545809416" lon="11.452581706723782"><ele>348.8</ele><time>2026-03-22T15:11:45Z</time></trkpt><trkpt lat="44.27343924480652" lon="11.452721129103988"><ele>347.6</ele><time>2026-03-22T15:11:46Z</time></trkpt><trkpt lat="44.27345133284753" lon="11.452857465781197"><ele>346.4</ele><time>2026-03-22T15:11:47Z</time></trkpt><trkpt lat="44.27347872789336" lon="11.452984195311704"><ele>345.2</ele><time>2026-03-22T15:11:48Z</time></trkpt><trkpt lat="44.273504904937795" lon="11.45311157352886"><ele>344.0</ele><time>2026-03-22T15:11:49Z</time></trkpt><trkpt lat="44.273540010980646" lon="11.453235026544098"><ele>342.2</ele><time>2026-03-22T15:11:50Z</time></trkpt><trkpt lat="44.27358901318141" lon="11.453346443766765"><ele>340.4</ele><time>2026-03-22T15:11:51Z</time></trkpt><trkpt lat="44.273620997212745" lon="11.453472509288524"><ele>338.6</ele><time>2026-03-22T15:11:52Z</time></trkpt><trkpt lat="44.27367433333308" lon="11.453603405516358"><ele>336.8</ele><time>2026-03-22T15:11:53Z</time></trkpt><trkpt lat="44.273735645320606" lon="11.453752148892383"><ele>335.0</ele><time>2026-03-22T15:11:54Z</time></trkpt><trkpt lat="44.273797631205625" lon="11.453902527289468"><ele>332.75</ele><time>2026-03-22T15:11:55Z</time></trkpt><trkpt lat="44.27386404116925" lon="11.45403964426984"><ele>330.5</ele><time>2026-03-22T15:11:56Z</time></trkpt><trkpt lat="44.27392192265856" lon="11.454178203922607"><ele>328.25</ele><time>2026-03-22T15:11:57Z</time></trkpt><trkpt lat="44.27397290872823" lon="11.45431624253345"><ele>326.0</ele><time>2026-03-22T15:11:58Z</time></trkpt><trkpt lat="44.27402501422565" lon="11.454453327265584"><ele>325.4</ele><time>2026-03-22T15:11:59Z</time></trkpt><trkpt lat="44.27407908085269" lon="11.454581769634654"><ele>324.8</ele><time>2026-03-22T15:12:00Z</time></trkpt><trkpt lat="44.27413210309059" lon="11.45470352814782"><ele>324.2</ele><time>2026-03-22T15:12:01Z</time></trkpt><trkpt lat="44.27418306186187" lon="11.454825730931903"><ele>323.59999999999997</ele><time>2026-03-22T15:12:02Z</time></trkpt><trkpt lat="44.2742303680407" lon="11.454942590101147"><ele>323.0</ele><time>2026-03-22T15:12:03Z</time></trkpt><trkpt lat="44.27427475177074" lon="11.455051736762185"><ele>321.83333333333337</ele><time>2026-03-22T15:12:04Z</time></trkpt><trkpt lat="44.27431438497472" lon="11.455155928188725"><ele>320.6666666666667</ele><time>2026-03-22T15:12:05Z</time></trkpt><trkpt lat="44.27435189542159" lon="11.455262794530087"><ele>319.5</ele><time>2026-03-22T15:12:06Z</time></trkpt><trkpt lat="44.274387440392324" lon="11.4553643520641"><ele>318.3333333333333</ele><time>2026-03-22T15:12:07Z</time></trkpt><trkpt lat="44.27443604241672" lon="11.455455839222335"><ele>317.16666666666663</ele><time>2026-03-22T15:12:08Z</time></trkpt><trkpt lat="44.27450419160118" lon="11.45553515319065"><ele>316.0</ele><time>2026-03-22T15:12:09Z</time></trkpt><trkpt lat="44.274586173460285" lon="11.455611815950807"><ele>315.66666666666663</ele><time>2026-03-22T15:12:10Z</time></trkpt><trkpt lat="44.27466296646569" lon="11.455695823441177"><ele>315.3333333333333</ele><time>2026-03-22T15:12:11Z</time></trkpt><trkpt lat="44.27473108414607" lon="11.455779259771262"><ele>315.0</ele><time>2026-03-22T15:12:12Z</time></trkpt><trkpt lat="44.27478536391261" lon="11.455839162546498"><ele>314.6666666666667</ele><time>2026-03-22T15:12:13Z</time></trkpt><trkpt lat="44.27483866990312" lon="11.455893979079905"><ele>314.33333333333337</ele><time>2026-03-22T15:12:14Z</time></trkpt><trkpt lat="44.27493681746756" lon="11.455966402894008"><ele>314.0</ele><time>2026-03-22T15:12:16Z</time></trkpt><trkpt lat="44.27499736663847" lon="11.456049582547514"><ele>314.0</ele><time>2026-03-22T15:12:18Z</time></trkpt><trkpt lat="44.2749844354329" lon="11.456205264244092"><ele>314.0</ele><time>2026-03-22T15:12:20Z</time></trkpt><trkpt lat="44.27491396915397" lon="11.456243463807315"><ele>314.0</ele><time>2026-03-22T15:12:21Z</time></trkpt><trkpt lat="44.27484342445574" lon="11.45622612548457"><ele>314.0</ele><time>2026-03-22T15:12:22Z</time></trkpt><trkpt lat="44.27475434834269" lon="11.45620455941024"><ele>314.0</ele><time>2026-03-22T15:12:24Z</time></trkpt><trkpt lat="44.27461697121899" lon="11.456209187944648"><ele>313.0</ele><time>2026-03-22T15:12:26Z</time></trkpt><trkpt lat="44.274532646741406" lon="11.456212501280433"><ele>312.0</ele><time>2026-03-22T15:12:27Z</time></trkpt><trkpt lat="44.27445722088722" lon="11.456209213002316"><ele>311.0</ele><time>2026-03-22T15:12:28Z</time></trkpt><trkpt lat="44.27437538130561" lon="11.456199962770478"><ele>310.0</ele><time>2026-03-22T15:12:29Z</time></trkpt><trkpt lat="44.2742947341306" lon="11.45619059778957"><ele>309.0</ele><time>2026-03-22T15:12:30Z</time></trkpt><trkpt lat="44.27421938676809" lon="11.456203806242666"><ele>308.0</ele><time>2026-03-22T15:12:31Z</time></trkpt><trkpt lat="44.27415655354037" lon="11.456198145251882"><ele>308.0</ele><time>2026-03-22T15:12:32Z</time></trkpt><trkpt lat="44.274027808546364" lon="11.456236754752819"><ele>308.0</ele><time>2026-03-22T15:12:34Z</time></trkpt><trkpt lat="44.27397155799862" lon="11.456333688053705"><ele>308.0</ele><time>2026-03-22T15:12:35Z</time></trkpt><trkpt lat="44.27393105419443" lon="11.456450160515626"><ele>308.0</ele><time>2026-03-22T15:12:36Z</time></trkpt><trkpt lat="44.27389580639675" lon="11.456565558587256"><ele>308.0</ele><time>2026-03-22T15:12:37Z</time></trkpt><trkpt lat="44.27384684171875" lon="11.45673767703303"><ele>305.6</ele><time>2026-03-22T15:12:39Z</time></trkpt><trkpt lat="44.2738036940416" lon="11.456889370924108"><ele>303.20000000000005</ele><time>2026-03-22T15:12:41Z</time></trkpt><trkpt lat="44.273739780298875" lon="11.457011141295322"><ele>300.8</ele><time>2026-03-22T15:12:43Z</time></trkpt><trkpt lat="44.27367947272934" lon="11.457051437003589"><ele>298.40000000000003</ele><time>2026-03-22T15:12:44Z</time></trkpt><trkpt lat="44.273580660539906" lon="11.457104843608368"><ele>296.0</ele><time>2026-03-22T15:12:46Z</time></trkpt><trkpt lat="44.27350171386785" lon="11.457165830494489"><ele>294.5</ele><time>2026-03-22T15:12:48Z</time></trkpt><trkpt lat="44.2734904890875" lon="11.457259836101738"><ele>293.0</ele><time>2026-03-22T15:12:49Z</time></trkpt><trkpt lat="44.27351159581513" lon="11.457343904418549"><ele>291.5</ele><time>2026-03-22T15:12:50Z</time></trkpt><trkpt lat="44.273588108218945" lon="11.4573929607099"><ele>290.0</ele><time>2026-03-22T15:12:51Z</time></trkpt><trkpt lat="44.273697069360736" lon="11.45741421595982"><ele>288.5</ele><time>2026-03-22T15:12:53Z</time></trkpt><trkpt lat="44.27376906374339" lon="11.457420858735427"><ele>287.0</ele><time>2026-03-22T15:12:55Z</time></trkpt><trkpt lat="44.27382029699317" lon="11.45751254688547"><ele>287.0</ele><time>2026-03-22T15:12:58Z</time></trkpt><trkpt lat="44.27382227159439" lon="11.457601208121462"><ele>287.0</ele><time>2026-03-22T15:13:01Z</time></trkpt><trkpt lat="44.273905481727894" lon="11.457692419702795"><ele>287.0</ele><time>2026-03-22T15:13:04Z</time></trkpt><trkpt lat="44.274023313116366" lon="11.457718014327705"><ele>287.0</ele><time>2026-03-22T15:13:06Z</time></trkpt><trkpt lat="44.27408652119418" lon="11.457732427605249"><ele>287.0</ele><time>2026-03-22T15:13:07Z</time></trkpt><trkpt lat="44.274167146712934" lon="11.45775915302047"><ele>287.0</ele><time>2026-03-22T15:13:08Z</time></trkpt><trkpt lat="44.274261610385864" lon="11.457788790446923"><ele>287.0</ele><time>2026-03-22T15:13:09Z</time></trkpt><trkpt lat="44.27434528755682" lon="11.457817943131193"><ele>287.0</ele><time>2026-03-22T15:13:10Z</time></trkpt><trkpt lat="44.274437191775554" lon="11.457856543339117"><ele>287.0</ele><time>2026-03-22T15:13:11Z</time></trkpt><trkpt lat="44.27453568523165" lon="11.457916407911666"><ele>287.0</ele><time>2026-03-22T15:13:12Z</time></trkpt><trkpt lat="44.27463244304571" lon="11.458003851665593"><ele>287.0</ele><time>2026-03-22T15:13:13Z</time></trkpt><trkpt lat="44.27472279186775" lon="11.458096243213658"><ele>284.75</ele><time>2026-03-22T15:13:14Z</time></trkpt><trkpt lat="44.27481898516448" lon="11.458204888533796"><ele>282.5</ele><time>2026-03-22T15:13:15Z</time></trkpt><trkpt lat="44.2749165570321" lon="11.458312669240344"><ele>280.25</ele><time>2026-03-22T15:13:16Z</time></trkpt><trkpt lat="44.27500502310506" lon="11.458410716961684"><ele>278.0</ele><time>2026-03-22T15:13:17Z</time></trkpt><trkpt lat="44.27509462462797" lon="11.458494812224393"><ele>278.0</ele><time>2026-03-22T15:13:18Z</time></trkpt><trkpt lat="44.27519249169763" lon="11.458571641043894"><ele>278.0</ele><time>2026-03-22T15:13:19Z</time></trkpt><trkpt lat="44.2752995160732" lon="11.458651542068766"><ele>278.0</ele><time>2026-03-22T15:13:20Z</time></trkpt><trkpt lat="44.27540903438938" lon="11.458713241851036"><ele>278.0</ele><time>2026-03-22T15:13:21Z</time></trkpt><trkpt lat="44.275522865629846" lon="11.458757392884277"><ele>277.0</ele><time>2026-03-22T15:13:22Z</time></trkpt><trkpt lat="44.275653853725274" lon="11.458793848696383"><ele>276.0</ele><time>2026-03-22T15:13:23Z</time></trkpt><trkpt lat="44.27578837097801" lon="11.458820385544511"><ele>275.0</ele><time>2026-03-22T15:13:24Z</time></trkpt><trkpt lat="44.27591267674748" lon="11.45884549980942"><ele>274.0</ele><time>2026-03-22T15:13:25Z</time></trkpt><trkpt lat="44.27602859452202" lon="11.458874153995895"><ele>274.0</ele><time>2026-03-22T15:13:26Z</time></trkpt><trkpt lat="44.27613976334334" lon="11.458903812357264"><ele>274.0</ele><time>2026-03-22T15:13:27Z</time></trkpt><trkpt lat="44.27624752720135" lon="11.458925383907626"><ele>274.0</ele><time>2026-03-22T15:13:28Z</time></trkpt><trkpt lat="44.276360682397474" lon="11.458937486630104"><ele>274.0</ele><time>2026-03-22T15:13:29Z</time></trkpt><trkpt lat="44.27646717987215" lon="11.458932178848015"><ele>274.0</ele><time>2026-03-22T15:13:30Z</time></trkpt><trkpt lat="44.27658126838226" lon="11.458926135595496"><ele>273.2</ele><time>2026-03-22T15:13:31Z</time></trkpt><trkpt lat="44.27669262556203" lon="11.458903937821484"><ele>272.4</ele><time>2026-03-22T15:13:32Z</time></trkpt><trkpt lat="44.276795578600264" lon="11.458861712882442"><ele>271.6</ele><time>2026-03-22T15:13:33Z</time></trkpt><trkpt lat="44.27688734001236" lon="11.458800326502566"><ele>270.8</ele><time>2026-03-22T15:13:34Z</time></trkpt><trkpt lat="44.27696875032109" lon="11.458719664294101"><ele>270.0</ele><time>2026-03-22T15:13:35Z</time></trkpt><trkpt lat="44.27704544002609" lon="11.458635292244328"><ele>270.4</ele><time>2026-03-22T15:13:36Z</time></trkpt><trkpt lat="44.27711696001727" lon="11.458560796387603"><ele>270.8</ele><time>2026-03-22T15:13:37Z</time></trkpt><trkpt lat="44.27720248111329" lon="11.458525519464642"><ele>271.2</ele><time>2026-03-22T15:13:38Z</time></trkpt><trkpt lat="44.27730416666236" lon="11.458519296845154"><ele>271.6</ele><time>2026-03-22T15:13:39Z</time></trkpt><trkpt lat="44.2774025046158" lon="11.458560748755252"><ele>272.0</ele><time>2026-03-22T15:13:40Z</time></trkpt><trkpt lat="44.27749969892626" lon="11.458650506133473"><ele>272.0</ele><time>2026-03-22T15:13:41Z</time></trkpt><trkpt lat="44.27761414659975" lon="11.458712853352377"><ele>272.0</ele><time>2026-03-22T15:13:42Z</time></trkpt><trkpt lat="44.27771907384241" lon="11.458790447237897"><ele>272.0</ele><time>2026-03-22T15:13:43Z</time></trkpt><trkpt lat="44.27781130306052" lon="11.458864731145775"><ele>272.0</ele><time>2026-03-22T15:13:44Z</time></trkpt><trkpt lat="44.27788864327131" lon="11.45893078040137"><ele>272.0</ele><time>2026-03-22T15:13:45Z</time></trkpt><trkpt lat="44.277961623931084" lon="11.458984877818503"><ele>271.8</ele><time>2026-03-22T15:13:46Z</time></trkpt><trkpt lat="44.27804525533937" lon="11.459016679826581"><ele>271.6</ele><time>2026-03-22T15:13:47Z</time></trkpt><trkpt lat="44.27814039378139" lon="11.458994641224393"><ele>271.40000000000003</ele><time>2026-03-22T15:13:48Z</time></trkpt><trkpt lat="44.278228846345684" lon="11.458915563812502"><ele>271.2</ele><time>2026-03-22T15:13:49Z</time></trkpt><trkpt lat="44.278307249073144" lon="11.458793714222052"><ele>271.0</ele><time>2026-03-22T15:13:50Z</time></trkpt><trkpt lat="44.278381456660696" lon="11.45865911177349"><ele>271.0</ele><time>2026-03-22T15:13:51Z</time></trkpt><trkpt lat="44.27845854153819" lon="11.458518237534511"><ele>271.0</ele><time>2026-03-22T15:13:52Z</time></trkpt><trkpt lat="44.2785457122348" lon="11.458381505732318"><ele>271.0</ele><time>2026-03-22T15:13:53Z</time></trkpt><trkpt lat="44.27863567795025" lon="11.458266728771685"><ele>271.0</ele><time>2026-03-22T15:13:54Z</time></trkpt><trkpt lat="44.278726009319136" lon="11.458169675447946"><ele>271.0</ele><time>2026-03-22T15:13:55Z</time></trkpt><trkpt lat="44.278836005321544" lon="11.458089485573437"><ele>271.0</ele><time>2026-03-22T15:13:56Z</time></trkpt><trkpt lat="44.27896340423916" lon="11.458026008937049"><ele>271.0</ele><time>2026-03-22T15:13:57Z</time></trkpt><trkpt lat="44.279094995271365" lon="11.457975802638535"><ele>271.0</ele><time>2026-03-22T15:13:58Z</time></trkpt><trkpt lat="44.279222047527455" lon="11.457960487089982"><ele>271.0</ele><time>2026-03-22T15:13:59Z</time></trkpt><trkpt lat="44.27933205154122" lon="11.457975028466135"><ele>271.0</ele><time>2026-03-22T15:14:00Z</time></trkpt><trkpt lat="44.279429911181374" lon="11.458001164605214"><ele>271.0</ele><time>2026-03-22T15:14:01Z</time></trkpt><trkpt lat="44.27951765719299" lon="11.458024732579442"><ele>271.0</ele><time>2026-03-22T15:14:02Z</time></trkpt><trkpt lat="44.27958639799636" lon="11.458027056124383"><ele>271.0</ele><time>2026-03-22T15:14:03Z</time></trkpt><trkpt lat="44.27965280005168" lon="11.457979517397675"><ele>271.0</ele><time>2026-03-22T15:14:04Z</time></trkpt><trkpt lat="44.27971483805884" lon="11.45787197457373"><ele>271.0</ele><time>2026-03-22T15:14:05Z</time></trkpt><trkpt lat="44.27974799471891" lon="11.45773284851771"><ele>271.0</ele><time>2026-03-22T15:14:06Z</time></trkpt><trkpt lat="44.27975514621587" lon="11.457589428788047"><ele>271.0</ele><time>2026-03-22T15:14:07Z</time></trkpt><trkpt lat="44.27973939804579" lon="11.457435192855653"><ele>271.0</ele><time>2026-03-22T15:14:08Z</time></trkpt><trkpt lat="44.2797298606212" lon="11.457270238744893"><ele>271.0</ele><time>2026-03-22T15:14:09Z</time></trkpt><trkpt lat="44.27974950623723" lon="11.45712655393801"><ele>271.6</ele><time>2026-03-22T15:14:10Z</time></trkpt><trkpt lat="44.279785052210215" lon="11.456986398754095"><ele>272.20000000000005</ele><time>2026-03-22T15:14:11Z</time></trkpt><trkpt lat="44.27982617665639" lon="11.456849900356708"><ele>272.79999999999995</ele><time>2026-03-22T15:14:12Z</time></trkpt><trkpt lat="44.279874438509545" lon="11.456708726476316"><ele>273.4</ele><time>2026-03-22T15:14:13Z</time></trkpt><trkpt lat="44.27992936657987" lon="11.456565321078228"><ele>274.0</ele><time>2026-03-22T15:14:14Z</time></trkpt><trkpt lat="44.279985261615145" lon="11.456428180091962"><ele>271.75</ele><time>2026-03-22T15:14:15Z</time></trkpt><trkpt lat="44.28004362146562" lon="11.4562788711349"><ele>269.5</ele><time>2026-03-22T15:14:16Z</time></trkpt><trkpt lat="44.28009893566236" lon="11.456122361048388"><ele>267.25</ele><time>2026-03-22T15:14:17Z</time></trkpt><trkpt lat="44.280150098518796" lon="11.455983530480705"><ele>265.0</ele><time>2026-03-22T15:14:18Z</time></trkpt><trkpt lat="44.28019642663835" lon="11.455848491295086"><ele>265.0</ele><time>2026-03-22T15:14:19Z</time></trkpt><trkpt lat="44.28024700393012" lon="11.455710843682759"><ele>265.0</ele><time>2026-03-22T15:14:20Z</time></trkpt><trkpt lat="44.28031592657937" lon="11.455572156822724"><ele>265.0</ele><time>2026-03-22T15:14:21Z</time></trkpt><trkpt lat="44.28040150563012" lon="11.455444754544995"><ele>265.0</ele><time>2026-03-22T15:14:22Z</time></trkpt><trkpt lat="44.280499281486" lon="11.45531778549705"><ele>264.5</ele><time>2026-03-22T15:14:23Z</time></trkpt><trkpt lat="44.28059813878046" lon="11.455193103788272"><ele>264.0</ele><time>2026-03-22T15:14:24Z</time></trkpt><trkpt lat="44.28069458072706" lon="11.455085410110092"><ele>263.5</ele><time>2026-03-22T15:14:25Z</time></trkpt><trkpt lat="44.28078411733306" lon="11.454985817895757"><ele>263.0</ele><time>2026-03-22T15:14:26Z</time></trkpt><trkpt lat="44.28087577806151" lon="11.454886145717145"><ele>263.0</ele><time>2026-03-22T15:14:27Z</time></trkpt><trkpt lat="44.28097851211242" lon="11.454790948537282"><ele>263.0</ele><time>2026-03-22T15:14:28Z</time></trkpt><trkpt lat="44.28108878128851" lon="11.454699306738618"><ele>263.0</ele><time>2026-03-22T15:14:29Z</time></trkpt><trkpt lat="44.281193754129745" lon="11.454621849385731"><ele>263.0</ele><time>2026-03-22T15:14:30Z</time></trkpt><trkpt lat="44.28129247733903" lon="11.454553085690954"><ele>262.6</ele><time>2026-03-22T15:14:31Z</time></trkpt><trkpt lat="44.28138829213758" lon="11.454470283891853"><ele>262.20000000000005</ele><time>2026-03-22T15:14:32Z</time></trkpt><trkpt lat="44.281473906927374" lon="11.454368517508767"><ele>261.8</ele><time>2026-03-22T15:14:33Z</time></trkpt><trkpt lat="44.28154534224513" lon="11.454260315683564"><ele>261.40000000000003</ele><time>2026-03-22T15:14:34Z</time></trkpt><trkpt lat="44.281603937013315" lon="11.454144727819044"><ele>261.0</ele><time>2026-03-22T15:14:35Z</time></trkpt><trkpt lat="44.28165660515698" lon="11.454023060117098"><ele>261.0</ele><time>2026-03-22T15:14:36Z</time></trkpt><trkpt lat="44.28170623046908" lon="11.453902379969453"><ele>261.0</ele><time>2026-03-22T15:14:37Z</time></trkpt><trkpt lat="44.281771883137395" lon="11.453812530769397"><ele>261.0</ele><time>2026-03-22T15:14:38Z</time></trkpt><trkpt lat="44.28186147409155" lon="11.453752507427065"><ele>261.0</ele><time>2026-03-22T15:14:39Z</time></trkpt><trkpt lat="44.28196725374728" lon="11.453713544871555"><ele>261.0</ele><time>2026-03-22T15:14:40Z</time></trkpt><trkpt lat="44.282080172673396" lon="11.453692280214248"><ele>260.40000000000003</ele><time>2026-03-22T15:14:41Z</time></trkpt><trkpt lat="44.28218468625312" lon="11.453673672767513"><ele>259.8</ele><time>2026-03-22T15:14:42Z</time></trkpt><trkpt lat="44.28227403055788" lon="11.453647575058431"><ele>259.20000000000005</ele><time>2026-03-22T15:14:43Z</time></trkpt><trkpt lat="44.282363154929214" lon="11.453596356667889"><ele>258.6</ele><time>2026-03-22T15:14:44Z</time></trkpt><trkpt lat="44.28244549837645" lon="11.453498273357848"><ele>258.0</ele><time>2026-03-22T15:14:45Z</time></trkpt><trkpt lat="44.28250574052879" lon="11.453370489537257"><ele>258.0</ele><time>2026-03-22T15:14:46Z</time></trkpt><trkpt lat="44.28253757546731" lon="11.453236631528062"><ele>258.0</ele><time>2026-03-22T15:14:47Z</time></trkpt><trkpt lat="44.28256387257591" lon="11.4531039536982"><ele>258.0</ele><time>2026-03-22T15:14:48Z</time></trkpt><trkpt lat="44.282602251612516" lon="11.452979897605292"><ele>258.0</ele><time>2026-03-22T15:14:49Z</time></trkpt><trkpt lat="44.28266414808357" lon="11.452897548041665"><ele>258.0</ele><time>2026-03-22T15:14:50Z</time></trkpt><trkpt lat="44.28274491277877" lon="11.452843809702475"><ele>256.8</ele><time>2026-03-22T15:14:51Z</time></trkpt><trkpt lat="44.28284629447432" lon="11.45282126248217"><ele>255.60000000000002</ele><time>2026-03-22T15:14:52Z</time></trkpt><trkpt lat="44.28295656012783" lon="11.452808652615525"><ele>254.39999999999998</ele><time>2026-03-22T15:14:53Z</time></trkpt><trkpt lat="44.28306875342358" lon="11.452804788469175"><ele>253.2</ele><time>2026-03-22T15:14:54Z</time></trkpt><trkpt lat="44.283184577680736" lon="11.452814240580725"><ele>252.0</ele><time>2026-03-22T15:14:55Z</time></trkpt><trkpt lat="44.2832980353517" lon="11.452841795055663"><ele>252.0</ele><time>2026-03-22T15:14:56Z</time></trkpt><trkpt lat="44.28340156490483" lon="11.452909924196863"><ele>252.0</ele><time>2026-03-22T15:14:57Z</time></trkpt><trkpt lat="44.28348413365625" lon="11.452990370715186"><ele>252.0</ele><time>2026-03-22T15:14:58Z</time></trkpt><trkpt lat="44.2835599788835" lon="11.453058932314972"><ele>252.0</ele><time>2026-03-22T15:14:59Z</time></trkpt><trkpt lat="44.28365609964367" lon="11.453095323873205"><ele>252.0</ele><time>2026-03-22T15:15:00Z</time></trkpt><trkpt lat="44.28377140702931" lon="11.453080450271267"><ele>252.6</ele><time>2026-03-22T15:15:01Z</time></trkpt><trkpt lat="44.28388627174043" lon="11.453016390506956"><ele>253.2</ele><time>2026-03-22T15:15:02Z</time></trkpt><trkpt lat="44.28398253904463" lon="11.452950065656433"><ele>253.8</ele><time>2026-03-22T15:15:03Z</time></trkpt><trkpt lat="44.28405148216768" lon="11.452890639040938"><ele>254.4</ele><time>2026-03-22T15:15:04Z</time></trkpt><trkpt lat="44.28410980450819" lon="11.452837278326491"><ele>255.0</ele><time>2026-03-22T15:15:05Z</time></trkpt><trkpt lat="44.284146285922404" lon="11.452754436336825"><ele>255.0</ele><time>2026-03-22T15:15:06Z</time></trkpt><trkpt lat="44.28415826606731" lon="11.452631659655568"><ele>255.0</ele><time>2026-03-22T15:15:07Z</time></trkpt><trkpt lat="44.28414488853493" lon="11.4524871305995"><ele>255.0</ele><time>2026-03-22T15:15:08Z</time></trkpt><trkpt lat="44.28411544097895" lon="11.452342956279214"><ele>255.0</ele><time>2026-03-22T15:15:09Z</time></trkpt><trkpt lat="44.28408742325826" lon="11.452187426601766"><ele>255.0</ele><time>2026-03-22T15:15:10Z</time></trkpt><trkpt lat="44.28409066107024" lon="11.452027719421192"><ele>254.2</ele><time>2026-03-22T15:15:11Z</time></trkpt><trkpt lat="44.284122955053284" lon="11.451877519376074"><ele>253.4</ele><time>2026-03-22T15:15:12Z</time></trkpt><trkpt lat="44.28417202103915" lon="11.451759416331477"><ele>252.60000000000002</ele><time>2026-03-22T15:15:13Z</time></trkpt><trkpt lat="44.28423997510968" lon="11.451658366457792"><ele>251.8</ele><time>2026-03-22T15:15:14Z</time></trkpt><trkpt lat="44.2843239310061" lon="11.451576697602455"><ele>251.0</ele><time>2026-03-22T15:15:15Z</time></trkpt><trkpt lat="44.284417103154155" lon="11.451518732741071"><ele>251.0</ele><time>2026-03-22T15:15:16Z</time></trkpt><trkpt lat="44.284517793599065" lon="11.45147219552044"><ele>251.0</ele><time>2026-03-22T15:15:17Z</time></trkpt><trkpt lat="44.284622183120526" lon="11.45144621035528"><ele>251.0</ele><time>2026-03-22T15:15:18Z</time></trkpt><trkpt lat="44.28474037411343" lon="11.451432635875621"><ele>251.0</ele><time>2026-03-22T15:15:19Z</time></trkpt><trkpt lat="44.28486317041067" lon="11.451431002676827"><ele>252.0</ele><time>2026-03-22T15:15:20Z</time></trkpt><trkpt lat="44.28499323279829" lon="11.451434281829393"><ele>253.0</ele><time>2026-03-22T15:15:21Z</time></trkpt><trkpt lat="44.285128232572305" lon="11.451442084597561"><ele>254.0</ele><time>2026-03-22T15:15:22Z</time></trkpt><trkpt lat="44.28525442496072" lon="11.451456630427309"><ele>255.0</ele><time>2026-03-22T15:15:23Z</time></trkpt><trkpt lat="44.28536852270584" lon="11.451484560580631"><ele>255.0</ele><time>2026-03-22T15:15:24Z</time></trkpt><trkpt lat="44.28546830627364" lon="11.45151933414655"><ele>255.0</ele><time>2026-03-22T15:15:25Z</time></trkpt><trkpt lat="44.28556828330135" lon="11.451555158859797"><ele>255.0</ele><time>2026-03-22T15:15:26Z</time></trkpt><trkpt lat="44.2856665364558" lon="11.451609161355867"><ele>255.0</ele><time>2026-03-22T15:15:27Z</time></trkpt><trkpt lat="44.285732898691045" lon="11.451712174892062"><ele>255.0</ele><time>2026-03-22T15:15:28Z</time></trkpt><trkpt lat="44.285781623348875" lon="11.45184183543347"><ele>255.8</ele><time>2026-03-22T15:15:29Z</time></trkpt><trkpt lat="44.28582868314451" lon="11.451982243011464"><ele>256.6</ele><time>2026-03-22T15:15:30Z</time></trkpt><trkpt lat="44.28588735527677" lon="11.452081837762853"><ele>257.4</ele><time>2026-03-22T15:15:31Z</time></trkpt><trkpt lat="44.2859277667529" lon="11.452174887210672"><ele>258.2</ele><time>2026-03-22T15:15:32Z</time></trkpt><trkpt lat="44.2859962093659" lon="11.452227357945945"><ele>259.0</ele><time>2026-03-22T15:15:33Z</time></trkpt><trkpt lat="44.286094405233605" lon="11.452249005257482"><ele>259.0</ele><time>2026-03-22T15:15:34Z</time></trkpt><trkpt lat="44.28619379355268" lon="11.452243818582087"><ele>259.0</ele><time>2026-03-22T15:15:35Z</time></trkpt><trkpt lat="44.28629882088316" lon="11.452204452435218"><ele>259.0</ele><time>2026-03-22T15:15:36Z</time></trkpt><trkpt lat="44.28638085362601" lon="11.45214537990889"><ele>259.0</ele><time>2026-03-22T15:15:37Z</time></trkpt><trkpt lat="44.28644091503442" lon="11.452061848333944"><ele>259.0</ele><time>2026-03-22T15:15:38Z</time></trkpt><trkpt lat="44.286484224138874" lon="11.451963817790306"><ele>257.0</ele><time>2026-03-22T15:15:39Z</time></trkpt><trkpt lat="44.28651666854486" lon="11.451858429924247"><ele>255.0</ele><time>2026-03-22T15:15:40Z</time></trkpt><trkpt lat="44.28654106398346" lon="11.451734274839296"><ele>253.0</ele><time>2026-03-22T15:15:41Z</time></trkpt><trkpt lat="44.28656871407445" lon="11.451624760775417"><ele>251.0</ele><time>2026-03-22T15:15:42Z</time></trkpt><trkpt lat="44.286618572421204" lon="11.451537547764005"><ele>248.99999999999997</ele><time>2026-03-22T15:15:43Z</time></trkpt><trkpt lat="44.286703502393095" lon="11.451458838312101"><ele>247.0</ele><time>2026-03-22T15:15:44Z</time></trkpt><trkpt lat="44.286807691967475" lon="11.451418487484801"><ele>247.0</ele><time>2026-03-22T15:15:45Z</time></trkpt><trkpt lat="44.28691534055844" lon="11.451390473690644"><ele>247.0</ele><time>2026-03-22T15:15:46Z</time></trkpt><trkpt lat="44.28702446442264" lon="11.451352232940787"><ele>247.0</ele><time>2026-03-22T15:15:47Z</time></trkpt><trkpt lat="44.28711962667692" lon="11.451273694537146"><ele>247.0</ele><time>2026-03-22T15:15:48Z</time></trkpt><trkpt lat="44.28718603372803" lon="11.451155438986744"><ele>247.0</ele><time>2026-03-22T15:15:49Z</time></trkpt><trkpt lat="44.28724702380991" lon="11.45101514184949"><ele>246.5</ele><time>2026-03-22T15:15:50Z</time></trkpt><trkpt lat="44.287304328892986" lon="11.450871478946066"><ele>246.0</ele><time>2026-03-22T15:15:51Z</time></trkpt><trkpt lat="44.287359133261376" lon="11.450728617709084"><ele>245.5</ele><time>2026-03-22T15:15:52Z</time></trkpt><trkpt lat="44.2874056845151" lon="11.450585564642338"><ele>245.0</ele><time>2026-03-22T15:15:53Z</time></trkpt><trkpt lat="44.28745870759376" lon="11.450448078315613"><ele>243.4</ele><time>2026-03-22T15:15:54Z</time></trkpt><trkpt lat="44.28750872820714" lon="11.450320812234365"><ele>241.8</ele><time>2026-03-22T15:15:55Z</time></trkpt><trkpt lat="44.28755340138327" lon="11.450206630640249"><ele>240.2</ele><time>2026-03-22T15:15:56Z</time></trkpt><trkpt lat="44.287596004723554" lon="11.450101993426301"><ele>238.6</ele><time>2026-03-22T15:15:57Z</time></trkpt><trkpt lat="44.28765305650131" lon="11.450000648679335"><ele>237.0</ele><time>2026-03-22T15:15:58Z</time></trkpt><trkpt lat="44.28773178771091" lon="11.449906134998866"><ele>237.0</ele><time>2026-03-22T15:15:59Z</time></trkpt><trkpt lat="44.287829323593655" lon="11.449827428536683"><ele>237.0</ele><time>2026-03-22T15:16:00Z</time></trkpt><trkpt lat="44.28793736328502" lon="11.449775473076592"><ele>237.0</ele><time>2026-03-22T15:16:01Z</time></trkpt><trkpt lat="44.28804630919273" lon="11.449735321720386"><ele>237.0</ele><time>2026-03-22T15:16:02Z</time></trkpt><trkpt lat="44.28815883515638" lon="11.449686596383396"><ele>236.5</ele><time>2026-03-22T15:16:03Z</time></trkpt><trkpt lat="44.28827166988178" lon="11.449628053998953"><ele>236.0</ele><time>2026-03-22T15:16:04Z</time></trkpt><trkpt lat="44.28838213457854" lon="11.449549344415042"><ele>235.5</ele><time>2026-03-22T15:16:05Z</time></trkpt><trkpt lat="44.28850497558162" lon="11.449475243951817"><ele>235.0</ele><time>2026-03-22T15:16:06Z</time></trkpt><trkpt lat="44.28864150373732" lon="11.449418292390144"><ele>235.0</ele><time>2026-03-22T15:16:07Z</time></trkpt><trkpt lat="44.288794751869666" lon="11.449381142815511"><ele>235.0</ele><time>2026-03-22T15:16:08Z</time></trkpt><trkpt lat="44.28896209697682" lon="11.449366601568409"><ele>235.0</ele><time>2026-03-22T15:16:09Z</time></trkpt><trkpt lat="44.2891067940134" lon="11.449357305153686"><ele>235.0</ele><time>2026-03-22T15:16:10Z</time></trkpt><trkpt lat="44.28924090864142" lon="11.449344079114061"><ele>235.0</ele><time>2026-03-22T15:16:11Z</time></trkpt><trkpt lat="44.28937128718615" lon="11.449330993706912"><ele>235.0</ele><time>2026-03-22T15:16:12Z</time></trkpt><trkpt lat="44.289510669824715" lon="11.449318150204377"><ele>235.0</ele><time>2026-03-22T15:16:13Z</time></trkpt><trkpt lat="44.28964836607958" lon="11.449300636771799"><ele>235.5</ele><time>2026-03-22T15:16:14Z</time></trkpt><trkpt lat="44.2897763950685" lon="11.449273397299033"><ele>236.0</ele><time>2026-03-22T15:16:15Z</time></trkpt><trkpt lat="44.28988769853214" lon="11.449241402040116"><ele>236.5</ele><time>2026-03-22T15:16:16Z</time></trkpt><trkpt lat="44.289997407932695" lon="11.44919590249918"><ele>237.0</ele><time>2026-03-22T15:16:17Z</time></trkpt><trkpt lat="44.290105945369675" lon="11.449112614830915"><ele>237.0</ele><time>2026-03-22T15:16:18Z</time></trkpt><trkpt lat="44.290212940670436" lon="11.449001834679406"><ele>237.0</ele><time>2026-03-22T15:16:19Z</time></trkpt><trkpt lat="44.29031761167358" lon="11.44888365788026"><ele>237.0</ele><time>2026-03-22T15:16:20Z</time></trkpt><trkpt lat="44.29042583299013" lon="11.44876585035907"><ele>237.0</ele><time>2026-03-22T15:16:21Z</time></trkpt><trkpt lat="44.29052330229719" lon="11.44866838683341"><ele>235.75</ele><time>2026-03-22T15:16:22Z</time></trkpt><trkpt lat="44.29062903268647" lon="11.44858007892729"><ele>234.5</ele><time>2026-03-22T15:16:23Z</time></trkpt><trkpt lat="44.29074412212123" lon="11.448511013939845"><ele>233.25</ele><time>2026-03-22T15:16:24Z</time></trkpt><trkpt lat="44.290857160092465" lon="11.44846791820587"><ele>232.0</ele><time>2026-03-22T15:16:25Z</time></trkpt><trkpt lat="44.29098247885251" lon="11.448436277853745"><ele>232.0</ele><time>2026-03-22T15:16:26Z</time></trkpt><trkpt lat="44.29111711954363" lon="11.448415286399447"><ele>232.0</ele><time>2026-03-22T15:16:27Z</time></trkpt><trkpt lat="44.29125607456845" lon="11.448400685479239"><ele>232.0</ele><time>2026-03-22T15:16:28Z</time></trkpt><trkpt lat="44.2913821466463" lon="11.448393158349758"><ele>232.0</ele><time>2026-03-22T15:16:29Z</time></trkpt><trkpt lat="44.29149610974215" lon="11.448391161959515"><ele>232.2</ele><time>2026-03-22T15:16:30Z</time></trkpt><trkpt lat="44.291604374862786" lon="11.448389883823294"><ele>232.39999999999998</ele><time>2026-03-22T15:16:31Z</time></trkpt><trkpt lat="44.29170906975978" lon="11.448389954062279"><ele>232.60000000000002</ele><time>2026-03-22T15:16:32Z</time></trkpt><trkpt lat="44.291812966987706" lon="11.448406735760793"><ele>232.8</ele><time>2026-03-22T15:16:33Z</time></trkpt><trkpt lat="44.291925329306956" lon="11.448449046696192"><ele>233.0</ele><time>2026-03-22T15:16:34Z</time></trkpt><trkpt lat="44.292035488368114" lon="11.448495081449629"><ele>233.0</ele><time>2026-03-22T15:16:35Z</time></trkpt><trkpt lat="44.292135071460635" lon="11.448538365626009"><ele>233.0</ele><time>2026-03-22T15:16:36Z</time></trkpt><trkpt lat="44.292231221708604" lon="11.448586723217124"><ele>233.0</ele><time>2026-03-22T15:16:37Z</time></trkpt><trkpt lat="44.29232076070344" lon="11.448637351876343"><ele>233.0</ele><time>2026-03-22T15:16:38Z</time></trkpt><trkpt lat="44.29240498460888" lon="11.44868329522399"><ele>233.0</ele><time>2026-03-22T15:16:39Z</time></trkpt><trkpt lat="44.292494468187165" lon="11.448715163969228"><ele>232.0</ele><time>2026-03-22T15:16:40Z</time></trkpt><trkpt lat="44.292587592175735" lon="11.448702454322571"><ele>231.0</ele><time>2026-03-22T15:16:41Z</time></trkpt><trkpt lat="44.29266972473474" lon="11.448628805422198"><ele>230.0</ele><time>2026-03-22T15:16:42Z</time></trkpt><trkpt lat="44.292739381012595" lon="11.44851251760969"><ele>229.0</ele><time>2026-03-22T15:16:43Z</time></trkpt><trkpt lat="44.29280690594308" lon="11.448393710988649"><ele>228.0</ele><time>2026-03-22T15:16:44Z</time></trkpt><trkpt lat="44.29287259592799" lon="11.448273439588254"><ele>228.0</ele><time>2026-03-22T15:16:45Z</time></trkpt><trkpt lat="44.2929370531676" lon="11.448153079651966"><ele>228.0</ele><time>2026-03-22T15:16:46Z</time></trkpt><trkpt lat="44.293004338111444" lon="11.44805817661603"><ele>228.0</ele><time>2026-03-22T15:16:47Z</time></trkpt><trkpt lat="44.293076624837454" lon="11.447983593912797"><ele>228.0</ele><time>2026-03-22T15:16:48Z</time></trkpt><trkpt lat="44.29315002404096" lon="11.447922760829073"><ele>228.0</ele><time>2026-03-22T15:16:49Z</time></trkpt><trkpt lat="44.29322859005752" lon="11.447877120033999"><ele>228.4</ele><time>2026-03-22T15:16:50Z</time></trkpt><trkpt lat="44.29331269554236" lon="11.447875968586551"><ele>228.8</ele><time>2026-03-22T15:16:51Z</time></trkpt><trkpt lat="44.29340693447762" lon="11.44790338334737"><ele>229.2</ele><time>2026-03-22T15:16:52Z</time></trkpt><trkpt lat="44.29350422445331" lon="11.447972863378002"><ele>229.6</ele><time>2026-03-22T15:16:53Z</time></trkpt><trkpt lat="44.29358135973624" lon="11.44807418803936"><ele>230.0</ele><time>2026-03-22T15:16:54Z</time></trkpt><trkpt lat="44.29365692301445" lon="11.448183611095038"><ele>230.0</ele><time>2026-03-22T15:16:55Z</time></trkpt><trkpt lat="44.29374325553214" lon="11.448263611611718"><ele>230.0</ele><time>2026-03-22T15:16:56Z</time></trkpt><trkpt lat="44.29385350286495" lon="11.44829668756896"><ele>230.0</ele><time>2026-03-22T15:16:57Z</time></trkpt><trkpt lat="44.293976561270185" lon="11.448282997435975"><ele>230.0</ele><time>2026-03-22T15:16:58Z</time></trkpt><trkpt lat="44.29410259152179" lon="11.448245705826357"><ele>230.0</ele><time>2026-03-22T15:16:59Z</time></trkpt><trkpt lat="44.29422353055059" lon="11.44819650639315"><ele>230.0</ele><time>2026-03-22T15:17:00Z</time></trkpt><trkpt lat="44.29433294897027" lon="11.44814231022728"><ele>230.0</ele><time>2026-03-22T15:17:01Z</time></trkpt><trkpt lat="44.294431128847705" lon="11.448068158453141"><ele>230.0</ele><time>2026-03-22T15:17:02Z</time></trkpt><trkpt lat="44.29453448338602" lon="11.44795346865595"><ele>229.25</ele><time>2026-03-22T15:17:03Z</time></trkpt><trkpt lat="44.294637582146414" lon="11.447808135141644"><ele>228.5</ele><time>2026-03-22T15:17:04Z</time></trkpt><trkpt lat="44.294729556515534" lon="11.447680770878684"><ele>227.75</ele><time>2026-03-22T15:17:05Z</time></trkpt><trkpt lat="44.2948118759409" lon="11.44757164256757"><ele>227.0</ele><time>2026-03-22T15:17:06Z</time></trkpt><trkpt lat="44.29489766635465" lon="11.447471442736216"><ele>227.0</ele><time>2026-03-22T15:17:07Z</time></trkpt><trkpt lat="44.29498995573906" lon="11.447369210248386"><ele>227.0</ele><time>2026-03-22T15:17:08Z</time></trkpt><trkpt lat="44.29507640571349" lon="11.447272426250054"><ele>227.0</ele><time>2026-03-22T15:17:09Z</time></trkpt><trkpt lat="44.295153103291476" lon="11.44717917260399"><ele>227.0</ele><time>2026-03-22T15:17:10Z</time></trkpt><trkpt lat="44.295223908728396" lon="11.447095135883764"><ele>227.0</ele><time>2026-03-22T15:17:11Z</time></trkpt><trkpt lat="44.29530551376251" lon="11.44702171586978"><ele>225.0</ele><time>2026-03-22T15:17:12Z</time></trkpt><trkpt lat="44.29541112651524" lon="11.44697294450997"><ele>223.0</ele><time>2026-03-22T15:17:13Z</time></trkpt><trkpt lat="44.29552792791909" lon="11.446956645896986"><ele>221.0</ele><time>2026-03-22T15:17:14Z</time></trkpt><trkpt lat="44.29565031268427" lon="11.446972096513763"><ele>219.0</ele><time>2026-03-22T15:17:15Z</time></trkpt><trkpt lat="44.29577624611977" lon="11.44702014504726"><ele>218.5</ele><time>2026-03-22T15:17:16Z</time></trkpt><trkpt lat="44.295894058856234" lon="11.447072799644141"><ele>218.0</ele><time>2026-03-22T15:17:17Z</time></trkpt><trkpt lat="44.29600355223777" lon="11.447139591977084"><ele>217.5</ele><time>2026-03-22T15:17:18Z</time></trkpt><trkpt lat="44.29609965583649" lon="11.447218768325449"><ele>217.0</ele><time>2026-03-22T15:17:19Z</time></trkpt><trkpt lat="44.29619103216271" lon="11.447298099986666"><ele>219.25</ele><time>2026-03-22T15:17:20Z</time></trkpt><trkpt lat="44.29629142850618" lon="11.447363623472988"><ele>221.5</ele><time>2026-03-22T15:17:21Z</time></trkpt><trkpt lat="44.29640213949294" lon="11.44738729272119"><ele>223.75</ele><time>2026-03-22T15:17:22Z</time></trkpt><trkpt lat="44.29651998453345" lon="11.447378226345563"><ele>226.0</ele><time>2026-03-22T15:17:23Z</time></trkpt><trkpt lat="44.296631550707424" lon="11.447371069470256"><ele>226.0</ele><time>2026-03-22T15:17:24Z</time></trkpt><trkpt lat="44.29673094301048" lon="11.447358439317437"><ele>226.00000000000003</ele><time>2026-03-22T15:17:25Z</time></trkpt><trkpt lat="44.29682824216874" lon="11.447314635768192"><ele>226.00000000000003</ele><time>2026-03-22T15:17:26Z</time></trkpt><trkpt lat="44.296923129653386" lon="11.447230019081314"><ele>226.0</ele><time>2026-03-22T15:17:27Z</time></trkpt><trkpt lat="44.297003021774586" lon="11.447125700339946"><ele>226.0</ele><time>2026-03-22T15:17:28Z</time></trkpt><trkpt lat="44.29706818085673" lon="11.447022839199478"><ele>223.60000000000002</ele><time>2026-03-22T15:17:29Z</time></trkpt><trkpt lat="44.297134248173364" lon="11.446930076288233"><ele>221.20000000000002</ele><time>2026-03-22T15:17:30Z</time></trkpt><trkpt lat="44.29722335305942" lon="11.446870467317506"><ele>218.79999999999998</ele><time>2026-03-22T15:17:31Z</time></trkpt><trkpt lat="44.29732693889749" lon="11.446852554237115"><ele>216.39999999999998</ele><time>2026-03-22T15:17:32Z</time></trkpt><trkpt lat="44.29743527040983" lon="11.446873878991436"><ele>214.0</ele><time>2026-03-22T15:17:33Z</time></trkpt><trkpt lat="44.297555080967584" lon="11.44693010358748"><ele>213.75</ele><time>2026-03-22T15:17:34Z</time></trkpt><trkpt lat="44.29768334585293" lon="11.446940179863578"><ele>213.5</ele><time>2026-03-22T15:17:35Z</time></trkpt><trkpt lat="44.29781387324382" lon="11.44691299963151"><ele>213.25</ele><time>2026-03-22T15:17:36Z</time></trkpt><trkpt lat="44.29795364025394" lon="11.446858368638715"><ele>213.0</ele><time>2026-03-22T15:17:37Z</time></trkpt><trkpt lat="44.298091310832866" lon="11.44678542648268"><ele>213.0</ele><time>2026-03-22T15:17:38Z</time></trkpt><trkpt lat="44.29820803309381" lon="11.446723100673026"><ele>213.0</ele><time>2026-03-22T15:17:39Z</time></trkpt><trkpt lat="44.29831444803412" lon="11.446674376224507"><ele>213.0</ele><time>2026-03-22T15:17:40Z</time></trkpt><trkpt lat="44.29840810765676" lon="11.446630599033002"><ele>213.0</ele><time>2026-03-22T15:17:41Z</time></trkpt><trkpt lat="44.29850259283659" lon="11.446590261180319"><ele>213.0</ele><time>2026-03-22T15:17:42Z</time></trkpt><trkpt lat="44.2986042923689" lon="11.446576611116077"><ele>213.0</ele><time>2026-03-22T15:17:43Z</time></trkpt><trkpt lat="44.29871494028527" lon="11.446595722508276"><ele>213.0</ele><time>2026-03-22T15:17:44Z</time></trkpt><trkpt lat="44.29882811878772" lon="11.446650885608294"><ele>213.0</ele><time>2026-03-22T15:17:45Z</time></trkpt><trkpt lat="44.29893803477819" lon="11.446746835171494"><ele>213.0</ele><time>2026-03-22T15:17:46Z</time></trkpt><trkpt lat="44.29905191291308" lon="11.446853039499823"><ele>212.75</ele><time>2026-03-22T15:17:47Z</time></trkpt><trkpt lat="44.299178835739724" lon="11.446928464211181"><ele>212.5</ele><time>2026-03-22T15:17:48Z</time></trkpt><trkpt lat="44.29931212186952" lon="11.446966893269337"><ele>212.25</ele><time>2026-03-22T15:17:49Z</time></trkpt><trkpt lat="44.29944880391896" lon="11.446974917060002"><ele>212.0</ele><time>2026-03-22T15:17:50Z</time></trkpt><trkpt lat="44.29958575200617" lon="11.446966085535179"><ele>212.0</ele><time>2026-03-22T15:17:51Z</time></trkpt><trkpt lat="44.29971891937212" lon="11.446972371667988"><ele>212.0</ele><time>2026-03-22T15:17:52Z</time></trkpt><trkpt lat="44.29984022531618" lon="11.44701841279479"><ele>212.0</ele><time>2026-03-22T15:17:53Z</time></trkpt><trkpt lat="44.29996649784642" lon="11.44709513647206"><ele>212.0</ele><time>2026-03-22T15:17:54Z</time></trkpt><trkpt lat="44.30010715002088" lon="11.447175291092767"><ele>211.75</ele><time>2026-03-22T15:17:55Z</time></trkpt><trkpt lat="44.30025453679396" lon="11.447243766091713"><ele>211.5</ele><time>2026-03-22T15:17:56Z</time></trkpt><trkpt lat="44.300396573399155" lon="11.447305300186652"><ele>211.25</ele><time>2026-03-22T15:17:57Z</time></trkpt><trkpt lat="44.300528468357435" lon="11.447358515067688"><ele>211.0</ele><time>2026-03-22T15:17:58Z</time></trkpt><trkpt lat="44.30064625203678" lon="11.44744012500001"><ele>211.0</ele><time>2026-03-22T15:17:59Z</time></trkpt><trkpt lat="44.300762809414124" lon="11.44753325534795"><ele>211.0</ele><time>2026-03-22T15:18:00Z</time></trkpt><trkpt lat="44.30089105910018" lon="11.447621086493033"><ele>211.0</ele><time>2026-03-22T15:18:01Z</time></trkpt><trkpt lat="44.3010100461913" lon="11.447732278742691"><ele>211.0</ele><time>2026-03-22T15:18:02Z</time></trkpt><trkpt lat="44.30113406765664" lon="11.447843023431172"><ele>211.0</ele><time>2026-03-22T15:18:03Z</time></trkpt><trkpt lat="44.301237035612544" lon="11.447963708303071"><ele>211.0</ele><time>2026-03-22T15:18:04Z</time></trkpt><trkpt lat="44.301348932331486" lon="11.44808838405536"><ele>211.0</ele><time>2026-03-22T15:18:05Z</time></trkpt><trkpt lat="44.30145082636282" lon="11.44821996473835"><ele>211.0</ele><time>2026-03-22T15:18:06Z</time></trkpt><trkpt lat="44.301550969868224" lon="11.448333066575263"><ele>210.99999999999997</ele><time>2026-03-22T15:18:07Z</time></trkpt><trkpt lat="44.301626896059155" lon="11.448442241440613"><ele>211.0</ele><time>2026-03-22T15:18:08Z</time></trkpt><trkpt lat="44.30168567747293" lon="11.448562367490263"><ele>211.0</ele><time>2026-03-22T15:18:09Z</time></trkpt><trkpt lat="44.301752867634086" lon="11.448631664319207"><ele>211.0</ele><time>2026-03-22T15:18:10Z</time></trkpt><trkpt lat="44.301801005085345" lon="11.448709169860535"><ele>210.99999999999997</ele><time>2026-03-22T15:18:11Z</time></trkpt><trkpt lat="44.30184697012507" lon="11.448782848190922"><ele>211.0</ele><time>2026-03-22T15:18:12Z</time></trkpt><trkpt lat="44.30191906426644" lon="11.448836417086364"><ele>211.0</ele><time>2026-03-22T15:18:13Z</time></trkpt><trkpt lat="44.30201317540334" lon="11.448862705682414"><ele>211.0</ele><time>2026-03-22T15:18:14Z</time></trkpt><trkpt lat="44.30211214314997" lon="11.448833532150388"><ele>211.0</ele><time>2026-03-22T15:18:15Z</time></trkpt><trkpt lat="44.302218102061865" lon="11.4487715883244"><ele>211.0</ele><time>2026-03-22T15:18:16Z</time></trkpt><trkpt lat="44.302319172276555" lon="11.448711802366448"><ele>211.0</ele><time>2026-03-22T15:18:17Z</time></trkpt><trkpt lat="44.30241426840041" lon="11.448664674350526"><ele>210.5</ele><time>2026-03-22T15:18:18Z</time></trkpt><trkpt lat="44.3025150824438" lon="11.448614986811126"><ele>210.0</ele><time>2026-03-22T15:18:19Z</time></trkpt><trkpt lat="44.30262269705717" lon="11.448557731233048"><ele>209.5</ele><time>2026-03-22T15:18:20Z</time></trkpt><trkpt lat="44.302735857655975" lon="11.448534304379274"><ele>209.0</ele><time>2026-03-22T15:18:21Z</time></trkpt><trkpt lat="44.30285923495995" lon="11.4485578606599"><ele>209.0</ele><time>2026-03-22T15:18:22Z</time></trkpt><trkpt lat="44.30299356727313" lon="11.448616066592972"><ele>209.0</ele><time>2026-03-22T15:18:23Z</time></trkpt><trkpt lat="44.30311174165604" lon="11.448736674757658"><ele>209.0</ele><time>2026-03-22T15:18:24Z</time></trkpt><trkpt lat="44.30322765780222" lon="11.448872912602376"><ele>209.0</ele><time>2026-03-22T15:18:25Z</time></trkpt><trkpt lat="44.30332099002427" lon="11.44902352496227"><ele>209.25</ele><time>2026-03-22T15:18:26Z</time></trkpt><trkpt lat="44.303422992284624" lon="11.449164383144584"><ele>209.5</ele><time>2026-03-22T15:18:27Z</time></trkpt><trkpt lat="44.30351924656758" lon="11.44930596324543"><ele>209.75</ele><time>2026-03-22T15:18:28Z</time></trkpt><trkpt lat="44.30363365499429" lon="11.449423172708805"><ele>210.0</ele><time>2026-03-22T15:18:29Z</time></trkpt><trkpt lat="44.3037780987166" lon="11.449533083589703"><ele>209.66666666666669</ele><time>2026-03-22T15:18:30Z</time></trkpt><trkpt lat="44.303926387330506" lon="11.449660533569427"><ele>209.33333333333334</ele><time>2026-03-22T15:18:31Z</time></trkpt><trkpt lat="44.30406103892412" lon="11.449791523902604"><ele>209.0</ele><time>2026-03-22T15:18:32Z</time></trkpt><trkpt lat="44.30418254935662" lon="11.449912208055384"><ele>209.0</ele><time>2026-03-22T15:18:33Z</time></trkpt><trkpt lat="44.30429799115628" lon="11.45001835384305"><ele>209.0</ele><time>2026-03-22T15:18:34Z</time></trkpt><trkpt lat="44.304415348553476" lon="11.450135630727365"><ele>209.0</ele><time>2026-03-22T15:18:35Z</time></trkpt><trkpt lat="44.30453138695684" lon="11.450264643646868"><ele>209.0</ele><time>2026-03-22T15:18:36Z</time></trkpt><trkpt lat="44.30465490000695" lon="11.450404663220949"><ele>207.0</ele><time>2026-03-22T15:18:37Z</time></trkpt><trkpt lat="44.30479197023119" lon="11.450530307046344"><ele>205.0</ele><time>2026-03-22T15:18:38Z</time></trkpt><trkpt lat="44.30492692415056" lon="11.450626468484353"><ele>203.0</ele><time>2026-03-22T15:18:39Z</time></trkpt><trkpt lat="44.305059085439986" lon="11.450699447822307"><ele>203.0</ele><time>2026-03-22T15:18:40Z</time></trkpt><trkpt lat="44.30519366415553" lon="11.45076547667659"><ele>203.0</ele><time>2026-03-22T15:18:41Z</time></trkpt><trkpt lat="44.3053345140643" lon="11.450839615393038"><ele>203.0</ele><time>2026-03-22T15:18:42Z</time></trkpt><trkpt lat="44.30547365198269" lon="11.450935757990518"><ele>203.0</ele><time>2026-03-22T15:18:43Z</time></trkpt><trkpt lat="44.305599377448054" lon="11.451052537333416"><ele>203.0</ele><time>2026-03-22T15:18:44Z</time></trkpt><trkpt lat="44.305701197828164" lon="11.451173993765432"><ele>203.0</ele><time>2026-03-22T15:18:45Z</time></trkpt><trkpt lat="44.30579322709526" lon="11.451299253002604"><ele>203.0</ele><time>2026-03-22T15:18:46Z</time></trkpt><trkpt lat="44.30587494139442" lon="11.451428436595418"><ele>203.0</ele><time>2026-03-22T15:18:47Z</time></trkpt><trkpt lat="44.30594656856611" lon="11.451563620082348"><ele>203.0</ele><time>2026-03-22T15:18:48Z</time></trkpt><trkpt lat="44.30600277651507" lon="11.451714699669985"><ele>203.0</ele><time>2026-03-22T15:18:49Z</time></trkpt><trkpt lat="44.30603679889475" lon="11.451895902243868"><ele>203.0</ele><time>2026-03-22T15:18:50Z</time></trkpt><trkpt lat="44.3060784563118" lon="11.452084217179026"><ele>203.0</ele><time>2026-03-22T15:18:51Z</time></trkpt><trkpt lat="44.306141369222594" lon="11.452259188272587"><ele>201.75</ele><time>2026-03-22T15:18:52Z</time></trkpt><trkpt lat="44.306209160063865" lon="11.452430559775921"><ele>200.5</ele><time>2026-03-22T15:18:53Z</time></trkpt><trkpt lat="44.306304949929626" lon="11.452574972901203"><ele>199.25</ele><time>2026-03-22T15:18:54Z</time></trkpt><trkpt lat="44.30642681800435" lon="11.452704943174586"><ele>198.0</ele><time>2026-03-22T15:18:55Z</time></trkpt><trkpt lat="44.30656477659782" lon="11.452821678918914"><ele>198.0</ele><time>2026-03-22T15:18:56Z</time></trkpt><trkpt lat="44.30670268000692" lon="11.452934608885862"><ele>198.0</ele><time>2026-03-22T15:18:57Z</time></trkpt><trkpt lat="44.30682651421545" lon="11.453042457943663"><ele>198.0</ele><time>2026-03-22T15:18:58Z</time></trkpt><trkpt lat="44.306946796081995" lon="11.453167513340102"><ele>198.0</ele><time>2026-03-22T15:18:59Z</time></trkpt><trkpt lat="44.30702275829211" lon="11.453351198286931"><ele>198.0</ele><time>2026-03-22T15:19:00Z</time></trkpt><trkpt lat="44.307101090659245" lon="11.453540771497922"><ele>198.0</ele><time>2026-03-22T15:19:01Z</time></trkpt><trkpt lat="44.30719178330265" lon="11.453725502228409"><ele>199.5</ele><time>2026-03-22T15:19:02Z</time></trkpt><trkpt lat="44.30727062987377" lon="11.453916883160527"><ele>201.0</ele><time>2026-03-22T15:19:03Z</time></trkpt><trkpt lat="44.30734725595752" lon="11.454086226615162"><ele>202.5</ele><time>2026-03-22T15:19:04Z</time></trkpt><trkpt lat="44.30741618541961" lon="11.454246247881686"><ele>204.0</ele><time>2026-03-22T15:19:05Z</time></trkpt><trkpt lat="44.30748143809112" lon="11.45440357793048"><ele>204.0</ele><time>2026-03-22T15:19:06Z</time></trkpt><trkpt lat="44.30754919992064" lon="11.454568388099524"><ele>204.0</ele><time>2026-03-22T15:19:07Z</time></trkpt><trkpt lat="44.30759998853878" lon="11.454756844807095"><ele>204.0</ele><time>2026-03-22T15:19:08Z</time></trkpt><trkpt lat="44.30766633489402" lon="11.45494897201038"><ele>204.0</ele><time>2026-03-22T15:19:09Z</time></trkpt><trkpt lat="44.30774518047657" lon="11.455137752235473"><ele>201.66666666666669</ele><time>2026-03-22T15:19:10Z</time></trkpt><trkpt lat="44.30781359644693" lon="11.455350791136638"><ele>199.33333333333334</ele><time>2026-03-22T15:19:11Z</time></trkpt><trkpt lat="44.30788816693233" lon="11.455561549484365"><ele>197.0</ele><time>2026-03-22T15:19:12Z</time></trkpt><trkpt lat="44.30794557708655" lon="11.455757652910862"><ele>196.25</ele><time>2026-03-22T15:19:13Z</time></trkpt><trkpt lat="44.308005892547456" lon="11.45593548994093"><ele>195.5</ele><time>2026-03-22T15:19:14Z</time></trkpt><trkpt lat="44.30806466462365" lon="11.45612475568898"><ele>194.75</ele><time>2026-03-22T15:19:15Z</time></trkpt><trkpt lat="44.30811987365765" lon="11.45631260682071"><ele>194.0</ele><time>2026-03-22T15:19:16Z</time></trkpt><trkpt lat="44.3081814958122" lon="11.456478472708659"><ele>194.0</ele><time>2026-03-22T15:19:17Z</time></trkpt><trkpt lat="44.30820537032142" lon="11.456652223347563"><ele>194.0</ele><time>2026-03-22T15:19:18Z</time></trkpt><trkpt lat="44.308259773154575" lon="11.456810813775627"><ele>194.0</ele><time>2026-03-22T15:19:19Z</time></trkpt><trkpt lat="44.3083053438461" lon="11.456972350856223"><ele>194.0</ele><time>2026-03-22T15:19:20Z</time></trkpt><trkpt lat="44.308362451962104" lon="11.457121599958334"><ele>193.25</ele><time>2026-03-22T15:19:21Z</time></trkpt><trkpt lat="44.30842526326403" lon="11.457267960852025"><ele>192.5</ele><time>2026-03-22T15:19:22Z</time></trkpt><trkpt lat="44.30850885593416" lon="11.457386701944625"><ele>191.75</ele><time>2026-03-22T15:19:23Z</time></trkpt><trkpt lat="44.3086137668938" lon="11.457470380325905"><ele>191.0</ele><time>2026-03-22T15:19:24Z</time></trkpt><trkpt lat="44.30873549695539" lon="11.457546103072847"><ele>191.0</ele><time>2026-03-22T15:19:25Z</time></trkpt><trkpt lat="44.308859285938865" lon="11.45761368177254"><ele>191.0</ele><time>2026-03-22T15:19:26Z</time></trkpt><trkpt lat="44.30898771406896" lon="11.457677409575728"><ele>191.0</ele><time>2026-03-22T15:19:27Z</time></trkpt><trkpt lat="44.309117697498046" lon="11.457750486828303"><ele>191.0</ele><time>2026-03-22T15:19:28Z</time></trkpt><trkpt lat="44.309238378372875" lon="11.457830226982681"><ele>191.0</ele><time>2026-03-22T15:19:29Z</time></trkpt><trkpt lat="44.30935286659093" lon="11.457907871627365"><ele>191.0</ele><time>2026-03-22T15:19:30Z</time></trkpt><trkpt lat="44.309451578739065" lon="11.45796904679775"><ele>191.0</ele><time>2026-03-22T15:19:31Z</time></trkpt><trkpt lat="44.30955143110558" lon="11.45802781237009"><ele>191.0</ele><time>2026-03-22T15:19:32Z</time></trkpt><trkpt lat="44.30964136336914" lon="11.458085093539044"><ele>191.0</ele><time>2026-03-22T15:19:33Z</time></trkpt><trkpt lat="44.30971596529831" lon="11.458144172550433"><ele>191.16666666666666</ele><time>2026-03-22T15:19:34Z</time></trkpt><trkpt lat="44.309783712269585" lon="11.458204776240045"><ele>191.33333333333331</ele><time>2026-03-22T15:19:35Z</time></trkpt><trkpt lat="44.30984058605312" lon="11.458259313730064"><ele>191.5</ele><time>2026-03-22T15:19:36Z</time></trkpt><trkpt lat="44.30991834364729" lon="11.458343970780092"><ele>191.66666666666666</ele><time>2026-03-22T15:19:38Z</time></trkpt><trkpt lat="44.30999376597928" lon="11.45837821417764"><ele>191.83333333333334</ele><time>2026-03-22T15:19:40Z</time></trkpt><trkpt lat="44.31005870479373" lon="11.458329460870422"><ele>192.0</ele><time>2026-03-22T15:19:42Z</time></trkpt><trkpt lat="44.31012609852949" lon="11.458283967019783"><ele>192.0</ele><time>2026-03-22T15:19:44Z</time></trkpt><trkpt lat="44.310194375482894" lon="11.458308349504545"><ele>192.0</ele><time>2026-03-22T15:19:46Z</time></trkpt><trkpt lat="44.31026442230795" lon="11.45831578710126"><ele>192.0</ele><time>2026-03-22T15:19:49Z</time></trkpt></trkseg></trk></gpx>